Wetterdaten: Sonntag, 22.04.2018
Datum Zeit Temp. A. Pool Temp. Feuchte A. Luftdruck Regen Wind Richtung Richtung Sonnenschein ET UV Solar Taupunkt Windchill Windben Empfang
22.04.2018 00:00 16,2 C 13,9 C 64 % 1015,2 hPa 0,0 l/m 7,3 km/h (2 Bft) SW 223 0 min 0,000 mm 0,0 UV-I 0 W/m 9,4 C 15,7 C 9,7 km/h (2 Bft) 95,83 %
22.04.2018 00:02 16,1 C 13,9 C 65 % 1015,2 hPa 0,0 l/m 7,4 km/h (2 Bft) S-SW 201 0 min 0,000 mm 0,0 UV-I 0 W/m 9,5 C 15,6 C 11,3 km/h (2 Bft) 96,88 %
22.04.2018 00:03 16,0 C 13,9 C 65 % 1015,1 hPa 0,0 l/m 7,8 km/h (2 Bft) S-SW 211 0 min 0,000 mm 0,0 UV-I 0 W/m 9,4 C 15,3 C 9,7 km/h (2 Bft) 96,88 %
22.04.2018 00:04 16,0 C 13,9 C 65 % 1015,1 hPa 0,0 l/m 7,6 km/h (2 Bft) S-SW 207 0 min 0,000 mm 0,0 UV-I 0 W/m 9,4 C 15,4 C 9,7 km/h (2 Bft) 100,00 %
22.04.2018 00:05 16,0 C 13,9 C 65 % 1015,1 hPa 0,0 l/m 7,2 km/h (2 Bft) S-SW 209 0 min 0,000 mm 0,0 UV-I 0 W/m 9,4 C 15,6 C 8,0 km/h (2 Bft) 95,65 %
22.04.2018 00:06 16,0 C 13,9 C 65 % 1015,2 hPa 0,0 l/m 7,2 km/h (2 Bft) SW 233 0 min 0,000 mm 0,0 UV-I 0 W/m 9,4 C 15,6 C 9,7 km/h (2 Bft) 100,00 %
22.04.2018 00:07 16,1 C 13,9 C 65 % 1015,2 hPa 0,0 l/m 4,9 km/h (1 Bft) NW 304 0 min 0,000 mm 0,0 UV-I 0 W/m 9,5 C 16,1 C 6,4 km/h (2 Bft) 95,65 %
22.04.2018 00:08 16,1 C 13,9 C 65 % 1015,6 hPa 0,0 l/m 12,4 km/h (3 Bft) N 355 0 min 0,000 mm 0,0 UV-I 0 W/m 9,5 C 13,4 C 14,5 km/h (3 Bft) 100,00 %
22.04.2018 00:09 15,9 C 13,9 C 65 % 1015,6 hPa 0,0 l/m 8,8 km/h (2 Bft) N-NO 19 0 min 0,000 mm 0,0 UV-I 0 W/m 9,3 C 14,7 C 12,9 km/h (3 Bft) 95,65 %
22.04.2018 00:10 15,7 C 13,9 C 66 % 1015,5 hPa 0,0 l/m 11,8 km/h (2 Bft) N 9 0 min 0,000 mm 0,0 UV-I 0 W/m 9,4 C 13,2 C 17,7 km/h (3 Bft) 100,00 %
22.04.2018 00:11 15,5 C 13,9 C 68 % 1015,5 hPa 0,0 l/m 8,7 km/h (2 Bft) S 186 0 min 0,000 mm 0,0 UV-I 0 W/m 9,6 C 14,3 C 14,5 km/h (3 Bft) 95,65 %
22.04.2018 00:12 15,6 C 13,9 C 68 % 1015,5 hPa 0,0 l/m 6,1 km/h (2 Bft) W-SW 247 0 min 0,000 mm 0,0 UV-I 0 W/m 9,7 C 15,6 C 9,7 km/h (2 Bft) 100,00 %
22.04.2018 00:13 15,7 C 13,9 C 68 % 1015,3 hPa 0,0 l/m 7,6 km/h (2 Bft) S 176 0 min 0,000 mm 0,0 UV-I 0 W/m 9,8 C 15,0 C 11,3 km/h (2 Bft) 96,15 %
22.04.2018 00:14 15,8 C 13,9 C 68 % 1015,5 hPa 0,0 l/m 6,4 km/h (2 Bft) NW 319 0 min 0,000 mm 0,0 UV-I 0 W/m 9,9 C 15,8 C 8,0 km/h (2 Bft) 96,30 %
22.04.2018 00:15 15,9 C 13,9 C 67 % 1015,6 hPa 0,0 l/m 7,0 km/h (2 Bft) NO 35 0 min 0,000 mm 0,0 UV-I 0 W/m 9,8 C 15,6 C 9,7 km/h (2 Bft) 100,00 %
22.04.2018 00:16 15,9 C 13,9 C 67 % 1015,6 hPa 0,0 l/m 4,3 km/h (1 Bft) S 173 0 min 0,000 mm 0,0 UV-I 0 W/m 9,8 C 15,9 C 6,4 km/h (2 Bft) 100,00 %
22.04.2018 00:17 15,9 C 13,9 C 67 % 1015,5 hPa 0,0 l/m 4,1 km/h (1 Bft) S-SW 192 0 min 0,000 mm 0,0 UV-I 0 W/m 9,8 C 15,9 C 9,7 km/h (2 Bft) 100,00 %
22.04.2018 00:18 15,9 C 13,9 C 67 % 1015,5 hPa 0,0 l/m 8,3 km/h (2 Bft) S 173 0 min 0,000 mm 0,0 UV-I 0 W/m 9,8 C 14,9 C 11,3 km/h (2 Bft) 96,15 %
22.04.2018 00:19 16,0 C 13,9 C 67 % 1015,5 hPa 0,0 l/m 2,6 km/h (1 Bft) S 173 0 min 0,000 mm 0,0 UV-I 0 W/m 9,9 C 16,0 C 3,2 km/h (1 Bft) 100,00 %
22.04.2018 00:20 16,0 C 13,9 C 67 % 1015,6 hPa 0,0 l/m 2,0 km/h (1 Bft) SO 137 0 min 0,000 mm 0,0 UV-I 0 W/m 9,9 C 16,0 C 3,2 km/h (1 Bft) 95,65 %
22.04.2018 00:21 16,1 C 13,9 C 67 % 1015,5 hPa 0,0 l/m 1,8 km/h (1 Bft) SO 136 0 min 0,000 mm 0,0 UV-I 0 W/m 10,0 C 16,1 C 3,2 km/h (1 Bft) 96,30 %
22.04.2018 00:22 16,1 C 13,9 C 67 % 1015,5 hPa 0,0 l/m 1,5 km/h (1 Bft) SO 136 0 min 0,000 mm 0,0 UV-I 0 W/m 10,0 C 16,1 C 1,6 km/h (1 Bft) 100,00 %
22.04.2018 00:23 16,1 C 13,9 C 67 % 1015,5 hPa 0,0 l/m 1,8 km/h (1 Bft) SO 136 0 min 0,000 mm 0,0 UV-I 0 W/m 10,0 C 16,1 C 3,2 km/h (1 Bft) 100,00 %
22.04.2018 00:24 16,1 C 13,9 C 67 % 1015,4 hPa 0,0 l/m 3,8 km/h (1 Bft) W-SW 253 0 min 0,000 mm 0,0 UV-I 0 W/m 10,0 C 16,1 C 4,8 km/h (1 Bft) 100,00 %
22.04.2018 00:25 16,1 C 13,9 C 68 % 1015,4 hPa 0,0 l/m 5,9 km/h (2 Bft) W-SW 255 0 min 0,000 mm 0,0 UV-I 0 W/m 10,2 C 16,1 C 11,3 km/h (2 Bft) 96,97 %
22.04.2018 00:26 16,1 C 13,9 C 67 % 1015,4 hPa 0,0 l/m 8,0 km/h (2 Bft) SW 236 0 min 0,000 mm 0,0 UV-I 0 W/m 10,0 C 15,3 C 9,7 km/h (2 Bft) 100,00 %
22.04.2018 00:27 16,2 C 13,9 C 67 % 1015,4 hPa 0,0 l/m 7,3 km/h (2 Bft) S-SW 212 0 min 0,000 mm 0,0 UV-I 0 W/m 10,1 C 15,7 C 9,7 km/h (2 Bft) 91,67 %
22.04.2018 00:28 16,2 C 13,9 C 67 % 1015,4 hPa 0,0 l/m 5,2 km/h (1 Bft) W-SW 239 0 min 0,000 mm 0,0 UV-I 0 W/m 10,1 C 16,2 C 6,4 km/h (2 Bft) 100,00 %
22.04.2018 00:29 16,3 C 13,9 C 67 % 1015,5 hPa 0,0 l/m 3,2 km/h (1 Bft) W-SW 239 0 min 0,000 mm 0,0 UV-I 0 W/m 10,2 C 16,3 C 6,4 km/h (2 Bft) 100,00 %
22.04.2018 00:30 16,3 C 13,9 C 66 % 1015,5 hPa 0,0 l/m 1,9 km/h (1 Bft) W-SW 239 0 min 0,000 mm 0,0 UV-I 0 W/m 9,9 C 16,3 C 3,2 km/h (1 Bft) 100,00 %
22.04.2018 00:31 16,4 C 13,9 C 66 % 1015,5 hPa 0,0 l/m 2,1 km/h (1 Bft) W-SW 239 0 min 0,000 mm 0,0 UV-I 0 W/m 10,0 C 16,4 C 4,8 km/h (1 Bft) 100,00 %
22.04.2018 00:32 16,3 C 13,9 C 66 % 1015,5 hPa 0,0 l/m 2,5 km/h (1 Bft) W-SW 239 0 min 0,000 mm 0,0 UV-I 0 W/m 9,9 C 16,3 C 4,8 km/h (1 Bft) 100,00 %
22.04.2018 00:33 16,2 C 13,9 C 66 % 1015,5 hPa 0,0 l/m 2,6 km/h (1 Bft) W-SW 239 0 min 0,000 mm 0,0 UV-I 0 W/m 9,8 C 16,2 C 3,2 km/h (1 Bft) 100,00 %
22.04.2018 00:34 16,0 C 13,9 C 67 % 1015,4 hPa 0,0 l/m 2,4 km/h (1 Bft) W-SW 239 0 min 0,000 mm 0,0 UV-I 0 W/m 9,9 C 16,0 C 3,2 km/h (1 Bft) 100,00 %
22.04.2018 00:35 15,9 C 13,9 C 68 % 1015,5 hPa 0,0 l/m 3,4 km/h (1 Bft) W-SW 238 0 min 0,000 mm 0,0 UV-I 0 W/m 10,0 C 15,9 C 4,8 km/h (1 Bft) 100,00 %
22.04.2018 00:36 15,8 C 13,9 C 68 % 1015,5 hPa 0,0 l/m 2,9 km/h (1 Bft) S-SW 202 0 min 0,000 mm 0,0 UV-I 0 W/m 9,9 C 15,8 C 6,4 km/h (2 Bft) 100,00 %
22.04.2018 00:37 15,8 C 13,9 C 68 % 1015,5 hPa 0,0 l/m 6,7 km/h (2 Bft) S-SW 200 0 min 0,000 mm 0,0 UV-I 0 W/m 9,9 C 15,6 C 8,0 km/h (2 Bft) 100,00 %
22.04.2018 00:38 15,9 C 13,9 C 68 % 1015,5 hPa 0,0 l/m 4,2 km/h (1 Bft) S-SW 210 0 min 0,000 mm 0,0 UV-I 0 W/m 10,0 C 15,9 C 4,8 km/h (1 Bft) 100,00 %
22.04.2018 00:39 16,1 C 13,9 C 68 % 1015,5 hPa 0,0 l/m 4,0 km/h (1 Bft) S-SW 209 0 min 0,000 mm 0,0 UV-I 0 W/m 10,2 C 16,1 C 6,4 km/h (2 Bft) 100,00 %
22.04.2018 00:40 16,3 C 13,9 C 66 % 1015,4 hPa 0,0 l/m 5,1 km/h (1 Bft) S-SW 202 0 min 0,000 mm 0,0 UV-I 0 W/m 9,9 C 16,3 C 6,4 km/h (2 Bft) 100,00 %
22.04.2018 00:41 16,4 C 13,9 C 66 % 1015,4 hPa 0,0 l/m 7,3 km/h (2 Bft) S-SW 210 0 min 0,000 mm 0,0 UV-I 0 W/m 10,0 C 15,9 C 8,0 km/h (2 Bft) 100,00 %
22.04.2018 00:42 16,6 C 13,9 C 66 % 1015,4 hPa 0,0 l/m 3,6 km/h (1 Bft) S-SW 210 0 min 0,000 mm 0,0 UV-I 0 W/m 10,2 C 16,6 C 6,4 km/h (2 Bft) 100,00 %
22.04.2018 00:43 16,6 C 13,9 C 66 % 1015,4 hPa 0,0 l/m 2,9 km/h (1 Bft) S-SW 210 0 min 0,000 mm 0,0 UV-I 0 W/m 10,2 C 16,6 C 4,8 km/h (1 Bft) 100,00 %
22.04.2018 00:44 16,6 C 13,9 C 65 % 1015,5 hPa 0,0 l/m 2,8 km/h (1 Bft) S-SW 210 0 min 0,000 mm 0,0 UV-I 0 W/m 10,0 C 16,6 C 3,2 km/h (1 Bft) 100,00 %
22.04.2018 00:45 16,6 C 13,9 C 65 % 1015,6 hPa 0,0 l/m 3,2 km/h (1 Bft) S-SW 211 0 min 0,000 mm 0,0 UV-I 0 W/m 10,0 C 16,6 C 4,8 km/h (1 Bft) 100,00 %
22.04.2018 00:46 16,7 C 13,9 C 65 % 1015,6 hPa 0,0 l/m 2,7 km/h (1 Bft) S-SW 211 0 min 0,000 mm 0,0 UV-I 0 W/m 10,1 C 16,7 C 3,2 km/h (1 Bft) 100,00 %
22.04.2018 00:47 16,6 C 13,9 C 65 % 1015,5 hPa 0,0 l/m 4,6 km/h (1 Bft) NW 312 0 min 0,000 mm 0,0 UV-I 0 W/m 10,0 C 16,6 C 6,4 km/h (2 Bft) 100,00 %
22.04.2018 00:48 16,6 C 13,9 C 65 % 1015,5 hPa 0,0 l/m 2,7 km/h (1 Bft) NW 312 0 min 0,000 mm 0,0 UV-I 0 W/m 10,0 C 16,6 C 4,8 km/h (1 Bft) 100,00 %
22.04.2018 00:49 16,6 C 13,9 C 65 % 1015,5 hPa 0,0 l/m 2,7 km/h (1 Bft) NW 312 0 min 0,000 mm 0,0 UV-I 0 W/m 10,0 C 16,6 C 3,2 km/h (1 Bft) 100,00 %
22.04.2018 00:50 16,6 C 13,9 C 65 % 1015,5 hPa 0,0 l/m 4,8 km/h (1 Bft) SW 223 0 min 0,000 mm 0,0 UV-I 0 W/m 10,0 C 16,6 C 8,0 km/h (2 Bft) 100,00 %
22.04.2018 00:51 16,6 C 13,9 C 65 % 1015,5 hPa 0,0 l/m 5,4 km/h (1 Bft) SW 224 0 min 0,000 mm 0,0 UV-I 0 W/m 10,0 C 16,6 C 8,0 km/h (2 Bft) 100,00 %
22.04.2018 00:52 16,7 C 13,9 C 64 % 1015,5 hPa 0,0 l/m 3,8 km/h (1 Bft) SW 236 0 min 0,000 mm 0,0 UV-I 0 W/m 9,9 C 16,7 C 4,8 km/h (1 Bft) 96,55 %
22.04.2018 00:53 16,7 C 13,9 C 64 % 1015,5 hPa 0,0 l/m 4,4 km/h (1 Bft) SW 236 0 min 0,000 mm 0,0 UV-I 0 W/m 9,9 C 16,7 C 4,8 km/h (1 Bft) 100,00 %
22.04.2018 00:54 16,8 C 13,9 C 64 % 1015,5 hPa 0,0 l/m 3,1 km/h (1 Bft) SW 236 0 min 0,000 mm 0,0 UV-I 0 W/m 10,0 C 16,8 C 4,8 km/h (1 Bft) 100,00 %
22.04.2018 00:55 16,7 C 13,9 C 64 % 1015,5 hPa 0,0 l/m 2,3 km/h (1 Bft) SW 236 0 min 0,000 mm 0,0 UV-I 0 W/m 9,9 C 16,7 C 3,2 km/h (1 Bft) 100,00 %
22.04.2018 00:56 16,7 C 13,9 C 64 % 1015,5 hPa 0,0 l/m 2,1 km/h (1 Bft) SW 236 0 min 0,000 mm 0,0 UV-I 0 W/m 9,9 C 16,7 C 3,2 km/h (1 Bft) 100,00 %
22.04.2018 00:57 16,6 C 13,9 C 64 % 1015,5 hPa 0,0 l/m 2,4 km/h (1 Bft) SW 236 0 min 0,000 mm 0,0 UV-I 0 W/m 9,8 C 16,6 C 4,8 km/h (1 Bft) 100,00 %
22.04.2018 00:58 16,3 C 13,9 C 65 % 1015,5 hPa 0,0 l/m 2,2 km/h (1 Bft) SW 236 0 min 0,000 mm 0,0 UV-I 0 W/m 9,7 C 16,3 C 3,2 km/h (1 Bft) 100,00 %
22.04.2018 00:59 15,9 C 13,9 C 67 % 1015,5 hPa 0,0 l/m 1,1 km/h (1 Bft) SW 236 0 min 0,000 mm 0,0 UV-I 0 W/m 9,8 C 15,9 C 1,6 km/h (1 Bft) 100,00 %
22.04.2018 01:00 15,7 C 13,9 C 67 % 1015,5 hPa 0,0 l/m 0,4 km/h (0 Bft) SW 236 0 min 0,025 mm 0,0 UV-I 0 W/m 9,6 C 15,7 C 3,2 km/h (1 Bft) 100,00 %
22.04.2018 01:01 15,5 C 13,9 C 68 % 1015,5 hPa 0,0 l/m 2,4 km/h (1 Bft) SW 236 0 min 0,000 mm 0,0 UV-I 0 W/m 9,6 C 15,5 C 3,2 km/h (1 Bft) 100,00 %
22.04.2018 01:02 15,4 C 13,9 C 69 % 1015,5 hPa 0,0 l/m 3,1 km/h (1 Bft) SW 236 0 min 0,000 mm 0,0 UV-I 0 W/m 9,7 C 15,4 C 4,8 km/h (1 Bft) 100,00 %
22.04.2018 01:03 15,3 C 13,9 C 70 % 1015,5 hPa 0,0 l/m 3,4 km/h (1 Bft) SW 236 0 min 0,000 mm 0,0 UV-I 0 W/m 9,9 C 15,3 C 4,8 km/h (1 Bft) 100,00 %
22.04.2018 01:04 15,3 C 13,9 C 69 % 1015,5 hPa 0,0 l/m 3,2 km/h (1 Bft) SW 236 0 min 0,000 mm 0,0 UV-I 0 W/m 9,6 C 15,3 C 3,2 km/h (1 Bft) 95,65 %
22.04.2018 01:05 15,3 C 13,9 C 70 % 1015,5 hPa 0,0 l/m 2,6 km/h (1 Bft) SW 236 0 min 0,000 mm 0,0 UV-I 0 W/m 9,9 C 15,3 C 3,2 km/h (1 Bft) 99,00 %
22.04.2018 01:06 15,2 C 13,9 C 69 % 1015,5 hPa 0,0 l/m 2,0 km/h (1 Bft) SW 236 0 min 0,000 mm 0,0 UV-I 0 W/m 9,6 C 15,2 C 3,2 km/h (1 Bft) 100,00 %
22.04.2018 01:07 15,1 C 13,9 C 70 % 1015,5 hPa 0,0 l/m 2,5 km/h (1 Bft) SW 236 0 min 0,000 mm 0,0 UV-I 0 W/m 9,7 C 15,1 C 3,2 km/h (1 Bft) 100,00 %
22.04.2018 01:08 15,0 C 13,9 C 70 % 1015,5 hPa 0,0 l/m 2,6 km/h (1 Bft) SW 236 0 min 0,000 mm 0,0 UV-I 0 W/m 9,6 C 15,0 C 3,2 km/h (1 Bft) 100,00 %
22.04.2018 01:09 14,8 C 13,9 C 71 % 1015,5 hPa 0,0 l/m 3,1 km/h (1 Bft) SW 236 0 min 0,000 mm 0,0 UV-I 0 W/m 9,6 C 14,8 C 3,2 km/h (1 Bft) 100,00 %
22.04.2018 01:10 14,6 C 13,9 C 72 % 1015,5 hPa 0,0 l/m 4,1 km/h (1 Bft) SW 236 0 min 0,000 mm 0,0 UV-I 0 W/m 9,6 C 14,6 C 4,8 km/h (1 Bft) 100,00 %
22.04.2018 01:11 14,6 C 13,9 C 72 % 1015,5 hPa 0,0 l/m 4,2 km/h (1 Bft) SW 236 0 min 0,000 mm 0,0 UV-I 0 W/m 9,6 C 14,6 C 4,8 km/h (1 Bft) 100,00 %
22.04.2018 01:12 14,6 C 13,9 C 72 % 1015,4 hPa 0,0 l/m 4,4 km/h (1 Bft) SW 235 0 min 0,000 mm 0,0 UV-I 0 W/m 9,6 C 14,6 C 4,8 km/h (1 Bft) 100,00 %
22.04.2018 01:13 14,7 C 13,9 C 72 % 1015,4 hPa 0,0 l/m 4,5 km/h (1 Bft) SW 236 0 min 0,000 mm 0,0 UV-I 0 W/m 9,7 C 14,7 C 4,8 km/h (1 Bft) 100,00 %
22.04.2018 01:14 14,7 C 13,9 C 72 % 1015,5 hPa 0,0 l/m 4,8 km/h (1 Bft) SW 235 0 min 0,000 mm 0,0 UV-I 0 W/m 9,7 C 14,7 C 4,8 km/h (1 Bft) 100,00 %
22.04.2018 01:15 14,7 C 13,9 C 72 % 1015,5 hPa 0,0 l/m 4,8 km/h (1 Bft) SW 235 0 min 0,000 mm 0,0 UV-I 0 W/m 9,7 C 14,7 C 6,4 km/h (2 Bft) 100,00 %
22.04.2018 01:16 14,7 C 13,9 C 72 % 1015,5 hPa 0,0 l/m 4,3 km/h (1 Bft) SW 235 0 min 0,000 mm 0,0 UV-I 0 W/m 9,7 C 14,7 C 4,8 km/h (1 Bft) 100,00 %
22.04.2018 01:17 14,7 C 13,9 C 72 % 1015,5 hPa 0,0 l/m 3,9 km/h (1 Bft) SW 236 0 min 0,000 mm 0,0 UV-I 0 W/m 9,7 C 14,7 C 4,8 km/h (1 Bft) 100,00 %
22.04.2018 01:18 14,5 C 13,9 C 72 % 1015,5 hPa 0,0 l/m 3,9 km/h (1 Bft) SW 236 0 min 0,000 mm 0,0 UV-I 0 W/m 9,5 C 14,5 C 4,8 km/h (1 Bft) 100,00 %
22.04.2018 01:19 14,4 C 13,9 C 73 % 1015,5 hPa 0,0 l/m 3,4 km/h (1 Bft) SW 236 0 min 0,000 mm 0,0 UV-I 0 W/m 9,6 C 14,4 C 4,8 km/h (1 Bft) 100,00 %
22.04.2018 01:20 14,3 C 13,9 C 73 % 1015,5 hPa 0,0 l/m 3,3 km/h (1 Bft) SW 236 0 min 0,000 mm 0,0 UV-I 0 W/m 9,5 C 14,3 C 4,8 km/h (1 Bft) 100,00 %
22.04.2018 01:21 14,3 C 13,9 C 73 % 1015,4 hPa 0,0 l/m 3,1 km/h (1 Bft) SW 236 0 min 0,000 mm 0,0 UV-I 0 W/m 9,5 C 14,3 C 3,2 km/h (1 Bft) 100,00 %
22.04.2018 01:22 14,4 C 13,9 C 73 % 1015,4 hPa 0,0 l/m 2,9 km/h (1 Bft) SW 236 0 min 0,000 mm 0,0 UV-I 0 W/m 9,6 C 14,4 C 3,2 km/h (1 Bft) 100,00 %
22.04.2018 01:23 14,3 C 13,9 C 73 % 1015,4 hPa 0,0 l/m 2,7 km/h (1 Bft) SW 236 0 min 0,000 mm 0,0 UV-I 0 W/m 9,5 C 14,3 C 3,2 km/h (1 Bft) 100,00 %
22.04.2018 01:24 14,2 C 13,9 C 73 % 1015,4 hPa 0,0 l/m 2,5 km/h (1 Bft) SW 236 0 min 0,000 mm 0,0 UV-I 0 W/m 9,4 C 14,2 C 3,2 km/h (1 Bft) 100,00 %
22.04.2018 01:25 14,1 C 13,9 C 74 % 1015,4 hPa 0,0 l/m 2,2 km/h (1 Bft) SW 235 0 min 0,000 mm 0,0 UV-I 0 W/m 9,5 C 14,1 C 3,2 km/h (1 Bft) 100,00 %
22.04.2018 01:26 14,1 C 13,9 C 74 % 1015,4 hPa 0,0 l/m 3,0 km/h (1 Bft) SW 236 0 min 0,000 mm 0,0 UV-I 0 W/m 9,5 C 14,1 C 3,2 km/h (1 Bft) 100,00 %
22.04.2018 01:27 14,1 C 13,9 C 75 % 1015,4 hPa 0,0 l/m 3,9 km/h (1 Bft) SW 235 0 min 0,000 mm 0,0 UV-I 0 W/m 9,7 C 14,1 C 4,8 km/h (1 Bft) 92,86 %
22.04.2018 01:28 14,2 C 13,9 C 75 % 1015,4 hPa 0,0 l/m 4,5 km/h (1 Bft) SW 236 0 min 0,000 mm 0,0 UV-I 0 W/m 9,8 C 14,2 C 4,8 km/h (1 Bft) 100,00 %
22.04.2018 01:29 14,2 C 13,9 C 75 % 1015,4 hPa 0,0 l/m 4,6 km/h (1 Bft) SW 235 0 min 0,000 mm 0,0 UV-I 0 W/m 9,8 C 14,2 C 4,8 km/h (1 Bft) 96,15 %
22.04.2018 01:30 14,2 C 13,9 C 75 % 1015,3 hPa 0,0 l/m 4,6 km/h (1 Bft) SW 235 0 min 0,000 mm 0,0 UV-I 0 W/m 9,8 C 14,2 C 4,8 km/h (1 Bft) 100,00 %
22.04.2018 01:31 14,1 C 13,9 C 74 % 1015,3 hPa 0,0 l/m 5,0 km/h (1 Bft) SW 235 0 min 0,000 mm 0,0 UV-I 0 W/m 9,5 C 14,1 C 6,4 km/h (2 Bft) 95,65 %
22.04.2018 01:32 14,0 C 13,9 C 75 % 1015,3 hPa 0,0 l/m 5,2 km/h (1 Bft) SW 235 0 min 0,000 mm 0,0 UV-I 0 W/m 9,6 C 14,0 C 6,4 km/h (2 Bft) 100,00 %
22.04.2018 01:33 14,0 C 13,9 C 75 % 1015,3 hPa 0,0 l/m 5,1 km/h (1 Bft) SW 235 0 min 0,000 mm 0,0 UV-I 0 W/m 9,6 C 14,0 C 6,4 km/h (2 Bft) 100,00 %
22.04.2018 01:34 13,9 C 13,9 C 75 % 1015,3 hPa 0,0 l/m 5,6 km/h (1 Bft) SW 235 0 min 0,000 mm 0,0 UV-I 0 W/m 9,5 C 13,9 C 6,4 km/h (2 Bft) 100,00 %
22.04.2018 01:35 13,9 C 13,9 C 74 % 1015,3 hPa 0,0 l/m 5,2 km/h (1 Bft) SW 235 0 min 0,000 mm 0,0 UV-I 0 W/m 9,3 C 13,9 C 6,4 km/h (2 Bft) 100,00 %
22.04.2018 01:36 13,8 C 13,9 C 75 % 1015,3 hPa 0,0 l/m 5,0 km/h (1 Bft) SW 235 0 min 0,000 mm 0,0 UV-I 0 W/m 9,4 C 13,8 C 6,4 km/h (2 Bft) 96,15 %
22.04.2018 01:37 13,8 C 13,9 C 75 % 1015,2 hPa 0,0 l/m 5,9 km/h (2 Bft) SW 235 0 min 0,000 mm 0,0 UV-I 0 W/m 9,4 C 13,8 C 6,4 km/h (2 Bft) 100,00 %
22.04.2018 01:38 13,7 C 13,9 C 75 % 1015,2 hPa 0,0 l/m 5,7 km/h (1 Bft) SW 235 0 min 0,000 mm 0,0 UV-I 0 W/m 9,3 C 13,7 C 6,4 km/h (2 Bft) 95,65 %
22.04.2018 01:39 13,7 C 13,9 C 75 % 1015,2 hPa 0,0 l/m 5,0 km/h (1 Bft) SW 234 0 min 0,000 mm 0,0 UV-I 0 W/m 9,3 C 13,7 C 6,4 km/h (2 Bft) 100,00 %
22.04.2018 01:40 13,6 C 13,9 C 75 % 1015,2 hPa 0,0 l/m 4,3 km/h (1 Bft) SW 234 0 min 0,000 mm 0,0 UV-I 0 W/m 9,3 C 13,6 C 4,8 km/h (1 Bft) 95,65 %
22.04.2018 01:41 13,4 C 13,9 C 76 % 1015,2 hPa 0,0 l/m 3,7 km/h (1 Bft) SW 235 0 min 0,000 mm 0,0 UV-I 0 W/m 9,3 C 13,4 C 4,8 km/h (1 Bft) 100,00 %
22.04.2018 01:42 13,3 C 13,9 C 76 % 1015,2 hPa 0,0 l/m 4,5 km/h (1 Bft) SW 234 0 min 0,000 mm 0,0 UV-I 0 W/m 9,2 C 13,3 C 4,8 km/h (1 Bft) 91,30 %
22.04.2018 01:43 13,2 C 13,9 C 77 % 1015,2 hPa 0,0 l/m 5,0 km/h (1 Bft) SW 234 0 min 0,000 mm 0,0 UV-I 0 W/m 9,3 C 13,2 C 6,4 km/h (2 Bft) 100,00 %
22.04.2018 01:44 13,2 C 13,9 C 78 % 1015,2 hPa 0,0 l/m 4,0 km/h (1 Bft) SW 234 0 min 0,000 mm 0,0 UV-I 0 W/m 9,4 C 13,2 C 4,8 km/h (1 Bft) 95,65 %
22.04.2018 01:45 13,3 C 13,9 C 77 % 1015,2 hPa 0,0 l/m 3,5 km/h (1 Bft) SW 234 0 min 0,000 mm 0,0 UV-I 0 W/m 9,4 C 13,3 C 4,8 km/h (1 Bft) 96,30 %
22.04.2018 01:46 13,4 C 13,9 C 77 % 1015,2 hPa 0,0 l/m 4,4 km/h (1 Bft) SW 234 0 min 0,000 mm 0,0 UV-I 0 W/m 9,5 C 13,4 C 6,4 km/h (2 Bft) 96,15 %
22.04.2018 01:47 13,5 C 13,9 C 77 % 1015,2 hPa 0,0 l/m 5,1 km/h (1 Bft) SW 234 0 min 0,000 mm 0,0 UV-I 0 W/m 9,5 C 13,5 C 6,4 km/h (2 Bft) 100,00 %
22.04.2018 01:48 13,6 C 13,9 C 77 % 1015,2 hPa 0,0 l/m 5,1 km/h (1 Bft) SW 234 0 min 0,000 mm 0,0 UV-I 0 W/m 9,6 C 13,6 C 6,4 km/h (2 Bft) 95,65 %
22.04.2018 01:49 13,7 C 13,9 C 77 % 1015,2 hPa 0,0 l/m 4,8 km/h (1 Bft) SW 234 0 min 0,000 mm 0,0 UV-I 0 W/m 9,7 C 13,7 C 4,8 km/h (1 Bft) 95,83 %
22.04.2018 01:50 13,8 C 13,9 C 76 % 1015,2 hPa 0,0 l/m 5,0 km/h (1 Bft) SW 234 0 min 0,000 mm 0,0 UV-I 0 W/m 9,6 C 13,8 C 6,4 km/h (2 Bft) 100,00 %
22.04.2018 01:51 13,8 C 13,9 C 75 % 1015,2 hPa 0,0 l/m 4,7 km/h (1 Bft) SW 234 0 min 0,000 mm 0,0 UV-I 0 W/m 9,4 C 13,8 C 6,4 km/h (2 Bft) 86,67 %
22.04.2018 01:52 13,8 C 13,9 C 75 % 1015,2 hPa 0,0 l/m 4,3 km/h (1 Bft) SW 234 0 min 0,000 mm 0,0 UV-I 0 W/m 9,4 C 13,8 C 4,8 km/h (1 Bft) 100,00 %
22.04.2018 01:53 13,8 C 13,9 C 75 % 1015,2 hPa 0,0 l/m 3,4 km/h (1 Bft) SW 234 0 min 0,000 mm 0,0 UV-I 0 W/m 9,4 C 13,8 C 4,8 km/h (1 Bft) 88,46 %
22.04.2018 01:54 13,7 C 13,9 C 75 % 1015,2 hPa 0,0 l/m 3,5 km/h (1 Bft) SW 234 0 min 0,000 mm 0,0 UV-I 0 W/m 9,3 C 13,7 C 4,8 km/h (1 Bft) 100,00 %
22.04.2018 01:55 13,7 C 13,9 C 75 % 1015,2 hPa 0,0 l/m 3,8 km/h (1 Bft) SW 234 0 min 0,000 mm 0,0 UV-I 0 W/m 9,3 C 13,7 C 4,8 km/h (1 Bft) 92,11 %
22.04.2018 01:56 13,6 C 13,9 C 75 % 1015,2 hPa 0,0 l/m 3,4 km/h (1 Bft) SW 234 0 min 0,000 mm 0,0 UV-I 0 W/m 9,3 C 13,6 C 4,8 km/h (1 Bft) 91,67 %
22.04.2018 01:57 13,3 C 13,9 C 76 % 1015,2 hPa 0,0 l/m 3,2 km/h (1 Bft) SW 234 0 min 0,000 mm 0,0 UV-I 0 W/m 9,2 C 13,3 C 4,8 km/h (1 Bft) 100,00 %
22.04.2018 01:58 13,2 C 13,9 C 77 % 1015,2 hPa 0,0 l/m 4,2 km/h (1 Bft) SW 234 0 min 0,000 mm 0,0 UV-I 0 W/m 9,3 C 13,2 C 6,4 km/h (2 Bft) 91,67 %
22.04.2018 01:59 13,0 C 13,9 C 78 % 1015,2 hPa 0,0 l/m 4,0 km/h (1 Bft) SW 234 0 min 0,000 mm 0,0 UV-I 0 W/m 9,3 C 13,0 C 4,8 km/h (1 Bft) 100,00 %
22.04.2018 02:00 13,1 C 13,9 C 78 % 1015,2 hPa 0,0 l/m 3,7 km/h (1 Bft) SW 234 0 min 0,026 mm 0,0 UV-I 0 W/m 9,4 C 13,1 C 4,8 km/h (1 Bft) 91,67 %
22.04.2018 02:01 13,1 C 13,9 C 78 % 1015,2 hPa 0,0 l/m 4,0 km/h (1 Bft) SW 234 0 min 0,000 mm 0,0 UV-I 0 W/m 9,4 C 13,1 C 4,8 km/h (1 Bft) 100,00 %
22.04.2018 02:02 13,2 C 13,9 C 78 % 1015,2 hPa 0,0 l/m 4,4 km/h (1 Bft) SW 234 0 min 0,000 mm 0,0 UV-I 0 W/m 9,4 C 13,2 C 4,8 km/h (1 Bft) 83,33 %
22.04.2018 02:03 13,3 C 13,9 C 78 % 1015,2 hPa 0,0 l/m 4,2 km/h (1 Bft) SW 234 0 min 0,000 mm 0,0 UV-I 0 W/m 9,5 C 13,3 C 4,8 km/h (1 Bft) 100,00 %
22.04.2018 02:04 13,4 C 13,9 C 77 % 1015,2 hPa 0,0 l/m 3,9 km/h (1 Bft) SW 234 0 min 0,000 mm 0,0 UV-I 0 W/m 9,5 C 13,4 C 4,8 km/h (1 Bft) 91,67 %
22.04.2018 02:05 13,6 C 13,9 C 77 % 1015,3 hPa 0,0 l/m 3,7 km/h (1 Bft) SW 234 0 min 0,000 mm 0,0 UV-I 0 W/m 9,6 C 13,6 C 4,8 km/h (1 Bft) 100,00 %
22.04.2018 02:06 13,7 C 13,9 C 77 % 1015,3 hPa 0,0 l/m 2,9 km/h (1 Bft) SW 234 0 min 0,000 mm 0,0 UV-I 0 W/m 9,7 C 13,7 C 3,2 km/h (1 Bft) 87,50 %
22.04.2018 02:07 13,7 C 13,9 C 76 % 1015,3 hPa 0,0 l/m 3,4 km/h (1 Bft) SW 234 0 min 0,000 mm 0,0 UV-I 0 W/m 9,5 C 13,7 C 4,8 km/h (1 Bft) 100,00 %
22.04.2018 02:08 13,6 C 13,9 C 76 % 1015,3 hPa 0,0 l/m 4,8 km/h (1 Bft) SW 234 0 min 0,000 mm 0,0 UV-I 0 W/m 9,4 C 13,6 C 6,4 km/h (2 Bft) 94,74 %
22.04.2018 02:09 13,6 C 13,9 C 76 % 1015,3 hPa 0,0 l/m 4,8 km/h (1 Bft) SW 234 0 min 0,000 mm 0,0 UV-I 0 W/m 9,4 C 13,6 C 6,4 km/h (2 Bft) 95,83 %
22.04.2018 02:10 13,4 C 13,9 C 77 % 1015,3 hPa 0,0 l/m 5,2 km/h (1 Bft) SW 234 0 min 0,000 mm 0,0 UV-I 0 W/m 9,5 C 13,4 C 6,4 km/h (2 Bft) 91,30 %
22.04.2018 02:11 13,3 C 13,9 C 77 % 1015,3 hPa 0,0 l/m 6,3 km/h (2 Bft) SW 233 0 min 0,000 mm 0,0 UV-I 0 W/m 9,4 C 13,3 C 8,0 km/h (2 Bft) 91,67 %
22.04.2018 02:12 13,2 C 13,9 C 78 % 1015,3 hPa 0,0 l/m 6,1 km/h (2 Bft) SW 233 0 min 0,000 mm 0,0 UV-I 0 W/m 9,4 C 13,2 C 6,4 km/h (2 Bft) 100,00 %
22.04.2018 02:13 13,2 C 13,9 C 78 % 1015,3 hPa 0,0 l/m 6,0 km/h (2 Bft) SW 233 0 min 0,000 mm 0,0 UV-I 0 W/m 9,4 C 13,2 C 6,4 km/h (2 Bft) 91,67 %
22.04.2018 02:14 13,2 C 13,9 C 78 % 1015,3 hPa 0,0 l/m 6,2 km/h (2 Bft) SW 233 0 min 0,000 mm 0,0 UV-I 0 W/m 9,4 C 13,2 C 6,4 km/h (2 Bft) 95,65 %
22.04.2018 02:15 13,3 C 13,9 C 78 % 1015,3 hPa 0,0 l/m 5,6 km/h (1 Bft) SW 232 0 min 0,000 mm 0,0 UV-I 0 W/m 9,5 C 13,3 C 8,0 km/h (2 Bft) 95,83 %
22.04.2018 02:16 13,3 C 13,9 C 78 % 1015,3 hPa 0,0 l/m 5,1 km/h (1 Bft) SW 232 0 min 0,000 mm 0,0 UV-I 0 W/m 9,5 C 13,3 C 6,4 km/h (2 Bft) 95,65 %
22.04.2018 02:17 13,3 C 13,9 C 78 % 1015,3 hPa 0,0 l/m 4,4 km/h (1 Bft) SW 232 0 min 0,000 mm 0,0 UV-I 0 W/m 9,5 C 13,3 C 6,4 km/h (2 Bft) 95,83 %
22.04.2018 02:18 13,3 C 13,9 C 79 % 1015,3 hPa 0,0 l/m 3,3 km/h (1 Bft) SW 232 0 min 0,000 mm 0,0 UV-I 0 W/m 9,7 C 13,3 C 4,8 km/h (1 Bft) 95,65 %
22.04.2018 02:19 13,4 C 13,9 C 78 % 1015,3 hPa 0,0 l/m 4,1 km/h (1 Bft) SW 232 0 min 0,000 mm 0,0 UV-I 0 W/m 9,6 C 13,4 C 6,4 km/h (2 Bft) 95,83 %
22.04.2018 02:20 13,5 C 13,9 C 77 % 1015,3 hPa 0,0 l/m 5,2 km/h (1 Bft) SW 232 0 min 0,000 mm 0,0 UV-I 0 W/m 9,5 C 13,5 C 6,4 km/h (2 Bft) 95,65 %
22.04.2018 02:21 13,6 C 13,9 C 77 % 1015,3 hPa 0,0 l/m 5,8 km/h (2 Bft) SW 232 0 min 0,000 mm 0,0 UV-I 0 W/m 9,6 C 13,6 C 6,4 km/h (2 Bft) 92,59 %
22.04.2018 02:22 13,6 C 13,9 C 77 % 1015,3 hPa 0,0 l/m 5,1 km/h (1 Bft) SW 234 0 min 0,000 mm 0,0 UV-I 0 W/m 9,6 C 13,6 C 6,4 km/h (2 Bft) 95,65 %
22.04.2018 02:23 13,5 C 13,9 C 77 % 1015,3 hPa 0,0 l/m 5,1 km/h (1 Bft) SW 233 0 min 0,000 mm 0,0 UV-I 0 W/m 9,5 C 13,5 C 6,4 km/h (2 Bft) 95,83 %
22.04.2018 02:24 13,4 C 13,9 C 77 % 1015,3 hPa 0,0 l/m 4,9 km/h (1 Bft) SW 227 0 min 0,000 mm 0,0 UV-I 0 W/m 9,5 C 13,4 C 6,4 km/h (2 Bft) 96,15 %
22.04.2018 02:25 13,3 C 13,9 C 78 % 1015,3 hPa 0,0 l/m 4,8 km/h (1 Bft) SW 227 0 min 0,000 mm 0,0 UV-I 0 W/m 9,5 C 13,3 C 6,4 km/h (2 Bft) 95,83 %
22.04.2018 02:26 13,2 C 13,9 C 78 % 1015,3 hPa 0,0 l/m 5,9 km/h (2 Bft) S-SW 211 0 min 0,000 mm 0,0 UV-I 0 W/m 9,4 C 13,2 C 6,4 km/h (2 Bft) 91,30 %
22.04.2018 02:27 12,9 C 13,9 C 78 % 1015,3 hPa 0,0 l/m 6,1 km/h (2 Bft) S-SW 211 0 min 0,000 mm 0,0 UV-I 0 W/m 9,2 C 12,9 C 6,4 km/h (2 Bft) 95,83 %
22.04.2018 02:28 12,8 C 13,9 C 79 % 1015,3 hPa 0,0 l/m 6,0 km/h (2 Bft) S-SW 211 0 min 0,000 mm 0,0 UV-I 0 W/m 9,2 C 12,8 C 6,4 km/h (2 Bft) 91,30 %
22.04.2018 02:29 12,9 C 13,9 C 79 % 1015,3 hPa 0,0 l/m 5,7 km/h (1 Bft) S-SW 211 0 min 0,000 mm 0,0 UV-I 0 W/m 9,3 C 12,9 C 6,4 km/h (2 Bft) 95,83 %
22.04.2018 02:30 12,9 C 13,9 C 79 % 1015,3 hPa 0,0 l/m 6,2 km/h (2 Bft) S-SW 200 0 min 0,000 mm 0,0 UV-I 0 W/m 9,3 C 12,9 C 8,0 km/h (2 Bft) 100,00 %
22.04.2018 02:31 12,8 C 13,9 C 79 % 1015,3 hPa 0,0 l/m 6,4 km/h (2 Bft) S-SW 199 0 min 0,000 mm 0,0 UV-I 0 W/m 9,2 C 12,8 C 8,0 km/h (2 Bft) 95,65 %
22.04.2018 02:32 12,8 C 13,9 C 79 % 1015,3 hPa 0,0 l/m 6,4 km/h (2 Bft) S-SW 198 0 min 0,000 mm 0,0 UV-I 0 W/m 9,2 C 12,8 C 6,4 km/h (2 Bft) 96,30 %
22.04.2018 02:33 12,8 C 13,9 C 79 % 1015,3 hPa 0,0 l/m 5,6 km/h (1 Bft) S-SW 200 0 min 0,000 mm 0,0 UV-I 0 W/m 9,2 C 12,8 C 6,4 km/h (2 Bft) 95,65 %
22.04.2018 02:34 12,9 C 13,9 C 79 % 1015,3 hPa 0,0 l/m 6,0 km/h (2 Bft) S-SW 208 0 min 0,000 mm 0,0 UV-I 0 W/m 9,3 C 12,9 C 8,0 km/h (2 Bft) 100,00 %
22.04.2018 02:35 12,9 C 13,9 C 79 % 1015,3 hPa 0,0 l/m 5,7 km/h (1 Bft) S-SW 207 0 min 0,000 mm 0,0 UV-I 0 W/m 9,3 C 12,9 C 8,0 km/h (2 Bft) 95,65 %
22.04.2018 02:36 13,1 C 13,9 C 79 % 1015,3 hPa 0,0 l/m 5,9 km/h (2 Bft) S-SW 207 0 min 0,000 mm 0,0 UV-I 0 W/m 9,5 C 13,1 C 6,4 km/h (2 Bft) 95,83 %
22.04.2018 02:37 13,3 C 13,9 C 78 % 1015,3 hPa 0,0 l/m 6,7 km/h (2 Bft) S-SW 207 0 min 0,000 mm 0,0 UV-I 0 W/m 9,5 C 13,1 C 8,0 km/h (2 Bft) 95,65 %
22.04.2018 02:38 13,5 C 13,9 C 77 % 1015,3 hPa 0,0 l/m 6,4 km/h (2 Bft) S-SW 207 0 min 0,000 mm 0,0 UV-I 0 W/m 9,5 C 13,5 C 8,0 km/h (2 Bft) 95,83 %
22.04.2018 02:39 13,7 C 13,9 C 77 % 1015,3 hPa 0,0 l/m 6,9 km/h (2 Bft) S-SW 207 0 min 0,000 mm 0,0 UV-I 0 W/m 9,7 C 13,4 C 8,0 km/h (2 Bft) 95,65 %
22.04.2018 02:40 13,8 C 13,9 C 76 % 1015,3 hPa 0,0 l/m 7,6 km/h (2 Bft) S-SW 207 0 min 0,000 mm 0,0 UV-I 0 W/m 9,6 C 13,1 C 8,0 km/h (2 Bft) 100,00 %
22.04.2018 02:41 13,8 C 13,9 C 76 % 1015,3 hPa 0,0 l/m 6,8 km/h (2 Bft) S-SW 207 0 min 0,000 mm 0,0 UV-I 0 W/m 9,6 C 13,6 C 8,0 km/h (2 Bft) 100,00 %
22.04.2018 02:42 13,8 C 13,9 C 76 % 1015,3 hPa 0,0 l/m 5,7 km/h (1 Bft) S-SW 207 0 min 0,000 mm 0,0 UV-I 0 W/m 9,6 C 13,8 C 8,0 km/h (2 Bft) 100,00 %
22.04.2018 02:43 13,8 C 13,9 C 76 % 1015,3 hPa 0,0 l/m 4,4 km/h (1 Bft) S-SW 207 0 min 0,000 mm 0,0 UV-I 0 W/m 9,6 C 13,8 C 4,8 km/h (1 Bft) 100,00 %
22.04.2018 02:44 13,7 C 13,9 C 76 % 1015,3 hPa 0,0 l/m 4,0 km/h (1 Bft) S-SW 207 0 min 0,000 mm 0,0 UV-I 0 W/m 9,5 C 13,7 C 6,4 km/h (2 Bft) 100,00 %
22.04.2018 02:45 13,7 C 13,9 C 76 % 1015,3 hPa 0,0 l/m 4,1 km/h (1 Bft) S-SW 207 0 min 0,000 mm 0,0 UV-I 0 W/m 9,5 C 13,7 C 4,8 km/h (1 Bft) 91,30 %
22.04.2018 02:46 13,5 C 13,9 C 76 % 1015,3 hPa 0,0 l/m 5,1 km/h (1 Bft) S-SW 207 0 min 0,000 mm 0,0 UV-I 0 W/m 9,4 C 13,5 C 6,4 km/h (2 Bft) 100,00 %
22.04.2018 02:47 13,5 C 13,9 C 77 % 1015,3 hPa 0,0 l/m 6,3 km/h (2 Bft) S-SW 203 0 min 0,000 mm 0,0 UV-I 0 W/m 9,5 C 13,5 C 8,0 km/h (2 Bft) 100,00 %
22.04.2018 02:48 13,6 C 13,9 C 76 % 1015,3 hPa 0,0 l/m 5,2 km/h (1 Bft) S-SW 203 0 min 0,000 mm 0,0 UV-I 0 W/m 9,4 C 13,6 C 6,4 km/h (2 Bft) 100,00 %
22.04.2018 02:49 13,5 C 13,9 C 77 % 1015,3 hPa 0,0 l/m 5,3 km/h (1 Bft) S-SW 203 0 min 0,000 mm 0,0 UV-I 0 W/m 9,5 C 13,5 C 6,4 km/h (2 Bft) 100,00 %
22.04.2018 02:50 13,4 C 13,9 C 77 % 1015,3 hPa 0,0 l/m 5,2 km/h (1 Bft) S-SW 203 0 min 0,000 mm 0,0 UV-I 0 W/m 9,5 C 13,4 C 6,4 km/h (2 Bft) 100,00 %
22.04.2018 02:51 13,4 C 13,9 C 77 % 1015,3 hPa 0,0 l/m 5,7 km/h (1 Bft) S-SW 202 0 min 0,000 mm 0,0 UV-I 0 W/m 9,5 C 13,4 C 6,4 km/h (2 Bft) 95,83 %
22.04.2018 02:52 13,4 C 13,9 C 77 % 1015,3 hPa 0,0 l/m 5,5 km/h (1 Bft) S-SW 203 0 min 0,000 mm 0,0 UV-I 0 W/m 9,5 C 13,4 C 6,4 km/h (2 Bft) 91,30 %
22.04.2018 02:53 13,4 C 13,9 C 77 % 1015,3 hPa 0,0 l/m 6,6 km/h (2 Bft) S-SW 205 0 min 0,000 mm 0,0 UV-I 0 W/m 9,5 C 13,3 C 8,0 km/h (2 Bft) 100,00 %
22.04.2018 02:54 13,4 C 13,9 C 77 % 1015,3 hPa 0,0 l/m 5,8 km/h (2 Bft) S-SW 194 0 min 0,000 mm 0,0 UV-I 0 W/m 9,5 C 13,4 C 8,0 km/h (2 Bft) 95,65 %
22.04.2018 02:55 13,4 C 13,9 C 77 % 1015,2 hPa 0,0 l/m 5,3 km/h (1 Bft) S-SW 193 0 min 0,000 mm 0,0 UV-I 0 W/m 9,5 C 13,4 C 6,4 km/h (2 Bft) 100,00 %
22.04.2018 02:56 13,4 C 13,9 C 77 % 1015,3 hPa 0,0 l/m 5,4 km/h (1 Bft) S-SW 193 0 min 0,000 mm 0,0 UV-I 0 W/m 9,5 C 13,4 C 6,4 km/h (2 Bft) 100,00 %
22.04.2018 02:57 13,4 C 13,9 C 77 % 1015,3 hPa 0,0 l/m 5,5 km/h (1 Bft) S-SW 192 0 min 0,000 mm 0,0 UV-I 0 W/m 9,5 C 13,4 C 6,4 km/h (2 Bft) 100,00 %
22.04.2018 02:58 13,4 C 13,9 C 77 % 1015,3 hPa 0,0 l/m 6,4 km/h (2 Bft) S 191 0 min 0,000 mm 0,0 UV-I 0 W/m 9,5 C 13,4 C 9,7 km/h (2 Bft) 91,30 %
22.04.2018 02:59 13,3 C 13,9 C 77 % 1015,3 hPa 0,0 l/m 6,2 km/h (2 Bft) S 191 0 min 0,000 mm 0,0 UV-I 0 W/m 9,4 C 13,3 C 8,0 km/h (2 Bft) 100,00 %
22.04.2018 03:00 13,3 C 13,9 C 77 % 1015,3 hPa 0,0 l/m 6,3 km/h (2 Bft) S 190 0 min 0,025 mm 0,0 UV-I 0 W/m 9,4 C 13,3 C 8,0 km/h (2 Bft) 100,00 %
22.04.2018 03:01 13,4 C 13,9 C 77 % 1015,3 hPa 0,0 l/m 6,0 km/h (2 Bft) S 190 0 min 0,000 mm 0,0 UV-I 0 W/m 9,5 C 13,4 C 8,0 km/h (2 Bft) 100,00 %
22.04.2018 03:02 13,6 C 13,9 C 77 % 1015,3 hPa 0,0 l/m 6,6 km/h (2 Bft) S-SW 200 0 min 0,000 mm 0,0 UV-I 0 W/m 9,6 C 13,5 C 8,0 km/h (2 Bft) 95,65 %
22.04.2018 03:03 13,6 C 13,9 C 77 % 1015,3 hPa 0,0 l/m 6,4 km/h (2 Bft) S-SW 213 0 min 0,000 mm 0,0 UV-I 0 W/m 9,6 C 13,6 C 8,0 km/h (2 Bft) 100,00 %
22.04.2018 03:04 13,7 C 13,9 C 76 % 1015,3 hPa 0,0 l/m 6,9 km/h (2 Bft) S-SW 200 0 min 0,000 mm 0,0 UV-I 0 W/m 9,5 C 13,4 C 9,7 km/h (2 Bft) 100,00 %
22.04.2018 03:05 13,8 C 13,9 C 76 % 1015,2 hPa 0,0 l/m 6,3 km/h (2 Bft) S-SW 195 0 min 0,000 mm 0,0 UV-I 0 W/m 9,6 C 13,8 C 8,0 km/h (2 Bft) 100,00 %
22.04.2018 03:06 13,8 C 13,9 C 75 % 1015,2 hPa 0,0 l/m 5,6 km/h (1 Bft) S-SW 205 0 min 0,000 mm 0,0 UV-I 0 W/m 9,4 C 13,8 C 8,0 km/h (2 Bft) 100,00 %
22.04.2018 03:07 13,8 C 13,9 C 75 % 1015,2 hPa 0,0 l/m 6,0 km/h (2 Bft) S-SW 205 0 min 0,000 mm 0,0 UV-I 0 W/m 9,4 C 13,8 C 8,0 km/h (2 Bft) 95,83 %
22.04.2018 03:08 13,7 C 13,9 C 75 % 1015,2 hPa 0,0 l/m 5,8 km/h (2 Bft) S 188 0 min 0,000 mm 0,0 UV-I 0 W/m 9,3 C 13,7 C 8,0 km/h (2 Bft) 100,00 %
22.04.2018 03:09 13,7 C 13,9 C 75 % 1015,2 hPa 0,0 l/m 6,2 km/h (2 Bft) S 189 0 min 0,000 mm 0,0 UV-I 0 W/m 9,3 C 13,7 C 8,0 km/h (2 Bft) 100,00 %
22.04.2018 03:10 13,7 C 13,9 C 75 % 1015,2 hPa 0,0 l/m 5,8 km/h (2 Bft) S-SW 195 0 min 0,000 mm 0,0 UV-I 0 W/m 9,3 C 13,7 C 8,0 km/h (2 Bft) 100,00 %
22.04.2018 03:11 13,6 C 13,9 C 76 % 1015,2 hPa 0,0 l/m 5,9 km/h (2 Bft) S-SW 196 0 min 0,000 mm 0,0 UV-I 0 W/m 9,4 C 13,6 C 8,0 km/h (2 Bft) 95,83 %
22.04.2018 03:12 13,6 C 13,9 C 76 % 1015,2 hPa 0,0 l/m 6,4 km/h (2 Bft) S-SW 194 0 min 0,000 mm 0,0 UV-I 0 W/m 9,4 C 13,6 C 8,0 km/h (2 Bft) 100,00 %
22.04.2018 03:13 13,6 C 13,9 C 76 % 1015,2 hPa 0,0 l/m 6,5 km/h (2 Bft) S 188 0 min 0,000 mm 0,0 UV-I 0 W/m 9,4 C 13,6 C 8,0 km/h (2 Bft) 100,00 %
22.04.2018 03:14 13,6 C 13,9 C 76 % 1015,2 hPa 0,0 l/m 6,0 km/h (2 Bft) S-SW 192 0 min 0,000 mm 0,0 UV-I 0 W/m 9,4 C 13,6 C 8,0 km/h (2 Bft) 100,00 %
22.04.2018 03:15 13,6 C 13,9 C 76 % 1015,2 hPa 0,0 l/m 5,6 km/h (1 Bft) S-SW 200 0 min 0,000 mm 0,0 UV-I 0 W/m 9,4 C 13,6 C 8,0 km/h (2 Bft) 100,00 %
22.04.2018 03:16 13,6 C 13,9 C 76 % 1015,2 hPa 0,0 l/m 5,4 km/h (1 Bft) S-SW 200 0 min 0,000 mm 0,0 UV-I 0 W/m 9,4 C 13,6 C 6,4 km/h (2 Bft) 100,00 %
22.04.2018 03:17 13,6 C 13,9 C 76 % 1015,2 hPa 0,0 l/m 5,6 km/h (1 Bft) S-SW 200 0 min 0,000 mm 0,0 UV-I 0 W/m 9,4 C 13,6 C 6,4 km/h (2 Bft) 95,65 %
22.04.2018 03:18 13,6 C 13,9 C 76 % 1015,2 hPa 0,0 l/m 5,8 km/h (2 Bft) S-SW 198 0 min 0,000 mm 0,0 UV-I 0 W/m 9,4 C 13,6 C 8,0 km/h (2 Bft) 100,00 %
22.04.2018 03:19 13,7 C 13,9 C 76 % 1015,2 hPa 0,0 l/m 5,0 km/h (1 Bft) S-SW 198 0 min 0,000 mm 0,0 UV-I 0 W/m 9,5 C 13,7 C 6,4 km/h (2 Bft) 100,00 %
22.04.2018 03:20 13,6 C 13,9 C 76 % 1015,2 hPa 0,0 l/m 4,9 km/h (1 Bft) S-SW 198 0 min 0,000 mm 0,0 UV-I 0 W/m 9,4 C 13,6 C 6,4 km/h (2 Bft) 95,83 %
22.04.2018 03:21 13,7 C 13,9 C 76 % 1015,2 hPa 0,0 l/m 4,6 km/h (1 Bft) S-SW 198 0 min 0,000 mm 0,0 UV-I 0 W/m 9,5 C 13,7 C 6,4 km/h (2 Bft) 100,00 %
22.04.2018 03:22 13,7 C 13,9 C 75 % 1015,3 hPa 0,0 l/m 4,9 km/h (1 Bft) S-SW 198 0 min 0,000 mm 0,0 UV-I 0 W/m 9,3 C 13,7 C 6,4 km/h (2 Bft) 100,00 %
22.04.2018 03:23 13,6 C 13,9 C 75 % 1015,2 hPa 0,0 l/m 4,4 km/h (1 Bft) S-SW 198 0 min 0,000 mm 0,0 UV-I 0 W/m 9,3 C 13,6 C 4,8 km/h (1 Bft) 95,65 %
22.04.2018 03:24 13,6 C 13,9 C 76 % 1015,2 hPa 0,0 l/m 4,8 km/h (1 Bft) S-SW 198 0 min 0,000 mm 0,0 UV-I 0 W/m 9,4 C 13,6 C 6,4 km/h (2 Bft) 100,00 %
22.04.2018 03:25 13,6 C 13,9 C 76 % 1015,2 hPa 0,0 l/m 4,6 km/h (1 Bft) S-SW 198 0 min 0,000 mm 0,0 UV-I 0 W/m 9,4 C 13,6 C 6,4 km/h (2 Bft) 95,65 %
22.04.2018 03:26 13,6 C 13,9 C 76 % 1015,2 hPa 0,0 l/m 5,2 km/h (1 Bft) S-SW 196 0 min 0,000 mm 0,0 UV-I 0 W/m 9,4 C 13,6 C 6,4 km/h (2 Bft) 100,00 %
22.04.2018 03:27 13,6 C 13,9 C 76 % 1015,2 hPa 0,0 l/m 5,0 km/h (1 Bft) S-SW 196 0 min 0,000 mm 0,0 UV-I 0 W/m 9,4 C 13,6 C 6,4 km/h (2 Bft) 100,00 %
22.04.2018 03:28 13,6 C 13,9 C 76 % 1015,2 hPa 0,0 l/m 4,8 km/h (1 Bft) S-SW 196 0 min 0,000 mm 0,0 UV-I 0 W/m 9,4 C 13,6 C 6,4 km/h (2 Bft) 100,00 %
22.04.2018 03:29 13,6 C 13,9 C 76 % 1015,2 hPa 0,0 l/m 5,4 km/h (1 Bft) S-SW 196 0 min 0,000 mm 0,0 UV-I 0 W/m 9,4 C 13,6 C 6,4 km/h (2 Bft) 100,00 %
22.04.2018 03:30 13,6 C 13,9 C 76 % 1015,2 hPa 0,0 l/m 5,0 km/h (1 Bft) S-SW 196 0 min 0,000 mm 0,0 UV-I 0 W/m 9,4 C 13,6 C 6,4 km/h (2 Bft) 100,00 %
22.04.2018 03:31 13,6 C 13,9 C 76 % 1015,2 hPa 0,0 l/m 5,1 km/h (1 Bft) S-SW 196 0 min 0,000 mm 0,0 UV-I 0 W/m 9,4 C 13,6 C 6,4 km/h (2 Bft) 100,00 %
22.04.2018 03:32 13,6 C 13,9 C 76 % 1015,2 hPa 0,0 l/m 5,4 km/h (1 Bft) S-SW 196 0 min 0,000 mm 0,0 UV-I 0 W/m 9,4 C 13,6 C 8,0 km/h (2 Bft) 95,65 %
22.04.2018 03:33 13,5 C 13,9 C 76 % 1015,2 hPa 0,0 l/m 5,7 km/h (1 Bft) S-SW 196 0 min 0,000 mm 0,0 UV-I 0 W/m 9,4 C 13,5 C 6,4 km/h (2 Bft) 95,83 %
22.04.2018 03:34 13,5 C 13,9 C 76 % 1015,2 hPa 0,0 l/m 5,6 km/h (1 Bft) S-SW 196 0 min 0,000 mm 0,0 UV-I 0 W/m 9,4 C 13,5 C 6,4 km/h (2 Bft) 100,00 %
22.04.2018 03:35 13,4 C 13,9 C 76 % 1015,2 hPa 0,0 l/m 5,4 km/h (1 Bft) S-SW 194 0 min 0,000 mm 0,0 UV-I 0 W/m 9,3 C 13,4 C 8,0 km/h (2 Bft) 100,00 %
22.04.2018 03:36 13,4 C 13,9 C 76 % 1015,2 hPa 0,0 l/m 6,3 km/h (2 Bft) S 189 0 min 0,000 mm 0,0 UV-I 0 W/m 9,3 C 13,4 C 8,0 km/h (2 Bft) 100,00 %
22.04.2018 03:37 13,5 C 13,9 C 76 % 1015,2 hPa 0,0 l/m 5,6 km/h (1 Bft) S 189 0 min 0,000 mm 0,0 UV-I 0 W/m 9,4 C 13,5 C 8,0 km/h (2 Bft) 100,00 %
22.04.2018 03:38 13,5 C 13,9 C 76 % 1015,2 hPa 0,0 l/m 5,5 km/h (1 Bft) S 188 0 min 0,000 mm 0,0 UV-I 0 W/m 9,4 C 13,5 C 8,0 km/h (2 Bft) 95,65 %
22.04.2018 03:39 13,4 C 13,9 C 76 % 1015,2 hPa 0,0 l/m 4,9 km/h (1 Bft) S 189 0 min 0,000 mm 0,0 UV-I 0 W/m 9,3 C 13,4 C 6,4 km/h (2 Bft) 100,00 %
22.04.2018 03:40 13,3 C 13,9 C 76 % 1015,2 hPa 0,0 l/m 4,4 km/h (1 Bft) S 189 0 min 0,000 mm 0,0 UV-I 0 W/m 9,2 C 13,3 C 6,4 km/h (2 Bft) 95,65 %
22.04.2018 03:41 13,3 C 13,9 C 77 % 1015,2 hPa 0,0 l/m 4,7 km/h (1 Bft) S 189 0 min 0,000 mm 0,0 UV-I 0 W/m 9,4 C 13,3 C 6,4 km/h (2 Bft) 100,00 %
22.04.2018 03:42 13,3 C 13,9 C 77 % 1015,2 hPa 0,0 l/m 5,3 km/h (1 Bft) S 190 0 min 0,000 mm 0,0 UV-I 0 W/m 9,4 C 13,3 C 6,4 km/h (2 Bft) 100,00 %
22.04.2018 03:43 13,3 C 13,9 C 77 % 1015,2 hPa 0,0 l/m 5,6 km/h (1 Bft) S 190 0 min 0,000 mm 0,0 UV-I 0 W/m 9,4 C 13,3 C 6,4 km/h (2 Bft) 100,00 %
22.04.2018 03:44 13,3 C 13,9 C 76 % 1015,2 hPa 0,0 l/m 5,8 km/h (2 Bft) S-SW 199 0 min 0,000 mm 0,0 UV-I 0 W/m 9,2 C 13,3 C 6,4 km/h (2 Bft) 100,00 %
22.04.2018 03:45 13,3 C 13,9 C 77 % 1015,2 hPa 0,0 l/m 6,8 km/h (2 Bft) S-SW 198 0 min 0,000 mm 0,0 UV-I 0 W/m 9,4 C 13,1 C 8,0 km/h (2 Bft) 100,00 %
22.04.2018 03:46 13,2 C 13,9 C 77 % 1015,2 hPa 0,0 l/m 6,7 km/h (2 Bft) S-SW 197 0 min 0,000 mm 0,0 UV-I 0 W/m 9,3 C 13,0 C 8,0 km/h (2 Bft) 100,00 %
22.04.2018 03:47 13,2 C 13,9 C 77 % 1015,2 hPa 0,0 l/m 6,0 km/h (2 Bft) S-SW 197 0 min 0,000 mm 0,0 UV-I 0 W/m 9,3 C 13,2 C 6,4 km/h (2 Bft) 100,00 %
22.04.2018 03:48 13,2 C 13,9 C 77 % 1015,1 hPa 0,0 l/m 5,7 km/h (1 Bft) S-SW 197 0 min 0,000 mm 0,0 UV-I 0 W/m 9,3 C 13,2 C 8,0 km/h (2 Bft) 100,00 %
22.04.2018 03:49 13,2 C 13,9 C 77 % 1015,1 hPa 0,0 l/m 6,2 km/h (2 Bft) S-SW 196 0 min 0,000 mm 0,0 UV-I 0 W/m 9,3 C 13,2 C 8,0 km/h (2 Bft) 100,00 %
22.04.2018 03:50 13,3 C 13,9 C 77 % 1015,1 hPa 0,0 l/m 5,6 km/h (1 Bft) S-SW 196 0 min 0,000 mm 0,0 UV-I 0 W/m 9,4 C 13,3 C 6,4 km/h (2 Bft) 100,00 %
22.04.2018 03:51 13,3 C 13,9 C 77 % 1015,1 hPa 0,0 l/m 5,5 km/h (1 Bft) S-SW 196 0 min 0,000 mm 0,0 UV-I 0 W/m 9,4 C 13,3 C 6,4 km/h (2 Bft) 95,65 %
22.04.2018 03:52 13,3 C 13,9 C 77 % 1015,1 hPa 0,0 l/m 5,7 km/h (1 Bft) S-SW 205 0 min 0,000 mm 0,0 UV-I 0 W/m 9,4 C 13,3 C 8,0 km/h (2 Bft) 100,00 %
22.04.2018 03:53 13,3 C 13,9 C 77 % 1015,1 hPa 0,0 l/m 5,3 km/h (1 Bft) S-SW 205 0 min 0,000 mm 0,0 UV-I 0 W/m 9,4 C 13,3 C 6,4 km/h (2 Bft) 100,00 %
22.04.2018 03:54 13,3 C 13,9 C 77 % 1015,1 hPa 0,0 l/m 5,3 km/h (1 Bft) S-SW 205 0 min 0,000 mm 0,0 UV-I 0 W/m 9,4 C 13,3 C 8,0 km/h (2 Bft) 100,00 %
22.04.2018 03:55 13,3 C 13,9 C 77 % 1015,1 hPa 0,0 l/m 5,3 km/h (1 Bft) S-SW 205 0 min 0,000 mm 0,0 UV-I 0 W/m 9,4 C 13,3 C 6,4 km/h (2 Bft) 100,00 %
22.04.2018 03:56 13,3 C 13,9 C 77 % 1015,1 hPa 0,0 l/m 5,6 km/h (1 Bft) S-SW 204 0 min 0,000 mm 0,0 UV-I 0 W/m 9,4 C 13,3 C 6,4 km/h (2 Bft) 100,00 %
22.04.2018 03:57 13,3 C 13,9 C 77 % 1015,1 hPa 0,0 l/m 5,6 km/h (1 Bft) S-SW 204 0 min 0,000 mm 0,0 UV-I 0 W/m 9,4 C 13,3 C 6,4 km/h (2 Bft) 100,00 %
22.04.2018 03:58 13,3 C 13,9 C 76 % 1015,1 hPa 0,0 l/m 5,6 km/h (1 Bft) S-SW 204 0 min 0,000 mm 0,0 UV-I 0 W/m 9,2 C 13,3 C 8,0 km/h (2 Bft) 95,83 %
22.04.2018 03:59 13,3 C 13,9 C 77 % 1015,1 hPa 0,0 l/m 5,3 km/h (1 Bft) S-SW 211 0 min 0,000 mm 0,0 UV-I 0 W/m 9,4 C 13,3 C 8,0 km/h (2 Bft) 100,00 %
22.04.2018 04:00 13,2 C 13,9 C 77 % 1015,1 hPa 0,0 l/m 6,4 km/h (2 Bft) SW 218 0 min 0,026 mm 0,0 UV-I 0 W/m 9,3 C 13,2 C 8,0 km/h (2 Bft) 100,00 %
22.04.2018 04:02 13,1 C 13,9 C 77 % 1015,1 hPa 0,0 l/m 6,0 km/h (2 Bft) SW 217 0 min 0,000 mm 0,0 UV-I 0 W/m 9,2 C 13,1 C 8,0 km/h (2 Bft) 100,00 %
22.04.2018 04:03 13,0 C 13,9 C 77 % 1015,1 hPa 0,0 l/m 6,4 km/h (2 Bft) SW 217 0 min 0,000 mm 0,0 UV-I 0 W/m 9,1 C 13,0 C 8,0 km/h (2 Bft) 100,00 %
22.04.2018 04:04 12,9 C 13,9 C 77 % 1015,1 hPa 0,0 l/m 5,6 km/h (1 Bft) SW 217 0 min 0,000 mm 0,0 UV-I 0 W/m 9,0 C 12,9 C 6,4 km/h (2 Bft) 100,00 %
22.04.2018 04:05 12,8 C 13,9 C 78 % 1015,2 hPa 0,0 l/m 6,2 km/h (2 Bft) SW 217 0 min 0,000 mm 0,0 UV-I 0 W/m 9,1 C 12,8 C 8,0 km/h (2 Bft) 100,00 %
22.04.2018 04:06 12,7 C 13,9 C 78 % 1015,1 hPa 0,0 l/m 6,3 km/h (2 Bft) SW 217 0 min 0,000 mm 0,0 UV-I 0 W/m 9,0 C 12,7 C 6,4 km/h (2 Bft) 100,00 %
22.04.2018 04:07 12,7 C 13,9 C 78 % 1015,1 hPa 0,0 l/m 5,7 km/h (1 Bft) SW 217 0 min 0,000 mm 0,0 UV-I 0 W/m 9,0 C 12,7 C 6,4 km/h (2 Bft) 100,00 %
22.04.2018 04:08 12,6 C 13,9 C 79 % 1015,1 hPa 0,0 l/m 6,6 km/h (2 Bft) SW 217 0 min 0,000 mm 0,0 UV-I 0 W/m 9,1 C 12,5 C 8,0 km/h (2 Bft) 100,00 %
22.04.2018 04:09 12,6 C 13,9 C 79 % 1015,1 hPa 0,0 l/m 5,8 km/h (2 Bft) SW 217 0 min 0,000 mm 0,0 UV-I 0 W/m 9,1 C 12,6 C 8,0 km/h (2 Bft) 95,83 %
22.04.2018 04:10 12,7 C 13,9 C 79 % 1015,2 hPa 0,0 l/m 6,1 km/h (2 Bft) S-SW 198 0 min 0,000 mm 0,0 UV-I 0 W/m 9,2 C 12,7 C 8,0 km/h (2 Bft) 100,00 %
22.04.2018 04:11 12,7 C 13,9 C 78 % 1015,1 hPa 0,0 l/m 5,9 km/h (2 Bft) S-SW 198 0 min 0,000 mm 0,0 UV-I 0 W/m 9,0 C 12,7 C 6,4 km/h (2 Bft) 95,83 %
22.04.2018 04:12 12,7 C 13,9 C 78 % 1015,1 hPa 0,0 l/m 6,4 km/h (2 Bft) S-SW 206 0 min 0,000 mm 0,0 UV-I 0 W/m 9,0 C 12,7 C 9,7 km/h (2 Bft) 100,00 %
22.04.2018 04:13 12,8 C 13,9 C 78 % 1015,2 hPa 0,0 l/m 5,8 km/h (2 Bft) S-SW 200 0 min 0,000 mm 0,0 UV-I 0 W/m 9,1 C 12,8 C 8,0 km/h (2 Bft) 95,83 %
22.04.2018 04:14 12,8 C 13,9 C 78 % 1015,1 hPa 0,0 l/m 5,7 km/h (1 Bft) S-SW 199 0 min 0,000 mm 0,0 UV-I 0 W/m 9,1 C 12,8 C 8,0 km/h (2 Bft) 95,65 %
22.04.2018 04:15 12,8 C 13,9 C 78 % 1015,1 hPa 0,0 l/m 6,4 km/h (2 Bft) S-SW 202 0 min 0,000 mm 0,0 UV-I 0 W/m 9,1 C 12,8 C 8,0 km/h (2 Bft) 100,00 %
22.04.2018 04:16 12,9 C 13,9 C 78 % 1015,1 hPa 0,0 l/m 7,2 km/h (2 Bft) S-SW 200 0 min 0,000 mm 0,0 UV-I 0 W/m 9,2 C 12,4 C 9,7 km/h (2 Bft) 95,65 %
22.04.2018 04:17 13,0 C 13,9 C 77 % 1015,1 hPa 0,0 l/m 7,3 km/h (2 Bft) S-SW 195 0 min 0,000 mm 0,0 UV-I 0 W/m 9,1 C 12,4 C 9,7 km/h (2 Bft) 95,83 %
22.04.2018 04:18 13,1 C 13,9 C 77 % 1015,1 hPa 0,0 l/m 7,3 km/h (2 Bft) S 189 0 min 0,000 mm 0,0 UV-I 0 W/m 9,2 C 12,5 C 9,7 km/h (2 Bft) 91,30 %
22.04.2018 04:19 13,2 C 13,9 C 77 % 1015,1 hPa 0,0 l/m 7,5 km/h (2 Bft) S-SW 203 0 min 0,000 mm 0,0 UV-I 0 W/m 9,3 C 12,5 C 9,7 km/h (2 Bft) 100,00 %
22.04.2018 04:20 13,2 C 13,9 C 77 % 1015,1 hPa 0,0 l/m 6,4 km/h (2 Bft) S-SW 193 0 min 0,000 mm 0,0 UV-I 0 W/m 9,3 C 13,2 C 8,0 km/h (2 Bft) 95,65 %
22.04.2018 04:21 13,3 C 13,9 C 76 % 1015,1 hPa 0,0 l/m 6,9 km/h (2 Bft) S-SW 201 0 min 0,000 mm 0,0 UV-I 0 W/m 9,2 C 13,0 C 8,0 km/h (2 Bft) 100,00 %
22.04.2018 04:22 13,3 C 13,9 C 76 % 1015,0 hPa 0,0 l/m 6,7 km/h (2 Bft) S 191 0 min 0,000 mm 0,0 UV-I 0 W/m 9,2 C 13,1 C 8,0 km/h (2 Bft) 95,65 %
22.04.2018 04:23 13,4 C 13,9 C 76 % 1015,1 hPa 0,0 l/m 7,4 km/h (2 Bft) S 185 0 min 0,000 mm 0,0 UV-I 0 W/m 9,3 C 12,8 C 9,7 km/h (2 Bft) 95,83 %
22.04.2018 04:24 13,4 C 13,9 C 76 % 1015,1 hPa 0,0 l/m 6,4 km/h (2 Bft) S-SW 194 0 min 0,000 mm 0,0 UV-I 0 W/m 9,3 C 13,4 C 8,0 km/h (2 Bft) 100,00 %
22.04.2018 04:25 13,4 C 13,9 C 76 % 1015,1 hPa 0,0 l/m 6,6 km/h (2 Bft) S-SW 192 0 min 0,000 mm 0,0 UV-I 0 W/m 9,3 C 13,3 C 8,0 km/h (2 Bft) 95,65 %
22.04.2018 04:26 13,4 C 13,9 C 76 % 1015,1 hPa 0,0 l/m 6,1 km/h (2 Bft) S-SW 210 0 min 0,000 mm 0,0 UV-I 0 W/m 9,3 C 13,4 C 8,0 km/h (2 Bft) 100,00 %
22.04.2018 04:27 13,4 C 13,9 C 75 % 1015,1 hPa 0,0 l/m 6,1 km/h (2 Bft) S-SW 202 0 min 0,000 mm 0,0 UV-I 0 W/m 9,1 C 13,4 C 8,0 km/h (2 Bft) 95,65 %
22.04.2018 04:28 13,3 C 13,9 C 75 % 1015,1 hPa 0,0 l/m 6,8 km/h (2 Bft) S-SW 200 0 min 0,000 mm 0,0 UV-I 0 W/m 9,0 C 13,1 C 11,3 km/h (2 Bft) 100,00 %
22.04.2018 04:29 13,4 C 13,9 C 75 % 1015,1 hPa 0,0 l/m 6,4 km/h (2 Bft) S-SW 209 0 min 0,000 mm 0,0 UV-I 0 W/m 9,1 C 13,4 C 8,0 km/h (2 Bft) 91,30 %
22.04.2018 04:30 13,4 C 13,9 C 75 % 1015,1 hPa 0,0 l/m 6,4 km/h (2 Bft) S-SW 200 0 min 0,000 mm 0,0 UV-I 0 W/m 9,1 C 13,4 C 8,0 km/h (2 Bft) 100,00 %
22.04.2018 04:31 13,4 C 13,9 C 75 % 1015,1 hPa 0,0 l/m 6,2 km/h (2 Bft) S-SW 194 0 min 0,000 mm 0,0 UV-I 0 W/m 9,1 C 13,4 C 8,0 km/h (2 Bft) 95,65 %
22.04.2018 04:32 13,3 C 13,9 C 75 % 1015,0 hPa 0,0 l/m 6,7 km/h (2 Bft) S-SW 200 0 min 0,000 mm 0,0 UV-I 0 W/m 9,0 C 13,1 C 8,0 km/h (2 Bft) 95,83 %
22.04.2018 04:33 13,3 C 13,9 C 75 % 1015,0 hPa 0,0 l/m 7,7 km/h (2 Bft) S-SW 208 0 min 0,000 mm 0,0 UV-I 0 W/m 9,0 C 12,5 C 9,7 km/h (2 Bft) 100,00 %
22.04.2018 04:34 13,3 C 13,9 C 75 % 1015,0 hPa 0,0 l/m 7,0 km/h (2 Bft) S-SW 209 0 min 0,000 mm 0,0 UV-I 0 W/m 9,0 C 12,9 C 8,0 km/h (2 Bft) 95,83 %
22.04.2018 04:35 13,3 C 13,9 C 75 % 1015,0 hPa 0,0 l/m 7,3 km/h (2 Bft) S-SW 211 0 min 0,000 mm 0,0 UV-I 0 W/m 9,0 C 12,7 C 9,7 km/h (2 Bft) 100,00 %
22.04.2018 04:36 13,2 C 13,9 C 75 % 1015,0 hPa 0,0 l/m 7,0 km/h (2 Bft) S-SW 207 0 min 0,000 mm 0,0 UV-I 0 W/m 8,9 C 12,8 C 9,7 km/h (2 Bft) 95,83 %
22.04.2018 04:37 13,1 C 13,9 C 75 % 1015,0 hPa 0,0 l/m 6,5 km/h (2 Bft) S-SW 206 0 min 0,000 mm 0,0 UV-I 0 W/m 8,8 C 13,1 C 8,0 km/h (2 Bft) 100,00 %
22.04.2018 04:38 13,1 C 13,9 C 76 % 1015,0 hPa 0,0 l/m 7,3 km/h (2 Bft) SW 219 0 min 0,000 mm 0,0 UV-I 0 W/m 9,0 C 12,5 C 8,0 km/h (2 Bft) 96,15 %
22.04.2018 04:39 13,0 C 13,9 C 76 % 1015,0 hPa 0,0 l/m 6,8 km/h (2 Bft) SW 219 0 min 0,000 mm 0,0 UV-I 0 W/m 8,9 C 12,8 C 8,0 km/h (2 Bft) 95,65 %
22.04.2018 04:40 12,9 C 13,9 C 76 % 1015,0 hPa 0,0 l/m 6,8 km/h (2 Bft) S-SW 211 0 min 0,000 mm 0,0 UV-I 0 W/m 8,8 C 12,7 C 8,0 km/h (2 Bft) 100,00 %
22.04.2018 04:41 12,9 C 13,9 C 76 % 1015,0 hPa 0,0 l/m 6,3 km/h (2 Bft) S-SW 208 0 min 0,000 mm 0,0 UV-I 0 W/m 8,8 C 12,9 C 8,0 km/h (2 Bft) 95,65 %
22.04.2018 04:42 12,9 C 13,9 C 76 % 1015,1 hPa 0,0 l/m 7,1 km/h (2 Bft) S-SW 207 0 min 0,000 mm 0,0 UV-I 0 W/m 8,8 C 12,5 C 8,0 km/h (2 Bft) 100,00 %
22.04.2018 04:43 13,0 C 13,9 C 76 % 1015,1 hPa 0,0 l/m 6,2 km/h (2 Bft) S-SW 208 0 min 0,000 mm 0,0 UV-I 0 W/m 8,9 C 13,0 C 8,0 km/h (2 Bft) 91,67 %
22.04.2018 04:44 13,1 C 13,9 C 76 % 1015,0 hPa 0,0 l/m 6,7 km/h (2 Bft) SW 216 0 min 0,000 mm 0,0 UV-I 0 W/m 9,0 C 12,9 C 8,0 km/h (2 Bft) 97,14 %
22.04.2018 04:45 13,1 C 13,9 C 76 % 1015,0 hPa 0,0 l/m 5,7 km/h (1 Bft) SW 216 0 min 0,000 mm 0,0 UV-I 0 W/m 9,0 C 13,1 C 8,0 km/h (2 Bft) 100,00 %
22.04.2018 04:46 13,1 C 13,9 C 76 % 1015,0 hPa 0,0 l/m 6,5 km/h (2 Bft) S-SW 203 0 min 0,000 mm 0,0 UV-I 0 W/m 9,0 C 13,1 C 8,0 km/h (2 Bft) 100,00 %
22.04.2018 04:47 13,1 C 13,9 C 76 % 1015,0 hPa 0,0 l/m 5,8 km/h (2 Bft) S-SW 204 0 min 0,000 mm 0,0 UV-I 0 W/m 9,0 C 13,1 C 8,0 km/h (2 Bft) 100,00 %
22.04.2018 04:48 13,1 C 13,9 C 76 % 1015,0 hPa 0,0 l/m 5,3 km/h (1 Bft) S-SW 204 0 min 0,000 mm 0,0 UV-I 0 W/m 9,0 C 13,1 C 6,4 km/h (2 Bft) 100,00 %
22.04.2018 04:49 13,0 C 13,9 C 76 % 1015,0 hPa 0,0 l/m 5,4 km/h (1 Bft) S-SW 203 0 min 0,000 mm 0,0 UV-I 0 W/m 8,9 C 13,0 C 6,4 km/h (2 Bft) 100,00 %
22.04.2018 04:50 13,0 C 13,9 C 76 % 1015,0 hPa 0,0 l/m 6,2 km/h (2 Bft) S-SW 200 0 min 0,000 mm 0,0 UV-I 0 W/m 8,9 C 13,0 C 8,0 km/h (2 Bft) 95,65 %
22.04.2018 04:51 13,0 C 13,9 C 76 % 1014,9 hPa 0,0 l/m 5,4 km/h (1 Bft) S-SW 193 0 min 0,000 mm 0,0 UV-I 0 W/m 8,9 C 13,0 C 6,4 km/h (2 Bft) 95,83 %
22.04.2018 04:52 12,9 C 13,9 C 77 % 1014,9 hPa 0,0 l/m 5,2 km/h (1 Bft) S-SW 200 0 min 0,000 mm 0,0 UV-I 0 W/m 9,0 C 12,9 C 8,0 km/h (2 Bft) 100,00 %
22.04.2018 04:53 12,9 C 13,9 C 76 % 1014,9 hPa 0,0 l/m 6,2 km/h (2 Bft) S 190 0 min 0,000 mm 0,0 UV-I 0 W/m 8,8 C 12,9 C 8,0 km/h (2 Bft) 100,00 %
22.04.2018 04:54 12,9 C 13,9 C 77 % 1014,9 hPa 0,0 l/m 5,5 km/h (1 Bft) S-SW 192 0 min 0,000 mm 0,0 UV-I 0 W/m 9,0 C 12,9 C 6,4 km/h (2 Bft) 100,00 %
22.04.2018 04:55 12,9 C 13,9 C 77 % 1014,9 hPa 0,0 l/m 6,0 km/h (2 Bft) S-SW 192 0 min 0,000 mm 0,0 UV-I 0 W/m 9,0 C 12,9 C 8,0 km/h (2 Bft) 95,83 %
22.04.2018 04:56 12,9 C 13,9 C 77 % 1014,9 hPa 0,0 l/m 6,8 km/h (2 Bft) S 191 0 min 0,000 mm 0,0 UV-I 0 W/m 9,0 C 12,7 C 8,0 km/h (2 Bft) 95,65 %
22.04.2018 04:57 13,0 C 13,9 C 77 % 1014,9 hPa 0,0 l/m 7,8 km/h (2 Bft) S 189 0 min 0,000 mm 0,0 UV-I 0 W/m 9,1 C 12,1 C 9,7 km/h (2 Bft) 100,00 %
22.04.2018 04:58 13,0 C 13,9 C 77 % 1014,9 hPa 0,0 l/m 6,5 km/h (2 Bft) S-SW 195 0 min 0,000 mm 0,0 UV-I 0 W/m 9,1 C 13,0 C 8,0 km/h (2 Bft) 100,00 %
22.04.2018 04:59 13,1 C 13,9 C 76 % 1014,8 hPa 0,0 l/m 6,0 km/h (2 Bft) S-SW 198 0 min 0,000 mm 0,0 UV-I 0 W/m 9,0 C 13,1 C 8,0 km/h (2 Bft) 100,00 %
22.04.2018 05:00 13,1 C 13,9 C 76 % 1014,8 hPa 0,0 l/m 5,6 km/h (1 Bft) S-SW 194 0 min 0,025 mm 0,0 UV-I 0 W/m 9,0 C 13,1 C 8,0 km/h (2 Bft) 95,83 %
22.04.2018 05:01 13,1 C 13,9 C 76 % 1014,9 hPa 0,0 l/m 4,4 km/h (1 Bft) S-SW 196 0 min 0,000 mm 0,0 UV-I 0 W/m 9,0 C 13,1 C 8,0 km/h (2 Bft) 100,00 %
22.04.2018 05:02 13,1 C 13,9 C 76 % 1014,9 hPa 0,0 l/m 3,8 km/h (1 Bft) S-SW 196 0 min 0,000 mm 0,0 UV-I 0 W/m 9,0 C 13,1 C 4,8 km/h (1 Bft) 100,00 %
22.04.2018 05:03 13,1 C 13,9 C 76 % 1014,9 hPa 0,0 l/m 4,9 km/h (1 Bft) S-SW 196 0 min 0,000 mm 0,0 UV-I 0 W/m 9,0 C 13,1 C 6,4 km/h (2 Bft) 95,65 %
22.04.2018 05:04 13,1 C 13,9 C 76 % 1014,8 hPa 0,0 l/m 4,8 km/h (1 Bft) S-SW 196 0 min 0,000 mm 0,0 UV-I 0 W/m 9,0 C 13,1 C 6,4 km/h (2 Bft) 100,00 %
22.04.2018 05:05 12,9 C 13,9 C 76 % 1014,9 hPa 0,0 l/m 4,1 km/h (1 Bft) S-SW 196 0 min 0,000 mm 0,0 UV-I 0 W/m 8,8 C 12,9 C 6,4 km/h (2 Bft) 100,00 %
22.04.2018 05:06 12,8 C 13,9 C 77 % 1014,8 hPa 0,0 l/m 4,2 km/h (1 Bft) S-SW 196 0 min 0,000 mm 0,0 UV-I 0 W/m 8,9 C 12,8 C 4,8 km/h (1 Bft) 100,00 %
22.04.2018 05:07 12,7 C 13,9 C 77 % 1014,8 hPa 0,0 l/m 4,6 km/h (1 Bft) S-SW 201 0 min 0,000 mm 0,0 UV-I 0 W/m 8,8 C 12,7 C 4,8 km/h (1 Bft) 100,00 %
22.04.2018 05:08 12,5 C 13,9 C 78 % 1014,8 hPa 0,0 l/m 5,2 km/h (1 Bft) S-SW 201 0 min 0,000 mm 0,0 UV-I 0 W/m 8,8 C 12,5 C 6,4 km/h (2 Bft) 100,00 %
22.04.2018 05:09 12,4 C 13,9 C 78 % 1014,8 hPa 0,0 l/m 4,6 km/h (1 Bft) S-SW 201 0 min 0,000 mm 0,0 UV-I 0 W/m 8,7 C 12,4 C 4,8 km/h (1 Bft) 95,65 %
22.04.2018 05:10 12,3 C 13,9 C 79 % 1014,8 hPa 0,0 l/m 4,7 km/h (1 Bft) S-SW 201 0 min 0,000 mm 0,0 UV-I 0 W/m 8,8 C 12,3 C 4,8 km/h (1 Bft) 100,00 %
22.04.2018 05:11 12,2 C 13,9 C 79 % 1014,8 hPa 0,0 l/m 4,9 km/h (1 Bft) S-SW 201 0 min 0,000 mm 0,0 UV-I 0 W/m 8,7 C 12,2 C 6,4 km/h (2 Bft) 95,65 %
22.04.2018 05:12 12,2 C 13,9 C 80 % 1014,8 hPa 0,0 l/m 5,0 km/h (1 Bft) S-SW 201 0 min 0,000 mm 0,0 UV-I 0 W/m 8,9 C 12,2 C 6,4 km/h (2 Bft) 100,00 %
22.04.2018 05:13 12,1 C 13,9 C 80 % 1014,8 hPa 0,0 l/m 4,8 km/h (1 Bft) S-SW 201 0 min 0,000 mm 0,0 UV-I 0 W/m 8,8 C 12,1 C 4,8 km/h (1 Bft) 100,00 %
22.04.2018 05:14 12,1 C 13,9 C 80 % 1014,8 hPa 0,0 l/m 4,4 km/h (1 Bft) S-SW 201 0 min 0,000 mm 0,0 UV-I 0 W/m 8,8 C 12,1 C 4,8 km/h (1 Bft) 100,00 %
22.04.2018 05:15 12,0 C 13,9 C 81 % 1014,8 hPa 0,0 l/m 5,1 km/h (1 Bft) S-SW 202 0 min 0,000 mm 0,0 UV-I 0 W/m 8,8 C 12,0 C 6,4 km/h (2 Bft) 100,00 %
22.04.2018 05:16 12,0 C 13,9 C 81 % 1014,8 hPa 0,0 l/m 5,1 km/h (1 Bft) S-SW 202 0 min 0,000 mm 0,0 UV-I 0 W/m 8,8 C 12,0 C 6,4 km/h (2 Bft) 100,00 %
22.04.2018 05:17 12,0 C 13,9 C 81 % 1014,8 hPa 0,0 l/m 4,8 km/h (1 Bft) S-SW 202 0 min 0,000 mm 0,0 UV-I 0 W/m 8,8 C 12,0 C 6,4 km/h (2 Bft) 100,00 %
22.04.2018 05:18 12,1 C 13,9 C 80 % 1014,8 hPa 0,0 l/m 5,6 km/h (1 Bft) S-SW 205 0 min 0,000 mm 0,0 UV-I 0 W/m 8,8 C 12,1 C 8,0 km/h (2 Bft) 100,00 %
22.04.2018 05:19 12,1 C 13,9 C 80 % 1014,8 hPa 0,0 l/m 5,2 km/h (1 Bft) S-SW 205 0 min 0,000 mm 0,0 UV-I 0 W/m 8,8 C 12,1 C 6,4 km/h (2 Bft) 95,65 %
22.04.2018 05:20 12,1 C 13,9 C 80 % 1014,8 hPa 0,0 l/m 4,9 km/h (1 Bft) S-SW 205 0 min 0,000 mm 0,0 UV-I 0 W/m 8,8 C 12,1 C 6,4 km/h (2 Bft) 100,00 %
22.04.2018 05:21 12,0 C 13,9 C 80 % 1014,8 hPa 0,0 l/m 4,3 km/h (1 Bft) S-SW 205 0 min 0,000 mm 0,0 UV-I 0 W/m 8,7 C 12,0 C 4,8 km/h (1 Bft) 95,83 %
22.04.2018 05:22 12,0 C 13,9 C 81 % 1014,8 hPa 0,0 l/m 5,3 km/h (1 Bft) S-SW 205 0 min 0,000 mm 0,0 UV-I 0 W/m 8,8 C 12,0 C 6,4 km/h (2 Bft) 100,00 %
22.04.2018 05:23 11,9 C 13,9 C 81 % 1014,8 hPa 0,0 l/m 4,1 km/h (1 Bft) S-SW 205 0 min 0,000 mm 0,0 UV-I 0 W/m 8,7 C 11,9 C 4,8 km/h (1 Bft) 100,00 %
22.04.2018 05:24 11,8 C 13,9 C 81 % 1014,8 hPa 0,0 l/m 3,9 km/h (1 Bft) S-SW 205 0 min 0,000 mm 0,0 UV-I 0 W/m 8,6 C 11,8 C 4,8 km/h (1 Bft) 100,00 %
22.04.2018 05:25 11,7 C 13,9 C 81 % 1014,8 hPa 0,0 l/m 3,7 km/h (1 Bft) S-SW 205 0 min 0,000 mm 0,0 UV-I 0 W/m 8,5 C 11,7 C 4,8 km/h (1 Bft) 100,00 %
22.04.2018 05:26 11,7 C 13,9 C 82 % 1014,8 hPa 0,0 l/m 3,7 km/h (1 Bft) S-SW 205 0 min 0,000 mm 0,0 UV-I 0 W/m 8,7 C 11,7 C 4,8 km/h (1 Bft) 100,00 %
22.04.2018 05:27 11,8 C 13,9 C 82 % 1014,8 hPa 0,0 l/m 3,1 km/h (1 Bft) S-SW 205 0 min 0,000 mm 0,0 UV-I 0 W/m 8,8 C 11,8 C 4,8 km/h (1 Bft) 100,00 %
22.04.2018 05:28 11,9 C 13,9 C 81 % 1014,7 hPa 0,0 l/m 2,3 km/h (1 Bft) S-SW 205 0 min 0,000 mm 0,0 UV-I 0 W/m 8,7 C 11,9 C 3,2 km/h (1 Bft) 100,00 %
22.04.2018 05:29 11,9 C 13,9 C 81 % 1014,7 hPa 0,0 l/m 1,1 km/h (1 Bft) S-SW 205 0 min 0,000 mm 0,0 UV-I 0 W/m 8,7 C 11,9 C 1,6 km/h (1 Bft) 100,00 %
22.04.2018 05:30 12,0 C 13,9 C 81 % 1014,8 hPa 0,0 l/m 1,6 km/h (1 Bft) S-SW 205 0 min 0,000 mm 0,0 UV-I 0 W/m 8,8 C 12,0 C 1,6 km/h (1 Bft) 100,00 %
22.04.2018 05:31 12,0 C 13,9 C 81 % 1014,8 hPa 0,0 l/m 2,0 km/h (1 Bft) S-SW 205 0 min 0,000 mm 0,0 UV-I 0 W/m 8,8 C 12,0 C 3,2 km/h (1 Bft) 100,00 %
22.04.2018 05:32 12,0 C 13,9 C 81 % 1014,7 hPa 0,0 l/m 2,5 km/h (1 Bft) S-SW 205 0 min 0,000 mm 0,0 UV-I 0 W/m 8,8 C 12,0 C 4,8 km/h (1 Bft) 100,00 %
22.04.2018 05:33 11,9 C 13,9 C 81 % 1014,8 hPa 0,0 l/m 4,6 km/h (1 Bft) S-SW 205 0 min 0,000 mm 0,0 UV-I 0 W/m 8,7 C 11,9 C 4,8 km/h (1 Bft) 100,00 %
22.04.2018 05:34 11,9 C 13,9 C 81 % 1014,8 hPa 0,0 l/m 4,6 km/h (1 Bft) S-SW 211 0 min 0,000 mm 0,0 UV-I 0 W/m 8,7 C 11,9 C 6,4 km/h (2 Bft) 100,00 %
22.04.2018 05:35 11,9 C 13,9 C 81 % 1014,8 hPa 0,0 l/m 5,0 km/h (1 Bft) SW 236 0 min 0,000 mm 0,0 UV-I 0 W/m 8,7 C 11,9 C 6,4 km/h (2 Bft) 100,00 %
22.04.2018 05:36 11,8 C 13,9 C 81 % 1014,8 hPa 0,0 l/m 5,1 km/h (1 Bft) SW 236 0 min 0,000 mm 0,0 UV-I 0 W/m 8,6 C 11,8 C 6,4 km/h (2 Bft) 100,00 %
22.04.2018 05:37 11,8 C 13,9 C 81 % 1014,8 hPa 0,0 l/m 4,9 km/h (1 Bft) SW 236 0 min 0,000 mm 0,0 UV-I 0 W/m 8,6 C 11,8 C 6,4 km/h (2 Bft) 100,00 %
22.04.2018 05:38 11,7 C 13,9 C 81 % 1014,8 hPa 0,0 l/m 4,4 km/h (1 Bft) SW 234 0 min 0,000 mm 0,0 UV-I 0 W/m 8,5 C 11,7 C 4,8 km/h (1 Bft) 100,00 %
22.04.2018 05:39 11,6 C 13,9 C 82 % 1014,8 hPa 0,0 l/m 4,8 km/h (1 Bft) SW 234 0 min 0,000 mm 0,0 UV-I 0 W/m 8,6 C 11,6 C 6,4 km/h (2 Bft) 100,00 %
22.04.2018 05:40 11,5 C 13,9 C 82 % 1014,8 hPa 0,0 l/m 4,8 km/h (1 Bft) SW 234 0 min 0,000 mm 0,0 UV-I 0 W/m 8,5 C 11,5 C 6,4 km/h (2 Bft) 95,65 %
22.04.2018 05:41 11,5 C 13,9 C 82 % 1014,9 hPa 0,0 l/m 5,0 km/h (1 Bft) SW 234 0 min 0,000 mm 0,0 UV-I 0 W/m 8,5 C 11,5 C 6,4 km/h (2 Bft) 95,83 %
22.04.2018 05:42 11,4 C 13,9 C 83 % 1014,8 hPa 0,0 l/m 4,9 km/h (1 Bft) SW 234 0 min 0,000 mm 0,0 UV-I 0 W/m 8,6 C 11,4 C 6,4 km/h (2 Bft) 100,00 %
22.04.2018 05:43 11,3 C 13,9 C 82 % 1014,8 hPa 0,0 l/m 4,9 km/h (1 Bft) SW 234 0 min 0,000 mm 0,0 UV-I 0 W/m 8,3 C 11,3 C 6,4 km/h (2 Bft) 95,65 %
22.04.2018 05:44 11,1 C 13,3 C 83 % 1014,8 hPa 0,0 l/m 4,8 km/h (1 Bft) SW 234 0 min 0,000 mm 0,0 UV-I 0 W/m 8,3 C 11,1 C 6,4 km/h (2 Bft) 100,00 %
22.04.2018 05:45 10,9 C 13,3 C 83 % 1014,8 hPa 0,0 l/m 5,0 km/h (1 Bft) SW 234 0 min 0,000 mm 0,0 UV-I 0 W/m 8,1 C 10,9 C 6,4 km/h (2 Bft) 91,30 %
22.04.2018 05:46 10,8 C 13,3 C 84 % 1014,8 hPa 0,0 l/m 4,4 km/h (1 Bft) SW 234 0 min 0,000 mm 0,0 UV-I 0 W/m 8,2 C 10,8 C 4,8 km/h (1 Bft) 100,00 %
22.04.2018 05:47 10,8 C 13,3 C 84 % 1014,8 hPa 0,0 l/m 4,4 km/h (1 Bft) SW 234 0 min 0,000 mm 0,0 UV-I 5 W/m 8,2 C 10,8 C 4,8 km/h (1 Bft) 95,65 %
22.04.2018 05:48 10,8 C 13,3 C 84 % 1014,8 hPa 0,0 l/m 4,4 km/h (1 Bft) SW 234 0 min 0,000 mm 0,0 UV-I 5 W/m 8,2 C 10,8 C 4,8 km/h (1 Bft) 100,00 %
22.04.2018 05:49 10,9 C 13,3 C 84 % 1014,9 hPa 0,0 l/m 4,1 km/h (1 Bft) SW 234 0 min 0,000 mm 0,0 UV-I 5 W/m 8,3 C 10,9 C 4,8 km/h (1 Bft) 95,65 %
22.04.2018 05:50 10,9 C 13,3 C 84 % 1014,8 hPa 0,0 l/m 3,8 km/h (1 Bft) SW 234 0 min 0,000 mm 0,0 UV-I 5 W/m 8,3 C 10,9 C 4,8 km/h (1 Bft) 100,00 %
22.04.2018 05:51 11,0 C 13,3 C 84 % 1014,9 hPa 0,0 l/m 4,0 km/h (1 Bft) SW 228 0 min 0,000 mm 0,0 UV-I 5 W/m 8,4 C 11,0 C 4,8 km/h (1 Bft) 95,65 %
22.04.2018 05:52 11,1 C 13,3 C 84 % 1014,8 hPa 0,0 l/m 4,6 km/h (1 Bft) SW 228 0 min 0,000 mm 0,0 UV-I 5 W/m 8,5 C 11,1 C 4,8 km/h (1 Bft) 100,00 %
22.04.2018 05:53 11,2 C 13,3 C 84 % 1014,8 hPa 0,0 l/m 4,8 km/h (1 Bft) SW 228 0 min 0,000 mm 0,0 UV-I 5 W/m 8,6 C 11,2 C 6,4 km/h (2 Bft) 91,30 %
22.04.2018 05:54 11,3 C 13,3 C 84 % 1014,8 hPa 0,0 l/m 5,5 km/h (1 Bft) S-SW 194 0 min 0,000 mm 0,0 UV-I 6 W/m 8,7 C 11,3 C 6,4 km/h (2 Bft) 95,83 %
22.04.2018 05:55 11,4 C 13,3 C 83 % 1014,9 hPa 0,0 l/m 4,2 km/h (1 Bft) S-SW 194 0 min 0,000 mm 0,0 UV-I 7 W/m 8,6 C 11,4 C 6,4 km/h (2 Bft) 100,00 %
22.04.2018 05:56 11,4 C 13,3 C 83 % 1014,9 hPa 0,0 l/m 5,0 km/h (1 Bft) S-SW 194 0 min 0,000 mm 0,0 UV-I 7 W/m 8,6 C 11,4 C 6,4 km/h (2 Bft) 95,83 %
22.04.2018 05:57 11,5 C 13,3 C 83 % 1014,9 hPa 0,0 l/m 4,1 km/h (1 Bft) S-SW 194 0 min 0,000 mm 0,0 UV-I 7 W/m 8,7 C 11,5 C 4,8 km/h (1 Bft) 95,83 %
22.04.2018 05:58 11,6 C 13,3 C 83 % 1014,9 hPa 0,0 l/m 3,6 km/h (1 Bft) S-SW 194 0 min 0,000 mm 0,0 UV-I 7 W/m 8,8 C 11,6 C 4,8 km/h (1 Bft) 91,30 %
22.04.2018 05:59 11,7 C 13,3 C 82 % 1014,8 hPa 0,0 l/m 4,0 km/h (1 Bft) S-SW 194 0 min 0,000 mm 0,0 UV-I 7 W/m 8,7 C 11,7 C 4,8 km/h (1 Bft) 100,00 %
22.04.2018 06:00 11,8 C 13,3 C 82 % 1014,9 hPa 0,0 l/m 4,8 km/h (1 Bft) S-SW 196 0 min 0,025 mm 0,0 UV-I 7 W/m 8,8 C 11,8 C 4,8 km/h (1 Bft) 95,65 %
22.04.2018 06:01 11,9 C 13,3 C 82 % 1014,8 hPa 0,0 l/m 4,2 km/h (1 Bft) S-SW 196 0 min 0,000 mm 0,0 UV-I 7 W/m 8,9 C 11,9 C 4,8 km/h (1 Bft) 100,00 %
22.04.2018 06:02 12,0 C 13,3 C 81 % 1014,9 hPa 0,0 l/m 4,0 km/h (1 Bft) S-SW 196 0 min 0,000 mm 0,0 UV-I 8 W/m 8,8 C 12,0 C 4,8 km/h (1 Bft) 95,65 %
22.04.2018 06:03 12,1 C 13,3 C 81 % 1014,9 hPa 0,0 l/m 4,4 km/h (1 Bft) S-SW 196 0 min 0,000 mm 0,0 UV-I 9 W/m 8,9 C 12,1 C 4,8 km/h (1 Bft) 95,83 %
22.04.2018 06:04 12,1 C 13,3 C 81 % 1014,9 hPa 0,0 l/m 3,1 km/h (1 Bft) S-SW 196 0 min 0,000 mm 0,0 UV-I 9 W/m 8,9 C 12,1 C 4,8 km/h (1 Bft) 86,96 %
22.04.2018 06:05 12,1 C 13,3 C 80 % 1014,9 hPa 0,0 l/m 1,9 km/h (1 Bft) S-SW 196 0 min 0,000 mm 0,0 UV-I 9 W/m 8,8 C 12,1 C 3,2 km/h (1 Bft) 92,31 %
22.04.2018 06:06 12,0 C 13,3 C 81 % 1014,9 hPa 0,0 l/m 3,1 km/h (1 Bft) S-SW 196 0 min 0,000 mm 0,0 UV-I 11 W/m 8,8 C 12,0 C 3,2 km/h (1 Bft) 100,00 %
22.04.2018 06:07 11,9 C 13,3 C 81 % 1014,9 hPa 0,0 l/m 2,1 km/h (1 Bft) S-SW 196 0 min 0,000 mm 0,0 UV-I 11 W/m 8,7 C 11,9 C 3,2 km/h (1 Bft) 95,83 %
22.04.2018 06:08 11,7 C 13,3 C 81 % 1014,9 hPa 0,0 l/m 1,2 km/h (1 Bft) S-SW 196 0 min 0,000 mm 0,0 UV-I 11 W/m 8,5 C 11,7 C 3,2 km/h (1 Bft) 96,55 %
22.04.2018 06:09 11,5 C 13,3 C 81 % 1014,9 hPa 0,0 l/m 2,1 km/h (1 Bft) S-SW 196 0 min 0,000 mm 0,0 UV-I 11 W/m 8,4 C 11,5 C 3,2 km/h (1 Bft) 95,83 %
22.04.2018 06:10 11,4 C 13,3 C 82 % 1014,9 hPa 0,0 l/m 3,5 km/h (1 Bft) S-SW 196 0 min 0,000 mm 0,0 UV-I 12 W/m 8,4 C 11,4 C 4,8 km/h (1 Bft) 100,00 %
22.04.2018 06:11 11,4 C 13,3 C 82 % 1014,9 hPa 0,0 l/m 3,2 km/h (1 Bft) S-SW 196 0 min 0,000 mm 0,0 UV-I 12 W/m 8,4 C 11,4 C 4,8 km/h (1 Bft) 95,83 %
22.04.2018 06:12 11,3 C 13,3 C 82 % 1014,9 hPa 0,0 l/m 3,0 km/h (1 Bft) S-SW 196 1 min 0,000 mm 0,0 UV-I 12 W/m 8,3 C 11,3 C 3,2 km/h (1 Bft) 100,00 %
22.04.2018 06:13 11,4 C 13,3 C 82 % 1014,9 hPa 0,0 l/m 2,7 km/h (1 Bft) S-SW 196 1 min 0,000 mm 0,0 UV-I 13 W/m 8,4 C 11,4 C 4,8 km/h (1 Bft) 95,83 %
22.04.2018 06:14 11,3 C 13,3 C 82 % 1014,9 hPa 0,0 l/m 2,2 km/h (1 Bft) S-SW 196 1 min 0,000 mm 0,0 UV-I 14 W/m 8,3 C 11,3 C 3,2 km/h (1 Bft) 95,65 %
22.04.2018 06:15 11,2 C 13,3 C 82 % 1014,9 hPa 0,0 l/m 1,8 km/h (1 Bft) S-SW 196 1 min 0,000 mm 0,0 UV-I 14 W/m 8,2 C 11,2 C 3,2 km/h (1 Bft) 100,00 %
22.04.2018 06:16 11,2 C 13,3 C 83 % 1014,9 hPa 0,0 l/m 1,6 km/h (1 Bft) S-SW 196 1 min 0,000 mm 0,0 UV-I 16 W/m 8,4 C 11,2 C 3,2 km/h (1 Bft) 95,65 %
22.04.2018 06:17 11,3 C 13,3 C 83 % 1015,0 hPa 0,0 l/m 1,7 km/h (1 Bft) S-SW 196 1 min 0,000 mm 0,0 UV-I 16 W/m 8,5 C 11,3 C 3,2 km/h (1 Bft) 100,00 %
22.04.2018 06:18 11,3 C 13,3 C 83 % 1015,0 hPa 0,0 l/m 2,1 km/h (1 Bft) S-SW 196 1 min 0,000 mm 0,0 UV-I 18 W/m 8,5 C 11,3 C 3,2 km/h (1 Bft) 95,65 %
22.04.2018 06:19 11,4 C 13,3 C 83 % 1014,9 hPa 0,0 l/m 1,9 km/h (1 Bft) S-SW 196 0 min 0,000 mm 0,0 UV-I 18 W/m 8,6 C 11,4 C 3,2 km/h (1 Bft) 100,00 %
22.04.2018 06:20 11,5 C 13,3 C 83 % 1014,9 hPa 0,0 l/m 1,5 km/h (1 Bft) S-SW 196 0 min 0,000 mm 0,0 UV-I 19 W/m 8,7 C 11,5 C 1,6 km/h (1 Bft) 95,83 %
22.04.2018 06:21 11,5 C 13,3 C 82 % 1015,0 hPa 0,0 l/m 2,7 km/h (1 Bft) S-SW 196 0 min 0,000 mm 0,0 UV-I 21 W/m 8,5 C 11,5 C 3,2 km/h (1 Bft) 100,00 %
22.04.2018 06:22 11,5 C 13,3 C 82 % 1015,0 hPa 0,0 l/m 1,9 km/h (1 Bft) S-SW 196 0 min 0,000 mm 0,0 UV-I 21 W/m 8,5 C 11,5 C 3,2 km/h (1 Bft) 91,67 %
22.04.2018 06:23 11,4 C 13,3 C 82 % 1014,9 hPa 0,0 l/m 2,5 km/h (1 Bft) S-SW 196 0 min 0,000 mm 0,0 UV-I 23 W/m 8,4 C 11,4 C 3,2 km/h (1 Bft) 100,00 %
22.04.2018 06:24 11,3 C 13,3 C 82 % 1014,9 hPa 0,0 l/m 2,5 km/h (1 Bft) S-SW 196 0 min 0,000 mm 0,0 UV-I 24 W/m 8,3 C 11,3 C 3,2 km/h (1 Bft) 91,67 %
22.04.2018 06:25 11,3 C 13,3 C 82 % 1014,9 hPa 0,0 l/m 2,1 km/h (1 Bft) S-SW 196 0 min 0,000 mm 0,0 UV-I 25 W/m 8,3 C 11,3 C 3,2 km/h (1 Bft) 96,15 %
22.04.2018 06:26 11,1 C 13,3 C 83 % 1014,9 hPa 0,0 l/m 2,0 km/h (1 Bft) S-SW 196 0 min 0,000 mm 0,0 UV-I 26 W/m 8,3 C 11,1 C 3,2 km/h (1 Bft) 91,67 %
22.04.2018 06:27 11,1 C 13,3 C 83 % 1014,9 hPa 0,0 l/m 2,4 km/h (1 Bft) S-SW 196 0 min 0,000 mm 0,0 UV-I 26 W/m 8,3 C 11,1 C 3,2 km/h (1 Bft) 95,65 %
22.04.2018 06:28 11,0 C 13,3 C 84 % 1014,9 hPa 0,0 l/m 2,3 km/h (1 Bft) S-SW 196 0 min 0,000 mm 0,0 UV-I 28 W/m 8,4 C 11,0 C 3,2 km/h (1 Bft) 95,83 %
22.04.2018 06:29 10,9 C 13,3 C 84 % 1014,9 hPa 0,0 l/m 2,5 km/h (1 Bft) S-SW 196 0 min 0,000 mm 0,0 UV-I 31 W/m 8,3 C 10,9 C 3,2 km/h (1 Bft) 86,96 %
22.04.2018 06:30 10,8 C 13,3 C 84 % 1014,9 hPa 0,0 l/m 2,7 km/h (1 Bft) S-SW 196 0 min 0,000 mm 0,0 UV-I 34 W/m 8,2 C 10,8 C 3,2 km/h (1 Bft) 100,00 %
22.04.2018 06:31 10,7 C 13,3 C 84 % 1014,9 hPa 0,0 l/m 1,9 km/h (1 Bft) S-SW 196 0 min 0,000 mm 0,0 UV-I 35 W/m 8,1 C 10,7 C 3,2 km/h (1 Bft) 91,30 %
22.04.2018 06:32 10,7 C 13,3 C 85 % 1014,9 hPa 0,0 l/m 2,1 km/h (1 Bft) S-SW 196 0 min 0,000 mm 0,0 UV-I 36 W/m 8,3 C 10,7 C 3,2 km/h (1 Bft) 100,00 %
22.04.2018 06:33 10,6 C 13,3 C 85 % 1014,9 hPa 0,0 l/m 1,7 km/h (1 Bft) S-SW 196 0 min 0,000 mm 0,0 UV-I 39 W/m 8,2 C 10,6 C 3,2 km/h (1 Bft) 91,30 %
22.04.2018 06:34 10,6 C 13,3 C 85 % 1014,9 hPa 0,0 l/m 2,1 km/h (1 Bft) S-SW 196 0 min 0,000 mm 0,0 UV-I 40 W/m 8,2 C 10,6 C 3,2 km/h (1 Bft) 95,83 %
22.04.2018 06:35 10,6 C 13,3 C 85 % 1014,9 hPa 0,0 l/m 2,1 km/h (1 Bft) S-SW 196 0 min 0,000 mm 0,0 UV-I 43 W/m 8,2 C 10,6 C 3,2 km/h (1 Bft) 95,83 %
22.04.2018 06:36 10,7 C 13,3 C 86 % 1014,9 hPa 0,0 l/m 1,7 km/h (1 Bft) S-SW 196 0 min 0,000 mm 0,0 UV-I 45 W/m 8,5 C 10,7 C 3,2 km/h (1 Bft) 95,65 %
22.04.2018 06:37 10,9 C 13,3 C 86 % 1014,9 hPa 0,0 l/m 1,6 km/h (1 Bft) S-SW 196 0 min 0,000 mm 0,0 UV-I 46 W/m 8,7 C 10,9 C 1,6 km/h (1 Bft) 95,83 %
22.04.2018 06:38 11,1 C 13,3 C 85 % 1014,9 hPa 0,0 l/m 0,8 km/h (0 Bft) S-SW 196 0 min 0,000 mm 0,0 UV-I 45 W/m 8,7 C 11,1 C 1,6 km/h (1 Bft) 91,30 %
22.04.2018 06:39 11,2 C 13,3 C 85 % 1014,9 hPa 0,0 l/m 0,1 km/h (0 Bft) S-SW 196 0 min 0,000 mm 0,0 UV-I 40 W/m 8,8 C 11,2 C 1,6 km/h (1 Bft) 100,00 %
22.04.2018 06:40 11,3 C 13,3 C 84 % 1014,9 hPa 0,0 l/m 1,7 km/h (1 Bft) S-SW 196 0 min 0,000 mm 0,0 UV-I 39 W/m 8,7 C 11,3 C 3,2 km/h (1 Bft) 95,65 %
22.04.2018 06:41 11,3 C 13,3 C 84 % 1015,0 hPa 0,0 l/m 2,3 km/h (1 Bft) S-SW 196 0 min 0,000 mm 0,0 UV-I 37 W/m 8,7 C 11,3 C 3,2 km/h (1 Bft) 95,83 %
22.04.2018 06:42 11,2 C 13,3 C 84 % 1015,0 hPa 0,0 l/m 1,5 km/h (1 Bft) S-SW 196 0 min 0,000 mm 0,0 UV-I 38 W/m 8,6 C 11,2 C 3,2 km/h (1 Bft) 100,00 %
22.04.2018 06:43 11,2 C 13,3 C 85 % 1015,0 hPa 0,0 l/m 0,9 km/h (0 Bft) S-SW 196 0 min 0,000 mm 0,0 UV-I 39 W/m 8,8 C 11,2 C 1,6 km/h (1 Bft) 95,83 %
22.04.2018 06:44 11,0 C 13,3 C 85 % 1015,0 hPa 0,0 l/m 1,0 km/h (0 Bft) S-SW 196 0 min 0,000 mm 0,0 UV-I 39 W/m 8,6 C 11,0 C 1,6 km/h (1 Bft) 95,65 %
22.04.2018 06:45 10,9 C 13,3 C 85 % 1015,0 hPa 0,0 l/m 1,7 km/h (1 Bft) S-SW 196 0 min 0,000 mm 0,0 UV-I 40 W/m 8,5 C 10,9 C 3,2 km/h (1 Bft) 95,83 %
22.04.2018 06:46 10,8 C 13,3 C 85 % 1015,0 hPa 0,0 l/m 2,8 km/h (1 Bft) S-SW 196 0 min 0,000 mm 0,0 UV-I 48 W/m 8,4 C 10,8 C 3,2 km/h (1 Bft) 100,00 %
22.04.2018 06:47 10,7 C 13,3 C 85 % 1015,0 hPa 0,0 l/m 3,7 km/h (1 Bft) S-SW 196 0 min 0,000 mm 0,0 UV-I 58 W/m 8,3 C 10,7 C 4,8 km/h (1 Bft) 95,83 %
22.04.2018 06:48 10,6 C 13,3 C 86 % 1015,0 hPa 0,0 l/m 4,1 km/h (1 Bft) S-SW 196 1 min 0,000 mm 0,0 UV-I 64 W/m 8,4 C 10,6 C 4,8 km/h (1 Bft) 100,00 %
22.04.2018 06:49 10,6 C 13,3 C 86 % 1015,0 hPa 0,0 l/m 4,7 km/h (1 Bft) S-SW 196 1 min 0,000 mm 0,0 UV-I 66 W/m 8,4 C 10,6 C 4,8 km/h (1 Bft) 95,83 %
22.04.2018 06:50 10,6 C 13,3 C 86 % 1015,0 hPa 0,0 l/m 4,7 km/h (1 Bft) S-SW 196 1 min 0,000 mm 0,0 UV-I 69 W/m 8,4 C 10,6 C 4,8 km/h (1 Bft) 95,65 %
22.04.2018 06:51 10,6 C 13,3 C 86 % 1015,0 hPa 0,0 l/m 3,9 km/h (1 Bft) S-SW 196 1 min 0,000 mm 0,0 UV-I 70 W/m 8,4 C 10,6 C 4,8 km/h (1 Bft) 95,83 %
22.04.2018 06:52 10,6 C 13,3 C 86 % 1015,1 hPa 0,0 l/m 2,8 km/h (1 Bft) S-SW 196 1 min 0,000 mm 0,0 UV-I 72 W/m 8,4 C 10,6 C 4,8 km/h (1 Bft) 96,15 %
22.04.2018 06:53 10,7 C 13,3 C 87 % 1015,1 hPa 0,0 l/m 2,3 km/h (1 Bft) S-SW 196 1 min 0,000 mm 0,0 UV-I 72 W/m 8,6 C 10,7 C 3,2 km/h (1 Bft) 100,00 %
22.04.2018 06:54 10,7 C 13,3 C 87 % 1015,1 hPa 0,0 l/m 2,1 km/h (1 Bft) S-SW 196 0 min 0,000 mm 0,0 UV-I 72 W/m 8,6 C 10,7 C 3,2 km/h (1 Bft) 95,65 %
22.04.2018 06:55 10,8 C 13,3 C 87 % 1015,1 hPa 0,0 l/m 3,0 km/h (1 Bft) S-SW 196 0 min 0,000 mm 0,0 UV-I 74 W/m 8,7 C 10,8 C 3,2 km/h (1 Bft) 100,00 %
22.04.2018 06:56 10,9 C 13,3 C 86 % 1015,1 hPa 0,0 l/m 3,0 km/h (1 Bft) S-SW 196 0 min 0,000 mm 0,0 UV-I 76 W/m 8,7 C 10,9 C 3,2 km/h (1 Bft) 95,65 %
22.04.2018 06:57 11,1 C 13,3 C 86 % 1015,1 hPa 0,0 l/m 2,1 km/h (1 Bft) S-SW 196 0 min 0,000 mm 0,0 UV-I 76 W/m 8,8 C 11,1 C 3,2 km/h (1 Bft) 95,83 %
22.04.2018 06:58 11,2 C 13,3 C 85 % 1015,1 hPa 0,0 l/m 1,9 km/h (1 Bft) S-SW 196 0 min 0,000 mm 0,0 UV-I 78 W/m 8,8 C 11,2 C 3,2 km/h (1 Bft) 100,00 %
22.04.2018 06:59 11,3 C 13,3 C 85 % 1015,1 hPa 0,0 l/m 1,6 km/h (1 Bft) S-SW 196 1 min 0,000 mm 0,0 UV-I 86 W/m 8,9 C 11,3 C 3,2 km/h (1 Bft) 100,00 %
22.04.2018 07:00 11,3 C 13,3 C 85 % 1015,1 hPa 0,0 l/m 2,3 km/h (1 Bft) S-SW 196 1 min 0,026 mm 0,0 UV-I 88 W/m 8,9 C 11,3 C 3,2 km/h (1 Bft) 95,83 %
22.04.2018 07:01 11,3 C 13,3 C 85 % 1015,1 hPa 0,0 l/m 2,4 km/h (1 Bft) S-SW 196 1 min 0,000 mm 0,0 UV-I 87 W/m 8,9 C 11,3 C 3,2 km/h (1 Bft) 95,65 %
22.04.2018 07:02 11,4 C 13,3 C 85 % 1015,1 hPa 0,0 l/m 2,9 km/h (1 Bft) S-SW 196 1 min 0,000 mm 0,0 UV-I 95 W/m 9,0 C 11,4 C 3,2 km/h (1 Bft) 100,00 %
22.04.2018 07:03 11,4 C 13,3 C 85 % 1015,1 hPa 0,0 l/m 3,8 km/h (1 Bft) S-SW 196 1 min 0,000 mm 0,0 UV-I 98 W/m 9,0 C 11,4 C 4,8 km/h (1 Bft) 95,65 %
22.04.2018 07:04 11,5 C 13,3 C 85 % 1015,1 hPa 0,0 l/m 3,8 km/h (1 Bft) S-SW 196 1 min 0,000 mm 0,0 UV-I 100 W/m 9,1 C 11,5 C 4,8 km/h (1 Bft) 100,00 %
22.04.2018 07:05 11,5 C 13,3 C 85 % 1015,2 hPa 0,0 l/m 3,4 km/h (1 Bft) S-SW 196 1 min 0,000 mm 0,0 UV-I 102 W/m 9,1 C 11,5 C 4,8 km/h (1 Bft) 95,65 %
22.04.2018 07:06 11,5 C 13,3 C 84 % 1015,2 hPa 0,0 l/m 3,3 km/h (1 Bft) S-SW 196 1 min 0,000 mm 0,0 UV-I 103 W/m 8,9 C 11,5 C 4,8 km/h (1 Bft) 95,83 %
22.04.2018 07:07 11,6 C 13,3 C 84 % 1015,1 hPa 0,0 l/m 2,6 km/h (1 Bft) S-SW 196 1 min 0,000 mm 0,0 UV-I 107 W/m 9,0 C 11,6 C 3,2 km/h (1 Bft) 100,00 %
22.04.2018 07:08 11,6 C 13,3 C 84 % 1015,1 hPa 0,0 l/m 2,0 km/h (1 Bft) S-SW 196 1 min 0,000 mm 0,0 UV-I 112 W/m 9,0 C 11,6 C 3,2 km/h (1 Bft) 100,00 %
22.04.2018 07:09 11,6 C 13,3 C 84 % 1015,1 hPa 0,0 l/m 3,3 km/h (1 Bft) S-SW 196 1 min 0,000 mm 0,0 UV-I 114 W/m 9,0 C 11,6 C 4,8 km/h (1 Bft) 96,00 %
22.04.2018 07:10 11,6 C 13,3 C 84 % 1015,1 hPa 0,0 l/m 3,9 km/h (1 Bft) S-SW 196 1 min 0,000 mm 0,0 UV-I 116 W/m 9,0 C 11,6 C 4,8 km/h (1 Bft) 100,00 %
22.04.2018 07:11 11,6 C 13,3 C 84 % 1015,1 hPa 0,0 l/m 3,6 km/h (1 Bft) S-SW 196 1 min 0,000 mm 0,0 UV-I 119 W/m 9,0 C 11,6 C 4,8 km/h (1 Bft) 100,00 %
22.04.2018 07:12 11,6 C 13,3 C 84 % 1015,2 hPa 0,0 l/m 3,8 km/h (1 Bft) S-SW 196 1 min 0,000 mm 0,0 UV-I 121 W/m 9,0 C 11,6 C 4,8 km/h (1 Bft) 100,00 %
22.04.2018 07:13 11,7 C 13,3 C 84 % 1015,2 hPa 0,0 l/m 3,6 km/h (1 Bft) S-SW 196 1 min 0,000 mm 0,0 UV-I 124 W/m 9,1 C 11,7 C 4,8 km/h (1 Bft) 100,00 %
22.04.2018 07:14 11,8 C 13,3 C 83 % 1015,2 hPa 0,0 l/m 3,1 km/h (1 Bft) S-SW 196 1 min 0,000 mm 0,0 UV-I 127 W/m 9,0 C 11,8 C 4,8 km/h (1 Bft) 95,65 %
22.04.2018 07:15 11,8 C 13,3 C 83 % 1015,2 hPa 0,0 l/m 3,3 km/h (1 Bft) S-SW 196 1 min 0,000 mm 0,0 UV-I 128 W/m 9,0 C 11,8 C 4,8 km/h (1 Bft) 100,00 %
22.04.2018 07:16 11,9 C 13,3 C 83 % 1015,2 hPa 0,0 l/m 3,4 km/h (1 Bft) S-SW 196 1 min 0,000 mm 0,0 UV-I 131 W/m 9,1 C 11,9 C 4,8 km/h (1 Bft) 100,00 %
22.04.2018 07:17 11,9 C 13,3 C 84 % 1015,2 hPa 0,0 l/m 3,5 km/h (1 Bft) S-SW 196 1 min 0,000 mm 0,0 UV-I 134 W/m 9,3 C 11,9 C 4,8 km/h (1 Bft) 100,00 %
22.04.2018 07:18 12,0 C 13,3 C 84 % 1015,2 hPa 0,0 l/m 3,3 km/h (1 Bft) S-SW 196 1 min 0,000 mm 0,0 UV-I 136 W/m 9,4 C 12,0 C 4,8 km/h (1 Bft) 100,00 %
22.04.2018 07:19 12,0 C 13,3 C 85 % 1015,2 hPa 0,0 l/m 3,3 km/h (1 Bft) S-SW 196 1 min 0,000 mm 0,0 UV-I 140 W/m 9,6 C 12,0 C 4,8 km/h (1 Bft) 100,00 %
22.04.2018 07:20 12,1 C 13,3 C 85 % 1015,2 hPa 0,0 l/m 3,6 km/h (1 Bft) S-SW 196 1 min 0,000 mm 0,0 UV-I 141 W/m 9,7 C 12,1 C 4,8 km/h (1 Bft) 100,00 %
22.04.2018 07:21 12,2 C 13,3 C 85 % 1015,2 hPa 0,0 l/m 2,9 km/h (1 Bft) S-SW 196 1 min 0,000 mm 0,0 UV-I 143 W/m 9,8 C 12,2 C 3,2 km/h (1 Bft) 95,83 %
22.04.2018 07:22 12,3 C 13,3 C 83 % 1015,2 hPa 0,0 l/m 3,0 km/h (1 Bft) S-SW 196 1 min 0,000 mm 0,0 UV-I 147 W/m 9,5 C 12,3 C 3,2 km/h (1 Bft) 100,00 %
22.04.2018 07:23 12,4 C 13,3 C 83 % 1015,2 hPa 0,0 l/m 3,6 km/h (1 Bft) S-SW 196 1 min 0,000 mm 0,0 UV-I 148 W/m 9,6 C 12,4 C 4,8 km/h (1 Bft) 95,83 %
22.04.2018 07:24 12,5 C 13,3 C 82 % 1015,2 hPa 0,0 l/m 2,4 km/h (1 Bft) S-SW 196 1 min 0,000 mm 0,0 UV-I 150 W/m 9,5 C 12,5 C 3,2 km/h (1 Bft) 100,00 %
22.04.2018 07:25 12,7 C 13,3 C 81 % 1015,2 hPa 0,0 l/m 3,5 km/h (1 Bft) S-SW 196 1 min 0,000 mm 0,0 UV-I 154 W/m 9,5 C 12,7 C 4,8 km/h (1 Bft) 100,00 %
22.04.2018 07:26 12,7 C 13,3 C 80 % 1015,2 hPa 0,0 l/m 2,0 km/h (1 Bft) S-SW 196 1 min 0,000 mm 0,0 UV-I 156 W/m 9,3 C 12,7 C 3,2 km/h (1 Bft) 100,00 %
22.04.2018 07:27 12,8 C 13,3 C 80 % 1015,2 hPa 0,0 l/m 1,9 km/h (1 Bft) S-SW 196 1 min 0,000 mm 0,0 UV-I 158 W/m 9,4 C 12,8 C 3,2 km/h (1 Bft) 100,00 %
22.04.2018 07:28 12,9 C 13,3 C 80 % 1015,2 hPa 0,0 l/m 1,5 km/h (1 Bft) S-SW 196 1 min 0,000 mm 0,0 UV-I 161 W/m 9,5 C 12,9 C 1,6 km/h (1 Bft) 100,00 %
22.04.2018 07:29 13,0 C 13,3 C 81 % 1015,2 hPa 0,0 l/m 0,5 km/h (0 Bft) S-SW 196 1 min 0,000 mm 0,0 UV-I 164 W/m 9,8 C 13,0 C 1,6 km/h (1 Bft) 100,00 %
22.04.2018 07:30 13,1 C 13,3 C 80 % 1015,2 hPa 0,0 l/m 0,0 km/h (0 Bft) S-SW 196 1 min 0,000 mm 0,0 UV-I 166 W/m 9,7 C 13,1 C 0,0 km/h (0 Bft) 100,00 %
22.04.2018 07:31 13,2 C 13,3 C 80 % 1015,2 hPa 0,0 l/m 2,0 km/h (1 Bft) S-SW 196 1 min 0,000 mm 0,0 UV-I 170 W/m 9,8 C 13,2 C 3,2 km/h (1 Bft) 100,00 %
22.04.2018 07:32 13,2 C 13,3 C 80 % 1015,2 hPa 0,0 l/m 2,7 km/h (1 Bft) S-SW 196 1 min 0,000 mm 0,0 UV-I 172 W/m 9,8 C 13,2 C 4,8 km/h (1 Bft) 100,00 %
22.04.2018 07:33 13,3 C 13,3 C 79 % 1015,2 hPa 0,0 l/m 1,9 km/h (1 Bft) S-SW 196 1 min 0,000 mm 0,0 UV-I 175 W/m 9,7 C 13,3 C 3,2 km/h (1 Bft) 100,00 %
22.04.2018 07:34 13,3 C 13,3 C 79 % 1015,2 hPa 0,0 l/m 2,5 km/h (1 Bft) S-SW 196 1 min 0,000 mm 0,0 UV-I 178 W/m 9,7 C 13,3 C 4,8 km/h (1 Bft) 100,00 %
22.04.2018 07:35 13,4 C 13,3 C 78 % 1015,2 hPa 0,0 l/m 4,2 km/h (1 Bft) S-SW 196 1 min 0,000 mm 0,0 UV-I 180 W/m 9,6 C 13,4 C 4,8 km/h (1 Bft) 100,00 %
22.04.2018 07:36 13,4 C 13,3 C 78 % 1015,2 hPa 0,0 l/m 2,1 km/h (1 Bft) S-SW 196 1 min 0,000 mm 0,0 UV-I 182 W/m 9,6 C 13,4 C 3,2 km/h (1 Bft) 100,00 %
22.04.2018 07:37 13,5 C 13,3 C 78 % 1015,2 hPa 0,0 l/m 1,2 km/h (1 Bft) S-SW 196 1 min 0,000 mm 0,0 UV-I 184 W/m 9,7 C 13,5 C 3,2 km/h (1 Bft) 100,00 %
22.04.2018 07:38 13,6 C 13,3 C 77 % 1015,2 hPa 0,0 l/m 3,0 km/h (1 Bft) S-SW 196 1 min 0,000 mm 0,0 UV-I 188 W/m 9,6 C 13,6 C 4,8 km/h (1 Bft) 100,00 %
22.04.2018 07:39 13,6 C 13,3 C 78 % 1015,2 hPa 0,0 l/m 1,7 km/h (1 Bft) S-SW 196 1 min 0,000 mm 0,0 UV-I 190 W/m 9,8 C 13,6 C 3,2 km/h (1 Bft) 100,00 %
22.04.2018 07:40 13,7 C 13,3 C 78 % 1015,2 hPa 0,0 l/m 2,4 km/h (1 Bft) S-SW 196 1 min 0,000 mm 0,0 UV-I 192 W/m 9,9 C 13,7 C 4,8 km/h (1 Bft) 100,00 %
22.04.2018 07:41 13,7 C 13,3 C 77 % 1015,2 hPa 0,0 l/m 2,1 km/h (1 Bft) S-SW 196 1 min 0,000 mm 0,0 UV-I 195 W/m 9,7 C 13,7 C 3,2 km/h (1 Bft) 95,65 %
22.04.2018 07:42 13,8 C 13,3 C 77 % 1015,2 hPa 0,0 l/m 1,4 km/h (1 Bft) S-SW 196 1 min 0,000 mm 0,0 UV-I 198 W/m 9,8 C 13,8 C 1,6 km/h (1 Bft) 100,00 %
22.04.2018 07:43 13,8 C 13,3 C 76 % 1015,2 hPa 0,0 l/m 1,5 km/h (1 Bft) S-SW 196 1 min 0,000 mm 0,0 UV-I 200 W/m 9,6 C 13,8 C 3,2 km/h (1 Bft) 95,65 %
22.04.2018 07:44 13,8 C 13,3 C 76 % 1015,2 hPa 0,0 l/m 2,0 km/h (1 Bft) S-SW 196 1 min 0,000 mm 0,0 UV-I 204 W/m 9,6 C 13,8 C 4,8 km/h (1 Bft) 100,00 %
22.04.2018 07:45 13,9 C 13,3 C 77 % 1015,2 hPa 0,0 l/m 3,2 km/h (1 Bft) S-SW 196 1 min 0,000 mm 0,0 UV-I 206 W/m 9,9 C 13,9 C 4,8 km/h (1 Bft) 86,96 %
22.04.2018 07:46 13,9 C 13,3 C 76 % 1015,2 hPa 0,0 l/m 2,3 km/h (1 Bft) S-SW 196 1 min 0,000 mm 0,0 UV-I 208 W/m 9,7 C 13,9 C 4,8 km/h (1 Bft) 100,00 %
22.04.2018 07:47 13,9 C 13,3 C 76 % 1015,2 hPa 0,0 l/m 1,8 km/h (1 Bft) S-SW 196 1 min 0,000 mm 0,0 UV-I 212 W/m 9,7 C 13,9 C 3,2 km/h (1 Bft) 96,15 %
22.04.2018 07:48 14,0 C 13,3 C 77 % 1015,2 hPa 0,0 l/m 2,7 km/h (1 Bft) S-SW 196 1 min 0,000 mm 0,0 UV-I 214 W/m 10,0 C 14,0 C 3,2 km/h (1 Bft) 100,00 %
22.04.2018 07:49 14,1 C 13,3 C 76 % 1015,2 hPa 0,0 l/m 3,6 km/h (1 Bft) S-SW 196 1 min 0,000 mm 0,0 UV-I 217 W/m 9,9 C 14,1 C 4,8 km/h (1 Bft) 100,00 %
22.04.2018 07:50 14,2 C 13,3 C 76 % 1015,2 hPa 0,0 l/m 3,2 km/h (1 Bft) S-SW 196 1 min 0,000 mm 0,0 UV-I 220 W/m 10,0 C 14,2 C 3,2 km/h (1 Bft) 100,00 %
22.04.2018 07:51 14,2 C 13,3 C 76 % 1015,2 hPa 0,0 l/m 2,7 km/h (1 Bft) S-SW 196 1 min 0,000 mm 0,0 UV-I 222 W/m 10,0 C 14,2 C 3,2 km/h (1 Bft) 100,00 %
22.04.2018 07:52 14,2 C 13,3 C 76 % 1015,2 hPa 0,0 l/m 2,9 km/h (1 Bft) S-SW 196 1 min 0,000 mm 0,0 UV-I 225 W/m 10,0 C 14,2 C 3,2 km/h (1 Bft) 100,00 %
22.04.2018 07:53 14,2 C 13,3 C 77 % 1015,2 hPa 0,0 l/m 3,9 km/h (1 Bft) S-SW 196 1 min 0,000 mm 0,0 UV-I 225 W/m 10,2 C 14,2 C 4,8 km/h (1 Bft) 96,30 %
22.04.2018 07:54 14,2 C 13,3 C 76 % 1015,2 hPa 0,0 l/m 3,3 km/h (1 Bft) S-SW 196 1 min 0,000 mm 0,0 UV-I 225 W/m 10,0 C 14,2 C 4,8 km/h (1 Bft) 100,00 %
22.04.2018 07:55 14,2 C 13,3 C 76 % 1015,2 hPa 0,0 l/m 2,9 km/h (1 Bft) S-SW 196 1 min 0,000 mm 0,0 UV-I 228 W/m 10,0 C 14,2 C 4,8 km/h (1 Bft) 100,00 %
22.04.2018 07:56 14,2 C 13,3 C 76 % 1015,2 hPa 0,0 l/m 2,9 km/h (1 Bft) S-SW 196 1 min 0,000 mm 0,0 UV-I 230 W/m 10,0 C 14,2 C 4,8 km/h (1 Bft) 100,00 %
22.04.2018 07:57 14,2 C 13,3 C 76 % 1015,2 hPa 0,0 l/m 3,8 km/h (1 Bft) S-SW 196 1 min 0,000 mm 0,0 UV-I 233 W/m 10,0 C 14,2 C 4,8 km/h (1 Bft) 100,00 %
22.04.2018 07:58 14,3 C 13,3 C 76 % 1015,3 hPa 0,0 l/m 3,4 km/h (1 Bft) S-SW 196 1 min 0,000 mm 0,0 UV-I 235 W/m 10,1 C 14,3 C 4,8 km/h (1 Bft) 100,00 %
22.04.2018 07:59 14,3 C 13,3 C 76 % 1015,3 hPa 0,0 l/m 3,6 km/h (1 Bft) S-SW 196 1 min 0,000 mm 0,0 UV-I 238 W/m 10,1 C 14,3 C 4,8 km/h (1 Bft) 100,00 %
22.04.2018 08:00 14,3 C 13,3 C 76 % 1015,3 hPa 0,0 l/m 2,5 km/h (1 Bft) S-SW 196 1 min 0,000 mm 0,0 UV-I 242 W/m 10,1 C 14,3 C 3,2 km/h (1 Bft) 100,00 %
22.04.2018 08:01 14,4 C 13,3 C 76 % 1015,2 hPa 0,0 l/m 3,4 km/h (1 Bft) S-SW 196 1 min 0,101 mm 0,0 UV-I 246 W/m 10,2 C 14,4 C 4,8 km/h (1 Bft) 100,00 %
22.04.2018 08:02 14,4 C 13,3 C 75 % 1015,2 hPa 0,0 l/m 2,6 km/h (1 Bft) S-SW 196 1 min 0,000 mm 0,0 UV-I 251 W/m 10,0 C 14,4 C 4,8 km/h (1 Bft) 100,00 %
22.04.2018 08:03 14,4 C 13,3 C 75 % 1015,2 hPa 0,0 l/m 3,6 km/h (1 Bft) S-SW 196 1 min 0,000 mm 0,0 UV-I 254 W/m 10,0 C 14,4 C 4,8 km/h (1 Bft) 100,00 %
22.04.2018 08:04 14,5 C 13,3 C 75 % 1015,3 hPa 0,0 l/m 3,2 km/h (1 Bft) S-SW 196 1 min 0,000 mm 0,0 UV-I 257 W/m 10,1 C 14,5 C 4,8 km/h (1 Bft) 100,00 %
22.04.2018 08:05 14,6 C 13,3 C 74 % 1015,3 hPa 0,0 l/m 1,8 km/h (1 Bft) S-SW 196 1 min 0,000 mm 0,0 UV-I 261 W/m 10,0 C 14,6 C 3,2 km/h (1 Bft) 100,00 %
22.04.2018 08:06 14,6 C 13,3 C 75 % 1015,3 hPa 0,0 l/m 2,3 km/h (1 Bft) S-SW 196 1 min 0,000 mm 0,0 UV-I 264 W/m 10,2 C 14,6 C 6,4 km/h (2 Bft) 95,65 %
22.04.2018 08:07 14,7 C 13,3 C 75 % 1015,2 hPa 0,0 l/m 4,2 km/h (1 Bft) S-SW 196 1 min 0,000 mm 0,0 UV-I 265 W/m 10,3 C 14,7 C 6,4 km/h (2 Bft) 100,00 %
22.04.2018 08:08 14,8 C 13,3 C 74 % 1015,3 hPa 0,0 l/m 4,0 km/h (1 Bft) S-SW 196 1 min 0,000 mm 0,0 UV-I 269 W/m 10,2 C 14,8 C 4,8 km/h (1 Bft) 100,00 %
22.04.2018 08:09 14,9 C 13,3 C 74 % 1015,2 hPa 0,0 l/m 3,4 km/h (1 Bft) S-SW 196 1 min 0,000 mm 0,1 UV-I 271 W/m 10,3 C 14,9 C 4,8 km/h (1 Bft) 100,00 %
22.04.2018 08:10 14,9 C 13,3 C 74 % 1015,2 hPa 0,0 l/m 4,1 km/h (1 Bft) S-SW 196 1 min 0,000 mm 0,5 UV-I 273 W/m 10,3 C 14,9 C 6,4 km/h (2 Bft) 100,00 %
22.04.2018 08:11 15,0 C 13,3 C 74 % 1015,2 hPa 0,0 l/m 4,2 km/h (1 Bft) S-SW 213 1 min 0,000 mm 0,5 UV-I 276 W/m 10,4 C 15,0 C 4,8 km/h (1 Bft) 100,00 %
22.04.2018 08:12 15,1 C 13,3 C 74 % 1015,2 hPa 0,0 l/m 4,7 km/h (1 Bft) SW 214 1 min 0,000 mm 0,5 UV-I 279 W/m 10,5 C 15,1 C 6,4 km/h (2 Bft) 100,00 %
22.04.2018 08:13 15,1 C 13,3 C 74 % 1015,2 hPa 0,0 l/m 3,7 km/h (1 Bft) S-SW 213 1 min 0,000 mm 0,5 UV-I 281 W/m 10,5 C 15,1 C 6,4 km/h (2 Bft) 100,00 %
22.04.2018 08:14 15,2 C 13,3 C 74 % 1015,2 hPa 0,0 l/m 5,1 km/h (1 Bft) S-SW 213 1 min 0,000 mm 0,5 UV-I 284 W/m 10,6 C 15,2 C 6,4 km/h (2 Bft) 100,00 %
22.04.2018 08:15 15,3 C 13,3 C 74 % 1015,2 hPa 0,0 l/m 3,3 km/h (1 Bft) SW 226 1 min 0,000 mm 0,5 UV-I 288 W/m 10,7 C 15,3 C 4,8 km/h (1 Bft) 100,00 %
22.04.2018 08:16 15,3 C 13,3 C 74 % 1015,3 hPa 0,0 l/m 4,5 km/h (1 Bft) SW 227 1 min 0,000 mm 0,5 UV-I 292 W/m 10,7 C 15,3 C 6,4 km/h (2 Bft) 100,00 %
22.04.2018 08:17 15,4 C 13,3 C 74 % 1015,3 hPa 0,0 l/m 3,3 km/h (1 Bft) SW 226 1 min 0,000 mm 0,5 UV-I 296 W/m 10,8 C 15,4 C 4,8 km/h (1 Bft) 100,00 %
22.04.2018 08:18 15,4 C 13,3 C 73 % 1015,2 hPa 0,0 l/m 3,2 km/h (1 Bft) SW 226 1 min 0,000 mm 0,5 UV-I 299 W/m 10,6 C 15,4 C 4,8 km/h (1 Bft) 100,00 %
22.04.2018 08:19 15,4 C 13,3 C 73 % 1015,2 hPa 0,0 l/m 4,6 km/h (1 Bft) S-SW 196 1 min 0,000 mm 0,5 UV-I 301 W/m 10,6 C 15,4 C 4,8 km/h (1 Bft) 100,00 %
22.04.2018 08:20 15,4 C 13,3 C 73 % 1015,2 hPa 0,0 l/m 4,4 km/h (1 Bft) S-SW 198 1 min 0,000 mm 0,5 UV-I 304 W/m 10,6 C 15,4 C 6,4 km/h (2 Bft) 100,00 %
22.04.2018 08:21 15,5 C 13,3 C 73 % 1015,2 hPa 0,0 l/m 3,7 km/h (1 Bft) S-SW 198 1 min 0,000 mm 0,5 UV-I 307 W/m 10,7 C 15,5 C 4,8 km/h (1 Bft) 95,65 %
22.04.2018 08:22 15,5 C 13,9 C 73 % 1015,2 hPa 0,0 l/m 1,4 km/h (1 Bft) S-SW 198 1 min 0,000 mm 0,5 UV-I 310 W/m 10,7 C 15,5 C 3,2 km/h (1 Bft) 100,00 %
22.04.2018 08:23 15,6 C 13,9 C 74 % 1015,2 hPa 0,0 l/m 1,0 km/h (0 Bft) S-SW 198 1 min 0,000 mm 0,6 UV-I 312 W/m 11,0 C 15,6 C 3,2 km/h (1 Bft) 95,65 %
22.04.2018 08:24 15,6 C 13,9 C 73 % 1015,2 hPa 0,0 l/m 3,5 km/h (1 Bft) S-SW 198 1 min 0,000 mm 0,6 UV-I 315 W/m 10,8 C 15,6 C 4,8 km/h (1 Bft) 100,00 %
22.04.2018 08:25 15,7 C 13,9 C 73 % 1015,2 hPa 0,0 l/m 1,3 km/h (1 Bft) S-SW 198 1 min 0,000 mm 0,6 UV-I 316 W/m 10,9 C 15,7 C 3,2 km/h (1 Bft) 100,00 %
22.04.2018 08:26 15,8 C 13,9 C 73 % 1015,2 hPa 0,0 l/m 3,9 km/h (1 Bft) S-SW 198 1 min 0,000 mm 0,6 UV-I 319 W/m 11,0 C 15,8 C 4,8 km/h (1 Bft) 100,00 %
22.04.2018 08:27 15,8 C 13,9 C 72 % 1015,2 hPa 0,0 l/m 2,7 km/h (1 Bft) S-SW 198 1 min 0,000 mm 0,6 UV-I 322 W/m 10,8 C 15,8 C 3,2 km/h (1 Bft) 96,15 %
22.04.2018 08:28 15,8 C 13,9 C 72 % 1015,1 hPa 0,0 l/m 3,7 km/h (1 Bft) S-SW 198 1 min 0,000 mm 0,6 UV-I 323 W/m 10,8 C 15,8 C 4,8 km/h (1 Bft) 100,00 %
22.04.2018 08:29 15,9 C 13,9 C 72 % 1015,2 hPa 0,0 l/m 3,7 km/h (1 Bft) S-SW 202 1 min 0,000 mm 0,6 UV-I 324 W/m 10,9 C 15,9 C 4,8 km/h (1 Bft) 100,00 %
22.04.2018 08:30 16,1 C 13,9 C 71 % 1015,2 hPa 0,0 l/m 4,3 km/h (1 Bft) S-SW 202 1 min 0,000 mm 0,6 UV-I 326 W/m 10,8 C 16,1 C 4,8 km/h (1 Bft) 100,00 %
22.04.2018 08:31 16,1 C 13,9 C 72 % 1015,2 hPa 0,0 l/m 3,5 km/h (1 Bft) S-SW 203 1 min 0,000 mm 0,6 UV-I 329 W/m 11,0 C 16,1 C 4,8 km/h (1 Bft) 100,00 %
22.04.2018 08:32 16,2 C 13,9 C 71 % 1015,2 hPa 0,0 l/m 2,7 km/h (1 Bft) S-SW 202 1 min 0,000 mm 0,6 UV-I 332 W/m 10,9 C 16,2 C 4,8 km/h (1 Bft) 100,00 %
22.04.2018 08:33 16,2 C 13,9 C 71 % 1015,2 hPa 0,0 l/m 1,6 km/h (1 Bft) S-SW 202 1 min 0,000 mm 0,6 UV-I 336 W/m 10,9 C 16,2 C 3,2 km/h (1 Bft) 95,83 %
22.04.2018 08:34 16,3 C 13,9 C 72 % 1015,2 hPa 0,0 l/m 2,9 km/h (1 Bft) S-SW 203 1 min 0,000 mm 0,7 UV-I 339 W/m 11,2 C 16,3 C 4,8 km/h (1 Bft) 100,00 %
22.04.2018 08:35 16,3 C 13,9 C 71 % 1015,2 hPa 0,0 l/m 3,6 km/h (1 Bft) S-SW 203 1 min 0,000 mm 0,7 UV-I 340 W/m 11,0 C 16,3 C 4,8 km/h (1 Bft) 100,00 %
22.04.2018 08:36 16,4 C 13,9 C 70 % 1015,2 hPa 0,0 l/m 3,0 km/h (1 Bft) S-SW 203 1 min 0,000 mm 0,7 UV-I 345 W/m 10,9 C 16,4 C 4,8 km/h (1 Bft) 100,00 %
22.04.2018 08:37 16,4 C 13,9 C 70 % 1015,2 hPa 0,0 l/m 3,7 km/h (1 Bft) S-SW 203 1 min 0,000 mm 0,7 UV-I 346 W/m 10,9 C 16,4 C 4,8 km/h (1 Bft) 100,00 %
22.04.2018 08:38 16,4 C 13,9 C 69 % 1015,2 hPa 0,0 l/m 2,9 km/h (1 Bft) S-SW 203 1 min 0,000 mm 0,7 UV-I 351 W/m 10,7 C 16,4 C 3,2 km/h (1 Bft) 90,91 %
22.04.2018 08:39 16,5 C 13,9 C 68 % 1015,2 hPa 0,0 l/m 3,0 km/h (1 Bft) S-SW 203 1 min 0,000 mm 0,7 UV-I 352 W/m 10,6 C 16,5 C 4,8 km/h (1 Bft) 100,00 %
22.04.2018 08:40 16,6 C 13,9 C 71 % 1015,2 hPa 0,0 l/m 2,1 km/h (1 Bft) S-SW 203 1 min 0,000 mm 0,7 UV-I 354 W/m 11,3 C 16,6 C 3,2 km/h (1 Bft) 95,65 %
22.04.2018 08:41 16,6 C 13,9 C 69 % 1015,2 hPa 0,0 l/m 2,5 km/h (1 Bft) S-SW 204 1 min 0,000 mm 0,7 UV-I 358 W/m 10,9 C 16,6 C 3,2 km/h (1 Bft) 100,00 %
22.04.2018 08:42 16,6 C 13,9 C 69 % 1015,2 hPa 0,0 l/m 2,5 km/h (1 Bft) S-SW 204 1 min 0,000 mm 0,7 UV-I 362 W/m 10,9 C 16,6 C 3,2 km/h (1 Bft) 96,15 %
22.04.2018 08:43 16,7 C 13,9 C 69 % 1015,2 hPa 0,0 l/m 3,0 km/h (1 Bft) S-SW 204 1 min 0,000 mm 0,8 UV-I 362 W/m 11,0 C 16,7 C 4,8 km/h (1 Bft) 100,00 %
22.04.2018 08:44 16,7 C 13,9 C 70 % 1015,1 hPa 0,0 l/m 3,6 km/h (1 Bft) S-SW 204 1 min 0,000 mm 0,8 UV-I 365 W/m 11,2 C 16,7 C 4,8 km/h (1 Bft) 95,65 %
22.04.2018 08:45 16,7 C 13,9 C 69 % 1015,2 hPa 0,0 l/m 3,7 km/h (1 Bft) S-SW 208 1 min 0,000 mm 0,8 UV-I 368 W/m 11,0 C 16,7 C 4,8 km/h (1 Bft) 95,83 %
22.04.2018 08:46 16,7 C 13,9 C 69 % 1015,2 hPa 0,0 l/m 3,1 km/h (1 Bft) S-SW 209 1 min 0,000 mm 0,8 UV-I 370 W/m 11,0 C 16,7 C 4,8 km/h (1 Bft) 100,00 %
22.04.2018 08:47 16,8 C 13,9 C 69 % 1015,2 hPa 0,0 l/m 3,0 km/h (1 Bft) S-SW 209 1 min 0,000 mm 0,8 UV-I 372 W/m 11,1 C 16,8 C 4,8 km/h (1 Bft) 95,65 %
22.04.2018 08:48 16,8 C 13,9 C 69 % 1015,2 hPa 0,0 l/m 2,8 km/h (1 Bft) S-SW 209 1 min 0,000 mm 0,8 UV-I 374 W/m 11,1 C 16,8 C 3,2 km/h (1 Bft) 100,00 %
22.04.2018 08:49 16,8 C 13,9 C 68 % 1015,2 hPa 0,0 l/m 2,7 km/h (1 Bft) S-SW 209 1 min 0,000 mm 0,8 UV-I 376 W/m 10,9 C 16,8 C 3,2 km/h (1 Bft) 95,65 %
22.04.2018 08:50 16,8 C 13,9 C 69 % 1015,2 hPa 0,0 l/m 2,2 km/h (1 Bft) NW 305 1 min 0,000 mm 0,8 UV-I 379 W/m 11,1 C 16,8 C 3,2 km/h (1 Bft) 100,00 %
22.04.2018 08:51 16,8 C 13,9 C 69 % 1015,3 hPa 0,0 l/m 2,6 km/h (1 Bft) NW 305 1 min 0,000 mm 0,8 UV-I 380 W/m 11,1 C 16,8 C 4,8 km/h (1 Bft) 95,65 %
22.04.2018 08:52 16,8 C 13,9 C 70 % 1015,2 hPa 0,0 l/m 1,8 km/h (1 Bft) NW 311 1 min 0,000 mm 0,8 UV-I 381 W/m 11,3 C 16,8 C 3,2 km/h (1 Bft) 95,83 %
22.04.2018 08:53 16,8 C 13,9 C 69 % 1015,2 hPa 0,0 l/m 3,1 km/h (1 Bft) NW 309 1 min 0,000 mm 0,9 UV-I 381 W/m 11,1 C 16,8 C 4,8 km/h (1 Bft) 100,00 %
22.04.2018 08:54 16,8 C 13,9 C 69 % 1015,2 hPa 0,0 l/m 1,8 km/h (1 Bft) NW 309 1 min 0,000 mm 0,9 UV-I 374 W/m 11,1 C 16,8 C 3,2 km/h (1 Bft) 93,33 %
22.04.2018 08:55 16,8 C 13,9 C 68 % 1015,2 hPa 0,0 l/m 2,8 km/h (1 Bft) NW 309 1 min 0,000 mm 0,9 UV-I 376 W/m 10,9 C 16,8 C 3,2 km/h (1 Bft) 100,00 %
22.04.2018 08:56 16,9 C 13,9 C 70 % 1015,2 hPa 0,0 l/m 1,7 km/h (1 Bft) NW 309 1 min 0,000 mm 0,9 UV-I 383 W/m 11,4 C 16,9 C 3,2 km/h (1 Bft) 95,83 %
22.04.2018 08:57 16,9 C 13,9 C 68 % 1015,3 hPa 0,0 l/m 3,2 km/h (1 Bft) NW 309 1 min 0,000 mm 0,9 UV-I 397 W/m 11,0 C 16,9 C 4,8 km/h (1 Bft) 95,65 %
22.04.2018 08:58 16,9 C 13,9 C 68 % 1015,3 hPa 0,0 l/m 2,4 km/h (1 Bft) NW 309 1 min 0,000 mm 0,9 UV-I 396 W/m 11,0 C 16,9 C 3,2 km/h (1 Bft) 95,83 %
22.04.2018 08:59 16,9 C 13,9 C 67 % 1015,3 hPa 0,0 l/m 1,0 km/h (0 Bft) NW 309 1 min 0,000 mm 0,9 UV-I 394 W/m 10,7 C 16,9 C 3,2 km/h (1 Bft) 100,00 %
22.04.2018 09:00 16,9 C 13,9 C 67 % 1015,2 hPa 0,0 l/m 0,1 km/h (0 Bft) NW 309 1 min 0,178 mm 0,9 UV-I 394 W/m 10,7 C 16,9 C 1,6 km/h (1 Bft) 91,67 %
22.04.2018 09:01 16,9 C 13,9 C 69 % 1015,3 hPa 0,0 l/m 0,3 km/h (0 Bft) NW 309 1 min 0,000 mm 1,0 UV-I 398 W/m 11,2 C 16,9 C 1,6 km/h (1 Bft) 91,30 %
22.04.2018 09:02 16,9 C 13,9 C 69 % 1015,2 hPa 0,0 l/m 0,4 km/h (0 Bft) NW 309 1 min 0,000 mm 1,0 UV-I 408 W/m 11,2 C 16,9 C 1,6 km/h (1 Bft) 100,00 %
22.04.2018 09:03 16,9 C 13,9 C 67 % 1015,3 hPa 0,0 l/m 2,5 km/h (1 Bft) NW 310 1 min 0,000 mm 1,0 UV-I 413 W/m 10,7 C 16,9 C 4,8 km/h (1 Bft) 95,65 %
22.04.2018 09:04 17,1 C 13,9 C 71 % 1015,3 hPa 0,0 l/m 2,7 km/h (1 Bft) NW 310 1 min 0,000 mm 1,0 UV-I 414 W/m 11,8 C 17,1 C 3,2 km/h (1 Bft) 100,00 %
22.04.2018 09:05 17,1 C 13,9 C 67 % 1015,3 hPa 0,0 l/m 2,1 km/h (1 Bft) NW 310 1 min 0,000 mm 1,0 UV-I 417 W/m 10,9 C 17,1 C 3,2 km/h (1 Bft) 95,65 %
22.04.2018 09:06 17,2 C 13,9 C 68 % 1015,3 hPa 0,0 l/m 3,8 km/h (1 Bft) NW 315 1 min 0,000 mm 1,0 UV-I 418 W/m 11,2 C 17,2 C 6,4 km/h (2 Bft) 100,00 %
22.04.2018 09:07 17,3 C 13,9 C 69 % 1015,3 hPa 0,0 l/m 3,6 km/h (1 Bft) NW 315 1 min 0,000 mm 1,0 UV-I 423 W/m 11,6 C 17,3 C 4,8 km/h (1 Bft) 95,65 %
22.04.2018 09:08 17,3 C 13,9 C 67 % 1015,3 hPa 0,0 l/m 1,8 km/h (1 Bft) NW 315 1 min 0,000 mm 1,0 UV-I 425 W/m 11,1 C 17,3 C 3,2 km/h (1 Bft) 93,33 %
22.04.2018 09:09 17,3 C 13,9 C 67 % 1015,3 hPa 0,0 l/m 2,3 km/h (1 Bft) NW 315 1 min 0,000 mm 1,0 UV-I 426 W/m 11,1 C 17,3 C 4,8 km/h (1 Bft) 95,83 %
22.04.2018 09:10 17,3 C 13,9 C 67 % 1015,3 hPa 0,0 l/m 2,1 km/h (1 Bft) NW 315 1 min 0,000 mm 1,1 UV-I 428 W/m 11,1 C 17,3 C 3,2 km/h (1 Bft) 95,65 %
22.04.2018 09:11 17,3 C 13,9 C 68 % 1015,3 hPa 0,0 l/m 2,3 km/h (1 Bft) NW 315 1 min 0,000 mm 1,1 UV-I 431 W/m 11,3 C 17,3 C 4,8 km/h (1 Bft) 91,67 %
22.04.2018 09:12 17,4 C 13,9 C 67 % 1015,3 hPa 0,0 l/m 1,3 km/h (1 Bft) NW 315 1 min 0,000 mm 1,1 UV-I 432 W/m 11,2 C 17,4 C 3,2 km/h (1 Bft) 95,65 %
22.04.2018 09:13 17,4 C 13,9 C 67 % 1015,3 hPa 0,0 l/m 0,6 km/h (0 Bft) NW 315 1 min 0,000 mm 1,1 UV-I 437 W/m 11,2 C 17,4 C 3,2 km/h (1 Bft) 100,00 %
22.04.2018 09:14 17,4 C 13,9 C 68 % 1015,3 hPa 0,0 l/m 2,8 km/h (1 Bft) N 5 1 min 0,000 mm 1,1 UV-I 438 W/m 11,4 C 17,4 C 4,8 km/h (1 Bft) 95,65 %
22.04.2018 09:15 17,6 C 13,9 C 69 % 1015,3 hPa 0,0 l/m 4,7 km/h (1 Bft) NO 42 1 min 0,000 mm 1,1 UV-I 440 W/m 11,8 C 17,6 C 4,8 km/h (1 Bft) 100,00 %
22.04.2018 09:16 17,8 C 13,9 C 67 % 1015,3 hPa 0,0 l/m 3,4 km/h (1 Bft) NO 42 1 min 0,000 mm 1,1 UV-I 439 W/m 11,6 C 17,8 C 4,8 km/h (1 Bft) 96,15 %
22.04.2018 09:17 18,0 C 13,9 C 67 % 1015,3 hPa 0,0 l/m 2,9 km/h (1 Bft) NO 41 1 min 0,000 mm 1,1 UV-I 445 W/m 11,8 C 18,0 C 4,8 km/h (1 Bft) 95,83 %
22.04.2018 09:18 18,2 C 13,9 C 65 % 1015,3 hPa 0,0 l/m 2,5 km/h (1 Bft) NO 41 1 min 0,000 mm 1,1 UV-I 448 W/m 11,5 C 18,2 C 3,2 km/h (1 Bft) 100,00 %
22.04.2018 09:19 18,3 C 13,9 C 66 % 1015,4 hPa 0,0 l/m 3,7 km/h (1 Bft) NO 41 1 min 0,000 mm 1,2 UV-I 448 W/m 11,8 C 18,3 C 4,8 km/h (1 Bft) 87,50 %
22.04.2018 09:20 18,3 C 13,9 C 65 % 1015,4 hPa 0,0 l/m 2,9 km/h (1 Bft) NO 41 1 min 0,000 mm 1,2 UV-I 454 W/m 11,6 C 18,3 C 4,8 km/h (1 Bft) 100,00 %
22.04.2018 09:21 18,4 C 13,9 C 63 % 1015,4 hPa 0,0 l/m 4,0 km/h (1 Bft) O-NO 63 1 min 0,000 mm 1,2 UV-I 458 W/m 11,2 C 18,4 C 6,4 km/h (2 Bft) 95,83 %
22.04.2018 09:22 18,4 C 13,9 C 62 % 1015,4 hPa 0,0 l/m 2,0 km/h (1 Bft) O-NO 62 1 min 0,000 mm 1,2 UV-I 463 W/m 11,0 C 18,4 C 3,2 km/h (1 Bft) 100,00 %
22.04.2018 09:23 18,3 C 13,9 C 63 % 1015,3 hPa 0,0 l/m 2,0 km/h (1 Bft) O-NO 62 1 min 0,000 mm 1,2 UV-I 464 W/m 11,1 C 18,3 C 3,2 km/h (1 Bft) 96,30 %
22.04.2018 09:24 18,3 C 13,9 C 65 % 1015,3 hPa 0,0 l/m 4,7 km/h (1 Bft) NO 51 1 min 0,000 mm 1,2 UV-I 469 W/m 11,6 C 18,3 C 6,4 km/h (2 Bft) 100,00 %
22.04.2018 09:25 18,3 C 13,9 C 66 % 1015,3 hPa 0,0 l/m 3,6 km/h (1 Bft) NO 50 1 min 0,000 mm 1,2 UV-I 471 W/m 11,8 C 18,3 C 4,8 km/h (1 Bft) 92,31 %
22.04.2018 09:26 18,4 C 13,9 C 65 % 1015,3 hPa 0,0 l/m 2,5 km/h (1 Bft) NO 50 1 min 0,000 mm 1,2 UV-I 476 W/m 11,7 C 18,4 C 3,2 km/h (1 Bft) 95,83 %
22.04.2018 09:27 18,5 C 13,9 C 65 % 1015,3 hPa 0,0 l/m 2,2 km/h (1 Bft) NO 50 1 min 0,000 mm 1,3 UV-I 479 W/m 11,8 C 18,5 C 3,2 km/h (1 Bft) 95,65 %
22.04.2018 09:28 18,7 C 13,9 C 66 % 1015,3 hPa 0,0 l/m 3,0 km/h (1 Bft) NO 50 1 min 0,000 mm 1,3 UV-I 481 W/m 12,2 C 18,7 C 3,2 km/h (1 Bft) 95,83 %
22.04.2018 09:29 18,7 C 13,9 C 66 % 1015,3 hPa 0,0 l/m 2,1 km/h (1 Bft) NO 50 1 min 0,000 mm 1,3 UV-I 478 W/m 12,2 C 18,7 C 4,8 km/h (1 Bft) 95,65 %
22.04.2018 09:30 18,6 C 13,9 C 62 % 1015,3 hPa 0,0 l/m 0,8 km/h (0 Bft) NO 50 1 min 0,000 mm 1,3 UV-I 480 W/m 11,2 C 18,6 C 1,6 km/h (1 Bft) 95,83 %
22.04.2018 09:31 18,4 C 13,9 C 61 % 1015,3 hPa 0,0 l/m 1,3 km/h (1 Bft) NO 50 1 min 0,000 mm 1,3 UV-I 472 W/m 10,7 C 18,4 C 3,2 km/h (1 Bft) 100,00 %
22.04.2018 09:32 18,3 C 13,9 C 65 % 1015,3 hPa 0,0 l/m 2,1 km/h (1 Bft) NO 50 1 min 0,000 mm 1,3 UV-I 449 W/m 11,6 C 18,3 C 3,2 km/h (1 Bft) 95,83 %
22.04.2018 09:33 18,5 C 13,9 C 63 % 1015,3 hPa 0,0 l/m 0,3 km/h (0 Bft) NO 50 1 min 0,000 mm 1,3 UV-I 455 W/m 11,3 C 18,5 C 1,6 km/h (1 Bft) 100,00 %
22.04.2018 09:34 18,7 C 13,9 C 62 % 1015,3 hPa 0,0 l/m 2,7 km/h (1 Bft) O 86 1 min 0,000 mm 1,3 UV-I 493 W/m 11,3 C 18,7 C 4,8 km/h (1 Bft) 95,83 %
22.04.2018 09:35 18,6 C 13,9 C 62 % 1015,3 hPa 0,0 l/m 4,2 km/h (1 Bft) SO 130 1 min 0,000 mm 1,4 UV-I 503 W/m 11,2 C 18,6 C 6,4 km/h (2 Bft) 95,65 %
22.04.2018 09:36 18,6 C 13,9 C 63 % 1015,3 hPa 0,0 l/m 2,2 km/h (1 Bft) NO 35 1 min 0,000 mm 1,4 UV-I 511 W/m 11,4 C 18,6 C 4,8 km/h (1 Bft) 95,83 %
22.04.2018 09:37 18,6 C 13,9 C 65 % 1015,3 hPa 0,0 l/m 2,5 km/h (1 Bft) NO 35 1 min 0,000 mm 1,4 UV-I 516 W/m 11,9 C 18,6 C 4,8 km/h (1 Bft) 100,00 %
22.04.2018 09:38 18,6 C 13,9 C 64 % 1015,3 hPa 0,0 l/m 2,4 km/h (1 Bft) NO 35 1 min 0,000 mm 1,4 UV-I 520 W/m 11,7 C 18,6 C 3,2 km/h (1 Bft) 95,65 %
22.04.2018 09:39 18,7 C 13,9 C 63 % 1015,3 hPa 0,0 l/m 3,8 km/h (1 Bft) NO 35 1 min 0,000 mm 1,4 UV-I 521 W/m 11,5 C 18,7 C 4,8 km/h (1 Bft) 100,00 %
22.04.2018 09:40 18,8 C 13,9 C 65 % 1015,2 hPa 0,0 l/m 4,1 km/h (1 Bft) NO 36 1 min 0,000 mm 1,4 UV-I 519 W/m 12,1 C 18,8 C 6,4 km/h (2 Bft) 92,31 %
22.04.2018 09:41 18,9 C 13,9 C 64 % 1015,3 hPa 0,0 l/m 4,8 km/h (1 Bft) N-NO 26 1 min 0,000 mm 1,4 UV-I 517 W/m 11,9 C 18,9 C 6,4 km/h (2 Bft) 95,83 %
22.04.2018 09:42 19,0 C 13,9 C 62 % 1015,3 hPa 0,0 l/m 3,6 km/h (1 Bft) N-NO 26 1 min 0,000 mm 1,4 UV-I 508 W/m 11,6 C 19,0 C 4,8 km/h (1 Bft) 100,00 %
22.04.2018 09:43 19,1 C 13,9 C 63 % 1015,3 hPa 0,0 l/m 3,0 km/h (1 Bft) N-NO 26 1 min 0,000 mm 1,4 UV-I 510 W/m 11,9 C 19,1 C 4,8 km/h (1 Bft) 95,83 %
22.04.2018 09:44 19,1 C 13,9 C 62 % 1015,3 hPa 0,0 l/m 2,1 km/h (1 Bft) N-NO 26 1 min 0,000 mm 1,4 UV-I 511 W/m 11,6 C 19,1 C 4,8 km/h (1 Bft) 95,65 %
22.04.2018 09:45 19,0 C 13,9 C 62 % 1015,3 hPa 0,0 l/m 2,7 km/h (1 Bft) N-NO 26 1 min 0,000 mm 1,5 UV-I 517 W/m 11,6 C 19,0 C 4,8 km/h (1 Bft) 95,83 %
22.04.2018 09:46 18,9 C 13,9 C 62 % 1015,3 hPa 0,0 l/m 2,6 km/h (1 Bft) N-NO 26 1 min 0,000 mm 1,5 UV-I 507 W/m 11,5 C 18,9 C 3,2 km/h (1 Bft) 100,00 %
22.04.2018 09:47 19,0 C 13,9 C 64 % 1015,3 hPa 0,0 l/m 2,9 km/h (1 Bft) N-NO 26 1 min 0,000 mm 1,5 UV-I 517 W/m 12,0 C 19,0 C 3,2 km/h (1 Bft) 91,67 %
22.04.2018 09:48 19,1 C 13,9 C 64 % 1015,3 hPa 0,0 l/m 2,3 km/h (1 Bft) N-NO 28 1 min 0,000 mm 1,5 UV-I 520 W/m 12,1 C 19,1 C 3,2 km/h (1 Bft) 95,65 %
22.04.2018 09:49 19,1 C 13,9 C 63 % 1015,3 hPa 0,0 l/m 2,5 km/h (1 Bft) N-NO 28 1 min 0,000 mm 1,5 UV-I 519 W/m 11,9 C 19,1 C 3,2 km/h (1 Bft) 100,00 %
22.04.2018 09:50 19,1 C 13,9 C 62 % 1015,3 hPa 0,0 l/m 2,5 km/h (1 Bft) N-NO 28 1 min 0,000 mm 1,5 UV-I 520 W/m 11,6 C 19,1 C 3,2 km/h (1 Bft) 95,65 %
22.04.2018 09:51 19,1 C 13,9 C 64 % 1015,3 hPa 0,0 l/m 1,6 km/h (1 Bft) N-NO 28 1 min 0,000 mm 1,6 UV-I 521 W/m 12,1 C 19,1 C 3,2 km/h (1 Bft) 100,00 %
22.04.2018 09:52 19,1 C 13,9 C 65 % 1015,3 hPa 0,0 l/m 3,0 km/h (1 Bft) N-NO 29 1 min 0,000 mm 1,6 UV-I 520 W/m 12,4 C 19,1 C 4,8 km/h (1 Bft) 100,00 %
22.04.2018 09:53 19,1 C 13,9 C 65 % 1015,3 hPa 0,0 l/m 4,2 km/h (1 Bft) NO 51 1 min 0,000 mm 1,6 UV-I 532 W/m 12,4 C 19,1 C 4,8 km/h (1 Bft) 95,83 %
22.04.2018 09:54 19,2 C 13,9 C 63 % 1015,3 hPa 0,0 l/m 2,9 km/h (1 Bft) NO 51 1 min 0,000 mm 1,6 UV-I 534 W/m 12,0 C 19,2 C 4,8 km/h (1 Bft) 95,65 %
22.04.2018 09:55 19,2 C 13,9 C 62 % 1015,3 hPa 0,0 l/m 4,2 km/h (1 Bft) O-NO 65 1 min 0,000 mm 1,6 UV-I 538 W/m 11,7 C 19,2 C 6,4 km/h (2 Bft) 100,00 %
22.04.2018 09:56 19,3 C 13,9 C 65 % 1015,3 hPa 0,0 l/m 6,1 km/h (2 Bft) NO 36 1 min 0,000 mm 1,6 UV-I 538 W/m 12,6 C 19,3 C 8,0 km/h (2 Bft) 96,15 %
22.04.2018 09:57 19,4 C 13,9 C 65 % 1015,3 hPa 0,0 l/m 5,7 km/h (1 Bft) O-NO 66 1 min 0,000 mm 1,6 UV-I 539 W/m 12,6 C 19,4 C 6,4 km/h (2 Bft) 100,00 %
22.04.2018 09:58 19,6 C 13,9 C 64 % 1015,3 hPa 0,0 l/m 4,5 km/h (1 Bft) O-NO 66 1 min 0,000 mm 1,7 UV-I 542 W/m 12,6 C 19,6 C 6,4 km/h (2 Bft) 95,83 %
22.04.2018 09:59 19,6 C 13,9 C 62 % 1015,3 hPa 0,0 l/m 1,2 km/h (1 Bft) O-NO 66 1 min 0,000 mm 1,7 UV-I 547 W/m 12,1 C 19,6 C 3,2 km/h (1 Bft) 100,00 %
22.04.2018 10:00 19,6 C 13,9 C 61 % 1015,3 hPa 0,0 l/m 0,4 km/h (0 Bft) O-NO 66 1 min 0,000 mm 1,7 UV-I 547 W/m 11,9 C 19,6 C 1,6 km/h (1 Bft) 91,67 %
22.04.2018 10:01 19,6 C 13,9 C 60 % 1015,3 hPa 0,0 l/m 0,9 km/h (0 Bft) O-NO 66 1 min 0,280 mm 1,7 UV-I 550 W/m 11,6 C 19,6 C 1,6 km/h (1 Bft) 96,15 %
22.04.2018 10:02 19,4 C 13,9 C 62 % 1015,3 hPa 0,0 l/m 2,1 km/h (1 Bft) O-NO 66 1 min 0,000 mm 1,7 UV-I 555 W/m 11,9 C 19,4 C 4,8 km/h (1 Bft) 96,15 %
22.04.2018 10:03 19,4 C 13,9 C 64 % 1015,3 hPa 0,0 l/m 6,0 km/h (2 Bft) NO 40 1 min 0,000 mm 1,7 UV-I 560 W/m 12,4 C 19,4 C 8,0 km/h (2 Bft) 95,83 %
22.04.2018 10:04 19,4 C 13,9 C 63 % 1015,3 hPa 0,0 l/m 4,5 km/h (1 Bft) N-NO 32 1 min 0,000 mm 1,7 UV-I 561 W/m 12,2 C 19,4 C 6,4 km/h (2 Bft) 100,00 %
22.04.2018 10:05 19,5 C 13,9 C 62 % 1015,3 hPa 0,0 l/m 3,9 km/h (1 Bft) N-NO 32 1 min 0,000 mm 1,8 UV-I 563 W/m 12,0 C 19,5 C 4,8 km/h (1 Bft) 91,30 %
22.04.2018 10:06 19,6 C 13,9 C 63 % 1015,3 hPa 0,0 l/m 2,4 km/h (1 Bft) N-NO 32 1 min 0,000 mm 1,8 UV-I 564 W/m 12,4 C 19,6 C 3,2 km/h (1 Bft) 100,00 %
22.04.2018 10:07 19,6 C 13,9 C 62 % 1015,3 hPa 0,0 l/m 1,5 km/h (1 Bft) N-NO 32 1 min 0,000 mm 1,8 UV-I 565 W/m 12,1 C 19,6 C 4,8 km/h (1 Bft) 95,65 %
22.04.2018 10:08 19,6 C 13,9 C 63 % 1015,3 hPa 0,0 l/m 4,8 km/h (1 Bft) NO 36 1 min 0,000 mm 1,8 UV-I 564 W/m 12,4 C 19,6 C 6,4 km/h (2 Bft) 100,00 %
22.04.2018 10:09 19,7 C 13,9 C 64 % 1015,3 hPa 0,0 l/m 5,3 km/h (1 Bft) NO 42 1 min 0,000 mm 1,8 UV-I 566 W/m 12,7 C 19,7 C 8,0 km/h (2 Bft) 92,59 %
22.04.2018 10:10 19,8 C 13,9 C 62 % 1015,3 hPa 0,0 l/m 3,8 km/h (1 Bft) NO 42 1 min 0,000 mm 1,8 UV-I 570 W/m 12,3 C 19,8 C 4,8 km/h (1 Bft) 100,00 %
22.04.2018 10:11 19,8 C 13,9 C 62 % 1015,3 hPa 0,0 l/m 1,7 km/h (1 Bft) NO 42 1 min 0,000 mm 1,8 UV-I 571 W/m 12,3 C 19,8 C 3,2 km/h (1 Bft) 95,65 %
22.04.2018 10:12 19,6 C 13,9 C 60 % 1015,3 hPa 0,0 l/m 0,3 km/h (0 Bft) NO 42 1 min 0,000 mm 1,8 UV-I 571 W/m 11,6 C 19,6 C 1,6 km/h (1 Bft) 100,00 %
22.04.2018 10:13 19,4 C 13,9 C 61 % 1015,3 hPa 0,0 l/m 1,6 km/h (1 Bft) O-SO 119 1 min 0,000 mm 1,9 UV-I 571 W/m 11,7 C 19,4 C 6,4 km/h (2 Bft) 95,65 %
22.04.2018 10:14 19,4 C 13,9 C 62 % 1015,3 hPa 0,0 l/m 3,6 km/h (1 Bft) O-SO 119 1 min 0,000 mm 1,9 UV-I 578 W/m 11,9 C 19,4 C 4,8 km/h (1 Bft) 95,83 %
22.04.2018 10:15 19,3 C 13,9 C 63 % 1015,3 hPa 0,0 l/m 3,3 km/h (1 Bft) O-SO 119 1 min 0,000 mm 1,9 UV-I 582 W/m 12,1 C 19,3 C 4,8 km/h (1 Bft) 100,00 %
22.04.2018 10:16 19,3 C 13,9 C 63 % 1015,3 hPa 0,0 l/m 0,2 km/h (0 Bft) O-SO 119 1 min 0,000 mm 1,9 UV-I 585 W/m 12,1 C 19,3 C 1,6 km/h (1 Bft) 95,83 %
22.04.2018 10:17 19,3 C 13,9 C 62 % 1015,2 hPa 0,0 l/m 2,7 km/h (1 Bft) O-NO 73 1 min 0,000 mm 1,9 UV-I 586 W/m 11,8 C 19,3 C 6,4 km/h (2 Bft) 100,00 %
22.04.2018 10:18 19,4 C 13,9 C 64 % 1015,3 hPa 0,0 l/m 5,6 km/h (1 Bft) O 85 1 min 0,000 mm 1,9 UV-I 591 W/m 12,4 C 19,4 C 8,0 km/h (2 Bft) 95,83 %
22.04.2018 10:19 19,5 C 13,9 C 65 % 1015,3 hPa 0,0 l/m 3,9 km/h (1 Bft) O 84 1 min 0,000 mm 1,9 UV-I 592 W/m 12,7 C 19,5 C 4,8 km/h (1 Bft) 100,00 %
22.04.2018 10:20 19,6 C 13,9 C 63 % 1015,3 hPa 0,0 l/m 4,3 km/h (1 Bft) O-NO 70 1 min 0,000 mm 2,0 UV-I 594 W/m 12,4 C 19,6 C 6,4 km/h (2 Bft) 100,00 %
22.04.2018 10:21 19,6 C 13,9 C 63 % 1015,2 hPa 0,0 l/m 4,8 km/h (1 Bft) O 80 1 min 0,000 mm 2,0 UV-I 594 W/m 12,4 C 19,6 C 8,0 km/h (2 Bft) 100,00 %
22.04.2018 10:22 19,7 C 13,9 C 62 % 1015,2 hPa 0,0 l/m 4,2 km/h (1 Bft) O 91 1 min 0,000 mm 2,0 UV-I 598 W/m 12,2 C 19,7 C 6,4 km/h (2 Bft) 100,00 %
22.04.2018 10:23 19,7 C 13,9 C 62 % 1015,2 hPa 0,0 l/m 3,1 km/h (1 Bft) O 98 1 min 0,000 mm 2,0 UV-I 593 W/m 12,2 C 19,7 C 4,8 km/h (1 Bft) 100,00 %
22.04.2018 10:24 19,6 C 13,9 C 61 % 1015,2 hPa 0,0 l/m 3,9 km/h (1 Bft) O 92 1 min 0,000 mm 2,0 UV-I 600 W/m 11,9 C 19,6 C 6,4 km/h (2 Bft) 100,00 %
22.04.2018 10:25 19,7 C 13,9 C 62 % 1015,2 hPa 0,0 l/m 4,3 km/h (1 Bft) O 92 1 min 0,000 mm 2,0 UV-I 603 W/m 12,2 C 19,7 C 4,8 km/h (1 Bft) 100,00 %
22.04.2018 10:26 19,8 C 13,9 C 63 % 1015,2 hPa 0,0 l/m 1,2 km/h (1 Bft) O 92 1 min 0,000 mm 2,1 UV-I 607 W/m 12,5 C 19,8 C 3,2 km/h (1 Bft) 100,00 %
22.04.2018 10:27 19,7 C 13,9 C 60 % 1015,2 hPa 0,0 l/m 2,7 km/h (1 Bft) O-SO 114 1 min 0,000 mm 2,1 UV-I 611 W/m 11,7 C 19,7 C 4,8 km/h (1 Bft) 100,00 %
22.04.2018 10:28 19,7 C 13,9 C 60 % 1015,2 hPa 0,0 l/m 2,3 km/h (1 Bft) O-SO 114 1 min 0,000 mm 2,1 UV-I 613 W/m 11,7 C 19,7 C 4,8 km/h (1 Bft) 100,00 %
22.04.2018 10:29 19,6 C 13,9 C 61 % 1015,3 hPa 0,0 l/m 1,2 km/h (1 Bft) O-SO 114 1 min 0,000 mm 2,1 UV-I 612 W/m 11,9 C 19,6 C 3,2 km/h (1 Bft) 95,83 %
22.04.2018 10:30 19,7 C 13,9 C 64 % 1015,3 hPa 0,0 l/m 0,1 km/h (0 Bft) O-SO 114 1 min 0,000 mm 2,1 UV-I 612 W/m 12,7 C 19,7 C 1,6 km/h (1 Bft) 100,00 %
22.04.2018 10:31 19,7 C 13,9 C 61 % 1015,3 hPa 0,0 l/m 0,0 km/h (0 Bft) O-SO 114 1 min 0,000 mm 2,1 UV-I 614 W/m 12,0 C 19,7 C 0,0 km/h (0 Bft) 95,83 %
22.04.2018 10:32 19,7 C 13,9 C 65 % 1015,3 hPa 0,0 l/m 0,0 km/h (0 Bft) O-SO 114 1 min 0,000 mm 2,1 UV-I 611 W/m 12,9 C 19,7 C 0,0 km/h (0 Bft) 92,31 %
22.04.2018 10:33 19,7 C 13,9 C 62 % 1015,3 hPa 0,0 l/m 0,3 km/h (0 Bft) O-SO 114 1 min 0,000 mm 2,1 UV-I 612 W/m 12,2 C 19,7 C 1,6 km/h (1 Bft) 91,67 %
22.04.2018 10:34 19,7 C 13,9 C 62 % 1015,2 hPa 0,0 l/m 1,6 km/h (1 Bft) O-SO 113 1 min 0,000 mm 2,2 UV-I 613 W/m 12,2 C 19,7 C 4,8 km/h (1 Bft) 100,00 %
22.04.2018 10:35 19,8 C 13,9 C 63 % 1015,3 hPa 0,0 l/m 3,5 km/h (1 Bft) O-NO 61 1 min 0,000 mm 2,2 UV-I 614 W/m 12,5 C 19,8 C 6,4 km/h (2 Bft) 95,65 %
22.04.2018 10:36 19,9 C 13,9 C 64 % 1015,3 hPa 0,0 l/m 6,4 km/h (2 Bft) NO 36 1 min 0,000 mm 2,2 UV-I 616 W/m 12,9 C 19,9 C 9,7 km/h (2 Bft) 95,83 %
22.04.2018 10:37 20,2 C 13,9 C 65 % 1015,2 hPa 0,0 l/m 4,0 km/h (1 Bft) O-NO 75 1 min 0,000 mm 2,2 UV-I 617 W/m 13,4 C 20,2 C 6,4 km/h (2 Bft) 95,65 %
22.04.2018 10:38 20,3 C 13,9 C 62 % 1015,2 hPa 0,0 l/m 6,7 km/h (2 Bft) NO 40 1 min 0,000 mm 2,2 UV-I 621 W/m 12,8 C 20,2 C 9,7 km/h (2 Bft) 93,10 %
22.04.2018 10:39 20,4 C 13,9 C 61 % 1015,2 hPa 0,0 l/m 6,4 km/h (2 Bft) N-NO 20 1 min 0,000 mm 2,2 UV-I 624 W/m 12,6 C 20,4 C 8,0 km/h (2 Bft) 100,00 %
22.04.2018 10:40 20,6 C 13,9 C 61 % 1015,2 hPa 0,0 l/m 3,4 km/h (1 Bft) N-NO 15 1 min 0,000 mm 2,2 UV-I 629 W/m 12,8 C 20,6 C 4,8 km/h (1 Bft) 100,00 %
22.04.2018 10:41 20,6 C 13,9 C 61 % 1015,3 hPa 0,0 l/m 2,7 km/h (1 Bft) N-NO 15 1 min 0,000 mm 2,2 UV-I 630 W/m 12,8 C 20,6 C 4,8 km/h (1 Bft) 100,00 %
22.04.2018 10:42 20,6 C 13,9 C 60 % 1015,3 hPa 0,0 l/m 2,3 km/h (1 Bft) N-NO 15 1 min 0,000 mm 2,3 UV-I 632 W/m 12,6 C 20,6 C 4,8 km/h (1 Bft) 95,83 %
22.04.2018 10:43 20,6 C 13,9 C 59 % 1015,2 hPa 0,0 l/m 1,3 km/h (1 Bft) NO 43 1 min 0,000 mm 2,3 UV-I 635 W/m 12,3 C 20,6 C 4,8 km/h (1 Bft) 100,00 %
22.04.2018 10:44 20,7 C 13,9 C 61 % 1015,3 hPa 0,0 l/m 5,3 km/h (1 Bft) NO 55 1 min 0,000 mm 2,3 UV-I 635 W/m 12,9 C 20,7 C 8,0 km/h (2 Bft) 95,83 %
22.04.2018 10:45 20,7 C 13,9 C 58 % 1015,2 hPa 0,0 l/m 3,6 km/h (1 Bft) O-NO 57 1 min 0,000 mm 2,3 UV-I 638 W/m 12,1 C 20,7 C 4,8 km/h (1 Bft) 95,65 %
22.04.2018 10:46 20,6 C 13,9 C 60 % 1015,2 hPa 0,0 l/m 6,4 km/h (2 Bft) O-NO 76 1 min 0,000 mm 2,3 UV-I 640 W/m 12,6 C 20,6 C 9,7 km/h (2 Bft) 100,00 %
22.04.2018 10:47 20,6 C 13,9 C 60 % 1015,2 hPa 0,0 l/m 6,6 km/h (2 Bft) O 90 1 min 0,000 mm 2,3 UV-I 639 W/m 12,6 C 20,5 C 11,3 km/h (2 Bft) 95,65 %
22.04.2018 10:48 20,5 C 13,9 C 60 % 1015,2 hPa 0,0 l/m 6,9 km/h (2 Bft) O 101 1 min 0,000 mm 2,3 UV-I 644 W/m 12,5 C 20,3 C 11,3 km/h (2 Bft) 95,83 %
22.04.2018 10:49 20,4 C 13,9 C 60 % 1015,2 hPa 0,0 l/m 4,8 km/h (1 Bft) O-NO 77 1 min 0,000 mm 2,3 UV-I 646 W/m 12,4 C 20,4 C 6,4 km/h (2 Bft) 96,15 %
22.04.2018 10:50 20,4 C 13,9 C 62 % 1015,2 hPa 0,0 l/m 6,6 km/h (2 Bft) O-NO 57 1 min 0,000 mm 2,4 UV-I 649 W/m 12,9 C 20,3 C 8,0 km/h (2 Bft) 95,83 %
22.04.2018 10:51 20,5 C 13,9 C 65 % 1015,2 hPa 0,0 l/m 4,3 km/h (1 Bft) O-NO 57 1 min 0,000 mm 2,4 UV-I 652 W/m 13,7 C 20,5 C 8,0 km/h (2 Bft) 95,65 %
22.04.2018 10:52 20,6 C 13,9 C 60 % 1015,2 hPa 0,0 l/m 0,8 km/h (0 Bft) O-NO 57 1 min 0,000 mm 2,4 UV-I 652 W/m 12,6 C 20,6 C 1,6 km/h (1 Bft) 95,83 %
22.04.2018 10:53 20,6 C 13,9 C 60 % 1015,2 hPa 0,0 l/m 2,6 km/h (1 Bft) O 88 1 min 0,000 mm 2,4 UV-I 654 W/m 12,6 C 20,6 C 4,8 km/h (1 Bft) 95,65 %
22.04.2018 10:54 20,6 C 13,9 C 61 % 1015,1 hPa 0,0 l/m 5,6 km/h (1 Bft) O 79 1 min 0,000 mm 2,4 UV-I 659 W/m 12,8 C 20,6 C 8,0 km/h (2 Bft) 91,67 %
22.04.2018 10:55 20,7 C 13,9 C 62 % 1015,1 hPa 0,0 l/m 5,3 km/h (1 Bft) O 81 1 min 0,000 mm 2,5 UV-I 663 W/m 13,2 C 20,7 C 6,4 km/h (2 Bft) 100,00 %
22.04.2018 10:56 20,7 C 13,9 C 60 % 1015,1 hPa 0,0 l/m 4,5 km/h (1 Bft) O-NO 64 1 min 0,000 mm 2,5 UV-I 664 W/m 12,7 C 20,7 C 6,4 km/h (2 Bft) 96,15 %
22.04.2018 10:57 20,7 C 13,9 C 60 % 1015,1 hPa 0,0 l/m 1,5 km/h (1 Bft) O-NO 63 1 min 0,000 mm 2,5 UV-I 663 W/m 12,7 C 20,7 C 3,2 km/h (1 Bft) 100,00 %
22.04.2018 10:58 20,7 C 13,9 C 60 % 1015,1 hPa 0,0 l/m 5,4 km/h (1 Bft) N-NO 21 1 min 0,000 mm 2,5 UV-I 665 W/m 12,7 C 20,7 C 8,0 km/h (2 Bft) 95,65 %
22.04.2018 10:59 20,7 C 13,9 C 61 % 1015,1 hPa 0,0 l/m 5,4 km/h (1 Bft) N-NO 33 1 min 0,000 mm 2,5 UV-I 667 W/m 12,9 C 20,7 C 6,4 km/h (2 Bft) 100,00 %
22.04.2018 11:00 20,8 C 13,9 C 62 % 1015,1 hPa 0,0 l/m 4,6 km/h (1 Bft) N-NO 32 1 min 0,000 mm 2,5 UV-I 668 W/m 13,2 C 20,8 C 6,4 km/h (2 Bft) 95,65 %
22.04.2018 11:01 20,9 C 13,9 C 61 % 1015,1 hPa 0,0 l/m 4,3 km/h (1 Bft) O-NO 62 1 min 0,381 mm 2,5 UV-I 672 W/m 13,1 C 20,9 C 4,8 km/h (1 Bft) 100,00 %
22.04.2018 11:02 20,9 C 13,9 C 60 % 1015,1 hPa 0,0 l/m 4,3 km/h (1 Bft) NO 51 1 min 0,000 mm 2,6 UV-I 674 W/m 12,8 C 20,9 C 6,4 km/h (2 Bft) 100,00 %
22.04.2018 11:03 21,0 C 13,9 C 61 % 1015,1 hPa 0,0 l/m 6,1 km/h (2 Bft) NW 324 1 min 0,000 mm 2,6 UV-I 677 W/m 13,2 C 21,0 C 8,0 km/h (2 Bft) 95,83 %
22.04.2018 11:04 21,1 C 13,9 C 60 % 1015,1 hPa 0,0 l/m 5,6 km/h (1 Bft) O-NO 63 1 min 0,000 mm 2,6 UV-I 677 W/m 13,0 C 21,1 C 8,0 km/h (2 Bft) 100,00 %
22.04.2018 11:05 21,2 C 13,9 C 59 % 1015,1 hPa 0,0 l/m 5,0 km/h (1 Bft) N-NO 28 1 min 0,000 mm 2,6 UV-I 678 W/m 12,9 C 21,2 C 6,4 km/h (2 Bft) 100,00 %
22.04.2018 11:06 21,2 C 13,9 C 60 % 1015,0 hPa 0,0 l/m 4,8 km/h (1 Bft) NO 35 1 min 0,000 mm 2,6 UV-I 678 W/m 13,1 C 21,2 C 6,4 km/h (2 Bft) 100,00 %
22.04.2018 11:07 21,1 C 13,9 C 57 % 1015,0 hPa 0,0 l/m 4,3 km/h (1 Bft) NO 45 1 min 0,000 mm 2,6 UV-I 677 W/m 12,2 C 21,1 C 6,4 km/h (2 Bft) 95,83 %
22.04.2018 11:08 21,0 C 13,9 C 57 % 1015,0 hPa 0,0 l/m 2,7 km/h (1 Bft) NO 45 1 min 0,000 mm 2,6 UV-I 679 W/m 12,1 C 21,0 C 6,4 km/h (2 Bft) 100,00 %
22.04.2018 11:09 20,8 C 13,9 C 59 % 1015,0 hPa 0,0 l/m 3,8 km/h (1 Bft) NO 37 1 min 0,000 mm 2,6 UV-I 680 W/m 12,5 C 20,8 C 6,4 km/h (2 Bft) 91,30 %
22.04.2018 11:10 20,8 C 13,9 C 61 % 1015,0 hPa 0,0 l/m 2,5 km/h (1 Bft) O-NO 72 1 min 0,000 mm 1,5 UV-I 681 W/m 13,0 C 20,8 C 4,8 km/h (1 Bft) 100,00 %
22.04.2018 11:11 20,8 C 13,9 C 60 % 1015,0 hPa 0,0 l/m 2,2 km/h (1 Bft) O-NO 72 1 min 0,000 mm 1,7 UV-I 685 W/m 12,7 C 20,8 C 3,2 km/h (1 Bft) 100,00 %
22.04.2018 11:12 20,9 C 13,9 C 60 % 1015,0 hPa 0,0 l/m 3,8 km/h (1 Bft) O-NO 57 1 min 0,000 mm 2,7 UV-I 686 W/m 12,8 C 20,9 C 8,0 km/h (2 Bft) 100,00 %
22.04.2018 11:13 21,0 C 13,9 C 61 % 1015,0 hPa 0,0 l/m 7,6 km/h (2 Bft) O-NO 67 1 min 0,000 mm 2,7 UV-I 686 W/m 13,2 C 20,5 C 9,7 km/h (2 Bft) 100,00 %
22.04.2018 11:14 21,2 C 13,9 C 61 % 1015,0 hPa 0,0 l/m 5,7 km/h (1 Bft) O-NO 67 1 min 0,000 mm 2,7 UV-I 690 W/m 13,4 C 21,2 C 8,0 km/h (2 Bft) 100,00 %
22.04.2018 11:15 21,2 C 13,9 C 59 % 1015,0 hPa 0,0 l/m 7,0 km/h (2 Bft) O-NO 65 1 min 0,000 mm 2,7 UV-I 694 W/m 12,9 C 21,0 C 8,0 km/h (2 Bft) 91,30 %
22.04.2018 11:16 21,2 C 13,9 C 59 % 1015,0 hPa 0,0 l/m 4,8 km/h (1 Bft) O-NO 57 1 min 0,000 mm 2,7 UV-I 695 W/m 12,9 C 21,2 C 8,0 km/h (2 Bft) 95,83 %
22.04.2018 11:17 21,1 C 13,9 C 59 % 1014,9 hPa 0,0 l/m 4,1 km/h (1 Bft) NO 55 1 min 0,000 mm 2,7 UV-I 695 W/m 12,8 C 21,1 C 6,4 km/h (2 Bft) 95,65 %
22.04.2018 11:18 21,2 C 13,9 C 59 % 1014,9 hPa 0,0 l/m 3,0 km/h (1 Bft) NO 55 1 min 0,000 mm 2,7 UV-I 695 W/m 12,9 C 21,2 C 4,8 km/h (1 Bft) 100,00 %
22.04.2018 11:19 21,3 C 13,9 C 58 % 1015,0 hPa 0,0 l/m 3,8 km/h (1 Bft) NO 54 1 min 0,000 mm 2,7 UV-I 696 W/m 12,7 C 21,3 C 4,8 km/h (1 Bft) 100,00 %
22.04.2018 11:20 21,3 C 13,9 C 56 % 1015,0 hPa 0,0 l/m 2,4 km/h (1 Bft) NO 54 1 min 0,000 mm 2,8 UV-I 699 W/m 12,2 C 21,3 C 4,8 km/h (1 Bft) 100,00 %
22.04.2018 11:21 21,3 C 13,9 C 57 % 1015,0 hPa 0,0 l/m 1,8 km/h (1 Bft) NO 54 1 min 0,000 mm 2,8 UV-I 701 W/m 12,4 C 21,3 C 4,8 km/h (1 Bft) 100,00 %
22.04.2018 11:22 21,4 C 13,9 C 60 % 1014,9 hPa 0,0 l/m 4,3 km/h (1 Bft) NO 54 1 min 0,000 mm 2,8 UV-I 603 W/m 13,3 C 21,4 C 4,8 km/h (1 Bft) 95,83 %
22.04.2018 11:23 21,3 C 13,9 C 56 % 1014,9 hPa 0,0 l/m 1,9 km/h (1 Bft) NO 54 0 min 0,000 mm 2,8 UV-I 364 W/m 12,2 C 21,3 C 3,2 km/h (1 Bft) 100,00 %
22.04.2018 11:24 21,4 C 13,9 C 60 % 1014,9 hPa 0,0 l/m 2,5 km/h (1 Bft) NO 54 1 min 0,000 mm 2,8 UV-I 558 W/m 13,3 C 21,4 C 3,2 km/h (1 Bft) 100,00 %
22.04.2018 11:25 21,6 C 13,9 C 59 % 1014,9 hPa 0,0 l/m 5,5 km/h (1 Bft) NO 34 1 min 0,000 mm 2,8 UV-I 704 W/m 13,2 C 21,6 C 8,0 km/h (2 Bft) 100,00 %
22.04.2018 11:26 21,6 C 13,9 C 56 % 1014,9 hPa 0,0 l/m 4,0 km/h (1 Bft) NO 34 1 min 0,000 mm 2,8 UV-I 707 W/m 12,4 C 21,6 C 4,8 km/h (1 Bft) 100,00 %
22.04.2018 11:27 21,6 C 13,9 C 58 % 1014,9 hPa 0,0 l/m 3,6 km/h (1 Bft) NO 39 1 min 0,000 mm 2,8 UV-I 706 W/m 13,0 C 21,6 C 4,8 km/h (1 Bft) 93,10 %
22.04.2018 11:28 21,6 C 13,9 C 60 % 1014,9 hPa 0,0 l/m 4,8 km/h (1 Bft) N 9 1 min 0,000 mm 2,9 UV-I 709 W/m 13,5 C 21,6 C 6,4 km/h (2 Bft) 100,00 %
22.04.2018 11:29 21,7 C 13,9 C 56 % 1014,9 hPa 0,0 l/m 6,0 km/h (2 Bft) N 9 1 min 0,000 mm 2,9 UV-I 711 W/m 12,5 C 21,7 C 8,0 km/h (2 Bft) 95,65 %
22.04.2018 11:30 21,7 C 13,9 C 57 % 1014,9 hPa 0,0 l/m 6,2 km/h (2 Bft) N 5 1 min 0,000 mm 2,9 UV-I 713 W/m 12,8 C 21,7 C 8,0 km/h (2 Bft) 100,00 %
22.04.2018 11:31 21,7 C 13,9 C 57 % 1014,9 hPa 0,0 l/m 5,6 km/h (1 Bft) N 355 1 min 0,000 mm 2,9 UV-I 717 W/m 12,8 C 21,7 C 6,4 km/h (2 Bft) 100,00 %
22.04.2018 11:32 21,7 C 13,9 C 58 % 1014,9 hPa 0,0 l/m 4,6 km/h (1 Bft) N-NO 17 1 min 0,000 mm 2,9 UV-I 715 W/m 13,1 C 21,7 C 6,4 km/h (2 Bft) 100,00 %
22.04.2018 11:33 21,7 C 14,4 C 55 % 1014,9 hPa 0,0 l/m 4,3 km/h (1 Bft) N-NO 17 1 min 0,000 mm 2,9 UV-I 715 W/m 12,3 C 21,7 C 6,4 km/h (2 Bft) 100,00 %
22.04.2018 11:34 21,7 C 14,4 C 57 % 1014,8 hPa 0,0 l/m 4,2 km/h (1 Bft) N-NO 17 1 min 0,000 mm 2,9 UV-I 672 W/m 12,8 C 21,7 C 4,8 km/h (1 Bft) 100,00 %
22.04.2018 11:35 21,6 C 14,4 C 55 % 1014,8 hPa 0,0 l/m 5,0 km/h (1 Bft) N-NO 20 1 min 0,000 mm 2,9 UV-I 582 W/m 12,2 C 21,6 C 6,4 km/h (2 Bft) 100,00 %
22.04.2018 11:36 21,6 C 14,4 C 57 % 1014,8 hPa 0,0 l/m 5,3 km/h (1 Bft) N-NO 19 1 min 0,000 mm 2,9 UV-I 652 W/m 12,7 C 21,6 C 6,4 km/h (2 Bft) 100,00 %
22.04.2018 11:37 21,7 C 14,4 C 57 % 1014,8 hPa 0,0 l/m 4,5 km/h (1 Bft) N-NO 13 1 min 0,000 mm 3,0 UV-I 722 W/m 12,8 C 21,7 C 6,4 km/h (2 Bft) 100,00 %
22.04.2018 11:38 21,8 C 14,4 C 56 % 1014,7 hPa 0,0 l/m 6,1 km/h (2 Bft) N-NW 341 1 min 0,000 mm 3,0 UV-I 722 W/m 12,6 C 21,8 C 8,0 km/h (2 Bft) 100,00 %
22.04.2018 11:39 21,9 C 14,4 C 57 % 1014,8 hPa 0,0 l/m 5,6 km/h (1 Bft) N-NW 345 1 min 0,000 mm 3,0 UV-I 720 W/m 13,0 C 21,9 C 6,4 km/h (2 Bft) 100,00 %
22.04.2018 11:40 21,9 C 14,4 C 56 % 1014,8 hPa 0,0 l/m 4,3 km/h (1 Bft) N 349 1 min 0,000 mm 3,0 UV-I 723 W/m 12,7 C 21,9 C 4,8 km/h (1 Bft) 100,00 %
22.04.2018 11:41 22,0 C 14,4 C 57 % 1014,7 hPa 0,0 l/m 6,1 km/h (2 Bft) N 350 1 min 0,000 mm 3,0 UV-I 721 W/m 13,1 C 22,0 C 8,0 km/h (2 Bft) 96,30 %
22.04.2018 11:42 22,1 C 14,4 C 56 % 1014,7 hPa 0,0 l/m 5,1 km/h (1 Bft) N 349 1 min 0,000 mm 3,0 UV-I 721 W/m 12,9 C 22,1 C 6,4 km/h (2 Bft) 95,65 %
22.04.2018 11:43 22,1 C 14,4 C 54 % 1014,7 hPa 0,0 l/m 5,2 km/h (1 Bft) N-NW 331 1 min 0,000 mm 3,0 UV-I 723 W/m 12,3 C 22,1 C 8,0 km/h (2 Bft) 100,00 %
22.04.2018 11:44 22,1 C 14,4 C 56 % 1014,7 hPa 0,0 l/m 4,1 km/h (1 Bft) NW 322 1 min 0,000 mm 3,0 UV-I 726 W/m 12,9 C 22,1 C 6,4 km/h (2 Bft) 100,00 %
22.04.2018 11:45 22,1 C 14,4 C 57 % 1014,7 hPa 0,0 l/m 5,2 km/h (1 Bft) W-NW 296 1 min 0,000 mm 3,0 UV-I 724 W/m 13,2 C 22,1 C 6,4 km/h (2 Bft) 100,00 %
22.04.2018 11:46 21,9 C 14,4 C 53 % 1014,8 hPa 0,0 l/m 3,6 km/h (1 Bft) W-NW 298 1 min 0,000 mm 3,0 UV-I 726 W/m 11,9 C 21,9 C 4,8 km/h (1 Bft) 100,00 %
22.04.2018 11:47 21,7 C 14,4 C 54 % 1014,7 hPa 0,0 l/m 3,1 km/h (1 Bft) NW 307 1 min 0,000 mm 3,0 UV-I 726 W/m 12,0 C 21,7 C 4,8 km/h (1 Bft) 100,00 %
22.04.2018 11:48 21,8 C 14,4 C 55 % 1014,7 hPa 0,0 l/m 5,2 km/h (1 Bft) N-NW 333 1 min 0,000 mm 3,0 UV-I 727 W/m 12,4 C 21,8 C 6,4 km/h (2 Bft) 100,00 %
22.04.2018 11:49 21,7 C 14,4 C 55 % 1014,7 hPa 0,0 l/m 3,4 km/h (1 Bft) N-NW 333 1 min 0,000 mm 3,0 UV-I 726 W/m 12,3 C 21,7 C 6,4 km/h (2 Bft) 100,00 %
22.04.2018 11:50 21,7 C 14,4 C 58 % 1014,7 hPa 0,0 l/m 4,2 km/h (1 Bft) N-NW 342 1 min 0,000 mm 3,1 UV-I 726 W/m 13,1 C 21,7 C 6,4 km/h (2 Bft) 100,00 %
22.04.2018 11:51 21,8 C 14,4 C 57 % 1014,7 hPa 0,0 l/m 5,2 km/h (1 Bft) N-NW 331 1 min 0,000 mm 3,1 UV-I 729 W/m 12,9 C 21,8 C 6,4 km/h (2 Bft) 95,65 %
22.04.2018 11:52 21,8 C 14,4 C 57 % 1014,6 hPa 0,0 l/m 3,0 km/h (1 Bft) N-NW 331 1 min 0,000 mm 3,1 UV-I 732 W/m 12,9 C 21,8 C 4,8 km/h (1 Bft) 100,00 %
22.04.2018 11:53 21,8 C 14,4 C 56 % 1014,6 hPa 0,0 l/m 4,8 km/h (1 Bft) N 9 1 min 0,000 mm 3,1 UV-I 733 W/m 12,6 C 21,8 C 6,4 km/h (2 Bft) 100,00 %
22.04.2018 11:54 21,9 C 14,4 C 57 % 1014,6 hPa 0,0 l/m 4,9 km/h (1 Bft) N 5 1 min 0,000 mm 3,1 UV-I 736 W/m 13,0 C 21,9 C 6,4 km/h (2 Bft) 100,00 %
22.04.2018 11:55 22,1 C 14,4 C 56 % 1014,7 hPa 0,0 l/m 4,8 km/h (1 Bft) N 350 1 min 0,000 mm 3,1 UV-I 738 W/m 12,9 C 22,1 C 6,4 km/h (2 Bft) 95,65 %
22.04.2018 11:56 22,2 C 14,4 C 56 % 1014,6 hPa 0,0 l/m 5,1 km/h (1 Bft) N 351 1 min 0,000 mm 3,1 UV-I 737 W/m 13,0 C 22,2 C 6,4 km/h (2 Bft) 100,00 %
22.04.2018 11:57 22,2 C 14,4 C 54 % 1014,6 hPa 0,0 l/m 3,6 km/h (1 Bft) N-NW 347 1 min 0,000 mm 3,1 UV-I 736 W/m 12,4 C 22,2 C 6,4 km/h (2 Bft) 100,00 %
22.04.2018 11:58 22,1 C 14,4 C 54 % 1014,6 hPa 0,0 l/m 1,9 km/h (1 Bft) N-NW 347 1 min 0,000 mm 3,1 UV-I 733 W/m 12,3 C 22,1 C 3,2 km/h (1 Bft) 100,00 %
22.04.2018 11:59 22,2 C 14,4 C 54 % 1014,6 hPa 0,0 l/m 1,7 km/h (1 Bft) N-NW 347 1 min 0,000 mm 3,1 UV-I 736 W/m 12,4 C 22,2 C 3,2 km/h (1 Bft) 100,00 %
22.04.2018 12:00 22,2 C 14,4 C 54 % 1014,6 hPa 0,0 l/m 1,5 km/h (1 Bft) N-NW 345 1 min 0,000 mm 3,1 UV-I 737 W/m 12,4 C 22,2 C 3,2 km/h (1 Bft) 100,00 %
22.04.2018 12:01 22,1 C 14,4 C 56 % 1014,6 hPa 0,0 l/m 1,8 km/h (1 Bft) N-NW 344 1 min 0,431 mm 3,1 UV-I 740 W/m 12,9 C 22,1 C 3,2 km/h (1 Bft) 100,00 %
22.04.2018 12:02 22,0 C 14,4 C 54 % 1014,6 hPa 0,0 l/m 1,7 km/h (1 Bft) N-NW 344 1 min 0,000 mm 3,1 UV-I 742 W/m 12,3 C 22,0 C 3,2 km/h (1 Bft) 97,88 %
22.04.2018 12:03 22,0 C 14,4 C 56 % 1014,5 hPa 0,0 l/m 3,5 km/h (1 Bft) N-NW 344 1 min 0,000 mm 3,1 UV-I 741 W/m 12,8 C 22,0 C 4,8 km/h (1 Bft) 100,00 %
22.04.2018 12:04 22,1 C 14,4 C 56 % 1014,5 hPa 0,0 l/m 3,2 km/h (1 Bft) N-NW 344 1 min 0,000 mm 3,2 UV-I 743 W/m 12,9 C 22,1 C 4,8 km/h (1 Bft) 100,00 %
22.04.2018 12:05 22,2 C 14,4 C 56 % 1014,6 hPa 0,0 l/m 4,1 km/h (1 Bft) N-NW 344 1 min 0,000 mm 3,2 UV-I 743 W/m 13,0 C 22,2 C 6,4 km/h (2 Bft) 100,00 %
22.04.2018 12:06 22,3 C 14,4 C 56 % 1014,5 hPa 0,0 l/m 4,2 km/h (1 Bft) N-NW 333 1 min 0,000 mm 3,2 UV-I 744 W/m 13,1 C 22,3 C 8,0 km/h (2 Bft) 100,00 %
22.04.2018 12:07 22,4 C 14,4 C 56 % 1014,5 hPa 0,0 l/m 6,2 km/h (2 Bft) NW 309 1 min 0,000 mm 3,2 UV-I 744 W/m 13,2 C 22,4 C 8,0 km/h (2 Bft) 100,00 %
22.04.2018 12:08 22,4 C 14,4 C 53 % 1014,5 hPa 0,0 l/m 4,2 km/h (1 Bft) W-NW 301 1 min 0,000 mm 3,2 UV-I 744 W/m 12,3 C 22,4 C 6,4 km/h (2 Bft) 100,00 %
22.04.2018 12:09 22,4 C 14,4 C 56 % 1014,5 hPa 0,0 l/m 3,2 km/h (1 Bft) NW 312 1 min 0,000 mm 3,2 UV-I 745 W/m 13,2 C 22,4 C 8,0 km/h (2 Bft) 100,00 %
22.04.2018 12:10 22,4 C 14,4 C 57 % 1014,5 hPa 0,0 l/m 5,9 km/h (2 Bft) W-NW 290 1 min 0,000 mm 3,2 UV-I 747 W/m 13,5 C 22,4 C 8,0 km/h (2 Bft) 95,65 %
22.04.2018 12:11 22,4 C 14,4 C 53 % 1014,5 hPa 0,0 l/m 3,3 km/h (1 Bft) W-NW 291 1 min 0,000 mm 3,2 UV-I 747 W/m 12,3 C 22,4 C 4,8 km/h (1 Bft) 100,00 %
22.04.2018 12:12 22,3 C 14,4 C 54 % 1014,4 hPa 0,0 l/m 4,4 km/h (1 Bft) N-NW 342 1 min 0,000 mm 3,2 UV-I 746 W/m 12,5 C 22,3 C 6,4 km/h (2 Bft) 95,65 %
22.04.2018 12:13 22,3 C 14,4 C 57 % 1014,4 hPa 0,0 l/m 4,0 km/h (1 Bft) W-NW 284 1 min 0,000 mm 3,2 UV-I 744 W/m 13,4 C 22,3 C 6,4 km/h (2 Bft) 100,00 %
22.04.2018 12:14 22,4 C 14,4 C 56 % 1014,5 hPa 0,0 l/m 3,5 km/h (1 Bft) O-NO 59 1 min 0,000 mm 3,2 UV-I 744 W/m 13,2 C 22,4 C 6,4 km/h (2 Bft) 91,30 %
22.04.2018 12:15 22,4 C 14,4 C 57 % 1014,4 hPa 0,0 l/m 6,4 km/h (2 Bft) N 11 1 min 0,000 mm 3,2 UV-I 747 W/m 13,5 C 22,4 C 8,0 km/h (2 Bft) 100,00 %
22.04.2018 12:16 22,6 C 14,4 C 56 % 1014,4 hPa 0,0 l/m 5,4 km/h (1 Bft) N 355 1 min 0,000 mm 3,2 UV-I 749 W/m 13,4 C 22,6 C 8,0 km/h (2 Bft) 100,00 %
22.04.2018 12:17 22,6 C 14,4 C 55 % 1014,4 hPa 0,0 l/m 1,5 km/h (1 Bft) N 355 1 min 0,000 mm 3,3 UV-I 753 W/m 13,1 C 22,6 C 3,2 km/h (1 Bft) 95,83 %
22.04.2018 12:18 22,6 C 14,4 C 54 % 1014,4 hPa 0,0 l/m 1,0 km/h (0 Bft) N 355 1 min 0,000 mm 3,3 UV-I 754 W/m 12,8 C 22,6 C 3,2 km/h (1 Bft) 100,00 %
22.04.2018 12:19 22,6 C 14,4 C 55 % 1014,4 hPa 0,0 l/m 2,9 km/h (1 Bft) N 355 1 min 0,000 mm 3,3 UV-I 751 W/m 13,1 C 22,6 C 4,8 km/h (1 Bft) 100,00 %
22.04.2018 12:20 22,6 C 14,4 C 56 % 1014,4 hPa 0,0 l/m 3,3 km/h (1 Bft) N-NW 341 1 min 0,000 mm 3,3 UV-I 752 W/m 13,4 C 22,6 C 4,8 km/h (1 Bft) 96,15 %
22.04.2018 12:21 22,7 C 14,4 C 56 % 1014,4 hPa 0,0 l/m 2,1 km/h (1 Bft) N-NW 341 1 min 0,000 mm 3,3 UV-I 752 W/m 13,5 C 22,7 C 3,2 km/h (1 Bft) 100,00 %
22.04.2018 12:22 22,6 C 14,4 C 54 % 1014,3 hPa 0,0 l/m 1,9 km/h (1 Bft) N-NW 341 1 min 0,000 mm 3,3 UV-I 754 W/m 12,8 C 22,6 C 3,2 km/h (1 Bft) 100,00 %
22.04.2018 12:23 22,6 C 14,4 C 59 % 1014,3 hPa 0,0 l/m 1,9 km/h (1 Bft) N-NW 348 1 min 0,000 mm 3,3 UV-I 755 W/m 14,2 C 22,6 C 4,8 km/h (1 Bft) 100,00 %
22.04.2018 12:24 22,6 C 14,4 C 57 % 1014,3 hPa 0,0 l/m 5,1 km/h (1 Bft) O-NO 63 1 min 0,000 mm 3,3 UV-I 756 W/m 13,6 C 22,6 C 8,0 km/h (2 Bft) 95,65 %
22.04.2018 12:25 22,6 C 14,4 C 57 % 1014,3 hPa 0,0 l/m 6,0 km/h (2 Bft) O-NO 57 1 min 0,000 mm 3,3 UV-I 758 W/m 13,6 C 22,6 C 8,0 km/h (2 Bft) 100,00 %
22.04.2018 12:26 22,7 C 14,4 C 55 % 1014,3 hPa 0,0 l/m 4,1 km/h (1 Bft) NO 56 1 min 0,000 mm 3,3 UV-I 758 W/m 13,2 C 22,7 C 6,4 km/h (2 Bft) 95,65 %
22.04.2018 12:27 22,8 C 14,4 C 57 % 1014,2 hPa 0,0 l/m 3,7 km/h (1 Bft) O-NO 57 1 min 0,000 mm 3,3 UV-I 759 W/m 13,8 C 22,8 C 6,4 km/h (2 Bft) 95,83 %
22.04.2018 12:28 22,9 C 14,4 C 55 % 1014,3 hPa 0,0 l/m 1,9 km/h (1 Bft) NW 305 1 min 0,000 mm 3,3 UV-I 758 W/m 13,4 C 22,9 C 4,8 km/h (1 Bft) 100,00 %
22.04.2018 12:29 22,9 C 14,4 C 58 % 1014,3 hPa 0,0 l/m 4,1 km/h (1 Bft) NO 41 1 min 0,000 mm 3,3 UV-I 761 W/m 14,2 C 22,9 C 6,4 km/h (2 Bft) 95,65 %
22.04.2018 12:30 23,1 C 14,4 C 54 % 1014,2 hPa 0,0 l/m 4,1 km/h (1 Bft) O-NO 66 1 min 0,000 mm 3,3 UV-I 759 W/m 13,3 C 23,1 C 6,4 km/h (2 Bft) 100,00 %
22.04.2018 12:31 23,1 C 14,4 C 54 % 1014,2 hPa 0,0 l/m 1,4 km/h (1 Bft) O-NO 72 1 min 0,000 mm 3,3 UV-I 759 W/m 13,3 C 23,1 C 3,2 km/h (1 Bft) 86,96 %
22.04.2018 12:32 22,9 C 14,4 C 53 % 1014,2 hPa 0,0 l/m 2,1 km/h (1 Bft) O-NO 69 1 min 0,000 mm 3,3 UV-I 757 W/m 12,8 C 22,9 C 6,4 km/h (2 Bft) 100,00 %
22.04.2018 12:33 22,9 C 14,4 C 54 % 1014,2 hPa 0,0 l/m 5,6 km/h (1 Bft) NO 47 1 min 0,000 mm 3,4 UV-I 760 W/m 13,1 C 22,9 C 8,0 km/h (2 Bft) 95,65 %
22.04.2018 12:34 23,2 C 14,4 C 55 % 1014,2 hPa 0,0 l/m 6,6 km/h (2 Bft) NO 44 1 min 0,000 mm 3,4 UV-I 763 W/m 13,6 C 23,1 C 8,0 km/h (2 Bft) 100,00 %
22.04.2018 12:35 23,3 C 14,4 C 54 % 1014,2 hPa 0,0 l/m 7,4 km/h (2 Bft) NO 53 1 min 0,000 mm 3,4 UV-I 762 W/m 13,5 C 23,0 C 9,7 km/h (2 Bft) 91,30 %
22.04.2018 12:36 23,4 C 14,4 C 57 % 1014,2 hPa 0,0 l/m 6,9 km/h (2 Bft) O-NO 62 1 min 0,000 mm 3,4 UV-I 763 W/m 14,4 C 23,3 C 8,0 km/h (2 Bft) 95,83 %
22.04.2018 12:37 23,4 C 14,4 C 55 % 1014,2 hPa 0,0 l/m 4,8 km/h (1 Bft) O 79 1 min 0,000 mm 3,4 UV-I 763 W/m 13,8 C 23,4 C 6,4 km/h (2 Bft) 92,86 %
22.04.2018 12:38 23,3 C 14,4 C 53 % 1014,1 hPa 0,0 l/m 3,9 km/h (1 Bft) O 84 1 min 0,000 mm 3,4 UV-I 762 W/m 13,2 C 23,3 C 6,4 km/h (2 Bft) 100,00 %
22.04.2018 12:39 23,3 C 14,4 C 55 % 1014,2 hPa 0,0 l/m 3,7 km/h (1 Bft) NO 53 1 min 0,000 mm 3,4 UV-I 761 W/m 13,7 C 23,3 C 4,8 km/h (1 Bft) 96,15 %
22.04.2018 12:40 23,2 C 14,4 C 56 % 1014,1 hPa 0,0 l/m 5,0 km/h (1 Bft) O 82 1 min 0,000 mm 3,4 UV-I 743 W/m 13,9 C 23,2 C 8,0 km/h (2 Bft) 95,83 %
22.04.2018 12:41 23,2 C 14,4 C 54 % 1014,1 hPa 0,0 l/m 6,9 km/h (2 Bft) O 94 1 min 0,000 mm 3,4 UV-I 756 W/m 13,4 C 23,0 C 9,7 km/h (2 Bft) 95,65 %
22.04.2018 12:42 23,2 C 14,4 C 53 % 1014,1 hPa 0,0 l/m 5,6 km/h (1 Bft) O-NO 60 1 min 0,000 mm 3,4 UV-I 765 W/m 13,1 C 23,2 C 8,0 km/h (2 Bft) 95,83 %
22.04.2018 12:43 23,3 C 14,4 C 57 % 1014,1 hPa 0,0 l/m 6,5 km/h (2 Bft) O-NO 73 1 min 0,000 mm 3,4 UV-I 766 W/m 14,3 C 23,3 C 8,0 km/h (2 Bft) 100,00 %
22.04.2018 12:44 23,3 C 14,4 C 54 % 1014,1 hPa 0,0 l/m 6,4 km/h (2 Bft) N-NO 21 1 min 0,000 mm 3,4 UV-I 766 W/m 13,5 C 23,3 C 8,0 km/h (2 Bft) 95,83 %
22.04.2018 12:45 23,4 C 14,4 C 55 % 1014,1 hPa 0,0 l/m 5,8 km/h (2 Bft) N-NO 24 1 min 0,000 mm 3,4 UV-I 767 W/m 13,8 C 23,4 C 8,0 km/h (2 Bft) 100,00 %
22.04.2018 12:46 23,5 C 14,4 C 55 % 1014,1 hPa 0,0 l/m 5,6 km/h (1 Bft) N-NO 32 1 min 0,000 mm 3,4 UV-I 767 W/m 13,9 C 23,5 C 6,4 km/h (2 Bft) 81,82 %
22.04.2018 12:47 23,7 C 14,4 C 56 % 1014,1 hPa 0,0 l/m 7,1 km/h (2 Bft) NO 53 1 min 0,000 mm 3,4 UV-I 766 W/m 14,4 C 23,5 C 8,0 km/h (2 Bft) 100,00 %
22.04.2018 12:48 23,7 C 14,4 C 53 % 1014,1 hPa 0,0 l/m 6,5 km/h (2 Bft) O 86 1 min 0,000 mm 3,4 UV-I 766 W/m 13,5 C 23,7 C 8,0 km/h (2 Bft) 95,65 %
22.04.2018 12:49 23,8 C 14,4 C 56 % 1014,0 hPa 0,0 l/m 7,2 km/h (2 Bft) N-NO 30 1 min 0,000 mm 3,4 UV-I 768 W/m 14,5 C 23,6 C 9,7 km/h (2 Bft) 95,83 %
22.04.2018 12:50 23,8 C 14,4 C 54 % 1014,1 hPa 0,0 l/m 5,0 km/h (1 Bft) O-NO 67 1 min 0,000 mm 3,4 UV-I 767 W/m 13,9 C 23,8 C 8,0 km/h (2 Bft) 100,00 %
22.04.2018 12:51 23,8 C 14,4 C 53 % 1014,0 hPa 0,0 l/m 4,0 km/h (1 Bft) NW 305 1 min 0,000 mm 3,4 UV-I 768 W/m 13,6 C 23,8 C 8,0 km/h (2 Bft) 95,83 %
22.04.2018 12:52 23,8 C 14,4 C 54 % 1014,0 hPa 0,0 l/m 3,7 km/h (1 Bft) W 270 1 min 0,000 mm 3,4 UV-I 767 W/m 13,9 C 23,8 C 6,4 km/h (2 Bft) 91,30 %
22.04.2018 12:53 23,6 C 14,4 C 51 % 1014,0 hPa 0,0 l/m 3,8 km/h (1 Bft) S-SW 205 1 min 0,000 mm 3,4 UV-I 766 W/m 12,9 C 23,6 C 6,4 km/h (2 Bft) 83,33 %
22.04.2018 12:54 23,4 C 14,4 C 51 % 1014,0 hPa 0,0 l/m 2,9 km/h (1 Bft) S-SW 205 1 min 0,000 mm 3,4 UV-I 768 W/m 12,7 C 23,4 C 4,8 km/h (1 Bft) 100,00 %
22.04.2018 12:55 23,3 C 14,4 C 53 % 1014,0 hPa 0,0 l/m 2,2 km/h (1 Bft) SW 223 1 min 0,000 mm 3,4 UV-I 769 W/m 13,2 C 23,3 C 3,2 km/h (1 Bft) 91,67 %
22.04.2018 12:56 23,3 C 14,4 C 54 % 1014,0 hPa 0,0 l/m 5,7 km/h (1 Bft) N-NW 328 1 min 0,000 mm 3,4 UV-I 770 W/m 13,5 C 23,3 C 9,7 km/h (2 Bft) 100,00 %
22.04.2018 12:57 23,3 C 15,0 C 54 % 1014,0 hPa 0,0 l/m 7,1 km/h (2 Bft) NW 317 1 min 0,000 mm 3,4 UV-I 766 W/m 13,5 C 23,1 C 8,0 km/h (2 Bft) 95,83 %
22.04.2018 12:58 23,4 C 15,0 C 51 % 1014,0 hPa 0,0 l/m 4,6 km/h (1 Bft) NW 305 1 min 0,000 mm 3,4 UV-I 769 W/m 12,7 C 23,4 C 6,4 km/h (2 Bft) 96,15 %
22.04.2018 12:59 23,4 C 15,0 C 51 % 1014,0 hPa 0,0 l/m 2,3 km/h (1 Bft) NW 317 1 min 0,000 mm 3,4 UV-I 770 W/m 12,7 C 23,4 C 4,8 km/h (1 Bft) 100,00 %
22.04.2018 13:00 23,4 C 15,0 C 53 % 1014,0 hPa 0,0 l/m 2,3 km/h (1 Bft) NW 318 1 min 0,483 mm 3,4 UV-I 770 W/m 13,3 C 23,4 C 4,8 km/h (1 Bft) 100,00 %
22.04.2018 13:01 23,4 C 15,0 C 52 % 1014,0 hPa 0,0 l/m 3,6 km/h (1 Bft) NW 317 1 min 0,000 mm 3,4 UV-I 772 W/m 13,0 C 23,4 C 4,8 km/h (1 Bft) 100,00 %
22.04.2018 13:02 23,4 C 15,0 C 52 % 1014,0 hPa 0,0 l/m 3,6 km/h (1 Bft) NW 324 1 min 0,000 mm 3,4 UV-I 771 W/m 13,0 C 23,4 C 6,4 km/h (2 Bft) 100,00 %
22.04.2018 13:03 23,5 C 15,0 C 52 % 1014,0 hPa 0,0 l/m 3,5 km/h (1 Bft) W-NW 288 1 min 0,000 mm 3,5 UV-I 772 W/m 13,1 C 23,5 C 6,4 km/h (2 Bft) 95,83 %
22.04.2018 13:04 23,4 C 15,0 C 51 % 1014,0 hPa 0,0 l/m 2,9 km/h (1 Bft) W-NW 288 1 min 0,000 mm 3,5 UV-I 773 W/m 12,7 C 23,4 C 4,8 km/h (1 Bft) 95,65 %
22.04.2018 13:05 23,3 C 15,0 C 51 % 1014,0 hPa 0,0 l/m 3,0 km/h (1 Bft) W 279 1 min 0,000 mm 3,5 UV-I 773 W/m 12,6 C 23,3 C 4,8 km/h (1 Bft) 100,00 %
22.04.2018 13:06 23,4 C 15,0 C 56 % 1013,9 hPa 0,0 l/m 3,6 km/h (1 Bft) W 281 1 min 0,000 mm 3,5 UV-I 773 W/m 14,1 C 23,4 C 6,4 km/h (2 Bft) 100,00 %
22.04.2018 13:07 23,6 C 15,0 C 51 % 1013,9 hPa 0,0 l/m 3,4 km/h (1 Bft) W 281 1 min 0,000 mm 3,5 UV-I 773 W/m 12,9 C 23,6 C 4,8 km/h (1 Bft) 95,65 %
22.04.2018 13:08 23,5 C 15,0 C 51 % 1013,9 hPa 0,0 l/m 3,2 km/h (1 Bft) W 280 1 min 0,000 mm 3,4 UV-I 772 W/m 12,8 C 23,5 C 4,8 km/h (1 Bft) 100,00 %
22.04.2018 13:09 23,5 C 15,0 C 50 % 1013,9 hPa 0,0 l/m 2,7 km/h (1 Bft) W-SW 252 1 min 0,000 mm 3,4 UV-I 773 W/m 12,5 C 23,5 C 4,8 km/h (1 Bft) 95,65 %
22.04.2018 13:10 23,6 C 15,0 C 57 % 1013,9 hPa 0,0 l/m 1,7 km/h (1 Bft) W-SW 257 1 min 0,000 mm 3,4 UV-I 772 W/m 14,6 C 23,6 C 3,2 km/h (1 Bft) 100,00 %
22.04.2018 13:11 23,8 C 15,0 C 53 % 1013,9 hPa 0,0 l/m 2,9 km/h (1 Bft) W-SW 249 1 min 0,000 mm 3,5 UV-I 772 W/m 13,6 C 23,8 C 4,8 km/h (1 Bft) 100,00 %
22.04.2018 13:12 23,8 C 15,0 C 51 % 1013,9 hPa 0,0 l/m 3,4 km/h (1 Bft) NW 310 1 min 0,000 mm 3,4 UV-I 773 W/m 13,0 C 23,8 C 4,8 km/h (1 Bft) 100,00 %
22.04.2018 13:13 23,8 C 15,0 C 51 % 1013,8 hPa 0,0 l/m 4,6 km/h (1 Bft) W-NW 284 1 min 0,000 mm 3,4 UV-I 771 W/m 13,0 C 23,8 C 6,4 km/h (2 Bft) 91,30 %
22.04.2018 13:14 23,7 C 15,0 C 49 % 1013,8 hPa 0,0 l/m 3,4 km/h (1 Bft) W-NW 300 1 min 0,000 mm 3,4 UV-I 767 W/m 12,3 C 23,7 C 4,8 km/h (1 Bft) 95,83 %
22.04.2018 13:15 23,6 C 15,0 C 54 % 1013,8 hPa 0,0 l/m 5,2 km/h (1 Bft) W-NW 296 1 min 0,000 mm 3,4 UV-I 766 W/m 13,7 C 23,6 C 6,4 km/h (2 Bft) 100,00 %
22.04.2018 13:16 23,6 C 15,0 C 50 % 1013,8 hPa 0,0 l/m 4,8 km/h (1 Bft) W-NW 285 1 min 0,000 mm 3,4 UV-I 766 W/m 12,6 C 23,6 C 9,7 km/h (2 Bft) 100,00 %
22.04.2018 13:17 23,6 C 15,0 C 50 % 1013,8 hPa 0,0 l/m 3,9 km/h (1 Bft) W-NW 284 1 min 0,000 mm 3,4 UV-I 768 W/m 12,6 C 23,6 C 6,4 km/h (2 Bft) 100,00 %
22.04.2018 13:18 23,6 C 15,0 C 51 % 1013,8 hPa 0,0 l/m 3,7 km/h (1 Bft) W-SW 252 1 min 0,000 mm 3,4 UV-I 768 W/m 12,9 C 23,6 C 6,4 km/h (2 Bft) 96,15 %
22.04.2018 13:19 23,6 C 15,0 C 49 % 1013,7 hPa 0,0 l/m 2,1 km/h (1 Bft) W-SW 252 1 min 0,000 mm 3,4 UV-I 766 W/m 12,2 C 23,6 C 3,2 km/h (1 Bft) 100,00 %
22.04.2018 13:20 23,7 C 15,0 C 50 % 1013,7 hPa 0,0 l/m 1,3 km/h (1 Bft) W-SW 252 1 min 0,000 mm 3,4 UV-I 765 W/m 12,6 C 23,7 C 3,2 km/h (1 Bft) 96,15 %
22.04.2018 13:21 23,7 C 15,0 C 49 % 1013,7 hPa 0,0 l/m 1,5 km/h (1 Bft) W-NW 303 1 min 0,000 mm 3,4 UV-I 763 W/m 12,3 C 23,7 C 3,2 km/h (1 Bft) 100,00 %
22.04.2018 13:22 23,7 C 15,0 C 50 % 1013,7 hPa 0,0 l/m 6,2 km/h (2 Bft) NW 306 1 min 0,000 mm 3,4 UV-I 762 W/m 12,6 C 23,7 C 8,0 km/h (2 Bft) 95,65 %
22.04.2018 13:23 23,8 C 15,0 C 50 % 1013,7 hPa 0,0 l/m 8,6 km/h (2 Bft) W-NW 294 1 min 0,000 mm 3,4 UV-I 761 W/m 12,7 C 23,2 C 12,9 km/h (3 Bft) 100,00 %
22.04.2018 13:24 23,9 C 15,0 C 49 % 1013,8 hPa 0,0 l/m 8,2 km/h (2 Bft) W-NW 292 1 min 0,000 mm 3,4 UV-I 761 W/m 12,5 C 23,4 C 11,3 km/h (2 Bft) 91,30 %
22.04.2018 13:25 23,9 C 15,0 C 50 % 1013,8 hPa 0,0 l/m 4,1 km/h (1 Bft) W-NW 294 1 min 0,000 mm 3,4 UV-I 760 W/m 12,8 C 23,9 C 6,4 km/h (2 Bft) 100,00 %
22.04.2018 13:26 24,0 C 15,0 C 50 % 1013,7 hPa 0,0 l/m 1,1 km/h (1 Bft) W-NW 294 1 min 0,000 mm 3,4 UV-I 760 W/m 12,9 C 24,0 C 3,2 km/h (1 Bft) 91,30 %
22.04.2018 13:27 24,1 C 15,0 C 49 % 1013,7 hPa 0,0 l/m 4,2 km/h (1 Bft) SO 146 1 min 0,000 mm 3,4 UV-I 761 W/m 12,7 C 24,1 C 6,4 km/h (2 Bft) 100,00 %
22.04.2018 13:28 24,3 C 15,0 C 48 % 1013,7 hPa 0,0 l/m 4,5 km/h (1 Bft) SO 146 1 min 0,000 mm 3,4 UV-I 761 W/m 12,6 C 24,3 C 6,4 km/h (2 Bft) 96,15 %
22.04.2018 13:29 24,3 C 15,0 C 49 % 1013,7 hPa 0,0 l/m 1,8 km/h (1 Bft) SO 146 1 min 0,000 mm 3,4 UV-I 759 W/m 12,9 C 24,3 C 3,2 km/h (1 Bft) 97,81 %
22.04.2018 13:30 24,5 C 15,0 C 50 % 1013,7 hPa 0,0 l/m 1,7 km/h (1 Bft) SO 146 1 min 0,000 mm 3,4 UV-I 761 W/m 13,4 C 24,5 C 3,2 km/h (1 Bft) 97,37 %
22.04.2018 13:31 24,5 C 15,0 C 49 % 1013,6 hPa 0,0 l/m 2,9 km/h (1 Bft) SO 146 1 min 0,000 mm 3,4 UV-I 763 W/m 13,1 C 24,5 C 4,8 km/h (1 Bft) 95,83 %
22.04.2018 13:32 24,5 C 15,0 C 49 % 1013,7 hPa 0,0 l/m 2,4 km/h (1 Bft) SO 146 1 min 0,000 mm 3,4 UV-I 763 W/m 13,1 C 24,5 C 4,8 km/h (1 Bft) 95,65 %
22.04.2018 13:33 24,5 C 15,0 C 48 % 1013,6 hPa 0,0 l/m 4,2 km/h (1 Bft) S-SO 163 1 min 0,000 mm 3,4 UV-I 763 W/m 12,8 C 24,5 C 6,4 km/h (2 Bft) 100,00 %
22.04.2018 13:34 24,4 C 15,0 C 50 % 1013,6 hPa 0,0 l/m 3,4 km/h (1 Bft) O-SO 123 1 min 0,000 mm 3,4 UV-I 762 W/m 13,3 C 24,4 C 4,8 km/h (1 Bft) 91,30 %
22.04.2018 13:35 24,5 C 15,0 C 49 % 1013,6 hPa 0,0 l/m 3,0 km/h (1 Bft) O-SO 123 1 min 0,000 mm 3,4 UV-I 759 W/m 13,1 C 24,5 C 4,8 km/h (1 Bft) 100,00 %
22.04.2018 13:36 24,6 C 15,0 C 49 % 1013,6 hPa 0,0 l/m 4,0 km/h (1 Bft) O-SO 123 1 min 0,000 mm 3,4 UV-I 759 W/m 13,2 C 24,6 C 6,4 km/h (2 Bft) 96,15 %
22.04.2018 13:37 24,6 C 15,0 C 48 % 1013,7 hPa 0,0 l/m 3,7 km/h (1 Bft) O-SO 122 1 min 0,000 mm 3,4 UV-I 759 W/m 12,8 C 24,6 C 6,4 km/h (2 Bft) 95,83 %
22.04.2018 13:38 24,4 C 15,0 C 47 % 1013,6 hPa 0,0 l/m 3,2 km/h (1 Bft) SO 133 1 min 0,000 mm 3,4 UV-I 758 W/m 12,3 C 24,4 C 4,8 km/h (1 Bft) 100,00 %
22.04.2018 13:39 24,3 C 15,0 C 50 % 1013,6 hPa 0,0 l/m 2,1 km/h (1 Bft) SO 133 1 min 0,000 mm 3,4 UV-I 758 W/m 13,2 C 24,3 C 4,8 km/h (1 Bft) 95,83 %
22.04.2018 13:40 24,3 C 15,0 C 47 % 1013,6 hPa 0,0 l/m 5,7 km/h (1 Bft) S 184 1 min 0,000 mm 3,4 UV-I 758 W/m 12,3 C 24,3 C 8,0 km/h (2 Bft) 100,00 %
22.04.2018 13:41 24,2 C 15,0 C 47 % 1013,6 hPa 0,0 l/m 1,4 km/h (1 Bft) S 184 1 min 0,000 mm 3,4 UV-I 759 W/m 12,2 C 24,2 C 4,8 km/h (1 Bft) 95,83 %
22.04.2018 13:42 24,2 C 15,0 C 49 % 1013,6 hPa 0,0 l/m 2,3 km/h (1 Bft) S 184 1 min 0,000 mm 3,4 UV-I 755 W/m 12,8 C 24,2 C 3,2 km/h (1 Bft) 100,00 %
22.04.2018 13:43 24,3 C 15,0 C 49 % 1013,6 hPa 0,0 l/m 1,8 km/h (1 Bft) S 184 1 min 0,000 mm 3,3 UV-I 751 W/m 12,9 C 24,3 C 4,8 km/h (1 Bft) 91,30 %
22.04.2018 13:44 24,3 C 15,0 C 49 % 1013,6 hPa 0,0 l/m 1,3 km/h (1 Bft) S 184 1 min 0,000 mm 3,3 UV-I 749 W/m 12,9 C 24,3 C 3,2 km/h (1 Bft) 100,00 %
22.04.2018 13:45 24,3 C 15,0 C 47 % 1013,6 hPa 0,0 l/m 3,5 km/h (1 Bft) N-NW 333 1 min 0,000 mm 3,3 UV-I 748 W/m 12,3 C 24,3 C 8,0 km/h (2 Bft) 95,65 %
22.04.2018 13:46 24,4 C 15,0 C 46 % 1013,6 hPa 0,0 l/m 6,8 km/h (2 Bft) N 351 1 min 0,000 mm 3,3 UV-I 749 W/m 12,0 C 24,3 C 9,7 km/h (2 Bft) 100,00 %
22.04.2018 13:47 24,6 C 15,0 C 47 % 1013,6 hPa 0,0 l/m 6,4 km/h (2 Bft) N 350 1 min 0,000 mm 3,3 UV-I 747 W/m 12,5 C 24,6 C 9,7 km/h (2 Bft) 86,96 %
22.04.2018 13:48 24,7 C 15,0 C 47 % 1013,6 hPa 0,0 l/m 4,9 km/h (1 Bft) N-NW 342 1 min 0,000 mm 3,3 UV-I 748 W/m 12,6 C 24,7 C 8,0 km/h (2 Bft) 95,83 %
22.04.2018 13:49 24,7 C 15,0 C 46 % 1013,6 hPa 0,0 l/m 6,5 km/h (2 Bft) N-NW 335 1 min 0,000 mm 3,3 UV-I 744 W/m 12,3 C 24,7 C 11,3 km/h (2 Bft) 91,30 %
22.04.2018 13:50 24,8 C 15,0 C 45 % 1013,5 hPa 0,0 l/m 6,9 km/h (2 Bft) N-NW 336 1 min 0,000 mm 3,3 UV-I 742 W/m 12,0 C 24,7 C 8,0 km/h (2 Bft) 95,83 %
22.04.2018 13:51 24,8 C 15,0 C 49 % 1013,6 hPa 0,0 l/m 8,3 km/h (2 Bft) NW 318 1 min 0,000 mm 3,3 UV-I 744 W/m 13,3 C 24,3 C 11,3 km/h (2 Bft) 100,00 %
22.04.2018 13:52 24,9 C 15,0 C 46 % 1013,6 hPa 0,0 l/m 6,8 km/h (2 Bft) N 355 1 min 0,000 mm 3,3 UV-I 745 W/m 12,5 C 24,8 C 8,0 km/h (2 Bft) 95,83 %
22.04.2018 13:53 24,9 C 15,0 C 46 % 1013,5 hPa 0,0 l/m 5,6 km/h (1 Bft) W 272 1 min 0,000 mm 3,3 UV-I 744 W/m 12,5 C 24,9 C 9,7 km/h (2 Bft) 96,15 %
22.04.2018 13:54 24,8 C 15,0 C 43 % 1013,5 hPa 0,0 l/m 5,9 km/h (2 Bft) W 265 1 min 0,000 mm 3,3 UV-I 745 W/m 11,4 C 24,8 C 11,3 km/h (2 Bft) 95,83 %
22.04.2018 13:55 24,7 C 15,0 C 44 % 1013,5 hPa 0,0 l/m 5,5 km/h (1 Bft) W-NW 302 1 min 0,000 mm 3,3 UV-I 747 W/m 11,6 C 24,7 C 6,4 km/h (2 Bft) 96,15 %
22.04.2018 13:56 24,7 C 15,0 C 45 % 1013,5 hPa 0,0 l/m 5,6 km/h (1 Bft) NW 324 1 min 0,000 mm 3,3 UV-I 746 W/m 12,0 C 24,7 C 8,0 km/h (2 Bft) 100,00 %
22.04.2018 13:57 24,7 C 15,0 C 42 % 1013,5 hPa 0,0 l/m 5,6 km/h (1 Bft) NW 326 1 min 0,000 mm 3,3 UV-I 744 W/m 10,9 C 24,7 C 8,0 km/h (2 Bft) 91,30 %
22.04.2018 13:58 24,7 C 15,0 C 43 % 1013,5 hPa 0,0 l/m 3,8 km/h (1 Bft) NW 322 1 min 0,000 mm 3,3 UV-I 744 W/m 11,3 C 24,7 C 4,8 km/h (1 Bft) 100,00 %
22.04.2018 13:59 24,7 C 15,0 C 42 % 1013,5 hPa 0,0 l/m 5,1 km/h (1 Bft) N 350 1 min 0,000 mm 3,2 UV-I 740 W/m 10,9 C 24,7 C 8,0 km/h (2 Bft) 96,30 %
22.04.2018 14:00 24,8 C 15,0 C 44 % 1013,5 hPa 0,0 l/m 4,7 km/h (1 Bft) N 11 1 min 0,000 mm 3,2 UV-I 737 W/m 11,7 C 24,8 C 6,4 km/h (2 Bft) 100,00 %
22.04.2018 14:01 24,8 C 15,0 C 44 % 1013,5 hPa 0,0 l/m 4,2 km/h (1 Bft) N 10 1 min 0,508 mm 3,2 UV-I 734 W/m 11,7 C 24,8 C 6,4 km/h (2 Bft) 95,83 %
22.04.2018 14:02 24,9 C 15,0 C 43 % 1013,5 hPa 0,0 l/m 3,6 km/h (1 Bft) NW 323 1 min 0,000 mm 3,2 UV-I 731 W/m 11,4 C 24,9 C 4,8 km/h (1 Bft) 100,00 %
22.04.2018 14:03 24,9 C 15,0 C 41 % 1013,5 hPa 0,0 l/m 3,9 km/h (1 Bft) W 263 1 min 0,000 mm 3,2 UV-I 729 W/m 10,7 C 24,9 C 4,8 km/h (1 Bft) 95,83 %
22.04.2018 14:04 24,7 C 15,0 C 42 % 1013,5 hPa 0,0 l/m 0,7 km/h (0 Bft) W 263 1 min 0,000 mm 3,2 UV-I 735 W/m 10,9 C 24,7 C 1,6 km/h (1 Bft) 100,00 %
22.04.2018 14:05 24,7 C 15,0 C 42 % 1013,5 hPa 0,0 l/m 3,0 km/h (1 Bft) N-NW 327 1 min 0,000 mm 3,2 UV-I 737 W/m 10,9 C 24,7 C 4,8 km/h (1 Bft) 95,83 %
22.04.2018 14:06 24,8 C 15,0 C 47 % 1013,5 hPa 0,0 l/m 6,0 km/h (2 Bft) N-NO 19 1 min 0,000 mm 3,2 UV-I 736 W/m 12,7 C 24,8 C 12,9 km/h (3 Bft) 95,65 %
22.04.2018 14:07 25,0 C 15,6 C 46 % 1013,5 hPa 0,0 l/m 7,0 km/h (2 Bft) N-NO 29 1 min 0,000 mm 3,2 UV-I 734 W/m 12,6 C 24,8 C 12,9 km/h (3 Bft) 95,83 %
22.04.2018 14:08 25,1 C 15,6 C 45 % 1013,4 hPa 0,0 l/m 12,9 km/h (3 Bft) N-NO 25 1 min 0,000 mm 3,2 UV-I 733 W/m 12,3 C 23,8 C 14,5 km/h (3 Bft) 100,00 %
22.04.2018 14:09 25,2 C 15,6 C 42 % 1013,4 hPa 0,0 l/m 9,0 km/h (2 Bft) N-NO 22 1 min 0,000 mm 3,2 UV-I 733 W/m 11,4 C 24,6 C 12,9 km/h (3 Bft) 95,83 %
22.04.2018 14:10 25,3 C 15,6 C 43 % 1013,5 hPa 0,0 l/m 4,0 km/h (1 Bft) N-NO 22 1 min 0,000 mm 3,2 UV-I 736 W/m 11,8 C 25,3 C 6,4 km/h (2 Bft) 100,00 %
22.04.2018 14:11 25,3 C 15,6 C 42 % 1013,4 hPa 0,0 l/m 6,7 km/h (2 Bft) N 355 1 min 0,000 mm 3,2 UV-I 736 W/m 11,5 C 25,2 C 12,9 km/h (3 Bft) 96,30 %
22.04.2018 14:13 25,2 C 15,6 C 44 % 1013,4 hPa 0,0 l/m 8,7 km/h (2 Bft) N-NO 19 2 min 0,000 mm 3,2 UV-I 731 W/m 12,1 C 24,7 C 12,9 km/h (3 Bft) 98,11 %
22.04.2018 14:14 25,2 C 15,6 C 43 % 1013,4 hPa 0,0 l/m 7,1 km/h (2 Bft) N-NO 30 1 min 0,000 mm 3,1 UV-I 726 W/m 11,7 C 25,0 C 12,9 km/h (3 Bft) 93,33 %
22.04.2018 14:15 25,3 C 15,6 C 43 % 1013,4 hPa 0,0 l/m 9,4 km/h (2 Bft) N-NO 18 1 min 0,000 mm 3,1 UV-I 728 W/m 11,8 C 24,6 C 12,9 km/h (3 Bft) 100,00 %
22.04.2018 14:16 25,3 C 15,6 C 42 % 1013,4 hPa 0,0 l/m 6,9 km/h (2 Bft) N 11 1 min 0,000 mm 3,1 UV-I 728 W/m 11,5 C 25,2 C 11,3 km/h (2 Bft) 91,30 %
22.04.2018 14:17 25,3 C 15,6 C 41 % 1013,4 hPa 0,0 l/m 7,4 km/h (2 Bft) NO 34 1 min 0,000 mm 3,1 UV-I 727 W/m 11,1 C 25,1 C 9,7 km/h (2 Bft) 100,00 %
22.04.2018 14:18 25,3 C 15,6 C 42 % 1013,4 hPa 0,0 l/m 9,5 km/h (2 Bft) N-NO 22 1 min 0,000 mm 3,1 UV-I 725 W/m 11,5 C 24,6 C 17,7 km/h (3 Bft) 95,83 %
22.04.2018 14:19 25,5 C 15,6 C 44 % 1013,3 hPa 0,0 l/m 11,9 km/h (2 Bft) N 5 1 min 0,000 mm 3,1 UV-I 725 W/m 12,3 C 24,4 C 16,1 km/h (3 Bft) 100,00 %
22.04.2018 14:20 25,6 C 15,6 C 43 % 1013,3 hPa 0,0 l/m 12,5 km/h (3 Bft) N 9 1 min 0,000 mm 3,1 UV-I 724 W/m 12,1 C 24,4 C 16,1 km/h (3 Bft) 87,50 %
22.04.2018 14:21 25,6 C 15,6 C 42 % 1013,3 hPa 0,0 l/m 10,5 km/h (2 Bft) N 10 1 min 0,000 mm 3,1 UV-I 722 W/m 11,7 C 24,7 C 12,9 km/h (3 Bft) 96,15 %
22.04.2018 14:22 25,6 C 15,6 C 40 % 1013,3 hPa 0,0 l/m 8,5 km/h (2 Bft) NO 36 1 min 0,000 mm 3,1 UV-I 722 W/m 11,0 C 25,1 C 12,9 km/h (3 Bft) 100,00 %
22.04.2018 14:23 25,6 C 15,6 C 40 % 1013,3 hPa 0,0 l/m 8,0 km/h (2 Bft) N 5 1 min 0,000 mm 3,1 UV-I 719 W/m 11,0 C 25,2 C 11,3 km/h (2 Bft) 95,65 %
22.04.2018 14:24 25,5 C 15,6 C 40 % 1013,3 hPa 0,0 l/m 6,5 km/h (2 Bft) N 355 1 min 0,000 mm 3,1 UV-I 716 W/m 10,9 C 25,5 C 8,0 km/h (2 Bft) 95,83 %
22.04.2018 14:25 25,5 C 15,6 C 41 % 1013,3 hPa 0,0 l/m 5,8 km/h (2 Bft) NW 306 1 min 0,000 mm 3,1 UV-I 715 W/m 11,3 C 25,5 C 9,7 km/h (2 Bft) 95,65 %
22.04.2018 14:26 25,4 C 15,6 C 39 % 1013,4 hPa 0,0 l/m 6,4 km/h (2 Bft) N-NW 329 1 min 0,000 mm 3,1 UV-I 714 W/m 10,4 C 25,4 C 8,0 km/h (2 Bft) 95,83 %
22.04.2018 14:27 25,4 C 15,6 C 40 % 1013,4 hPa 0,0 l/m 4,2 km/h (1 Bft) N 11 1 min 0,000 mm 3,0 UV-I 714 W/m 10,8 C 25,4 C 6,4 km/h (2 Bft) 95,65 %
22.04.2018 14:28 25,3 C 15,6 C 40 % 1013,3 hPa 0,0 l/m 2,3 km/h (1 Bft) NW 326 1 min 0,000 mm 3,0 UV-I 710 W/m 10,7 C 25,3 C 4,8 km/h (1 Bft) 95,83 %
22.04.2018 14:29 25,3 C 15,6 C 41 % 1013,3 hPa 0,0 l/m 1,7 km/h (1 Bft) O 89 1 min 0,000 mm 3,0 UV-I 708 W/m 11,1 C 25,3 C 3,2 km/h (1 Bft) 100,00 %
22.04.2018 14:30 25,3 C 15,6 C 46 % 1013,3 hPa 0,0 l/m 2,7 km/h (1 Bft) O 80 1 min 0,000 mm 3,0 UV-I 706 W/m 12,8 C 25,3 C 3,2 km/h (1 Bft) 93,55 %
22.04.2018 14:31 25,4 C 15,6 C 42 % 1013,3 hPa 0,0 l/m 3,4 km/h (1 Bft) N-NO 32 1 min 0,000 mm 3,0 UV-I 703 W/m 11,5 C 25,4 C 4,8 km/h (1 Bft) 96,15 %
22.04.2018 14:32 25,5 C 15,6 C 44 % 1013,3 hPa 0,0 l/m 2,2 km/h (1 Bft) N-NO 31 1 min 0,000 mm 3,0 UV-I 701 W/m 12,3 C 25,5 C 3,2 km/h (1 Bft) 100,00 %
22.04.2018 14:33 25,6 C 15,6 C 40 % 1013,3 hPa 0,0 l/m 3,4 km/h (1 Bft) W-SW 254 1 min 0,000 mm 3,0 UV-I 702 W/m 11,0 C 25,6 C 4,8 km/h (1 Bft) 95,65 %
22.04.2018 14:34 25,5 C 15,6 C 40 % 1013,3 hPa 0,0 l/m 4,4 km/h (1 Bft) W 278 1 min 0,000 mm 3,0 UV-I 703 W/m 10,9 C 25,5 C 9,7 km/h (2 Bft) 100,00 %
22.04.2018 14:35 25,4 C 15,6 C 39 % 1013,3 hPa 0,0 l/m 2,2 km/h (1 Bft) W 277 1 min 0,000 mm 2,9 UV-I 701 W/m 10,4 C 25,4 C 3,2 km/h (1 Bft) 95,65 %
22.04.2018 14:36 25,3 C 15,6 C 40 % 1013,3 hPa 0,0 l/m 4,3 km/h (1 Bft) N-NW 328 1 min 0,000 mm 2,9 UV-I 701 W/m 10,7 C 25,3 C 6,4 km/h (2 Bft) 96,30 %
22.04.2018 14:37 25,4 C 15,6 C 41 % 1013,3 hPa 0,0 l/m 3,8 km/h (1 Bft) NW 307 1 min 0,000 mm 2,9 UV-I 701 W/m 11,2 C 25,4 C 8,0 km/h (2 Bft) 100,00 %
22.04.2018 14:38 25,4 C 15,6 C 40 % 1013,3 hPa 0,0 l/m 5,7 km/h (1 Bft) W-NW 288 1 min 0,000 mm 2,9 UV-I 701 W/m 10,8 C 25,4 C 8,0 km/h (2 Bft) 100,00 %
22.04.2018 14:39 25,4 C 15,6 C 41 % 1013,3 hPa 0,0 l/m 4,4 km/h (1 Bft) N-NW 348 1 min 0,000 mm 2,9 UV-I 700 W/m 11,2 C 25,4 C 6,4 km/h (2 Bft) 93,10 %
22.04.2018 14:40 25,5 C 15,6 C 41 % 1013,3 hPa 0,0 l/m 2,4 km/h (1 Bft) N-NW 348 1 min 0,000 mm 2,9 UV-I 695 W/m 11,3 C 25,5 C 4,8 km/h (1 Bft) 95,65 %
22.04.2018 14:41 25,5 C 15,6 C 41 % 1013,3 hPa 0,0 l/m 1,1 km/h (1 Bft) N 349 1 min 0,000 mm 2,8 UV-I 687 W/m 11,3 C 25,5 C 3,2 km/h (1 Bft) 100,00 %
22.04.2018 14:42 25,6 C 15,6 C 39 % 1013,3 hPa 0,0 l/m 1,2 km/h (1 Bft) N 351 1 min 0,000 mm 2,8 UV-I 686 W/m 10,6 C 25,6 C 3,2 km/h (1 Bft) 91,30 %
22.04.2018 14:43 25,5 C 15,6 C 41 % 1013,2 hPa 0,0 l/m 2,8 km/h (1 Bft) W-SW 250 1 min 0,000 mm 2,8 UV-I 686 W/m 11,3 C 25,5 C 4,8 km/h (1 Bft) 100,00 %
22.04.2018 14:44 25,4 C 15,6 C 38 % 1013,2 hPa 0,0 l/m 5,9 km/h (2 Bft) W-SW 238 1 min 0,000 mm 2,8 UV-I 685 W/m 10,0 C 25,4 C 8,0 km/h (2 Bft) 95,65 %
22.04.2018 14:45 25,5 C 15,6 C 39 % 1013,2 hPa 0,0 l/m 6,2 km/h (2 Bft) SW 225 1 min 0,000 mm 2,8 UV-I 682 W/m 10,5 C 25,5 C 9,7 km/h (2 Bft) 100,00 %
22.04.2018 14:46 25,4 C 15,6 C 38 % 1013,2 hPa 0,0 l/m 4,3 km/h (1 Bft) SW 215 1 min 0,000 mm 2,8 UV-I 680 W/m 10,0 C 25,4 C 6,4 km/h (2 Bft) 95,65 %
22.04.2018 14:47 25,4 C 15,6 C 38 % 1013,2 hPa 0,0 l/m 5,5 km/h (1 Bft) S 170 1 min 0,000 mm 2,8 UV-I 679 W/m 10,0 C 25,4 C 8,0 km/h (2 Bft) 95,83 %
22.04.2018 14:48 25,3 C 15,6 C 37 % 1013,2 hPa 0,0 l/m 3,6 km/h (1 Bft) S 170 1 min 0,000 mm 2,7 UV-I 677 W/m 9,6 C 25,3 C 6,4 km/h (2 Bft) 100,00 %
22.04.2018 14:49 25,3 C 15,6 C 43 % 1013,2 hPa 0,0 l/m 3,9 km/h (1 Bft) W 277 1 min 0,000 mm 2,7 UV-I 677 W/m 11,8 C 25,3 C 6,4 km/h (2 Bft) 95,83 %
22.04.2018 14:50 25,4 C 15,6 C 40 % 1013,2 hPa 0,0 l/m 4,7 km/h (1 Bft) W 270 1 min 0,000 mm 2,8 UV-I 678 W/m 10,8 C 25,4 C 6,4 km/h (2 Bft) 100,00 %
22.04.2018 14:51 25,4 C 15,6 C 40 % 1013,2 hPa 0,0 l/m 1,7 km/h (1 Bft) W 270 1 min 0,000 mm 2,7 UV-I 677 W/m 10,8 C 25,4 C 6,4 km/h (2 Bft) 95,83 %
22.04.2018 14:52 25,5 C 15,6 C 41 % 1013,1 hPa 0,0 l/m 0,2 km/h (0 Bft) W 270 1 min 0,000 mm 2,8 UV-I 679 W/m 11,3 C 25,5 C 1,6 km/h (1 Bft) 95,65 %
22.04.2018 14:53 25,5 C 15,6 C 39 % 1013,2 hPa 0,0 l/m 1,2 km/h (1 Bft) W 269 1 min 0,000 mm 2,8 UV-I 682 W/m 10,5 C 25,5 C 1,6 km/h (1 Bft) 95,83 %
22.04.2018 14:54 25,4 C 15,6 C 39 % 1013,1 hPa 0,0 l/m 1,7 km/h (1 Bft) W 269 1 min 0,000 mm 2,8 UV-I 681 W/m 10,4 C 25,4 C 3,2 km/h (1 Bft) 100,00 %
22.04.2018 14:55 25,4 C 15,6 C 43 % 1013,1 hPa 0,0 l/m 2,4 km/h (1 Bft) N-NO 22 1 min 0,000 mm 2,8 UV-I 678 W/m 11,9 C 25,4 C 9,7 km/h (2 Bft) 100,00 %
22.04.2018 14:56 25,6 C 15,6 C 43 % 1013,1 hPa 0,0 l/m 7,7 km/h (2 Bft) N-NO 27 1 min 0,000 mm 2,7 UV-I 671 W/m 12,1 C 25,3 C 9,7 km/h (2 Bft) 100,00 %
22.04.2018 14:57 25,8 C 15,6 C 41 % 1013,1 hPa 0,0 l/m 7,7 km/h (2 Bft) N 11 1 min 0,000 mm 2,7 UV-I 670 W/m 11,5 C 25,5 C 11,3 km/h (2 Bft) 91,30 %
22.04.2018 14:58 26,0 C 15,6 C 40 % 1013,1 hPa 0,0 l/m 10,4 km/h (2 Bft) N-NO 20 1 min 0,000 mm 2,7 UV-I 671 W/m 11,3 C 25,2 C 14,5 km/h (3 Bft) 100,00 %
22.04.2018 14:59 26,1 C 15,6 C 42 % 1013,1 hPa 0,0 l/m 10,5 km/h (2 Bft) N 5 1 min 0,000 mm 2,7 UV-I 670 W/m 12,2 C 25,3 C 16,1 km/h (3 Bft) 100,00 %
22.04.2018 15:00 26,2 C 15,6 C 40 % 1013,1 hPa 0,0 l/m 13,4 km/h (3 Bft) N 355 1 min 0,000 mm 2,7 UV-I 667 W/m 11,5 C 25,0 C 16,1 km/h (3 Bft) 91,67 %
22.04.2018 15:02 26,1 C 15,6 C 36 % 1013,1 hPa 0,0 l/m 7,7 km/h (2 Bft) NO 37 2 min 0,508 mm 2,6 UV-I 664 W/m 9,8 C 25,8 C 12,9 km/h (3 Bft) 100,00 %
22.04.2018 15:03 26,0 C 15,6 C 37 % 1013,1 hPa 0,0 l/m 1,0 km/h (0 Bft) O-SO 118 1 min 0,000 mm 2,6 UV-I 663 W/m 10,2 C 26,0 C 3,2 km/h (1 Bft) 95,65 %
22.04.2018 15:04 25,8 C 15,6 C 36 % 1013,1 hPa 0,0 l/m 1,5 km/h (1 Bft) O-SO 119 1 min 0,000 mm 2,6 UV-I 661 W/m 9,6 C 25,8 C 4,8 km/h (1 Bft) 100,00 %
22.04.2018 15:05 25,7 C 15,6 C 37 % 1013,1 hPa 0,0 l/m 1,7 km/h (1 Bft) O-SO 119 1 min 0,000 mm 2,6 UV-I 658 W/m 9,9 C 25,7 C 4,8 km/h (1 Bft) 100,00 %
22.04.2018 15:06 25,7 C 15,6 C 39 % 1013,1 hPa 0,0 l/m 2,1 km/h (1 Bft) O-SO 113 1 min 0,000 mm 2,6 UV-I 654 W/m 10,7 C 25,7 C 3,2 km/h (1 Bft) 100,00 %
22.04.2018 15:07 25,8 C 15,6 C 40 % 1013,0 hPa 0,0 l/m 3,0 km/h (1 Bft) N-NO 26 1 min 0,000 mm 2,6 UV-I 653 W/m 11,2 C 25,8 C 6,4 km/h (2 Bft) 100,00 %
22.04.2018 15:08 25,9 C 15,6 C 41 % 1013,0 hPa 0,0 l/m 5,5 km/h (1 Bft) N-NO 31 1 min 0,000 mm 2,6 UV-I 654 W/m 11,6 C 25,9 C 6,4 km/h (2 Bft) 100,00 %
22.04.2018 15:09 26,0 C 15,6 C 39 % 1013,0 hPa 0,0 l/m 3,6 km/h (1 Bft) N-NO 33 1 min 0,000 mm 2,6 UV-I 654 W/m 11,0 C 26,0 C 4,8 km/h (1 Bft) 95,65 %
22.04.2018 15:10 26,1 C 15,6 C 38 % 1013,0 hPa 0,0 l/m 3,0 km/h (1 Bft) NO 43 1 min 0,000 mm 2,6 UV-I 652 W/m 10,7 C 26,1 C 6,4 km/h (2 Bft) 100,00 %
22.04.2018 15:11 26,2 C 15,6 C 45 % 1013,0 hPa 0,0 l/m 5,6 km/h (1 Bft) N-NO 26 1 min 0,000 mm 2,5 UV-I 650 W/m 13,3 C 26,2 C 8,0 km/h (2 Bft) 95,65 %
22.04.2018 15:12 26,3 C 15,6 C 42 % 1013,0 hPa 0,0 l/m 8,2 km/h (2 Bft) N-NO 24 1 min 0,000 mm 2,5 UV-I 647 W/m 12,3 C 25,9 C 12,9 km/h (3 Bft) 100,00 %
22.04.2018 15:13 26,3 C 15,6 C 39 % 1012,9 hPa 0,0 l/m 6,4 km/h (2 Bft) N-NO 13 1 min 0,000 mm 2,5 UV-I 643 W/m 11,2 C 26,3 C 8,0 km/h (2 Bft) 100,00 %
22.04.2018 15:14 26,3 C 15,6 C 39 % 1012,9 hPa 0,0 l/m 5,3 km/h (1 Bft) N-NO 28 1 min 0,000 mm 2,5 UV-I 646 W/m 11,2 C 26,3 C 6,4 km/h (2 Bft) 100,00 %
22.04.2018 15:15 26,3 C 15,6 C 39 % 1013,0 hPa 0,0 l/m 5,6 km/h (1 Bft) N 350 1 min 0,000 mm 2,5 UV-I 652 W/m 11,2 C 26,3 C 9,7 km/h (2 Bft) 100,00 %
22.04.2018 15:16 26,3 C 15,6 C 40 % 1013,0 hPa 0,0 l/m 7,4 km/h (2 Bft) N 360 1 min 0,000 mm 2,5 UV-I 654 W/m 11,6 C 26,1 C 11,3 km/h (2 Bft) 100,00 %
22.04.2018 15:17 26,3 C 15,6 C 39 % 1012,9 hPa 0,0 l/m 5,4 km/h (1 Bft) N 9 1 min 0,000 mm 2,5 UV-I 650 W/m 11,2 C 26,3 C 8,0 km/h (2 Bft) 100,00 %
22.04.2018 15:18 26,3 C 15,6 C 39 % 1012,9 hPa 0,0 l/m 1,5 km/h (1 Bft) N 9 1 min 0,000 mm 2,5 UV-I 645 W/m 11,2 C 26,3 C 3,2 km/h (1 Bft) 100,00 %
22.04.2018 15:19 26,2 C 15,6 C 39 % 1012,9 hPa 0,0 l/m 0,7 km/h (0 Bft) N-NO 12 1 min 0,000 mm 2,5 UV-I 640 W/m 11,1 C 26,2 C 1,6 km/h (1 Bft) 95,83 %
22.04.2018 15:20 26,3 C 15,6 C 39 % 1012,8 hPa 0,0 l/m 5,2 km/h (1 Bft) N-NO 25 1 min 0,000 mm 2,4 UV-I 638 W/m 11,2 C 26,3 C 8,0 km/h (2 Bft) 95,65 %
22.04.2018 15:21 26,3 C 15,6 C 42 % 1012,8 hPa 0,0 l/m 7,8 km/h (2 Bft) N 360 1 min 0,000 mm 2,4 UV-I 635 W/m 12,3 C 26,0 C 12,9 km/h (3 Bft) 100,00 %
22.04.2018 15:22 26,3 C 15,6 C 40 % 1012,8 hPa 0,0 l/m 5,8 km/h (2 Bft) N-NW 333 1 min 0,000 mm 2,4 UV-I 632 W/m 11,6 C 26,3 C 8,0 km/h (2 Bft) 100,00 %
22.04.2018 15:23 26,3 C 15,6 C 37 % 1012,8 hPa 0,0 l/m 3,3 km/h (1 Bft) NW 313 1 min 0,000 mm 2,4 UV-I 628 W/m 10,4 C 26,3 C 4,8 km/h (1 Bft) 100,00 %
22.04.2018 15:24 26,2 C 15,6 C 40 % 1012,8 hPa 0,0 l/m 3,1 km/h (1 Bft) W-NW 300 1 min 0,000 mm 2,4 UV-I 629 W/m 11,5 C 26,2 C 4,8 km/h (1 Bft) 100,00 %
22.04.2018 15:25 26,2 C 15,6 C 39 % 1012,8 hPa 0,0 l/m 2,0 km/h (1 Bft) W-NW 300 1 min 0,000 mm 2,4 UV-I 632 W/m 11,1 C 26,2 C 3,2 km/h (1 Bft) 95,83 %
22.04.2018 15:26 26,0 C 15,6 C 37 % 1012,7 hPa 0,0 l/m 1,7 km/h (1 Bft) SW 216 1 min 0,000 mm 2,4 UV-I 636 W/m 10,2 C 26,0 C 3,2 km/h (1 Bft) 100,00 %
22.04.2018 15:27 26,0 C 15,6 C 41 % 1012,7 hPa 0,0 l/m 2,5 km/h (1 Bft) W-NW 297 1 min 0,000 mm 2,4 UV-I 638 W/m 11,7 C 26,0 C 4,8 km/h (1 Bft) 100,00 %
22.04.2018 15:28 26,2 C 15,6 C 40 % 1012,6 hPa 0,0 l/m 2,9 km/h (1 Bft) N-NO 22 1 min 0,000 mm 2,4 UV-I 636 W/m 11,5 C 26,2 C 4,8 km/h (1 Bft) 100,00 %
22.04.2018 15:29 26,4 C 15,6 C 40 % 1012,7 hPa 0,0 l/m 9,7 km/h (2 Bft) N 355 1 min 0,000 mm 2,4 UV-I 637 W/m 11,7 C 25,8 C 12,9 km/h (3 Bft) 100,00 %
22.04.2018 15:30 26,5 C 15,6 C 38 % 1012,7 hPa 0,0 l/m 6,4 km/h (2 Bft) NO 35 1 min 0,000 mm 2,3 UV-I 638 W/m 11,0 C 26,5 C 9,7 km/h (2 Bft) 95,83 %
22.04.2018 15:31 26,6 C 15,6 C 38 % 1012,7 hPa 0,0 l/m 5,1 km/h (1 Bft) O-NO 78 1 min 0,000 mm 2,3 UV-I 643 W/m 11,1 C 26,6 C 8,0 km/h (2 Bft) 100,00 %
22.04.2018 15:32 26,6 C 15,6 C 39 % 1012,6 hPa 0,0 l/m 8,1 km/h (2 Bft) N-NO 28 1 min 0,000 mm 2,3 UV-I 643 W/m 11,5 C 26,3 C 11,3 km/h (2 Bft) 95,83 %
22.04.2018 15:33 26,6 C 15,6 C 39 % 1012,6 hPa 0,0 l/m 7,1 km/h (2 Bft) N-NO 30 1 min 0,000 mm 2,3 UV-I 638 W/m 11,5 C 26,5 C 9,7 km/h (2 Bft) 100,00 %
22.04.2018 15:34 26,6 C 15,6 C 36 % 1012,6 hPa 0,0 l/m 4,3 km/h (1 Bft) NO 46 1 min 0,000 mm 2,3 UV-I 633 W/m 10,3 C 26,6 C 6,4 km/h (2 Bft) 100,00 %
22.04.2018 15:35 26,6 C 15,6 C 36 % 1012,6 hPa 0,0 l/m 3,8 km/h (1 Bft) N-NO 21 1 min 0,000 mm 2,2 UV-I 623 W/m 10,3 C 26,6 C 6,4 km/h (2 Bft) 100,00 %
22.04.2018 15:36 26,6 C 15,6 C 41 % 1012,6 hPa 0,0 l/m 5,4 km/h (1 Bft) NW 317 1 min 0,000 mm 2,2 UV-I 611 W/m 12,2 C 26,6 C 8,0 km/h (2 Bft) 100,00 %
22.04.2018 15:37 26,6 C 15,6 C 36 % 1012,6 hPa 0,0 l/m 7,5 km/h (2 Bft) N 355 1 min 0,000 mm 2,2 UV-I 606 W/m 10,3 C 26,4 C 11,3 km/h (2 Bft) 100,00 %
22.04.2018 15:38 26,6 C 15,6 C 38 % 1012,6 hPa 0,0 l/m 7,1 km/h (2 Bft) N 11 1 min 0,000 mm 2,2 UV-I 604 W/m 11,1 C 26,5 C 11,3 km/h (2 Bft) 100,00 %
22.04.2018 15:39 26,6 C 15,6 C 38 % 1012,6 hPa 0,0 l/m 5,8 km/h (2 Bft) NW 308 1 min 0,000 mm 2,2 UV-I 612 W/m 11,1 C 26,6 C 8,0 km/h (2 Bft) 95,65 %
22.04.2018 15:40 26,7 C 15,6 C 39 % 1012,6 hPa 0,0 l/m 4,5 km/h (1 Bft) N-NO 15 1 min 0,000 mm 2,2 UV-I 613 W/m 11,6 C 26,7 C 8,0 km/h (2 Bft) 100,00 %
22.04.2018 15:41 26,7 C 15,6 C 38 % 1012,6 hPa 0,0 l/m 10,0 km/h (2 Bft) N 355 1 min 0,000 mm 2,2 UV-I 615 W/m 11,2 C 26,0 C 14,5 km/h (3 Bft) 96,55 %
22.04.2018 15:42 26,7 C 15,6 C 38 % 1012,5 hPa 0,0 l/m 8,5 km/h (2 Bft) N-NO 18 1 min 0,000 mm 2,2 UV-I 614 W/m 11,2 C 26,3 C 12,9 km/h (3 Bft) 100,00 %
22.04.2018 15:43 26,7 C 16,1 C 37 % 1012,5 hPa 0,0 l/m 6,6 km/h (2 Bft) NW 313 1 min 0,000 mm 2,2 UV-I 609 W/m 10,8 C 26,7 C 8,0 km/h (2 Bft) 100,00 %
22.04.2018 15:44 26,7 C 16,1 C 37 % 1012,5 hPa 0,0 l/m 5,0 km/h (1 Bft) N-NW 348 1 min 0,000 mm 2,1 UV-I 600 W/m 10,8 C 26,7 C 6,4 km/h (2 Bft) 95,83 %
22.04.2018 15:45 26,6 C 16,1 C 37 % 1012,5 hPa 0,0 l/m 6,0 km/h (2 Bft) N 355 1 min 0,000 mm 2,1 UV-I 594 W/m 10,7 C 26,6 C 9,7 km/h (2 Bft) 100,00 %
22.04.2018 15:46 26,6 C 16,1 C 38 % 1012,5 hPa 0,0 l/m 7,4 km/h (2 Bft) N-NW 338 1 min 0,000 mm 2,1 UV-I 584 W/m 11,1 C 26,4 C 9,7 km/h (2 Bft) 100,00 %
22.04.2018 15:47 26,6 C 16,1 C 37 % 1012,5 hPa 0,0 l/m 5,8 km/h (2 Bft) NW 318 1 min 0,000 mm 2,1 UV-I 582 W/m 10,7 C 26,6 C 8,0 km/h (2 Bft) 100,00 %
22.04.2018 15:48 26,6 C 16,1 C 36 % 1012,5 hPa 0,0 l/m 5,6 km/h (1 Bft) W-NW 285 1 min 0,000 mm 2,1 UV-I 582 W/m 10,3 C 26,6 C 8,0 km/h (2 Bft) 100,00 %
22.04.2018 15:49 26,5 C 16,1 C 35 % 1012,5 hPa 0,0 l/m 5,3 km/h (1 Bft) W 261 1 min 0,000 mm 2,0 UV-I 580 W/m 9,8 C 26,5 C 6,4 km/h (2 Bft) 100,00 %
22.04.2018 15:50 26,4 C 16,1 C 34 % 1012,5 hPa 0,0 l/m 3,9 km/h (1 Bft) NW 311 1 min 0,000 mm 2,0 UV-I 576 W/m 9,3 C 26,4 C 6,4 km/h (2 Bft) 100,00 %
22.04.2018 15:51 26,3 C 16,1 C 35 % 1012,5 hPa 0,0 l/m 5,1 km/h (1 Bft) W-NW 299 1 min 0,000 mm 2,0 UV-I 577 W/m 9,6 C 26,3 C 6,4 km/h (2 Bft) 100,00 %
22.04.2018 15:52 26,3 C 16,1 C 37 % 1012,4 hPa 0,0 l/m 2,5 km/h (1 Bft) W-NW 298 1 min 0,000 mm 2,0 UV-I 575 W/m 10,4 C 26,3 C 4,8 km/h (1 Bft) 96,15 %
22.04.2018 15:53 26,3 C 16,1 C 36 % 1012,5 hPa 0,0 l/m 1,7 km/h (1 Bft) W-NW 298 1 min 0,000 mm 2,0 UV-I 575 W/m 10,0 C 26,3 C 3,2 km/h (1 Bft) 100,00 %
22.04.2018 15:54 26,4 C 16,1 C 37 % 1012,4 hPa 0,0 l/m 2,3 km/h (1 Bft) N 9 1 min 0,000 mm 2,0 UV-I 580 W/m 10,5 C 26,4 C 4,8 km/h (1 Bft) 100,00 %
22.04.2018 15:55 26,5 C 16,1 C 38 % 1012,4 hPa 0,0 l/m 4,2 km/h (1 Bft) NW 321 1 min 0,000 mm 2,0 UV-I 582 W/m 11,0 C 26,5 C 6,4 km/h (2 Bft) 100,00 %
22.04.2018 15:56 26,5 C 16,1 C 38 % 1012,4 hPa 0,0 l/m 3,8 km/h (1 Bft) NW 325 1 min 0,000 mm 1,9 UV-I 573 W/m 11,0 C 26,5 C 4,8 km/h (1 Bft) 100,00 %
22.04.2018 15:57 26,6 C 16,1 C 40 % 1012,4 hPa 0,0 l/m 5,2 km/h (1 Bft) N-NO 16 1 min 0,000 mm 1,9 UV-I 562 W/m 11,9 C 26,6 C 6,4 km/h (2 Bft) 100,00 %
22.04.2018 15:58 26,6 C 16,1 C 40 % 1012,4 hPa 0,0 l/m 4,2 km/h (1 Bft) NW 313 1 min 0,000 mm 1,9 UV-I 554 W/m 11,9 C 26,6 C 6,4 km/h (2 Bft) 95,65 %
22.04.2018 15:59 26,7 C 16,1 C 38 % 1012,4 hPa 0,0 l/m 7,7 km/h (2 Bft) N-NO 17 1 min 0,000 mm 1,9 UV-I 554 W/m 11,2 C 26,4 C 14,5 km/h (3 Bft) 95,83 %
22.04.2018 16:00 26,7 C 16,1 C 38 % 1012,3 hPa 0,0 l/m 11,9 km/h (2 Bft) N 9 1 min 0,000 mm 1,9 UV-I 553 W/m 11,2 C 25,8 C 14,5 km/h (3 Bft) 100,00 %
22.04.2018 16:02 26,8 C 16,1 C 39 % 1012,4 hPa 0,0 l/m 5,2 km/h (1 Bft) N-NO 15 2 min 0,457 mm 1,8 UV-I 549 W/m 11,7 C 26,8 C 8,0 km/h (2 Bft) 100,00 %
22.04.2018 16:03 26,8 C 16,1 C 38 % 1012,4 hPa 0,0 l/m 4,8 km/h (1 Bft) N 355 1 min 0,000 mm 1,8 UV-I 545 W/m 11,3 C 26,8 C 8,0 km/h (2 Bft) 100,00 %
22.04.2018 16:04 26,7 C 16,1 C 36 % 1012,3 hPa 0,0 l/m 3,8 km/h (1 Bft) NO 40 1 min 0,000 mm 1,8 UV-I 546 W/m 10,4 C 26,7 C 6,4 km/h (2 Bft) 100,00 %
22.04.2018 16:05 26,7 C 16,1 C 37 % 1012,3 hPa 0,0 l/m 7,4 km/h (2 Bft) NO 47 1 min 0,000 mm 1,8 UV-I 546 W/m 10,8 C 26,5 C 12,9 km/h (3 Bft) 100,00 %
22.04.2018 16:06 26,7 C 16,1 C 38 % 1012,3 hPa 0,0 l/m 10,9 km/h (2 Bft) N-NO 29 1 min 0,000 mm 1,8 UV-I 539 W/m 11,2 C 25,9 C 16,1 km/h (3 Bft) 100,00 %
22.04.2018 16:07 26,8 C 16,1 C 37 % 1012,3 hPa 0,0 l/m 8,1 km/h (2 Bft) NW 325 1 min 0,000 mm 1,8 UV-I 534 W/m 10,9 C 26,5 C 12,9 km/h (3 Bft) 100,00 %
22.04.2018 16:08 26,8 C 16,1 C 36 % 1012,3 hPa 0,0 l/m 8,2 km/h (2 Bft) NW 313 1 min 0,000 mm 1,7 UV-I 533 W/m 10,5 C 26,5 C 14,5 km/h (3 Bft) 100,00 %
22.04.2018 16:09 26,7 C 16,1 C 36 % 1012,3 hPa 0,0 l/m 5,9 km/h (2 Bft) NW 324 1 min 0,000 mm 1,7 UV-I 533 W/m 10,4 C 26,7 C 9,7 km/h (2 Bft) 100,00 %
22.04.2018 16:10 26,7 C 16,1 C 36 % 1012,3 hPa 0,0 l/m 5,5 km/h (1 Bft) NW 318 1 min 0,000 mm 1,7 UV-I 536 W/m 10,4 C 26,7 C 6,4 km/h (2 Bft) 100,00 %
22.04.2018 16:11 26,6 C 16,1 C 36 % 1012,3 hPa 0,0 l/m 4,7 km/h (1 Bft) W-NW 294 1 min 0,000 mm 1,7 UV-I 539 W/m 10,3 C 26,6 C 8,0 km/h (2 Bft) 100,00 %
22.04.2018 16:12 26,6 C 16,1 C 36 % 1012,3 hPa 0,0 l/m 5,6 km/h (1 Bft) W-NW 300 1 min 0,000 mm 1,7 UV-I 534 W/m 10,3 C 26,6 C 9,7 km/h (2 Bft) 100,00 %
22.04.2018 16:13 26,5 C 16,1 C 38 % 1012,3 hPa 0,0 l/m 4,0 km/h (1 Bft) NW 317 1 min 0,000 mm 1,7 UV-I 525 W/m 11,0 C 26,5 C 6,4 km/h (2 Bft) 100,00 %
22.04.2018 16:14 26,4 C 16,1 C 37 % 1012,3 hPa 0,0 l/m 6,0 km/h (2 Bft) NW 321 1 min 0,000 mm 1,6 UV-I 517 W/m 10,5 C 26,4 C 11,3 km/h (2 Bft) 95,83 %
22.04.2018 16:15 26,4 C 16,1 C 36 % 1012,3 hPa 0,0 l/m 5,6 km/h (1 Bft) NW 313 1 min 0,000 mm 1,6 UV-I 516 W/m 10,1 C 26,4 C 8,0 km/h (2 Bft) 100,00 %
22.04.2018 16:16 26,4 C 16,1 C 35 % 1012,2 hPa 0,0 l/m 5,0 km/h (1 Bft) NW 311 1 min 0,000 mm 1,6 UV-I 515 W/m 9,7 C 26,4 C 6,4 km/h (2 Bft) 100,00 %
22.04.2018 16:17 26,4 C 16,1 C 36 % 1012,2 hPa 0,0 l/m 4,1 km/h (1 Bft) N-NW 344 1 min 0,000 mm 1,6 UV-I 515 W/m 10,1 C 26,4 C 6,4 km/h (2 Bft) 95,65 %
22.04.2018 16:18 26,4 C 16,1 C 35 % 1012,2 hPa 0,0 l/m 8,6 km/h (2 Bft) N-NW 347 1 min 0,000 mm 1,6 UV-I 514 W/m 9,7 C 26,0 C 12,9 km/h (3 Bft) 100,00 %
22.04.2018 16:19 26,5 C 16,1 C 36 % 1012,2 hPa 0,0 l/m 4,7 km/h (1 Bft) N-NW 337 1 min 0,000 mm 1,6 UV-I 509 W/m 10,2 C 26,5 C 9,7 km/h (2 Bft) 100,00 %
22.04.2018 16:20 26,4 C 16,1 C 36 % 1012,2 hPa 0,0 l/m 5,2 km/h (1 Bft) N-NW 333 1 min 0,000 mm 1,6 UV-I 507 W/m 10,1 C 26,4 C 8,0 km/h (2 Bft) 95,83 %
22.04.2018 16:21 26,4 C 16,1 C 35 % 1012,2 hPa 0,0 l/m 5,8 km/h (2 Bft) N-NW 329 1 min 0,000 mm 1,6 UV-I 504 W/m 9,7 C 26,4 C 9,7 km/h (2 Bft) 95,65 %
22.04.2018 16:22 26,4 C 16,1 C 35 % 1012,2 hPa 0,0 l/m 6,9 km/h (2 Bft) N 11 1 min 0,000 mm 1,6 UV-I 503 W/m 9,7 C 26,3 C 9,7 km/h (2 Bft) 100,00 %
22.04.2018 16:23 26,3 C 16,1 C 35 % 1012,1 hPa 0,0 l/m 5,6 km/h (1 Bft) NW 318 1 min 0,000 mm 1,5 UV-I 498 W/m 9,6 C 26,3 C 8,0 km/h (2 Bft) 100,00 %
22.04.2018 16:24 26,3 C 16,1 C 37 % 1012,2 hPa 0,0 l/m 5,6 km/h (1 Bft) NO 40 1 min 0,000 mm 1,5 UV-I 496 W/m 10,4 C 26,3 C 8,0 km/h (2 Bft) 95,83 %
22.04.2018 16:25 26,4 C 16,1 C 36 % 1012,1 hPa 0,0 l/m 6,0 km/h (2 Bft) W 263 1 min 0,000 mm 1,5 UV-I 494 W/m 10,1 C 26,4 C 11,3 km/h (2 Bft) 100,00 %
22.04.2018 16:26 26,4 C 16,1 C 35 % 1012,1 hPa 0,0 l/m 3,8 km/h (1 Bft) W 263 1 min 0,000 mm 1,5 UV-I 496 W/m 9,7 C 26,4 C 4,8 km/h (1 Bft) 96,15 %
22.04.2018 16:27 26,3 C 16,1 C 35 % 1012,1 hPa 0,0 l/m 4,0 km/h (1 Bft) W 272 1 min 0,000 mm 1,5 UV-I 493 W/m 9,6 C 26,3 C 6,4 km/h (2 Bft) 100,00 %
22.04.2018 16:28 26,3 C 16,1 C 36 % 1012,1 hPa 0,0 l/m 4,0 km/h (1 Bft) NW 322 1 min 0,000 mm 1,5 UV-I 489 W/m 10,0 C 26,3 C 6,4 km/h (2 Bft) 95,65 %
22.04.2018 16:29 26,4 C 16,1 C 36 % 1012,1 hPa 0,0 l/m 3,1 km/h (1 Bft) NW 313 1 min 0,000 mm 1,5 UV-I 484 W/m 10,1 C 26,4 C 4,8 km/h (1 Bft) 95,83 %
22.04.2018 16:30 26,4 C 16,1 C 36 % 1012,1 hPa 0,0 l/m 8,8 km/h (2 Bft) NW 305 1 min 0,000 mm 1,4 UV-I 482 W/m 10,1 C 25,9 C 12,9 km/h (3 Bft) 91,30 %
22.04.2018 16:31 26,4 C 16,1 C 36 % 1012,1 hPa 0,0 l/m 7,0 km/h (2 Bft) N-NO 16 1 min 0,000 mm 1,4 UV-I 482 W/m 10,1 C 26,3 C 11,3 km/h (2 Bft) 91,67 %
22.04.2018 16:32 26,4 C 16,1 C 37 % 1012,1 hPa 0,0 l/m 3,4 km/h (1 Bft) N 11 1 min 0,000 mm 1,4 UV-I 478 W/m 10,5 C 26,4 C 4,8 km/h (1 Bft) 100,00 %
22.04.2018 16:33 26,5 C 16,1 C 38 % 1012,1 hPa 0,0 l/m 4,5 km/h (1 Bft) N-NW 346 1 min 0,000 mm 1,4 UV-I 476 W/m 11,0 C 26,5 C 6,4 km/h (2 Bft) 95,83 %
22.04.2018 16:34 26,6 C 16,1 C 39 % 1012,1 hPa 0,0 l/m 7,4 km/h (2 Bft) N-NW 344 1 min 0,000 mm 1,4 UV-I 473 W/m 11,5 C 26,4 C 16,1 km/h (3 Bft) 100,00 %
22.04.2018 16:35 26,6 C 16,1 C 37 % 1012,1 hPa 0,0 l/m 10,7 km/h (2 Bft) NW 309 1 min 0,000 mm 1,4 UV-I 466 W/m 10,7 C 25,8 C 17,7 km/h (3 Bft) 95,83 %
22.04.2018 16:36 26,5 C 16,1 C 37 % 1012,1 hPa 0,0 l/m 5,6 km/h (1 Bft) N-NW 331 1 min 0,000 mm 1,3 UV-I 464 W/m 10,6 C 26,5 C 8,0 km/h (2 Bft) 100,00 %
22.04.2018 16:37 26,4 C 16,1 C 38 % 1012,1 hPa 0,0 l/m 4,7 km/h (1 Bft) N-NW 346 1 min 0,000 mm 1,3 UV-I 462 W/m 10,9 C 26,4 C 11,3 km/h (2 Bft) 95,83 %
22.04.2018 16:38 26,4 C 16,1 C 38 % 1012,1 hPa 0,0 l/m 3,2 km/h (1 Bft) W-NW 291 1 min 0,000 mm 1,3 UV-I 460 W/m 10,9 C 26,4 C 6,4 km/h (2 Bft) 100,00 %
22.04.2018 16:39 26,4 C 16,1 C 36 % 1012,0 hPa 0,0 l/m 6,5 km/h (2 Bft) NW 311 1 min 0,000 mm 1,3 UV-I 456 W/m 10,1 C 26,4 C 12,9 km/h (3 Bft) 91,67 %
22.04.2018 16:40 26,3 C 16,1 C 37 % 1012,1 hPa 0,0 l/m 7,0 km/h (2 Bft) W-NW 284 1 min 0,000 mm 1,3 UV-I 453 W/m 10,4 C 26,2 C 11,3 km/h (2 Bft) 96,15 %
22.04.2018 16:41 26,3 C 16,1 C 35 % 1012,1 hPa 0,0 l/m 6,0 km/h (2 Bft) N-NW 346 1 min 0,000 mm 1,3 UV-I 449 W/m 9,6 C 26,3 C 8,0 km/h (2 Bft) 87,50 %
22.04.2018 16:42 26,3 C 16,1 C 35 % 1012,1 hPa 0,0 l/m 4,3 km/h (1 Bft) N-NW 336 1 min 0,000 mm 1,3 UV-I 446 W/m 9,6 C 26,3 C 4,8 km/h (1 Bft) 95,65 %
22.04.2018 16:43 26,3 C 16,1 C 35 % 1012,1 hPa 0,0 l/m 3,8 km/h (1 Bft) W-NW 294 1 min 0,000 mm 1,3 UV-I 443 W/m 9,6 C 26,3 C 4,8 km/h (1 Bft) 100,00 %
22.04.2018 16:44 26,3 C 16,1 C 35 % 1012,1 hPa 0,0 l/m 0,8 km/h (0 Bft) W-NW 294 1 min 0,000 mm 1,3 UV-I 440 W/m 9,6 C 26,3 C 3,2 km/h (1 Bft) 92,31 %
22.04.2018 16:45 26,3 C 16,1 C 36 % 1012,0 hPa 0,0 l/m 5,5 km/h (1 Bft) W 265 1 min 0,000 mm 1,2 UV-I 440 W/m 10,0 C 26,3 C 6,4 km/h (2 Bft) 100,00 %
22.04.2018 16:46 26,3 C 16,1 C 36 % 1012,0 hPa 0,0 l/m 6,7 km/h (2 Bft) N-NW 346 1 min 0,000 mm 1,2 UV-I 441 W/m 10,0 C 26,2 C 12,9 km/h (3 Bft) 92,31 %
22.04.2018 16:47 26,3 C 16,1 C 36 % 1012,0 hPa 0,0 l/m 10,3 km/h (2 Bft) N-NO 13 1 min 0,000 mm 1,2 UV-I 440 W/m 10,0 C 25,5 C 14,5 km/h (3 Bft) 95,83 %
22.04.2018 16:48 26,3 C 16,1 C 35 % 1012,0 hPa 0,0 l/m 11,7 km/h (2 Bft) NW 306 1 min 0,000 mm 1,2 UV-I 435 W/m 9,6 C 25,3 C 14,5 km/h (3 Bft) 91,67 %
22.04.2018 16:49 26,3 C 16,1 C 35 % 1012,0 hPa 0,0 l/m 7,8 km/h (2 Bft) N-NW 345 1 min 0,000 mm 1,2 UV-I 432 W/m 9,6 C 26,0 C 14,5 km/h (3 Bft) 91,30 %
22.04.2018 16:50 26,2 C 16,1 C 35 % 1012,0 hPa 0,0 l/m 9,5 km/h (2 Bft) N-NO 19 1 min 0,000 mm 1,2 UV-I 431 W/m 9,5 C 25,6 C 14,5 km/h (3 Bft) 100,00 %
22.04.2018 16:51 26,2 C 16,1 C 37 % 1012,1 hPa 0,0 l/m 6,4 km/h (2 Bft) N-NO 33 1 min 0,000 mm 1,2 UV-I 431 W/m 10,3 C 26,2 C 16,1 km/h (3 Bft) 92,31 %
22.04.2018 16:52 26,3 C 16,1 C 35 % 1012,0 hPa 0,0 l/m 6,0 km/h (2 Bft) N-NO 15 1 min 0,000 mm 1,2 UV-I 431 W/m 9,6 C 26,3 C 11,3 km/h (2 Bft) 95,83 %
22.04.2018 16:53 26,3 C 16,1 C 35 % 1012,0 hPa 0,0 l/m 7,4 km/h (2 Bft) W-NW 289 1 min 0,000 mm 1,2 UV-I 428 W/m 9,6 C 26,1 C 11,3 km/h (2 Bft) 86,96 %
22.04.2018 16:54 26,3 C 16,1 C 34 % 1012,0 hPa 0,0 l/m 8,4 km/h (2 Bft) N-NW 327 1 min 0,000 mm 1,1 UV-I 424 W/m 9,2 C 25,9 C 12,9 km/h (3 Bft) 91,67 %
22.04.2018 16:55 26,2 C 16,1 C 34 % 1012,0 hPa 0,0 l/m 4,4 km/h (1 Bft) NW 324 1 min 0,000 mm 1,1 UV-I 418 W/m 9,1 C 26,2 C 4,8 km/h (1 Bft) 95,65 %
22.04.2018 16:56 26,2 C 16,1 C 34 % 1012,0 hPa 0,0 l/m 8,1 km/h (2 Bft) NW 306 1 min 0,000 mm 1,1 UV-I 414 W/m 9,1 C 25,8 C 9,7 km/h (2 Bft) 100,00 %
22.04.2018 16:58 26,2 C 16,1 C 34 % 1011,9 hPa 0,0 l/m 6,5 km/h (2 Bft) W-NW 285 2 min 0,000 mm 1,1 UV-I 409 W/m 9,1 C 26,2 C 12,9 km/h (3 Bft) 90,00 %
22.04.2018 16:59 26,3 C 16,1 C 36 % 1011,9 hPa 0,0 l/m 3,5 km/h (1 Bft) W-NW 283 1 min 0,000 mm 1,1 UV-I 400 W/m 10,0 C 26,3 C 6,4 km/h (2 Bft) 100,00 %
22.04.2018 17:00 26,3 C 16,1 C 38 % 1011,9 hPa 0,0 l/m 2,8 km/h (1 Bft) W-SW 252 1 min 0,000 mm 1,0 UV-I 397 W/m 10,8 C 26,3 C 4,8 km/h (1 Bft) 95,83 %
22.04.2018 17:02 26,3 C 16,1 C 35 % 1011,9 hPa 0,0 l/m 2,9 km/h (1 Bft) N 350 2 min 0,381 mm 1,0 UV-I 394 W/m 9,6 C 26,3 C 6,4 km/h (2 Bft) 97,87 %
22.04.2018 17:03 26,3 C 16,1 C 36 % 1011,9 hPa 0,0 l/m 1,6 km/h (1 Bft) N 355 1 min 0,000 mm 1,0 UV-I 392 W/m 10,0 C 26,3 C 3,2 km/h (1 Bft) 96,30 %
22.04.2018 17:04 26,4 C 16,1 C 36 % 1011,9 hPa 0,0 l/m 4,8 km/h (1 Bft) N-NW 330 1 min 0,000 mm 1,0 UV-I 388 W/m 10,1 C 26,4 C 8,0 km/h (2 Bft) 95,65 %
22.04.2018 17:05 26,4 C 16,1 C 36 % 1011,9 hPa 0,0 l/m 8,6 km/h (2 Bft) N 355 1 min 0,000 mm 1,0 UV-I 382 W/m 10,1 C 26,0 C 14,5 km/h (3 Bft) 95,65 %
22.04.2018 17:06 26,4 C 16,1 C 37 % 1011,9 hPa 0,0 l/m 3,4 km/h (1 Bft) N 355 1 min 0,000 mm 1,0 UV-I 380 W/m 10,5 C 26,4 C 6,4 km/h (2 Bft) 95,83 %
22.04.2018 17:07 26,4 C 16,1 C 38 % 1011,9 hPa 0,0 l/m 2,9 km/h (1 Bft) NW 325 1 min 0,000 mm 1,0 UV-I 378 W/m 10,9 C 26,4 C 6,4 km/h (2 Bft) 91,67 %
22.04.2018 17:08 26,4 C 16,1 C 39 % 1011,9 hPa 0,0 l/m 3,5 km/h (1 Bft) N-NW 340 1 min 0,000 mm 1,0 UV-I 374 W/m 11,3 C 26,4 C 6,4 km/h (2 Bft) 100,00 %
22.04.2018 17:09 26,4 C 16,1 C 37 % 1011,9 hPa 0,0 l/m 3,0 km/h (1 Bft) W-NW 283 1 min 0,000 mm 0,9 UV-I 363 W/m 10,5 C 26,4 C 4,8 km/h (1 Bft) 100,00 %
22.04.2018 17:10 26,4 C 16,1 C 40 % 1011,9 hPa 0,0 l/m 3,0 km/h (1 Bft) N-NO 12 1 min 0,000 mm 0,9 UV-I 360 W/m 11,7 C 26,4 C 6,4 km/h (2 Bft) 95,65 %
22.04.2018 17:11 26,3 C 16,1 C 39 % 1011,9 hPa 0,0 l/m 3,0 km/h (1 Bft) N 5 1 min 0,000 mm 0,9 UV-I 357 W/m 11,2 C 26,3 C 4,8 km/h (1 Bft) 96,67 %
22.04.2018 17:12 26,3 C 16,1 C 37 % 1011,9 hPa 0,0 l/m 2,9 km/h (1 Bft) N-NW 328 1 min 0,000 mm 0,9 UV-I 353 W/m 10,4 C 26,3 C 4,8 km/h (1 Bft) 100,00 %
22.04.2018 17:13 26,2 C 16,1 C 40 % 1011,9 hPa 0,0 l/m 2,9 km/h (1 Bft) N-NW 331 1 min 0,000 mm 0,9 UV-I 352 W/m 11,5 C 26,2 C 6,4 km/h (2 Bft) 91,67 %
22.04.2018 17:14 26,1 C 16,1 C 38 % 1011,9 hPa 0,0 l/m 4,8 km/h (1 Bft) W-NW 293 1 min 0,000 mm 0,9 UV-I 352 W/m 10,7 C 26,1 C 6,4 km/h (2 Bft) 95,65 %
22.04.2018 17:15 26,1 C 16,1 C 35 % 1011,9 hPa 0,0 l/m 2,7 km/h (1 Bft) NW 306 1 min 0,000 mm 0,9 UV-I 349 W/m 9,4 C 26,1 C 4,8 km/h (1 Bft) 95,83 %
22.04.2018 17:16 26,1 C 16,1 C 37 % 1011,9 hPa 0,0 l/m 2,6 km/h (1 Bft) NW 306 1 min 0,000 mm 0,9 UV-I 348 W/m 10,3 C 26,1 C 4,8 km/h (1 Bft) 100,00 %
22.04.2018 17:17 26,1 C 16,1 C 36 % 1011,9 hPa 0,0 l/m 1,8 km/h (1 Bft) NW 306 1 min 0,000 mm 0,8 UV-I 346 W/m 9,8 C 26,1 C 3,2 km/h (1 Bft) 95,83 %
22.04.2018 17:18 26,1 C 16,1 C 36 % 1011,9 hPa 0,0 l/m 1,7 km/h (1 Bft) NW 306 1 min 0,000 mm 0,8 UV-I 338 W/m 9,8 C 26,1 C 3,2 km/h (1 Bft) 95,65 %
22.04.2018 17:19 26,2 C 16,1 C 36 % 1011,9 hPa 0,0 l/m 4,2 km/h (1 Bft) N-NW 346 1 min 0,000 mm 0,8 UV-I 336 W/m 9,9 C 26,2 C 6,4 km/h (2 Bft) 100,00 %
22.04.2018 17:20 26,2 C 16,1 C 33 % 1011,8 hPa 0,0 l/m 4,2 km/h (1 Bft) N-NW 339 1 min 0,000 mm 0,8 UV-I 340 W/m 8,6 C 26,2 C 6,4 km/h (2 Bft) 100,00 %
22.04.2018 17:21 26,2 C 16,1 C 34 % 1011,9 hPa 0,0 l/m 8,6 km/h (2 Bft) N 5 1 min 0,000 mm 0,8 UV-I 339 W/m 9,1 C 25,7 C 12,9 km/h (3 Bft) 95,65 %
22.04.2018 17:22 26,2 C 16,1 C 33 % 1011,8 hPa 0,0 l/m 8,3 km/h (2 Bft) NW 309 1 min 0,000 mm 0,8 UV-I 338 W/m 8,6 C 25,8 C 14,5 km/h (3 Bft) 95,83 %
22.04.2018 17:23 26,2 C 16,1 C 33 % 1011,8 hPa 0,0 l/m 6,4 km/h (2 Bft) N 9 1 min 0,000 mm 0,8 UV-I 338 W/m 8,6 C 26,2 C 9,7 km/h (2 Bft) 91,30 %
22.04.2018 17:24 26,2 C 16,1 C 32 % 1011,8 hPa 0,0 l/m 3,4 km/h (1 Bft) NW 305 1 min 0,000 mm 0,8 UV-I 336 W/m 8,2 C 26,2 C 6,4 km/h (2 Bft) 95,83 %
22.04.2018 17:25 26,2 C 16,1 C 34 % 1011,8 hPa 0,0 l/m 5,8 km/h (2 Bft) N-NO 17 1 min 0,000 mm 0,8 UV-I 331 W/m 9,1 C 26,2 C 9,7 km/h (2 Bft) 95,65 %
22.04.2018 17:26 26,2 C 16,1 C 32 % 1011,8 hPa 0,0 l/m 7,0 km/h (2 Bft) N 350 1 min 0,000 mm 0,8 UV-I 326 W/m 8,2 C 26,1 C 11,3 km/h (2 Bft) 95,83 %
22.04.2018 17:27 26,2 C 16,1 C 36 % 1011,8 hPa 0,0 l/m 3,2 km/h (1 Bft) W-NW 302 1 min 0,000 mm 0,8 UV-I 323 W/m 9,9 C 26,2 C 4,8 km/h (1 Bft) 91,30 %
22.04.2018 17:28 26,3 C 16,1 C 36 % 1011,8 hPa 0,0 l/m 2,0 km/h (1 Bft) NO 40 1 min 0,000 mm 0,7 UV-I 324 W/m 10,0 C 26,3 C 3,2 km/h (1 Bft) 91,67 %
22.04.2018 17:29 26,3 C 16,1 C 36 % 1011,8 hPa 0,0 l/m 5,0 km/h (1 Bft) W 277 1 min 0,000 mm 0,7 UV-I 323 W/m 10,0 C 26,3 C 12,9 km/h (3 Bft) 100,00 %
22.04.2018 17:30 26,3 C 16,1 C 36 % 1011,8 hPa 0,0 l/m 5,9 km/h (2 Bft) W-NW 282 1 min 0,000 mm 0,7 UV-I 322 W/m 10,0 C 26,3 C 8,0 km/h (2 Bft) 91,67 %
22.04.2018 17:31 26,2 C 16,1 C 36 % 1011,8 hPa 0,0 l/m 2,6 km/h (1 Bft) NW 313 1 min 0,000 mm 0,7 UV-I 321 W/m 9,9 C 26,2 C 4,8 km/h (1 Bft) 96,15 %
22.04.2018 17:32 26,2 C 16,1 C 35 % 1011,8 hPa 0,0 l/m 1,9 km/h (1 Bft) NW 313 1 min 0,000 mm 0,7 UV-I 318 W/m 9,5 C 26,2 C 3,2 km/h (1 Bft) 100,00 %
22.04.2018 17:33 26,1 C 16,1 C 36 % 1011,8 hPa 0,0 l/m 2,0 km/h (1 Bft) N-NW 338 1 min 0,000 mm 0,7 UV-I 311 W/m 9,8 C 26,1 C 4,8 km/h (1 Bft) 96,15 %
22.04.2018 17:34 26,1 C 16,1 C 35 % 1011,8 hPa 0,0 l/m 5,8 km/h (2 Bft) N-NW 340 1 min 0,000 mm 0,7 UV-I 308 W/m 9,4 C 26,1 C 8,0 km/h (2 Bft) 100,00 %
22.04.2018 17:35 26,0 C 16,1 C 34 % 1011,8 hPa 0,0 l/m 7,5 km/h (2 Bft) NW 323 1 min 0,000 mm 0,7 UV-I 306 W/m 8,9 C 25,8 C 11,3 km/h (2 Bft) 95,65 %
22.04.2018 17:36 26,0 C 16,1 C 34 % 1011,8 hPa 0,0 l/m 8,2 km/h (2 Bft) N 11 1 min 0,000 mm 0,7 UV-I 304 W/m 8,9 C 25,6 C 14,5 km/h (3 Bft) 100,00 %
22.04.2018 17:37 26,0 C 16,1 C 35 % 1011,8 hPa 0,0 l/m 5,7 km/h (1 Bft) W-NW 285 1 min 0,000 mm 0,7 UV-I 302 W/m 9,3 C 26,0 C 17,7 km/h (3 Bft) 96,15 %
22.04.2018 17:38 25,9 C 16,1 C 36 % 1011,8 hPa 0,0 l/m 4,5 km/h (1 Bft) W-SW 242 1 min 0,000 mm 0,7 UV-I 302 W/m 9,7 C 25,9 C 6,4 km/h (2 Bft) 100,00 %
22.04.2018 17:39 25,9 C 16,1 C 37 % 1011,8 hPa 0,0 l/m 6,6 km/h (2 Bft) W-NW 290 1 min 0,000 mm 0,6 UV-I 300 W/m 10,1 C 25,9 C 12,9 km/h (3 Bft) 96,15 %
22.04.2018 17:40 25,8 C 16,1 C 37 % 1011,8 hPa 0,0 l/m 4,8 km/h (1 Bft) N 9 1 min 0,000 mm 0,6 UV-I 299 W/m 10,0 C 25,8 C 8,0 km/h (2 Bft) 100,00 %
22.04.2018 17:41 25,8 C 16,1 C 36 % 1011,8 hPa 0,0 l/m 3,5 km/h (1 Bft) N 5 1 min 0,000 mm 0,6 UV-I 297 W/m 9,6 C 25,8 C 6,4 km/h (2 Bft) 86,96 %
22.04.2018 17:42 25,8 C 16,1 C 38 % 1011,8 hPa 0,0 l/m 2,7 km/h (1 Bft) W 275 1 min 0,000 mm 0,6 UV-I 293 W/m 10,4 C 25,8 C 4,8 km/h (1 Bft) 91,67 %
22.04.2018 17:43 25,8 C 16,1 C 37 % 1011,8 hPa 0,0 l/m 1,4 km/h (1 Bft) W 275 1 min 0,000 mm 0,6 UV-I 289 W/m 10,0 C 25,8 C 3,2 km/h (1 Bft) 100,00 %
22.04.2018 17:44 25,8 C 16,1 C 38 % 1011,8 hPa 0,0 l/m 2,3 km/h (1 Bft) W 273 1 min 0,000 mm 0,6 UV-I 288 W/m 10,4 C 25,8 C 3,2 km/h (1 Bft) 95,65 %
22.04.2018 17:45 25,8 C 16,1 C 36 % 1011,8 hPa 0,0 l/m 3,5 km/h (1 Bft) W-SW 254 1 min 0,000 mm 0,6 UV-I 284 W/m 9,6 C 25,8 C 6,4 km/h (2 Bft) 95,83 %
22.04.2018 17:46 25,8 C 16,1 C 35 % 1011,8 hPa 0,0 l/m 3,6 km/h (1 Bft) W-SW 255 1 min 0,000 mm 0,6 UV-I 281 W/m 9,2 C 25,8 C 6,4 km/h (2 Bft) 100,00 %
22.04.2018 17:47 25,7 C 16,1 C 35 % 1011,8 hPa 0,0 l/m 6,0 km/h (2 Bft) W-SW 242 1 min 0,000 mm 0,6 UV-I 279 W/m 9,1 C 25,7 C 8,0 km/h (2 Bft) 100,00 %
22.04.2018 17:48 25,8 C 16,1 C 35 % 1011,8 hPa 0,0 l/m 4,8 km/h (1 Bft) W 262 1 min 0,000 mm 0,6 UV-I 279 W/m 9,2 C 25,8 C 6,4 km/h (2 Bft) 100,00 %
22.04.2018 17:49 25,8 C 16,1 C 36 % 1011,8 hPa 0,0 l/m 4,4 km/h (1 Bft) W 263 1 min 0,000 mm 0,6 UV-I 276 W/m 9,6 C 25,8 C 6,4 km/h (2 Bft) 100,00 %
22.04.2018 17:50 25,9 C 16,1 C 37 % 1011,8 hPa 0,0 l/m 9,3 km/h (2 Bft) W-SW 255 1 min 0,000 mm 0,5 UV-I 273 W/m 10,1 C 25,3 C 12,9 km/h (3 Bft) 91,30 %
22.04.2018 17:51 25,9 C 16,1 C 33 % 1011,8 hPa 0,0 l/m 10,9 km/h (2 Bft) W-SW 253 1 min 0,000 mm 0,5 UV-I 271 W/m 8,4 C 25,0 C 12,9 km/h (3 Bft) 100,00 %
22.04.2018 17:52 25,9 C 16,1 C 33 % 1011,8 hPa 0,0 l/m 9,0 km/h (2 Bft) W 278 1 min 0,000 mm 0,5 UV-I 268 W/m 8,4 C 25,3 C 11,3 km/h (2 Bft) 100,00 %
22.04.2018 17:53 25,9 C 16,1 C 35 % 1011,8 hPa 0,0 l/m 5,6 km/h (1 Bft) W 261 1 min 0,000 mm 0,5 UV-I 264 W/m 9,3 C 25,9 C 6,4 km/h (2 Bft) 100,00 %
22.04.2018 17:54 25,9 C 16,1 C 35 % 1011,7 hPa 0,0 l/m 5,9 km/h (2 Bft) W 264 1 min 0,000 mm 0,5 UV-I 258 W/m 9,3 C 25,9 C 6,4 km/h (2 Bft) 100,00 %
22.04.2018 17:55 25,9 C 16,1 C 34 % 1011,8 hPa 0,0 l/m 8,0 km/h (2 Bft) NW 321 1 min 0,000 mm 0,5 UV-I 256 W/m 8,8 C 25,5 C 12,9 km/h (3 Bft) 100,00 %
22.04.2018 17:56 25,9 C 16,1 C 34 % 1011,7 hPa 0,0 l/m 6,5 km/h (2 Bft) W 261 1 min 0,000 mm 0,5 UV-I 255 W/m 8,8 C 25,9 C 9,7 km/h (2 Bft) 95,65 %
22.04.2018 17:57 25,9 C 16,1 C 32 % 1011,8 hPa 0,0 l/m 5,2 km/h (1 Bft) NW 304 1 min 0,000 mm 0,5 UV-I 252 W/m 7,9 C 25,9 C 9,7 km/h (2 Bft) 100,00 %
22.04.2018 17:58 25,9 C 16,1 C 33 % 1011,7 hPa 0,0 l/m 4,2 km/h (1 Bft) N-NW 328 1 min 0,000 mm 0,5 UV-I 251 W/m 8,4 C 25,9 C 8,0 km/h (2 Bft) 100,00 %
22.04.2018 17:59 25,8 C 16,1 C 33 % 1011,7 hPa 0,0 l/m 3,0 km/h (1 Bft) N-NW 340 1 min 0,000 mm 0,5 UV-I 250 W/m 8,3 C 25,8 C 4,8 km/h (1 Bft) 100,00 %
22.04.2018 18:00 25,8 C 16,1 C 34 % 1011,7 hPa 0,0 l/m 2,3 km/h (1 Bft) N 355 1 min 0,000 mm 0,5 UV-I 250 W/m 8,7 C 25,8 C 4,8 km/h (1 Bft) 100,00 %
22.04.2018 18:02 25,7 C 16,1 C 35 % 1011,8 hPa 0,0 l/m 5,1 km/h (1 Bft) W-NW 296 2 min 0,254 mm 0,4 UV-I 246 W/m 9,1 C 25,7 C 9,7 km/h (2 Bft) 97,87 %
22.04.2018 18:03 25,7 C 16,1 C 32 % 1011,8 hPa 0,0 l/m 3,9 km/h (1 Bft) W 276 1 min 0,000 mm 0,0 UV-I 240 W/m 7,8 C 25,7 C 8,0 km/h (2 Bft) 100,00 %
22.04.2018 18:04 25,7 C 16,1 C 33 % 1011,7 hPa 0,0 l/m 2,5 km/h (1 Bft) W 279 1 min 0,000 mm 0,0 UV-I 237 W/m 8,2 C 25,7 C 3,2 km/h (1 Bft) 100,00 %
22.04.2018 18:05 25,7 C 16,1 C 32 % 1011,7 hPa 0,0 l/m 8,4 km/h (2 Bft) N-NW 340 1 min 0,000 mm 0,0 UV-I 236 W/m 7,8 C 25,3 C 12,9 km/h (3 Bft) 91,30 %
22.04.2018 18:06 25,7 C 16,1 C 34 % 1011,7 hPa 0,0 l/m 2,5 km/h (1 Bft) N-NO 21 1 min 0,000 mm 0,0 UV-I 234 W/m 8,6 C 25,7 C 4,8 km/h (1 Bft) 100,00 %
22.04.2018 18:08 25,6 C 16,1 C 35 % 1011,7 hPa 0,0 l/m 2,7 km/h (1 Bft) N 9 2 min 0,000 mm 0,0 UV-I 229 W/m 9,0 C 25,6 C 4,8 km/h (1 Bft) 100,00 %
22.04.2018 18:09 25,6 C 16,1 C 35 % 1011,7 hPa 0,0 l/m 3,3 km/h (1 Bft) NW 304 1 min 0,000 mm 0,0 UV-I 225 W/m 9,0 C 25,6 C 6,4 km/h (2 Bft) 100,00 %
22.04.2018 18:10 25,7 C 16,1 C 36 % 1011,7 hPa 0,0 l/m 1,0 km/h (0 Bft) NW 304 1 min 0,000 mm 0,0 UV-I 222 W/m 9,5 C 25,7 C 3,2 km/h (1 Bft) 100,00 %
22.04.2018 18:11 25,6 C 16,1 C 36 % 1011,6 hPa 0,0 l/m 0,5 km/h (0 Bft) NW 304 1 min 0,000 mm 0,0 UV-I 218 W/m 9,4 C 25,6 C 1,6 km/h (1 Bft) 100,00 %
22.04.2018 18:12 25,5 C 16,1 C 36 % 1011,6 hPa 0,0 l/m 2,6 km/h (1 Bft) W-NW 290 1 min 0,000 mm 0,0 UV-I 215 W/m 9,3 C 25,5 C 4,8 km/h (1 Bft) 100,00 %
22.04.2018 18:13 25,4 C 16,1 C 34 % 1011,7 hPa 0,0 l/m 3,1 km/h (1 Bft) W 259 1 min 0,000 mm 0,0 UV-I 212 W/m 8,4 C 25,4 C 6,4 km/h (2 Bft) 100,00 %
22.04.2018 18:14 25,4 C 16,1 C 33 % 1011,7 hPa 0,0 l/m 2,5 km/h (1 Bft) N-NW 347 1 min 0,000 mm 0,0 UV-I 209 W/m 7,9 C 25,4 C 6,4 km/h (2 Bft) 100,00 %
22.04.2018 18:15 25,4 C 16,1 C 36 % 1011,7 hPa 0,0 l/m 0,9 km/h (0 Bft) N-NW 347 1 min 0,000 mm 0,0 UV-I 206 W/m 9,2 C 25,4 C 3,2 km/h (1 Bft) 100,00 %
22.04.2018 18:16 25,3 C 16,1 C 37 % 1011,7 hPa 0,0 l/m 3,0 km/h (1 Bft) NW 319 1 min 0,000 mm 0,0 UV-I 203 W/m 9,6 C 25,3 C 4,8 km/h (1 Bft) 100,00 %
22.04.2018 18:17 25,2 C 16,1 C 37 % 1011,6 hPa 0,0 l/m 3,0 km/h (1 Bft) NW 304 1 min 0,000 mm 0,0 UV-I 199 W/m 9,5 C 25,2 C 4,8 km/h (1 Bft) 100,00 %
22.04.2018 18:18 25,2 C 16,1 C 36 % 1011,7 hPa 0,0 l/m 2,2 km/h (1 Bft) NW 304 1 min 0,000 mm 0,0 UV-I 196 W/m 9,1 C 25,2 C 4,8 km/h (1 Bft) 100,00 %
22.04.2018 18:19 25,2 C 16,1 C 36 % 1011,5 hPa 0,0 l/m 1,9 km/h (1 Bft) NW 304 1 min 0,000 mm 0,0 UV-I 194 W/m 9,1 C 25,2 C 3,2 km/h (1 Bft) 100,00 %
22.04.2018 18:20 25,2 C 16,1 C 37 % 1011,6 hPa 0,0 l/m 2,5 km/h (1 Bft) NW 304 1 min 0,000 mm 0,0 UV-I 191 W/m 9,5 C 25,2 C 3,2 km/h (1 Bft) 100,00 %
22.04.2018 18:21 25,2 C 16,1 C 38 % 1011,6 hPa 0,0 l/m 0,8 km/h (0 Bft) NW 304 1 min 0,000 mm 0,0 UV-I 189 W/m 9,9 C 25,2 C 3,2 km/h (1 Bft) 95,83 %
22.04.2018 18:22 25,2 C 16,1 C 37 % 1011,6 hPa 0,0 l/m 1,7 km/h (1 Bft) NW 304 1 min 0,000 mm 0,0 UV-I 186 W/m 9,5 C 25,2 C 3,2 km/h (1 Bft) 95,65 %
22.04.2018 18:23 25,2 C 16,1 C 35 % 1011,6 hPa 0,0 l/m 1,0 km/h (0 Bft) NW 304 1 min 0,000 mm 0,0 UV-I 184 W/m 8,6 C 25,2 C 1,6 km/h (1 Bft) 95,83 %
22.04.2018 18:24 25,2 C 16,1 C 36 % 1011,6 hPa 0,0 l/m 0,8 km/h (0 Bft) NW 304 1 min 0,000 mm 0,0 UV-I 181 W/m 9,1 C 25,2 C 1,6 km/h (1 Bft) 96,15 %
22.04.2018 18:25 25,3 C 16,1 C 36 % 1011,6 hPa 0,0 l/m 0,4 km/h (0 Bft) NW 304 1 min 0,000 mm 0,0 UV-I 180 W/m 9,1 C 25,3 C 1,6 km/h (1 Bft) 100,00 %
22.04.2018 18:26 25,3 C 16,1 C 34 % 1011,6 hPa 0,0 l/m 3,5 km/h (1 Bft) NW 321 1 min 0,000 mm 0,0 UV-I 178 W/m 8,3 C 25,3 C 4,8 km/h (1 Bft) 96,15 %
22.04.2018 18:27 25,4 C 16,1 C 34 % 1011,6 hPa 0,0 l/m 3,6 km/h (1 Bft) NW 320 1 min 0,000 mm 0,0 UV-I 175 W/m 8,4 C 25,4 C 4,8 km/h (1 Bft) 100,00 %
22.04.2018 18:28 25,4 C 16,1 C 36 % 1011,6 hPa 0,0 l/m 1,4 km/h (1 Bft) NW 320 1 min 0,000 mm 0,0 UV-I 172 W/m 9,2 C 25,4 C 3,2 km/h (1 Bft) 91,30 %
22.04.2018 18:29 25,4 C 16,1 C 35 % 1011,6 hPa 0,0 l/m 2,7 km/h (1 Bft) W-NW 293 1 min 0,000 mm 0,0 UV-I 171 W/m 8,8 C 25,4 C 8,0 km/h (2 Bft) 100,00 %
22.04.2018 18:30 25,4 C 16,1 C 35 % 1011,6 hPa 0,0 l/m 5,7 km/h (1 Bft) W 275 1 min 0,000 mm 0,0 UV-I 168 W/m 8,8 C 25,4 C 9,7 km/h (2 Bft) 95,65 %
22.04.2018 18:31 25,4 C 16,1 C 34 % 1011,6 hPa 0,0 l/m 2,6 km/h (1 Bft) W 275 1 min 0,000 mm 0,0 UV-I 166 W/m 8,4 C 25,4 C 4,8 km/h (1 Bft) 95,83 %
22.04.2018 18:33 25,6 C 16,1 C 35 % 1011,6 hPa 0,0 l/m 1,4 km/h (1 Bft) W 275 2 min 0,000 mm 0,0 UV-I 162 W/m 9,0 C 25,6 C 3,2 km/h (1 Bft) 98,00 %
22.04.2018 18:34 25,6 C 16,1 C 35 % 1011,6 hPa 0,0 l/m 2,5 km/h (1 Bft) W 275 1 min 0,000 mm 0,0 UV-I 158 W/m 9,0 C 25,6 C 4,8 km/h (1 Bft) 100,00 %
22.04.2018 18:35 25,5 C 16,1 C 34 % 1011,6 hPa 0,0 l/m 5,2 km/h (1 Bft) W 273 1 min 0,000 mm 0,0 UV-I 158 W/m 8,5 C 25,5 C 6,4 km/h (2 Bft) 95,65 %
22.04.2018 18:36 25,4 C 16,1 C 34 % 1011,5 hPa 0,0 l/m 2,1 km/h (1 Bft) W 274 1 min 0,000 mm 0,0 UV-I 156 W/m 8,4 C 25,4 C 3,2 km/h (1 Bft) 100,00 %
22.04.2018 18:37 25,4 C 16,1 C 34 % 1011,5 hPa 0,0 l/m 2,8 km/h (1 Bft) W 274 1 min 0,000 mm 0,0 UV-I 155 W/m 8,4 C 25,4 C 3,2 km/h (1 Bft) 91,30 %
22.04.2018 18:38 25,4 C 16,1 C 35 % 1011,5 hPa 0,0 l/m 3,7 km/h (1 Bft) W 275 1 min 0,000 mm 0,0 UV-I 152 W/m 8,8 C 25,4 C 4,8 km/h (1 Bft) 100,00 %
22.04.2018 18:39 25,4 C 16,1 C 34 % 1011,6 hPa 0,0 l/m 8,9 km/h (2 Bft) W-SW 245 1 min 0,000 mm 0,0 UV-I 149 W/m 8,4 C 24,8 C 12,9 km/h (3 Bft) 96,15 %
22.04.2018 18:40 25,4 C 16,1 C 34 % 1011,5 hPa 0,0 l/m 6,5 km/h (2 Bft) W 264 1 min 0,000 mm 0,0 UV-I 148 W/m 8,4 C 25,4 C 9,7 km/h (2 Bft) 95,83 %
22.04.2018 18:41 25,3 C 16,1 C 34 % 1011,5 hPa 0,0 l/m 4,6 km/h (1 Bft) W-SW 252 1 min 0,000 mm 0,0 UV-I 146 W/m 8,3 C 25,3 C 6,4 km/h (2 Bft) 95,65 %
22.04.2018 18:42 25,3 C 16,1 C 34 % 1011,5 hPa 0,0 l/m 4,0 km/h (1 Bft) W-NW 286 1 min 0,000 mm 0,0 UV-I 144 W/m 8,3 C 25,3 C 6,4 km/h (2 Bft) 95,83 %
22.04.2018 18:43 25,3 C 16,1 C 35 % 1011,5 hPa 0,0 l/m 6,4 km/h (2 Bft) W 264 1 min 0,000 mm 0,0 UV-I 141 W/m 8,7 C 25,3 C 9,7 km/h (2 Bft) 100,00 %
22.04.2018 18:44 25,3 C 16,1 C 34 % 1011,5 hPa 0,0 l/m 5,0 km/h (1 Bft) W 259 1 min 0,000 mm 0,0 UV-I 138 W/m 8,3 C 25,3 C 6,4 km/h (2 Bft) 95,83 %
22.04.2018 18:45 25,3 C 16,1 C 34 % 1011,5 hPa 0,0 l/m 5,5 km/h (1 Bft) W 269 1 min 0,000 mm 0,0 UV-I 135 W/m 8,3 C 25,3 C 6,4 km/h (2 Bft) 100,00 %
22.04.2018 18:46 25,3 C 16,1 C 35 % 1011,5 hPa 0,0 l/m 4,0 km/h (1 Bft) W 267 1 min 0,000 mm 0,0 UV-I 134 W/m 8,7 C 25,3 C 6,4 km/h (2 Bft) 95,83 %
22.04.2018 18:47 25,4 C 16,1 C 34 % 1011,4 hPa 0,0 l/m 4,1 km/h (1 Bft) W 272 1 min 0,000 mm 0,0 UV-I 132 W/m 8,4 C 25,4 C 4,8 km/h (1 Bft) 100,00 %
22.04.2018 18:48 25,4 C 16,1 C 35 % 1011,4 hPa 0,0 l/m 3,7 km/h (1 Bft) NW 320 1 min 0,000 mm 0,0 UV-I 129 W/m 8,8 C 25,4 C 4,8 km/h (1 Bft) 96,30 %
22.04.2018 18:49 25,3 C 16,1 C 36 % 1011,4 hPa 0,0 l/m 3,8 km/h (1 Bft) W 270 1 min 0,000 mm 0,0 UV-I 127 W/m 9,1 C 25,3 C 6,4 km/h (2 Bft) 95,65 %
22.04.2018 18:50 25,3 C 16,1 C 35 % 1011,5 hPa 0,0 l/m 5,9 km/h (2 Bft) W 259 1 min 0,000 mm 0,0 UV-I 126 W/m 8,7 C 25,3 C 6,4 km/h (2 Bft) 95,83 %
22.04.2018 18:51 25,3 C 16,1 C 35 % 1011,4 hPa 0,0 l/m 2,9 km/h (1 Bft) W 259 1 min 0,000 mm 0,0 UV-I 125 W/m 8,7 C 25,3 C 4,8 km/h (1 Bft) 96,15 %
22.04.2018 18:52 25,3 C 16,1 C 35 % 1011,4 hPa 0,0 l/m 4,1 km/h (1 Bft) W 259 1 min 0,000 mm 0,0 UV-I 123 W/m 8,7 C 25,3 C 6,4 km/h (2 Bft) 100,00 %
22.04.2018 18:53 25,3 C 16,1 C 35 % 1011,4 hPa 0,0 l/m 3,8 km/h (1 Bft) W 259 1 min 0,000 mm 0,0 UV-I 120 W/m 8,7 C 25,3 C 6,4 km/h (2 Bft) 91,30 %
22.04.2018 18:54 25,3 C 16,1 C 35 % 1011,4 hPa 0,0 l/m 6,4 km/h (2 Bft) W 259 1 min 0,000 mm 0,0 UV-I 117 W/m 8,7 C 25,3 C 11,3 km/h (2 Bft) 100,00 %
22.04.2018 18:55 25,3 C 16,1 C 35 % 1011,4 hPa 0,0 l/m 7,0 km/h (2 Bft) W-SW 256 1 min 0,000 mm 0,0 UV-I 115 W/m 8,7 C 25,2 C 11,3 km/h (2 Bft) 95,65 %
22.04.2018 18:56 25,3 C 16,1 C 35 % 1011,4 hPa 0,0 l/m 5,3 km/h (1 Bft) W 267 1 min 0,000 mm 0,0 UV-I 113 W/m 8,7 C 25,3 C 6,4 km/h (2 Bft) 100,00 %
22.04.2018 18:57 25,3 C 16,1 C 35 % 1011,4 hPa 0,0 l/m 4,3 km/h (1 Bft) W 267 1 min 0,000 mm 0,0 UV-I 110 W/m 8,7 C 25,3 C 4,8 km/h (1 Bft) 100,00 %
22.04.2018 18:58 25,2 C 16,1 C 36 % 1011,4 hPa 0,0 l/m 3,1 km/h (1 Bft) W 267 1 min 0,000 mm 0,0 UV-I 107 W/m 9,1 C 25,2 C 4,8 km/h (1 Bft) 100,00 %
22.04.2018 18:59 25,2 C 16,1 C 36 % 1011,3 hPa 0,0 l/m 4,5 km/h (1 Bft) W 261 1 min 0,000 mm 0,0 UV-I 105 W/m 9,1 C 25,2 C 6,4 km/h (2 Bft) 100,00 %
22.04.2018 19:00 25,2 C 16,1 C 36 % 1011,4 hPa 0,0 l/m 5,2 km/h (1 Bft) W 265 1 min 0,000 mm 0,0 UV-I 102 W/m 9,1 C 25,2 C 6,4 km/h (2 Bft) 95,65 %
22.04.2018 19:02 25,1 C 16,1 C 36 % 1011,3 hPa 0,0 l/m 4,9 km/h (1 Bft) W-SW 246 2 min 0,153 mm 0,0 UV-I 98 W/m 9,0 C 25,1 C 6,4 km/h (2 Bft) 98,00 %
22.04.2018 19:03 25,1 C 16,1 C 35 % 1011,4 hPa 0,0 l/m 3,8 km/h (1 Bft) W-SW 248 1 min 0,000 mm 0,0 UV-I 97 W/m 8,6 C 25,1 C 4,8 km/h (1 Bft) 100,00 %
22.04.2018 19:04 25,1 C 16,1 C 35 % 1011,4 hPa 0,0 l/m 3,8 km/h (1 Bft) W 262 1 min 0,000 mm 0,0 UV-I 95 W/m 8,6 C 25,1 C 4,8 km/h (1 Bft) 100,00 %
22.04.2018 19:05 25,1 C 16,1 C 35 % 1011,3 hPa 0,0 l/m 4,0 km/h (1 Bft) W 262 1 min 0,000 mm 0,0 UV-I 92 W/m 8,6 C 25,1 C 4,8 km/h (1 Bft) 100,00 %
22.04.2018 19:06 25,1 C 16,1 C 36 % 1011,4 hPa 0,0 l/m 3,5 km/h (1 Bft) W 262 1 min 0,000 mm 0,0 UV-I 91 W/m 9,0 C 25,1 C 4,8 km/h (1 Bft) 100,00 %
22.04.2018 19:07 25,0 C 16,1 C 37 % 1011,4 hPa 0,0 l/m 3,9 km/h (1 Bft) W-SW 240 1 min 0,000 mm 0,0 UV-I 88 W/m 9,3 C 25,0 C 6,4 km/h (2 Bft) 100,00 %
22.04.2018 19:08 25,0 C 16,1 C 36 % 1011,4 hPa 0,0 l/m 4,3 km/h (1 Bft) W-SW 242 1 min 0,000 mm 0,0 UV-I 84 W/m 8,9 C 25,0 C 6,4 km/h (2 Bft) 100,00 %
22.04.2018 19:09 24,9 C 16,1 C 36 % 1011,4 hPa 0,0 l/m 4,0 km/h (1 Bft) W-SW 243 1 min 0,000 mm 0,0 UV-I 84 W/m 8,8 C 24,9 C 6,4 km/h (2 Bft) 100,00 %
22.04.2018 19:10 24,9 C 16,1 C 36 % 1011,4 hPa 0,0 l/m 3,4 km/h (1 Bft) W-SW 243 1 min 0,000 mm 0,0 UV-I 83 W/m 8,8 C 24,9 C 4,8 km/h (1 Bft) 91,30 %
22.04.2018 19:11 24,8 C 16,1 C 36 % 1011,4 hPa 0,0 l/m 2,9 km/h (1 Bft) W-SW 243 1 min 0,000 mm 0,0 UV-I 80 W/m 8,7 C 24,8 C 3,2 km/h (1 Bft) 100,00 %
22.04.2018 19:12 24,8 C 16,1 C 37 % 1011,4 hPa 0,0 l/m 2,7 km/h (1 Bft) W-SW 243 1 min 0,000 mm 0,0 UV-I 79 W/m 9,1 C 24,8 C 3,2 km/h (1 Bft) 95,65 %
22.04.2018 19:13 24,8 C 16,1 C 38 % 1011,4 hPa 0,0 l/m 4,0 km/h (1 Bft) W 270 1 min 0,000 mm 0,0 UV-I 77 W/m 9,5 C 24,8 C 4,8 km/h (1 Bft) 100,00 %
22.04.2018 19:14 24,8 C 16,1 C 37 % 1011,4 hPa 0,0 l/m 3,6 km/h (1 Bft) W 270 1 min 0,000 mm 0,0 UV-I 74 W/m 9,1 C 24,8 C 4,8 km/h (1 Bft) 100,00 %
22.04.2018 19:15 24,7 C 16,1 C 38 % 1011,4 hPa 0,0 l/m 3,9 km/h (1 Bft) W 269 1 min 0,000 mm 0,0 UV-I 72 W/m 9,4 C 24,7 C 4,8 km/h (1 Bft) 95,83 %
22.04.2018 19:16 24,7 C 16,1 C 37 % 1011,4 hPa 0,0 l/m 2,5 km/h (1 Bft) W 269 1 min 0,000 mm 0,0 UV-I 72 W/m 9,0 C 24,7 C 3,2 km/h (1 Bft) 100,00 %
22.04.2018 19:17 24,7 C 16,1 C 37 % 1011,4 hPa 0,0 l/m 3,8 km/h (1 Bft) W 269 1 min 0,000 mm 0,0 UV-I 70 W/m 9,0 C 24,7 C 6,4 km/h (2 Bft) 100,00 %
22.04.2018 19:18 24,7 C 16,1 C 37 % 1011,5 hPa 0,0 l/m 5,0 km/h (1 Bft) W 269 1 min 0,000 mm 0,0 UV-I 69 W/m 9,0 C 24,7 C 6,4 km/h (2 Bft) 100,00 %
22.04.2018 19:19 24,6 C 16,1 C 37 % 1011,5 hPa 0,0 l/m 4,2 km/h (1 Bft) W 263 1 min 0,000 mm 0,0 UV-I 68 W/m 8,9 C 24,6 C 4,8 km/h (1 Bft) 95,65 %
22.04.2018 19:20 24,6 C 16,1 C 38 % 1011,5 hPa 0,0 l/m 3,9 km/h (1 Bft) W 262 1 min 0,000 mm 0,0 UV-I 67 W/m 9,3 C 24,6 C 4,8 km/h (1 Bft) 100,00 %
22.04.2018 19:21 24,5 C 16,1 C 38 % 1011,5 hPa 0,0 l/m 4,6 km/h (1 Bft) W 261 1 min 0,000 mm 0,0 UV-I 63 W/m 9,2 C 24,5 C 6,4 km/h (2 Bft) 100,00 %
22.04.2018 19:22 24,4 C 16,1 C 38 % 1011,5 hPa 0,0 l/m 3,6 km/h (1 Bft) W 260 1 min 0,000 mm 0,0 UV-I 63 W/m 9,2 C 24,4 C 4,8 km/h (1 Bft) 100,00 %
22.04.2018 19:23 24,4 C 16,1 C 39 % 1011,5 hPa 0,0 l/m 2,7 km/h (1 Bft) W 260 1 min 0,000 mm 0,0 UV-I 61 W/m 9,5 C 24,4 C 3,2 km/h (1 Bft) 100,00 %
22.04.2018 19:24 24,4 C 16,1 C 39 % 1011,5 hPa 0,0 l/m 3,0 km/h (1 Bft) W 260 1 min 0,000 mm 0,0 UV-I 59 W/m 9,5 C 24,4 C 4,8 km/h (1 Bft) 100,00 %
22.04.2018 19:25 24,3 C 16,1 C 39 % 1011,5 hPa 0,0 l/m 2,7 km/h (1 Bft) W 260 1 min 0,000 mm 0,0 UV-I 58 W/m 9,4 C 24,3 C 3,2 km/h (1 Bft) 95,65 %
22.04.2018 19:26 24,3 C 16,1 C 40 % 1011,5 hPa 0,0 l/m 2,8 km/h (1 Bft) W 260 1 min 0,000 mm 0,0 UV-I 56 W/m 9,8 C 24,3 C 4,8 km/h (1 Bft) 95,83 %
22.04.2018 19:27 24,2 C 16,1 C 40 % 1011,5 hPa 0,0 l/m 2,6 km/h (1 Bft) W 260 1 min 0,000 mm 0,0 UV-I 54 W/m 9,7 C 24,2 C 4,8 km/h (1 Bft) 100,00 %
22.04.2018 19:28 24,2 C 16,1 C 40 % 1011,5 hPa 0,0 l/m 2,9 km/h (1 Bft) W 260 1 min 0,000 mm 0,0 UV-I 53 W/m 9,7 C 24,2 C 3,2 km/h (1 Bft) 100,00 %
22.04.2018 19:29 24,1 C 16,1 C 40 % 1011,5 hPa 0,0 l/m 2,4 km/h (1 Bft) W 260 1 min 0,000 mm 0,0 UV-I 52 W/m 9,6 C 24,1 C 3,2 km/h (1 Bft) 100,00 %
22.04.2018 19:30 24,1 C 16,1 C 40 % 1011,5 hPa 0,0 l/m 3,4 km/h (1 Bft) W 260 1 min 0,000 mm 0,0 UV-I 50 W/m 9,6 C 24,1 C 4,8 km/h (1 Bft) 100,00 %
22.04.2018 19:31 24,1 C 16,1 C 41 % 1011,5 hPa 0,0 l/m 2,4 km/h (1 Bft) W 261 1 min 0,000 mm 0,0 UV-I 47 W/m 10,0 C 24,1 C 4,8 km/h (1 Bft) 100,00 %
22.04.2018 19:32 24,0 C 16,1 C 41 % 1011,5 hPa 0,0 l/m 1,7 km/h (1 Bft) W 261 1 min 0,000 mm 0,0 UV-I 43 W/m 9,9 C 24,0 C 3,2 km/h (1 Bft) 100,00 %
22.04.2018 19:33 23,9 C 16,1 C 41 % 1011,6 hPa 0,0 l/m 1,5 km/h (1 Bft) W 261 0 min 0,000 mm 0,0 UV-I 38 W/m 9,8 C 23,9 C 3,2 km/h (1 Bft) 100,00 %
22.04.2018 19:34 23,8 C 16,1 C 43 % 1011,6 hPa 0,0 l/m 1,8 km/h (1 Bft) W 261 0 min 0,000 mm 0,0 UV-I 34 W/m 10,5 C 23,8 C 3,2 km/h (1 Bft) 100,00 %
22.04.2018 19:35 23,8 C 16,1 C 43 % 1011,6 hPa 0,0 l/m 0,1 km/h (0 Bft) W 261 0 min 0,000 mm 0,0 UV-I 33 W/m 10,5 C 23,8 C 1,6 km/h (1 Bft) 100,00 %
22.04.2018 19:36 23,7 C 16,1 C 44 % 1011,6 hPa 0,0 l/m 0,0 km/h (0 Bft) W 261 0 min 0,000 mm 0,0 UV-I 31 W/m 10,7 C 23,7 C 0,0 km/h (0 Bft) 100,00 %
22.04.2018 19:37 23,6 C 16,1 C 44 % 1011,6 hPa 0,0 l/m 0,0 km/h (0 Bft) W 261 0 min 0,000 mm 0,0 UV-I 29 W/m 10,6 C 23,6 C 0,0 km/h (0 Bft) 100,00 %
22.04.2018 19:38 23,5 C 16,1 C 45 % 1011,6 hPa 0,0 l/m 0,0 km/h (0 Bft) W 261 0 min 0,000 mm 0,0 UV-I 26 W/m 10,9 C 23,5 C 0,0 km/h (0 Bft) 95,65 %
22.04.2018 19:39 23,3 C 16,1 C 44 % 1011,6 hPa 0,0 l/m 0,0 km/h (0 Bft) W 261 0 min 0,000 mm 0,0 UV-I 25 W/m 10,4 C 23,3 C 0,0 km/h (0 Bft) 100,00 %
22.04.2018 19:40 23,2 C 16,1 C 45 % 1011,7 hPa 0,0 l/m 0,0 km/h (0 Bft) W 261 0 min 0,000 mm 0,0 UV-I 23 W/m 10,6 C 23,2 C 0,0 km/h (0 Bft) 100,00 %
22.04.2018 19:41 23,1 C 16,1 C 45 % 1011,7 hPa 0,0 l/m 0,0 km/h (0 Bft) W 261 0 min 0,000 mm 0,0 UV-I 22 W/m 10,5 C 23,1 C 0,0 km/h (0 Bft) 95,83 %
22.04.2018 19:42 23,0 C 16,1 C 46 % 1011,7 hPa 0,0 l/m 0,0 km/h (0 Bft) W 261 0 min 0,000 mm 0,0 UV-I 21 W/m 10,7 C 23,0 C 0,0 km/h (0 Bft) 100,00 %
22.04.2018 19:43 22,8 C 16,1 C 46 % 1011,7 hPa 0,0 l/m 0,0 km/h (0 Bft) W 261 0 min 0,000 mm 0,0 UV-I 20 W/m 10,6 C 22,8 C 0,0 km/h (0 Bft) 100,00 %
22.04.2018 19:44 22,7 C 16,1 C 47 % 1011,6 hPa 0,0 l/m 0,0 km/h (0 Bft) W 261 0 min 0,000 mm 0,0 UV-I 19 W/m 10,8 C 22,7 C 0,0 km/h (0 Bft) 95,65 %
22.04.2018 19:45 22,6 C 16,1 C 47 % 1011,7 hPa 0,0 l/m 0,0 km/h (0 Bft) W 261 0 min 0,000 mm 0,0 UV-I 18 W/m 10,7 C 22,6 C 0,0 km/h (0 Bft) 100,00 %
22.04.2018 19:46 22,4 C 16,1 C 47 % 1011,6 hPa 0,0 l/m 0,0 km/h (0 Bft) W 261 0 min 0,000 mm 0,0 UV-I 17 W/m 10,5 C 22,4 C 0,0 km/h (0 Bft) 95,65 %
22.04.2018 19:47 22,3 C 16,1 C 47 % 1011,7 hPa 0,0 l/m 0,0 km/h (0 Bft) W 261 0 min 0,000 mm 0,0 UV-I 16 W/m 10,4 C 22,3 C 0,0 km/h (0 Bft) 100,00 %
22.04.2018 19:48 22,1 C 16,1 C 47 % 1011,7 hPa 0,0 l/m 0,0 km/h (0 Bft) W 261 0 min 0,000 mm 0,0 UV-I 15 W/m 10,3 C 22,1 C 0,0 km/h (0 Bft) 100,00 %
22.04.2018 19:49 22,0 C 16,1 C 47 % 1011,6 hPa 0,0 l/m 0,0 km/h (0 Bft) W 261 0 min 0,000 mm 0,0 UV-I 14 W/m 10,2 C 22,0 C 0,0 km/h (0 Bft) 100,00 %
22.04.2018 19:50 21,9 C 16,1 C 48 % 1011,7 hPa 0,0 l/m 0,0 km/h (0 Bft) W 261 1 min 0,000 mm 0,0 UV-I 14 W/m 10,4 C 21,9 C 0,0 km/h (0 Bft) 100,00 %
22.04.2018 19:51 21,8 C 16,1 C 48 % 1011,7 hPa 0,0 l/m 0,0 km/h (0 Bft) W 261 1 min 0,000 mm 0,0 UV-I 12 W/m 10,3 C 21,8 C 0,0 km/h (0 Bft) 100,00 %
22.04.2018 19:52 21,8 C 16,1 C 48 % 1011,8 hPa 0,0 l/m 0,0 km/h (0 Bft) W 261 1 min 0,000 mm 0,0 UV-I 12 W/m 10,3 C 21,8 C 0,0 km/h (0 Bft) 100,00 %
22.04.2018 19:53 21,7 C 16,1 C 49 % 1011,8 hPa 0,0 l/m 0,0 km/h (0 Bft) W 261 1 min 0,000 mm 0,0 UV-I 12 W/m 10,5 C 21,7 C 0,0 km/h (0 Bft) 95,65 %
22.04.2018 19:54 21,5 C 16,1 C 50 % 1011,8 hPa 0,0 l/m 0,0 km/h (0 Bft) W 261 0 min 0,000 mm 0,0 UV-I 11 W/m 10,6 C 21,5 C 0,0 km/h (0 Bft) 100,00 %
22.04.2018 19:55 21,3 C 16,1 C 51 % 1011,8 hPa 0,0 l/m 0,0 km/h (0 Bft) W 261 0 min 0,000 mm 0,0 UV-I 11 W/m 10,7 C 21,3 C 0,0 km/h (0 Bft) 100,00 %
22.04.2018 19:56 21,1 C 16,1 C 51 % 1011,8 hPa 0,0 l/m 1,7 km/h (1 Bft) W 261 0 min 0,000 mm 0,0 UV-I 11 W/m 10,6 C 21,1 C 3,2 km/h (1 Bft) 100,00 %
22.04.2018 19:57 20,8 C 16,1 C 53 % 1011,8 hPa 0,0 l/m 1,7 km/h (1 Bft) W 261 0 min 0,000 mm 0,0 UV-I 9 W/m 10,9 C 20,8 C 3,2 km/h (1 Bft) 100,00 %
22.04.2018 19:58 20,6 C 16,1 C 54 % 1011,8 hPa 0,0 l/m 1,9 km/h (1 Bft) W 260 0 min 0,000 mm 0,0 UV-I 9 W/m 11,0 C 20,6 C 3,2 km/h (1 Bft) 100,00 %
22.04.2018 19:59 20,3 C 16,1 C 54 % 1011,8 hPa 0,0 l/m 2,1 km/h (1 Bft) W 260 0 min 0,000 mm 0,0 UV-I 9 W/m 10,7 C 20,3 C 3,2 km/h (1 Bft) 100,00 %
22.04.2018 20:00 20,1 C 16,1 C 55 % 1011,8 hPa 0,0 l/m 2,3 km/h (1 Bft) W 260 0 min 0,000 mm 0,0 UV-I 9 W/m 10,8 C 20,1 C 3,2 km/h (1 Bft) 100,00 %
22.04.2018 20:02 19,9 C 16,1 C 54 % 1011,9 hPa 0,0 l/m 3,1 km/h (1 Bft) W-SW 257 0 min 0,050 mm 0,0 UV-I 7 W/m 10,3 C 19,9 C 4,8 km/h (1 Bft) 97,87 %
22.04.2018 20:03 19,9 C 16,1 C 54 % 1011,9 hPa 0,0 l/m 3,3 km/h (1 Bft) W-SW 257 0 min 0,000 mm 0,0 UV-I 7 W/m 10,3 C 19,9 C 4,8 km/h (1 Bft) 100,00 %
22.04.2018 20:04 19,9 C 16,1 C 53 % 1011,9 hPa 0,0 l/m 3,2 km/h (1 Bft) W-SW 250 0 min 0,000 mm 0,0 UV-I 7 W/m 10,0 C 19,9 C 3,2 km/h (1 Bft) 100,00 %
22.04.2018 20:05 19,9 C 16,1 C 54 % 1011,9 hPa 0,0 l/m 2,8 km/h (1 Bft) W-SW 250 0 min 0,000 mm 0,0 UV-I 7 W/m 10,3 C 19,9 C 3,2 km/h (1 Bft) 100,00 %
22.04.2018 20:06 19,9 C 16,1 C 54 % 1011,9 hPa 0,0 l/m 3,2 km/h (1 Bft) W-SW 250 0 min 0,000 mm 0,0 UV-I 6 W/m 10,3 C 19,9 C 3,2 km/h (1 Bft) 100,00 %
22.04.2018 20:07 19,8 C 16,1 C 54 % 1011,9 hPa 0,0 l/m 2,6 km/h (1 Bft) W-SW 250 0 min 0,000 mm 0,0 UV-I 5 W/m 10,2 C 19,8 C 3,2 km/h (1 Bft) 100,00 %
22.04.2018 20:08 19,7 C 16,1 C 55 % 1012,0 hPa 0,0 l/m 2,7 km/h (1 Bft) W-SW 250 0 min 0,000 mm 0,0 UV-I 5 W/m 10,4 C 19,7 C 3,2 km/h (1 Bft) 100,00 %
22.04.2018 20:09 19,6 C 16,1 C 55 % 1011,9 hPa 0,0 l/m 3,0 km/h (1 Bft) W-SW 250 0 min 0,000 mm 0,0 UV-I 5 W/m 10,3 C 19,6 C 3,2 km/h (1 Bft) 100,00 %
22.04.2018 20:10 19,6 C 16,1 C 55 % 1011,9 hPa 0,0 l/m 3,3 km/h (1 Bft) W-SW 250 0 min 0,000 mm 0,0 UV-I 5 W/m 10,3 C 19,6 C 4,8 km/h (1 Bft) 100,00 %
22.04.2018 20:11 19,4 C 16,1 C 56 % 1011,9 hPa 0,0 l/m 4,3 km/h (1 Bft) W-SW 250 0 min 0,000 mm 0,0 UV-I 5 W/m 10,4 C 19,4 C 4,8 km/h (1 Bft) 100,00 %
22.04.2018 20:12 19,3 C 16,1 C 56 % 1012,0 hPa 0,0 l/m 4,2 km/h (1 Bft) W-SW 250 0 min 0,000 mm 0,0 UV-I 5 W/m 10,3 C 19,3 C 4,8 km/h (1 Bft) 100,00 %
22.04.2018 20:13 19,3 C 16,1 C 57 % 1012,0 hPa 0,0 l/m 4,5 km/h (1 Bft) W-SW 250 0 min 0,000 mm 0,0 UV-I 5 W/m 10,6 C 19,3 C 4,8 km/h (1 Bft) 100,00 %
22.04.2018 20:14 19,2 C 16,1 C 57 % 1012,0 hPa 0,0 l/m 4,0 km/h (1 Bft) W-SW 250 0 min 0,000 mm 0,0 UV-I 5 W/m 10,5 C 19,2 C 4,8 km/h (1 Bft) 100,00 %
22.04.2018 20:15 19,1 C 16,1 C 58 % 1012,0 hPa 0,0 l/m 4,4 km/h (1 Bft) W-SW 250 0 min 0,000 mm 0,0 UV-I 5 W/m 10,6 C 19,1 C 4,8 km/h (1 Bft) 100,00 %
22.04.2018 20:16 19,0 C 16,1 C 58 % 1012,0 hPa 0,0 l/m 3,5 km/h (1 Bft) W-SW 250 0 min 0,000 mm 0,0 UV-I 3 W/m 10,5 C 19,0 C 4,8 km/h (1 Bft) 100,00 %
22.04.2018 20:17 18,9 C 16,1 C 57 % 1012,0 hPa 0,0 l/m 4,2 km/h (1 Bft) W-SW 250 0 min 0,000 mm 0,0 UV-I 0 W/m 10,2 C 18,9 C 4,8 km/h (1 Bft) 100,00 %
22.04.2018 20:18 19,0 C 16,1 C 57 % 1012,0 hPa 0,0 l/m 3,6 km/h (1 Bft) W-SW 250 0 min 0,000 mm 0,0 UV-I 0 W/m 10,3 C 19,0 C 4,8 km/h (1 Bft) 100,00 %
22.04.2018 20:19 18,9 C 16,1 C 58 % 1012,0 hPa 0,0 l/m 3,4 km/h (1 Bft) W-SW 244 0 min 0,000 mm 0,0 UV-I 0 W/m 10,5 C 18,9 C 4,8 km/h (1 Bft) 95,83 %
22.04.2018 20:20 18,9 C 16,1 C 58 % 1012,0 hPa 0,0 l/m 3,4 km/h (1 Bft) W-SW 242 0 min 0,000 mm 0,0 UV-I 0 W/m 10,5 C 18,9 C 4,8 km/h (1 Bft) 95,65 %
22.04.2018 20:21 18,8 C 16,1 C 58 % 1012,0 hPa 0,0 l/m 3,5 km/h (1 Bft) W-SW 242 0 min 0,000 mm 0,0 UV-I 0 W/m 10,4 C 18,8 C 4,8 km/h (1 Bft) 91,67 %
22.04.2018 20:22 18,8 C 16,1 C 58 % 1012,1 hPa 0,0 l/m 3,6 km/h (1 Bft) W-SW 242 0 min 0,000 mm 0,0 UV-I 0 W/m 10,4 C 18,8 C 4,8 km/h (1 Bft) 100,00 %
22.04.2018 20:23 18,7 C 16,1 C 59 % 1012,1 hPa 0,0 l/m 3,5 km/h (1 Bft) W-SW 242 0 min 0,000 mm 0,0 UV-I 0 W/m 10,5 C 18,7 C 4,8 km/h (1 Bft) 95,83 %
22.04.2018 20:24 18,6 C 16,1 C 59 % 1012,1 hPa 0,0 l/m 3,5 km/h (1 Bft) W-SW 241 0 min 0,000 mm 0,0 UV-I 0 W/m 10,4 C 18,6 C 4,8 km/h (1 Bft) 100,00 %
22.04.2018 20:25 18,6 C 16,1 C 59 % 1012,1 hPa 0,0 l/m 3,8 km/h (1 Bft) W-SW 241 0 min 0,000 mm 0,0 UV-I 0 W/m 10,4 C 18,6 C 4,8 km/h (1 Bft) 95,83 %
22.04.2018 20:26 18,6 C 16,1 C 58 % 1012,1 hPa 0,0 l/m 3,7 km/h (1 Bft) W-SW 240 0 min 0,000 mm 0,0 UV-I 0 W/m 10,2 C 18,6 C 4,8 km/h (1 Bft) 100,00 %
22.04.2018 20:27 18,6 C 16,1 C 58 % 1012,1 hPa 0,0 l/m 3,6 km/h (1 Bft) W-SW 240 0 min 0,000 mm 0,0 UV-I 0 W/m 10,2 C 18,6 C 4,8 km/h (1 Bft) 97,37 %
22.04.2018 20:28 18,6 C 16,1 C 58 % 1012,1 hPa 0,0 l/m 3,5 km/h (1 Bft) W-SW 240 0 min 0,000 mm 0,0 UV-I 0 W/m 10,2 C 18,6 C 4,8 km/h (1 Bft) 91,30 %
22.04.2018 20:29 18,4 C 16,1 C 59 % 1012,1 hPa 0,0 l/m 3,9 km/h (1 Bft) W-SW 240 0 min 0,000 mm 0,0 UV-I 0 W/m 10,2 C 18,4 C 4,8 km/h (1 Bft) 95,83 %
22.04.2018 20:30 18,5 C 16,1 C 57 % 1012,2 hPa 0,0 l/m 3,6 km/h (1 Bft) W-SW 240 0 min 0,000 mm 0,0 UV-I 0 W/m 9,8 C 18,5 C 4,8 km/h (1 Bft) 95,65 %
22.04.2018 20:31 18,6 C 16,1 C 56 % 1012,2 hPa 0,0 l/m 3,5 km/h (1 Bft) W-SW 240 0 min 0,000 mm 0,0 UV-I 0 W/m 9,6 C 18,6 C 4,8 km/h (1 Bft) 100,00 %
22.04.2018 20:32 18,8 C 16,1 C 56 % 1012,2 hPa 0,0 l/m 3,6 km/h (1 Bft) W-SW 240 0 min 0,000 mm 0,0 UV-I 0 W/m 9,8 C 18,8 C 4,8 km/h (1 Bft) 91,30 %
22.04.2018 20:33 18,9 C 16,1 C 55 % 1012,2 hPa 0,0 l/m 3,3 km/h (1 Bft) W-SW 240 0 min 0,000 mm 0,0 UV-I 0 W/m 9,7 C 18,9 C 4,8 km/h (1 Bft) 91,67 %
22.04.2018 20:34 18,9 C 16,1 C 55 % 1012,2 hPa 0,0 l/m 3,4 km/h (1 Bft) W-SW 240 0 min 0,000 mm 0,0 UV-I 0 W/m 9,7 C 18,9 C 4,8 km/h (1 Bft) 95,83 %
22.04.2018 20:35 18,9 C 16,1 C 55 % 1012,2 hPa 0,0 l/m 3,6 km/h (1 Bft) W-SW 240 0 min 0,000 mm 0,0 UV-I 0 W/m 9,7 C 18,9 C 4,8 km/h (1 Bft) 100,00 %
22.04.2018 20:36 18,9 C 16,1 C 56 % 1012,1 hPa 0,0 l/m 3,7 km/h (1 Bft) W-SW 240 0 min 0,000 mm 0,0 UV-I 0 W/m 9,9 C 18,9 C 4,8 km/h (1 Bft) 95,83 %
22.04.2018 20:37 18,8 C 16,1 C 56 % 1012,2 hPa 0,0 l/m 3,6 km/h (1 Bft) W-SW 240 0 min 0,000 mm 0,0 UV-I 0 W/m 9,8 C 18,8 C 4,8 km/h (1 Bft) 95,65 %
22.04.2018 20:38 18,8 C 16,1 C 56 % 1012,2 hPa 0,0 l/m 3,8 km/h (1 Bft) W-SW 240 0 min 0,000 mm 0,0 UV-I 0 W/m 9,8 C 18,8 C 4,8 km/h (1 Bft) 100,00 %
22.04.2018 20:39 18,6 C 16,1 C 56 % 1012,2 hPa 0,0 l/m 4,5 km/h (1 Bft) W-SW 240 0 min 0,000 mm 0,0 UV-I 0 W/m 9,6 C 18,6 C 4,8 km/h (1 Bft) 95,65 %
22.04.2018 20:40 18,4 C 16,1 C 57 % 1012,2 hPa 0,0 l/m 4,6 km/h (1 Bft) W-SW 240 0 min 0,000 mm 0,0 UV-I 0 W/m 9,7 C 18,4 C 4,8 km/h (1 Bft) 100,00 %
22.04.2018 20:41 18,3 C 16,1 C 58 % 1012,2 hPa 0,0 l/m 4,4 km/h (1 Bft) SW 234 0 min 0,000 mm 0,0 UV-I 0 W/m 9,9 C 18,3 C 6,4 km/h (2 Bft) 95,65 %
22.04.2018 20:42 18,2 C 16,1 C 58 % 1012,2 hPa 0,0 l/m 4,8 km/h (1 Bft) SW 234 0 min 0,000 mm 0,0 UV-I 0 W/m 9,8 C 18,2 C 6,4 km/h (2 Bft) 96,30 %
22.04.2018 20:43 18,1 C 16,1 C 59 % 1012,2 hPa 0,0 l/m 4,0 km/h (1 Bft) SW 234 0 min 0,000 mm 0,0 UV-I 0 W/m 10,0 C 18,1 C 4,8 km/h (1 Bft) 91,30 %
22.04.2018 20:44 18,0 C 16,1 C 60 % 1012,2 hPa 0,0 l/m 4,0 km/h (1 Bft) SW 234 0 min 0,000 mm 0,0 UV-I 0 W/m 10,1 C 18,0 C 4,8 km/h (1 Bft) 95,83 %
22.04.2018 20:45 17,9 C 16,1 C 60 % 1012,2 hPa 0,0 l/m 4,9 km/h (1 Bft) S-SW 209 0 min 0,000 mm 0,0 UV-I 0 W/m 10,0 C 17,9 C 6,4 km/h (2 Bft) 95,65 %
22.04.2018 20:46 17,9 C 16,1 C 60 % 1012,2 hPa 0,0 l/m 4,9 km/h (1 Bft) S-SW 206 0 min 0,000 mm 0,0 UV-I 0 W/m 10,0 C 17,9 C 6,4 km/h (2 Bft) 95,83 %
22.04.2018 20:47 17,9 C 16,1 C 59 % 1012,2 hPa 0,0 l/m 4,5 km/h (1 Bft) S-SW 206 0 min 0,000 mm 0,0 UV-I 0 W/m 9,8 C 17,9 C 6,4 km/h (2 Bft) 95,83 %
22.04.2018 20:48 17,9 C 16,1 C 59 % 1012,2 hPa 0,0 l/m 4,4 km/h (1 Bft) S-SW 206 0 min 0,000 mm 0,0 UV-I 0 W/m 9,8 C 17,9 C 4,8 km/h (1 Bft) 95,65 %
22.04.2018 20:49 17,9 C 16,1 C 60 % 1012,2 hPa 0,0 l/m 4,6 km/h (1 Bft) S-SW 206 0 min 0,000 mm 0,0 UV-I 0 W/m 10,0 C 17,9 C 6,4 km/h (2 Bft) 95,83 %
22.04.2018 20:50 17,9 C 16,1 C 59 % 1012,3 hPa 0,0 l/m 4,5 km/h (1 Bft) S-SW 206 0 min 0,000 mm 0,0 UV-I 0 W/m 9,8 C 17,9 C 4,8 km/h (1 Bft) 96,15 %
22.04.2018 20:51 17,9 C 16,1 C 59 % 1012,2 hPa 0,0 l/m 4,3 km/h (1 Bft) S-SW 206 0 min 0,000 mm 0,0 UV-I 0 W/m 9,8 C 17,9 C 4,8 km/h (1 Bft) 91,67 %
22.04.2018 20:52 17,9 C 16,1 C 58 % 1012,2 hPa 0,0 l/m 4,6 km/h (1 Bft) S-SW 206 0 min 0,000 mm 0,0 UV-I 0 W/m 9,5 C 17,9 C 6,4 km/h (2 Bft) 91,30 %
22.04.2018 20:53 18,0 C 16,1 C 58 % 1012,2 hPa 0,0 l/m 3,8 km/h (1 Bft) S-SW 205 0 min 0,000 mm 0,0 UV-I 0 W/m 9,6 C 18,0 C 4,8 km/h (1 Bft) 95,83 %
22.04.2018 20:54 18,0 C 16,1 C 57 % 1012,3 hPa 0,0 l/m 4,4 km/h (1 Bft) S-SW 205 0 min 0,000 mm 0,0 UV-I 0 W/m 9,4 C 18,0 C 4,8 km/h (1 Bft) 95,65 %
22.04.2018 20:55 18,1 C 16,1 C 58 % 1012,2 hPa 0,0 l/m 3,8 km/h (1 Bft) S-SW 205 0 min 0,000 mm 0,0 UV-I 0 W/m 9,7 C 18,1 C 4,8 km/h (1 Bft) 95,83 %
22.04.2018 20:56 18,2 C 16,1 C 57 % 1012,3 hPa 0,0 l/m 4,4 km/h (1 Bft) S-SW 206 0 min 0,000 mm 0,0 UV-I 0 W/m 9,5 C 18,2 C 4,8 km/h (1 Bft) 95,65 %
22.04.2018 20:57 18,3 C 16,1 C 57 % 1012,3 hPa 0,0 l/m 4,8 km/h (1 Bft) S-SW 205 0 min 0,000 mm 0,0 UV-I 0 W/m 9,6 C 18,3 C 4,8 km/h (1 Bft) 95,83 %
22.04.2018 20:58 18,3 C 16,1 C 57 % 1012,3 hPa 0,0 l/m 4,8 km/h (1 Bft) S-SW 205 0 min 0,000 mm 0,0 UV-I 0 W/m 9,6 C 18,3 C 4,8 km/h (1 Bft) 95,65 %
22.04.2018 20:59 18,2 C 16,1 C 57 % 1012,3 hPa 0,0 l/m 4,5 km/h (1 Bft) S-SW 206 0 min 0,000 mm 0,0 UV-I 0 W/m 9,5 C 18,2 C 4,8 km/h (1 Bft) 95,83 %
22.04.2018 21:00 18,1 C 16,1 C 58 % 1012,4 hPa 0,0 l/m 4,8 km/h (1 Bft) S-SW 206 0 min 0,000 mm 0,0 UV-I 0 W/m 9,7 C 18,1 C 4,8 km/h (1 Bft) 91,67 %
22.04.2018 21:02 17,8 C 16,1 C 59 % 1012,3 hPa 0,0 l/m 4,8 km/h (1 Bft) S-SW 205 0 min 0,026 mm 0,0 UV-I 0 W/m 9,7 C 17,8 C 6,4 km/h (2 Bft) 98,08 %
22.04.2018 21:03 17,7 C 16,1 C 59 % 1012,3 hPa 0,0 l/m 5,1 km/h (1 Bft) S-SW 205 0 min 0,000 mm 0,0 UV-I 0 W/m 9,6 C 17,7 C 6,4 km/h (2 Bft) 95,83 %
22.04.2018 21:04 17,7 C 16,1 C 58 % 1012,3 hPa 0,0 l/m 4,9 km/h (1 Bft) S-SW 205 0 min 0,000 mm 0,0 UV-I 0 W/m 9,3 C 17,7 C 6,4 km/h (2 Bft) 91,30 %
22.04.2018 21:05 17,8 C 16,1 C 58 % 1012,3 hPa 0,0 l/m 4,5 km/h (1 Bft) S-SW 205 0 min 0,000 mm 0,0 UV-I 0 W/m 9,4 C 17,8 C 4,8 km/h (1 Bft) 92,59 %
22.04.2018 21:06 17,8 C 16,1 C 58 % 1012,4 hPa 0,0 l/m 5,5 km/h (1 Bft) S-SW 206 0 min 0,000 mm 0,0 UV-I 0 W/m 9,4 C 17,8 C 6,4 km/h (2 Bft) 95,65 %
22.04.2018 21:07 17,8 C 16,1 C 58 % 1012,3 hPa 0,0 l/m 5,0 km/h (1 Bft) S-SW 205 0 min 0,000 mm 0,0 UV-I 0 W/m 9,4 C 17,8 C 6,4 km/h (2 Bft) 95,83 %
22.04.2018 21:08 17,8 C 16,1 C 58 % 1012,3 hPa 0,0 l/m 5,3 km/h (1 Bft) S-SW 205 0 min 0,000 mm 0,0 UV-I 0 W/m 9,4 C 17,8 C 6,4 km/h (2 Bft) 95,83 %
22.04.2018 21:09 17,6 C 16,1 C 59 % 1012,4 hPa 0,0 l/m 5,5 km/h (1 Bft) S-SW 205 0 min 0,000 mm 0,0 UV-I 0 W/m 9,5 C 17,6 C 6,4 km/h (2 Bft) 90,91 %
22.04.2018 21:10 17,6 C 16,1 C 58 % 1012,3 hPa 0,0 l/m 5,3 km/h (1 Bft) S-SW 205 0 min 0,000 mm 0,0 UV-I 0 W/m 9,2 C 17,6 C 6,4 km/h (2 Bft) 97,44 %
22.04.2018 21:11 17,6 C 16,1 C 59 % 1012,3 hPa 0,0 l/m 5,4 km/h (1 Bft) S-SW 205 0 min 0,000 mm 0,0 UV-I 0 W/m 9,5 C 17,6 C 6,4 km/h (2 Bft) 91,30 %
22.04.2018 21:12 17,6 C 16,1 C 59 % 1012,3 hPa 0,0 l/m 5,0 km/h (1 Bft) S-SW 205 0 min 0,000 mm 0,0 UV-I 0 W/m 9,5 C 17,6 C 6,4 km/h (2 Bft) 100,00 %
22.04.2018 21:13 17,6 C 16,1 C 59 % 1012,3 hPa 0,0 l/m 4,6 km/h (1 Bft) S-SW 205 0 min 0,000 mm 0,0 UV-I 0 W/m 9,5 C 17,6 C 4,8 km/h (1 Bft) 95,65 %
22.04.2018 21:14 17,6 C 16,1 C 59 % 1012,4 hPa 0,0 l/m 3,4 km/h (1 Bft) S-SW 205 0 min 0,000 mm 0,0 UV-I 0 W/m 9,5 C 17,6 C 4,8 km/h (1 Bft) 95,83 %
22.04.2018 21:15 17,8 C 16,1 C 58 % 1012,3 hPa 0,0 l/m 4,6 km/h (1 Bft) S-SW 205 0 min 0,000 mm 0,0 UV-I 0 W/m 9,4 C 17,8 C 4,8 km/h (1 Bft) 100,00 %
22.04.2018 21:16 17,8 C 16,1 C 58 % 1012,3 hPa 0,0 l/m 4,9 km/h (1 Bft) S-SW 205 0 min 0,000 mm 0,0 UV-I 0 W/m 9,4 C 17,8 C 6,4 km/h (2 Bft) 95,83 %
22.04.2018 21:17 17,7 C 16,1 C 59 % 1012,3 hPa 0,0 l/m 4,4 km/h (1 Bft) S-SW 205 0 min 0,000 mm 0,0 UV-I 0 W/m 9,6 C 17,7 C 4,8 km/h (1 Bft) 100,00 %
22.04.2018 21:18 17,7 C 16,1 C 58 % 1012,3 hPa 0,0 l/m 4,1 km/h (1 Bft) S-SW 205 0 min 0,000 mm 0,0 UV-I 0 W/m 9,3 C 17,7 C 4,8 km/h (1 Bft) 95,83 %
22.04.2018 21:19 17,7 C 16,1 C 59 % 1012,3 hPa 0,0 l/m 5,8 km/h (2 Bft) S-SW 205 0 min 0,000 mm 0,0 UV-I 0 W/m 9,6 C 17,7 C 8,0 km/h (2 Bft) 95,65 %
22.04.2018 21:20 17,7 C 16,1 C 59 % 1012,4 hPa 0,0 l/m 5,8 km/h (2 Bft) S-SW 205 0 min 0,000 mm 0,0 UV-I 0 W/m 9,6 C 17,7 C 6,4 km/h (2 Bft) 95,83 %
22.04.2018 21:21 17,5 C 16,1 C 59 % 1012,4 hPa 0,0 l/m 5,6 km/h (1 Bft) S-SW 205 0 min 0,000 mm 0,0 UV-I 0 W/m 9,4 C 17,5 C 6,4 km/h (2 Bft) 100,00 %
22.04.2018 21:22 17,4 C 16,1 C 60 % 1012,4 hPa 0,0 l/m 5,2 km/h (1 Bft) S-SW 205 0 min 0,000 mm 0,0 UV-I 0 W/m 9,6 C 17,4 C 6,4 km/h (2 Bft) 91,67 %
22.04.2018 21:23 17,3 C 16,1 C 60 % 1012,4 hPa 0,0 l/m 4,9 km/h (1 Bft) S-SW 205 0 min 0,000 mm 0,0 UV-I 0 W/m 9,5 C 17,3 C 6,4 km/h (2 Bft) 100,00 %
22.04.2018 21:24 17,3 C 16,1 C 60 % 1012,4 hPa 0,0 l/m 5,6 km/h (1 Bft) S-SW 205 0 min 0,000 mm 0,0 UV-I 0 W/m 9,5 C 17,3 C 6,4 km/h (2 Bft) 96,15 %
22.04.2018 21:25 17,3 C 16,1 C 60 % 1012,4 hPa 0,0 l/m 5,4 km/h (1 Bft) S-SW 205 0 min 0,000 mm 0,0 UV-I 0 W/m 9,5 C 17,3 C 6,4 km/h (2 Bft) 100,00 %
22.04.2018 21:26 17,3 C 16,1 C 60 % 1012,4 hPa 0,0 l/m 4,8 km/h (1 Bft) S-SW 205 0 min 0,000 mm 0,0 UV-I 0 W/m 9,5 C 17,3 C 6,4 km/h (2 Bft) 91,30 %
22.04.2018 21:27 17,3 C 16,1 C 60 % 1012,4 hPa 0,0 l/m 4,7 km/h (1 Bft) S-SW 205 0 min 0,000 mm 0,0 UV-I 0 W/m 9,5 C 17,3 C 4,8 km/h (1 Bft) 100,00 %
22.04.2018 21:28 17,3 C 16,1 C 61 % 1012,4 hPa 0,0 l/m 4,8 km/h (1 Bft) S-SW 205 0 min 0,000 mm 0,0 UV-I 0 W/m 9,7 C 17,3 C 6,4 km/h (2 Bft) 95,65 %
22.04.2018 21:29 17,2 C 16,1 C 61 % 1012,4 hPa 0,0 l/m 4,6 km/h (1 Bft) S-SW 205 0 min 0,000 mm 0,0 UV-I 0 W/m 9,6 C 17,2 C 4,8 km/h (1 Bft) 95,83 %
22.04.2018 21:30 17,1 C 16,1 C 62 % 1012,4 hPa 0,0 l/m 4,3 km/h (1 Bft) S-SW 205 0 min 0,000 mm 0,0 UV-I 0 W/m 9,8 C 17,1 C 4,8 km/h (1 Bft) 100,00 %
22.04.2018 21:31 17,0 C 16,1 C 62 % 1012,4 hPa 0,0 l/m 5,1 km/h (1 Bft) S-SW 205 0 min 0,000 mm 0,0 UV-I 0 W/m 9,7 C 17,0 C 6,4 km/h (2 Bft) 95,83 %
22.04.2018 21:32 17,0 C 16,1 C 62 % 1012,4 hPa 0,0 l/m 4,6 km/h (1 Bft) S-SW 205 0 min 0,000 mm 0,0 UV-I 0 W/m 9,7 C 17,0 C 4,8 km/h (1 Bft) 95,65 %
22.04.2018 21:33 17,0 C 16,1 C 62 % 1012,4 hPa 0,0 l/m 4,3 km/h (1 Bft) S-SW 205 0 min 0,000 mm 0,0 UV-I 0 W/m 9,7 C 17,0 C 4,8 km/h (1 Bft) 95,83 %
22.04.2018 21:34 17,1 C 16,1 C 62 % 1012,5 hPa 0,0 l/m 4,3 km/h (1 Bft) S-SW 205 0 min 0,000 mm 0,0 UV-I 0 W/m 9,8 C 17,1 C 4,8 km/h (1 Bft) 95,65 %
22.04.2018 21:35 17,2 C 16,1 C 61 % 1012,4 hPa 0,0 l/m 4,8 km/h (1 Bft) S-SW 205 0 min 0,000 mm 0,0 UV-I 0 W/m 9,6 C 17,2 C 4,8 km/h (1 Bft) 95,83 %
22.04.2018 21:36 17,2 C 16,1 C 62 % 1012,4 hPa 0,0 l/m 4,8 km/h (1 Bft) S-SW 205 0 min 0,000 mm 0,0 UV-I 0 W/m 9,9 C 17,2 C 6,4 km/h (2 Bft) 100,00 %
22.04.2018 21:37 17,2 C 16,1 C 61 % 1012,5 hPa 0,0 l/m 5,3 km/h (1 Bft) S-SW 205 0 min 0,000 mm 0,0 UV-I 0 W/m 9,6 C 17,2 C 6,4 km/h (2 Bft) 96,30 %
22.04.2018 21:38 17,2 C 16,1 C 61 % 1012,4 hPa 0,0 l/m 4,7 km/h (1 Bft) S-SW 205 0 min 0,000 mm 0,0 UV-I 0 W/m 9,6 C 17,2 C 6,4 km/h (2 Bft) 95,65 %
22.04.2018 21:39 17,1 C 16,1 C 61 % 1012,4 hPa 0,0 l/m 4,9 km/h (1 Bft) S-SW 205 0 min 0,000 mm 0,0 UV-I 0 W/m 9,5 C 17,1 C 6,4 km/h (2 Bft) 100,00 %
22.04.2018 21:40 17,1 C 16,1 C 61 % 1012,4 hPa 0,0 l/m 5,0 km/h (1 Bft) S-SW 205 0 min 0,000 mm 0,0 UV-I 0 W/m 9,5 C 17,1 C 6,4 km/h (2 Bft) 95,65 %
22.04.2018 21:41 17,1 C 16,1 C 61 % 1012,4 hPa 0,0 l/m 4,6 km/h (1 Bft) S-SW 205 0 min 0,000 mm 0,0 UV-I 0 W/m 9,5 C 17,1 C 6,4 km/h (2 Bft) 100,00 %
22.04.2018 21:42 16,9 C 16,1 C 61 % 1012,4 hPa 0,0 l/m 4,5 km/h (1 Bft) S-SW 205 0 min 0,000 mm 0,0 UV-I 0 W/m 9,3 C 16,9 C 4,8 km/h (1 Bft) 93,33 %
22.04.2018 21:43 16,9 C 16,1 C 62 % 1012,4 hPa 0,0 l/m 5,0 km/h (1 Bft) S-SW 205 0 min 0,000 mm 0,0 UV-I 0 W/m 9,6 C 16,9 C 6,4 km/h (2 Bft) 95,65 %
22.04.2018 21:44 16,9 C 16,1 C 61 % 1012,4 hPa 0,0 l/m 5,7 km/h (1 Bft) S-SW 205 0 min 0,000 mm 0,0 UV-I 0 W/m 9,3 C 16,9 C 6,4 km/h (2 Bft) 95,83 %
22.04.2018 21:45 16,9 C 16,1 C 61 % 1012,4 hPa 0,0 l/m 5,3 km/h (1 Bft) S-SW 205 0 min 0,000 mm 0,0 UV-I 0 W/m 9,3 C 16,9 C 6,4 km/h (2 Bft) 100,00 %
22.04.2018 21:50 16,9 C 16,1 C 62 % 1012,4 hPa 0,0 l/m 4,8 km/h (1 Bft) S-SW 202 0 min 0,000 mm 0,0 UV-I 0 W/m 9,6 C 16,9 C 6,4 km/h (2 Bft) 100,00 %
22.04.2018 21:53 17,1 C 16,1 C 61 % 1012,4 hPa 0,0 l/m 5,2 km/h (1 Bft) S-SW 205 0 min 0,000 mm 0,0 UV-I 0 W/m 9,5 C 17,1 C 6,4 km/h (2 Bft) 100,00 %
22.04.2018 21:54 17,1 C 16,1 C 62 % 1012,4 hPa 0,0 l/m 5,5 km/h (1 Bft) S-SW 205 0 min 0,000 mm 0,0 UV-I 0 W/m 9,8 C 17,1 C 6,4 km/h (2 Bft) 95,65 %
22.04.2018 21:55 17,2 C 16,1 C 61 % 1012,4 hPa 0,0 l/m 6,2 km/h (2 Bft) S-SW 205 0 min 0,000 mm 0,0 UV-I 0 W/m 9,6 C 17,2 C 8,0 km/h (2 Bft) 100,00 %
22.04.2018 21:57 17,3 C 16,1 C 59 % 1012,4 hPa 0,0 l/m 5,6 km/h (1 Bft) S-SW 205 0 min 0,000 mm 0,0 UV-I 0 W/m 9,2 C 17,3 C 6,4 km/h (2 Bft) 97,87 %
22.04.2018 21:58 17,5 C 16,1 C 59 % 1012,5 hPa 0,0 l/m 5,4 km/h (1 Bft) S-SW 202 0 min 0,000 mm 0,0 UV-I 0 W/m 9,4 C 17,5 C 6,4 km/h (2 Bft) 100,00 %
22.04.2018 21:59 17,6 C 16,1 C 58 % 1012,4 hPa 0,0 l/m 6,0 km/h (2 Bft) S-SW 205 0 min 0,000 mm 0,0 UV-I 0 W/m 9,2 C 17,6 C 8,0 km/h (2 Bft) 100,00 %
22.04.2018 22:00 17,8 C 16,1 C 58 % 1012,4 hPa 0,0 l/m 7,2 km/h (2 Bft) S-SW 204 0 min 0,025 mm 0,0 UV-I 0 W/m 9,4 C 17,4 C 8,0 km/h (2 Bft) 100,00 %
22.04.2018 22:02 17,9 C 16,1 C 57 % 1012,5 hPa 0,0 l/m 6,8 km/h (2 Bft) S-SW 200 0 min 0,000 mm 0,0 UV-I 0 W/m 9,3 C 17,7 C 8,0 km/h (2 Bft) 97,44 %
22.04.2018 22:03 18,1 C 16,1 C 57 % 1012,4 hPa 0,0 l/m 6,8 km/h (2 Bft) S-SW 198 0 min 0,000 mm 0,0 UV-I 0 W/m 9,4 C 17,9 C 8,0 km/h (2 Bft) 100,00 %
22.04.2018 22:04 18,1 C 16,1 C 57 % 1012,4 hPa 0,0 l/m 7,5 km/h (2 Bft) S-SW 213 0 min 0,000 mm 0,0 UV-I 0 W/m 9,4 C 17,6 C 9,7 km/h (2 Bft) 96,30 %
22.04.2018 22:05 18,1 C 16,1 C 57 % 1012,5 hPa 0,0 l/m 6,8 km/h (2 Bft) S-SW 203 0 min 0,000 mm 0,0 UV-I 0 W/m 9,4 C 17,9 C 8,0 km/h (2 Bft) 100,00 %
22.04.2018 22:06 18,1 C 16,1 C 57 % 1012,5 hPa 0,0 l/m 6,6 km/h (2 Bft) S-SW 202 0 min 0,000 mm 0,0 UV-I 0 W/m 9,4 C 18,0 C 8,0 km/h (2 Bft) 100,00 %
22.04.2018 22:07 17,9 C 16,1 C 58 % 1012,5 hPa 0,0 l/m 5,3 km/h (1 Bft) S-SW 203 0 min 0,000 mm 0,0 UV-I 0 W/m 9,5 C 17,9 C 6,4 km/h (2 Bft) 100,00 %
22.04.2018 22:08 17,9 C 16,1 C 59 % 1012,5 hPa 0,0 l/m 6,1 km/h (2 Bft) S-SW 206 0 min 0,000 mm 0,0 UV-I 0 W/m 9,8 C 17,9 C 8,0 km/h (2 Bft) 100,00 %
22.04.2018 22:09 17,8 C 16,1 C 59 % 1012,4 hPa 0,0 l/m 6,8 km/h (2 Bft) S-SW 205 0 min 0,000 mm 0,0 UV-I 0 W/m 9,7 C 17,6 C 9,7 km/h (2 Bft) 100,00 %
22.04.2018 22:10 17,8 C 16,1 C 59 % 1012,5 hPa 0,0 l/m 5,6 km/h (1 Bft) S-SW 207 0 min 0,000 mm 0,0 UV-I 0 W/m 9,7 C 17,8 C 6,4 km/h (2 Bft) 100,00 %
22.04.2018 22:11 17,7 C 16,1 C 59 % 1012,5 hPa 0,0 l/m 5,8 km/h (2 Bft) S-SW 207 0 min 0,000 mm 0,0 UV-I 0 W/m 9,6 C 17,7 C 6,4 km/h (2 Bft) 100,00 %
22.04.2018 22:12 17,7 C 16,1 C 59 % 1012,5 hPa 0,0 l/m 5,8 km/h (2 Bft) S-SW 207 0 min 0,000 mm 0,0 UV-I 0 W/m 9,6 C 17,7 C 8,0 km/h (2 Bft) 100,00 %
22.04.2018 22:13 17,7 C 16,1 C 59 % 1012,5 hPa 0,0 l/m 6,2 km/h (2 Bft) S-SW 199 0 min 0,000 mm 0,0 UV-I 0 W/m 9,6 C 17,7 C 8,0 km/h (2 Bft) 99,15 %
22.04.2018 22:14 17,8 C 16,1 C 59 % 1012,5 hPa 0,0 l/m 6,5 km/h (2 Bft) S-SW 200 0 min 0,000 mm 0,0 UV-I 0 W/m 9,7 C 17,8 C 8,0 km/h (2 Bft) 100,00 %
22.04.2018 22:15 17,8 C 16,1 C 59 % 1012,5 hPa 0,0 l/m 5,1 km/h (1 Bft) S-SW 200 0 min 0,000 mm 0,0 UV-I 0 W/m 9,7 C 17,8 C 6,4 km/h (2 Bft) 100,00 %
22.04.2018 22:16 17,8 C 16,1 C 59 % 1012,5 hPa 0,0 l/m 5,4 km/h (1 Bft) S-SW 200 0 min 0,000 mm 0,0 UV-I 0 W/m 9,7 C 17,8 C 6,4 km/h (2 Bft) 96,30 %
22.04.2018 22:17 17,8 C 16,1 C 59 % 1012,5 hPa 0,0 l/m 5,8 km/h (2 Bft) S-SW 200 0 min 0,000 mm 0,0 UV-I 0 W/m 9,7 C 17,8 C 8,0 km/h (2 Bft) 100,00 %
22.04.2018 22:18 17,7 C 16,1 C 60 % 1012,5 hPa 0,0 l/m 5,6 km/h (1 Bft) S-SW 205 0 min 0,000 mm 0,0 UV-I 0 W/m 9,8 C 17,7 C 6,4 km/h (2 Bft) 100,00 %
22.04.2018 22:19 17,7 C 16,1 C 60 % 1012,5 hPa 0,0 l/m 6,0 km/h (2 Bft) S-SW 205 0 min 0,000 mm 0,0 UV-I 0 W/m 9,8 C 17,7 C 6,4 km/h (2 Bft) 100,00 %
22.04.2018 22:20 17,5 C 16,1 C 61 % 1012,5 hPa 0,0 l/m 6,6 km/h (2 Bft) S-SW 198 0 min 0,000 mm 0,0 UV-I 0 W/m 9,9 C 17,4 C 8,0 km/h (2 Bft) 100,00 %
22.04.2018 22:21 17,4 C 16,1 C 61 % 1012,4 hPa 0,0 l/m 6,3 km/h (2 Bft) S-SW 198 0 min 0,000 mm 0,0 UV-I 0 W/m 9,8 C 17,4 C 6,4 km/h (2 Bft) 100,00 %
22.04.2018 22:22 17,3 C 16,1 C 61 % 1012,5 hPa 0,0 l/m 6,3 km/h (2 Bft) S-SW 206 0 min 0,000 mm 0,0 UV-I 0 W/m 9,7 C 17,3 C 6,4 km/h (2 Bft) 100,00 %
22.04.2018 22:23 17,3 C 16,1 C 61 % 1012,5 hPa 0,0 l/m 5,9 km/h (2 Bft) S-SW 199 0 min 0,000 mm 0,0 UV-I 0 W/m 9,7 C 17,3 C 6,4 km/h (2 Bft) 100,00 %
22.04.2018 22:24 17,3 C 16,1 C 61 % 1012,5 hPa 0,0 l/m 5,6 km/h (1 Bft) S-SW 194 0 min 0,000 mm 0,0 UV-I 0 W/m 9,7 C 17,3 C 6,4 km/h (2 Bft) 100,00 %
22.04.2018 22:25 17,2 C 16,1 C 61 % 1012,5 hPa 0,0 l/m 6,0 km/h (2 Bft) S-SW 194 0 min 0,000 mm 0,0 UV-I 0 W/m 9,6 C 17,2 C 8,0 km/h (2 Bft) 100,00 %
22.04.2018 22:26 17,3 C 16,1 C 61 % 1012,5 hPa 0,0 l/m 6,6 km/h (2 Bft) S-SW 202 0 min 0,000 mm 0,0 UV-I 0 W/m 9,7 C 17,2 C 8,0 km/h (2 Bft) 96,15 %
22.04.2018 22:27 17,3 C 16,1 C 62 % 1012,5 hPa 0,0 l/m 6,3 km/h (2 Bft) S-SW 192 0 min 0,000 mm 0,0 UV-I 0 W/m 9,9 C 17,3 C 8,0 km/h (2 Bft) 100,00 %
22.04.2018 22:28 17,3 C 16,1 C 61 % 1012,5 hPa 0,0 l/m 6,6 km/h (2 Bft) S 182 0 min 0,000 mm 0,0 UV-I 0 W/m 9,7 C 17,2 C 8,0 km/h (2 Bft) 100,00 %
22.04.2018 22:29 17,4 C 16,1 C 61 % 1012,5 hPa 0,0 l/m 6,4 km/h (2 Bft) S-SW 193 0 min 0,000 mm 0,0 UV-I 0 W/m 9,8 C 17,4 C 8,0 km/h (2 Bft) 100,00 %
22.04.2018 22:30 17,5 C 16,1 C 60 % 1012,5 hPa 0,0 l/m 6,4 km/h (2 Bft) S-SW 196 0 min 0,000 mm 0,0 UV-I 0 W/m 9,6 C 17,5 C 8,0 km/h (2 Bft) 92,31 %
22.04.2018 22:31 17,6 C 16,1 C 60 % 1012,5 hPa 0,0 l/m 5,9 km/h (2 Bft) S-SW 196 0 min 0,000 mm 0,0 UV-I 0 W/m 9,7 C 17,6 C 8,0 km/h (2 Bft) 100,00 %
22.04.2018 22:33 17,7 C 16,1 C 60 % 1012,5 hPa 0,0 l/m 5,7 km/h (1 Bft) S-SW 196 0 min 0,000 mm 0,0 UV-I 0 W/m 9,8 C 17,7 C 8,0 km/h (2 Bft) 100,00 %
22.04.2018 22:34 17,7 C 16,1 C 60 % 1012,5 hPa 0,0 l/m 6,2 km/h (2 Bft) S-SW 193 0 min 0,000 mm 0,0 UV-I 0 W/m 9,8 C 17,7 C 8,0 km/h (2 Bft) 100,00 %
22.04.2018 22:35 17,6 C 16,1 C 60 % 1012,5 hPa 0,0 l/m 4,9 km/h (1 Bft) S-SW 193 0 min 0,000 mm 0,0 UV-I 0 W/m 9,7 C 17,6 C 6,4 km/h (2 Bft) 100,00 %
22.04.2018 22:36 17,6 C 16,1 C 60 % 1012,5 hPa 0,0 l/m 4,7 km/h (1 Bft) S-SW 193 0 min 0,000 mm 0,0 UV-I 0 W/m 9,7 C 17,6 C 6,4 km/h (2 Bft) 100,00 %
22.04.2018 22:37 17,6 C 16,1 C 61 % 1012,5 hPa 0,0 l/m 4,2 km/h (1 Bft) S-SW 193 0 min 0,000 mm 0,0 UV-I 0 W/m 10,0 C 17,6 C 6,4 km/h (2 Bft) 96,15 %
22.04.2018 22:38 17,5 C 16,1 C 60 % 1012,5 hPa 0,0 l/m 4,9 km/h (1 Bft) S-SW 193 0 min 0,000 mm 0,0 UV-I 0 W/m 9,6 C 17,5 C 6,4 km/h (2 Bft) 100,00 %
22.04.2018 22:39 17,4 C 16,1 C 61 % 1012,5 hPa 0,0 l/m 3,6 km/h (1 Bft) S-SW 194 0 min 0,000 mm 0,0 UV-I 0 W/m 9,8 C 17,4 C 4,8 km/h (1 Bft) 100,00 %
22.04.2018 22:40 17,4 C 16,1 C 60 % 1012,5 hPa 0,0 l/m 4,1 km/h (1 Bft) S-SW 200 0 min 0,000 mm 0,0 UV-I 0 W/m 9,6 C 17,4 C 6,4 km/h (2 Bft) 100,00 %
22.04.2018 22:41 17,4 C 16,1 C 60 % 1012,5 hPa 0,0 l/m 4,9 km/h (1 Bft) S-SW 195 0 min 0,000 mm 0,0 UV-I 0 W/m 9,6 C 17,4 C 6,4 km/h (2 Bft) 95,83 %
22.04.2018 22:42 17,4 C 16,1 C 60 % 1012,5 hPa 0,0 l/m 4,2 km/h (1 Bft) S-SW 196 0 min 0,000 mm 0,0 UV-I 0 W/m 9,6 C 17,4 C 6,4 km/h (2 Bft) 100,00 %
22.04.2018 22:43 17,4 C 16,1 C 60 % 1012,5 hPa 0,0 l/m 4,3 km/h (1 Bft) S-SW 196 0 min 0,000 mm 0,0 UV-I 0 W/m 9,6 C 17,4 C 6,4 km/h (2 Bft) 95,65 %
22.04.2018 22:44 17,4 C 16,1 C 60 % 1012,5 hPa 0,0 l/m 5,1 km/h (1 Bft) S-SW 196 0 min 0,000 mm 0,0 UV-I 0 W/m 9,6 C 17,4 C 6,4 km/h (2 Bft) 96,30 %
22.04.2018 22:45 17,4 C 16,1 C 60 % 1012,5 hPa 0,0 l/m 5,1 km/h (1 Bft) S-SW 196 0 min 0,000 mm 0,0 UV-I 0 W/m 9,6 C 17,4 C 6,4 km/h (2 Bft) 100,00 %
22.04.2018 22:46 17,4 C 16,1 C 60 % 1012,5 hPa 0,0 l/m 5,0 km/h (1 Bft) S-SW 196 0 min 0,000 mm 0,0 UV-I 0 W/m 9,6 C 17,4 C 6,4 km/h (2 Bft) 91,67 %
22.04.2018 22:47 17,5 C 16,1 C 60 % 1012,5 hPa 0,0 l/m 4,9 km/h (1 Bft) S-SW 213 0 min 0,000 mm 0,0 UV-I 0 W/m 9,6 C 17,5 C 6,4 km/h (2 Bft) 100,00 %
22.04.2018 22:48 17,5 C 16,1 C 60 % 1012,5 hPa 0,0 l/m 5,4 km/h (1 Bft) S-SW 213 0 min 0,000 mm 0,0 UV-I 0 W/m 9,6 C 17,5 C 6,4 km/h (2 Bft) 96,30 %
22.04.2018 22:49 17,4 C 16,1 C 61 % 1012,5 hPa 0,0 l/m 5,4 km/h (1 Bft) S-SW 213 0 min 0,000 mm 0,0 UV-I 0 W/m 9,8 C 17,4 C 6,4 km/h (2 Bft) 100,00 %
22.04.2018 22:50 17,4 C 16,1 C 61 % 1012,5 hPa 0,0 l/m 4,7 km/h (1 Bft) S-SW 213 0 min 0,000 mm 0,0 UV-I 0 W/m 9,8 C 17,4 C 4,8 km/h (1 Bft) 96,30 %
22.04.2018 22:51 17,3 C 16,1 C 61 % 1012,6 hPa 0,0 l/m 4,8 km/h (1 Bft) S-SW 213 0 min 0,000 mm 0,0 UV-I 0 W/m 9,7 C 17,3 C 6,4 km/h (2 Bft) 96,15 %
22.04.2018 22:52 17,3 C 16,1 C 61 % 1012,5 hPa 0,0 l/m 4,9 km/h (1 Bft) SW 220 0 min 0,000 mm 0,0 UV-I 0 W/m 9,7 C 17,3 C 6,4 km/h (2 Bft) 100,00 %
22.04.2018 22:53 17,2 C 16,1 C 61 % 1012,6 hPa 0,0 l/m 5,2 km/h (1 Bft) SW 220 0 min 0,000 mm 0,0 UV-I 0 W/m 9,6 C 17,2 C 6,4 km/h (2 Bft) 92,59 %
22.04.2018 22:54 17,1 C 16,1 C 62 % 1012,6 hPa 0,0 l/m 5,7 km/h (1 Bft) SW 225 0 min 0,000 mm 0,0 UV-I 0 W/m 9,8 C 17,1 C 6,4 km/h (2 Bft) 100,00 %
22.04.2018 22:55 16,9 C 16,1 C 63 % 1012,5 hPa 0,0 l/m 6,5 km/h (2 Bft) SW 236 0 min 0,000 mm 0,0 UV-I 0 W/m 9,8 C 16,9 C 8,0 km/h (2 Bft) 96,55 %
22.04.2018 22:56 16,8 C 16,1 C 63 % 1012,6 hPa 0,0 l/m 6,3 km/h (2 Bft) SW 228 0 min 0,000 mm 0,0 UV-I 0 W/m 9,7 C 16,8 C 8,0 km/h (2 Bft) 93,33 %
22.04.2018 22:57 16,8 C 16,1 C 64 % 1012,6 hPa 0,0 l/m 7,5 km/h (2 Bft) SW 221 0 min 0,000 mm 0,0 UV-I 0 W/m 10,0 C 16,2 C 9,7 km/h (2 Bft) 96,30 %
22.04.2018 22:58 16,7 C 16,1 C 64 % 1012,6 hPa 0,0 l/m 7,6 km/h (2 Bft) SW 222 0 min 0,000 mm 0,0 UV-I 0 W/m 9,9 C 16,1 C 9,7 km/h (2 Bft) 100,00 %
22.04.2018 22:59 16,7 C 16,1 C 64 % 1012,6 hPa 0,0 l/m 7,7 km/h (2 Bft) S-SW 213 0 min 0,000 mm 0,0 UV-I 0 W/m 9,9 C 16,0 C 9,7 km/h (2 Bft) 95,83 %
22.04.2018 23:00 16,7 C 16,1 C 64 % 1012,6 hPa 0,0 l/m 7,5 km/h (2 Bft) SW 214 0 min 0,000 mm 0,0 UV-I 0 W/m 9,9 C 16,1 C 9,7 km/h (2 Bft) 100,00 %
22.04.2018 23:02 16,7 C 16,1 C 64 % 1012,5 hPa 0,0 l/m 7,0 km/h (2 Bft) S-SW 212 0 min 0,051 mm 0,0 UV-I 0 W/m 9,9 C 16,4 C 8,0 km/h (2 Bft) 97,37 %
22.04.2018 23:03 16,7 C 16,1 C 64 % 1012,5 hPa 0,0 l/m 6,4 km/h (2 Bft) S-SW 204 0 min 0,000 mm 0,0 UV-I 0 W/m 9,9 C 16,7 C 8,0 km/h (2 Bft) 96,30 %
22.04.2018 23:04 16,6 C 16,1 C 64 % 1012,6 hPa 0,0 l/m 8,1 km/h (2 Bft) S-SW 204 0 min 0,000 mm 0,0 UV-I 0 W/m 9,8 C 15,7 C 9,7 km/h (2 Bft) 91,30 %
22.04.2018 23:05 16,7 C 16,1 C 64 % 1012,5 hPa 0,0 l/m 8,8 km/h (2 Bft) S-SW 212 0 min 0,000 mm 0,0 UV-I 0 W/m 9,9 C 15,5 C 11,3 km/h (2 Bft) 100,00 %
22.04.2018 23:06 16,7 C 16,1 C 64 % 1012,6 hPa 0,0 l/m 7,6 km/h (2 Bft) S-SW 204 0 min 0,000 mm 0,0 UV-I 0 W/m 9,9 C 16,1 C 9,7 km/h (2 Bft) 92,31 %
22.04.2018 23:08 16,8 C 16,1 C 63 % 1012,5 hPa 0,0 l/m 6,8 km/h (2 Bft) S-SW 202 0 min 0,000 mm 0,0 UV-I 0 W/m 9,7 C 16,6 C 8,0 km/h (2 Bft) 98,00 %
22.04.2018 23:09 16,8 C 16,1 C 63 % 1012,5 hPa 0,0 l/m 7,1 km/h (2 Bft) SW 219 0 min 0,000 mm 0,0 UV-I 0 W/m 9,7 C 16,4 C 8,0 km/h (2 Bft) 100,00 %
22.04.2018 23:10 16,9 C 16,1 C 62 % 1012,5 hPa 0,0 l/m 7,3 km/h (2 Bft) S-SW 205 0 min 0,000 mm 0,0 UV-I 0 W/m 9,6 C 16,4 C 9,7 km/h (2 Bft) 95,65 %
22.04.2018 23:11 17,1 C 16,1 C 62 % 1012,5 hPa 0,0 l/m 8,5 km/h (2 Bft) S-SW 205 0 min 0,000 mm 0,0 UV-I 0 W/m 9,8 C 16,1 C 11,3 km/h (2 Bft) 95,83 %
22.04.2018 23:13 17,2 C 16,1 C 62 % 1012,5 hPa 0,0 l/m 8,1 km/h (2 Bft) S-SW 208 0 min 0,000 mm 0,0 UV-I 0 W/m 9,9 C 16,4 C 11,3 km/h (2 Bft) 98,31 %
22.04.2018 23:14 17,2 C 16,1 C 61 % 1012,5 hPa 0,0 l/m 8,4 km/h (2 Bft) S-SW 198 0 min 0,000 mm 0,0 UV-I 0 W/m 9,6 C 16,2 C 11,3 km/h (2 Bft) 100,00 %
22.04.2018 23:15 17,2 C 16,1 C 62 % 1012,5 hPa 0,0 l/m 8,1 km/h (2 Bft) S-SW 197 0 min 0,000 mm 0,0 UV-I 0 W/m 9,9 C 16,4 C 11,3 km/h (2 Bft) 95,65 %
22.04.2018 23:16 17,3 C 16,1 C 61 % 1012,5 hPa 0,0 l/m 6,9 km/h (2 Bft) SW 218 0 min 0,000 mm 0,0 UV-I 0 W/m 9,7 C 17,1 C 8,0 km/h (2 Bft) 100,00 %
22.04.2018 23:17 17,3 C 16,1 C 61 % 1012,5 hPa 0,0 l/m 6,3 km/h (2 Bft) S-SW 210 0 min 0,000 mm 0,0 UV-I 0 W/m 9,7 C 17,3 C 8,0 km/h (2 Bft) 95,65 %
22.04.2018 23:18 17,3 C 16,1 C 61 % 1012,5 hPa 0,0 l/m 8,2 km/h (2 Bft) SW 229 0 min 0,000 mm 0,0 UV-I 0 W/m 9,7 C 16,4 C 9,7 km/h (2 Bft) 100,00 %
22.04.2018 23:19 17,3 C 16,1 C 61 % 1012,5 hPa 0,0 l/m 7,8 km/h (2 Bft) S-SW 205 0 min 0,000 mm 0,0 UV-I 0 W/m 9,7 C 16,6 C 9,7 km/h (2 Bft) 100,00 %
22.04.2018 23:20 17,3 C 16,1 C 61 % 1012,5 hPa 0,0 l/m 7,9 km/h (2 Bft) S-SW 209 0 min 0,000 mm 0,0 UV-I 0 W/m 9,7 C 16,6 C 9,7 km/h (2 Bft) 100,00 %
22.04.2018 23:21 17,3 C 16,1 C 61 % 1012,5 hPa 0,0 l/m 8,2 km/h (2 Bft) SW 214 0 min 0,000 mm 0,0 UV-I 0 W/m 9,7 C 16,4 C 9,7 km/h (2 Bft) 96,55 %
22.04.2018 23:22 17,3 C 16,1 C 61 % 1012,4 hPa 0,0 l/m 9,5 km/h (2 Bft) S-SW 207 0 min 0,000 mm 0,0 UV-I 0 W/m 9,7 C 15,9 C 11,3 km/h (2 Bft) 95,83 %
22.04.2018 23:23 17,4 C 16,1 C 61 % 1012,5 hPa 0,0 l/m 9,1 km/h (2 Bft) S-SW 203 0 min 0,000 mm 0,0 UV-I 0 W/m 9,8 C 16,1 C 11,3 km/h (2 Bft) 98,25 %
22.04.2018 23:24 17,3 C 16,1 C 61 % 1012,5 hPa 0,0 l/m 8,2 km/h (2 Bft) S-SW 201 0 min 0,000 mm 0,0 UV-I 0 W/m 9,7 C 16,4 C 11,3 km/h (2 Bft) 100,00 %
22.04.2018 23:25 17,3 C 16,1 C 61 % 1012,5 hPa 0,0 l/m 7,9 km/h (2 Bft) S-SW 202 0 min 0,000 mm 0,0 UV-I 0 W/m 9,7 C 16,6 C 9,7 km/h (2 Bft) 100,00 %
22.04.2018 23:26 17,3 C 16,1 C 61 % 1012,5 hPa 0,0 l/m 8,6 km/h (2 Bft) S-SW 203 0 min 0,000 mm 0,0 UV-I 0 W/m 9,7 C 16,2 C 12,9 km/h (3 Bft) 100,00 %
22.04.2018 23:27 17,3 C 16,1 C 61 % 1012,5 hPa 0,0 l/m 7,1 km/h (2 Bft) S-SW 211 0 min 0,000 mm 0,0 UV-I 0 W/m 9,7 C 17,0 C 9,7 km/h (2 Bft) 100,00 %
22.04.2018 23:28 17,2 C 16,1 C 61 % 1012,5 hPa 0,0 l/m 6,5 km/h (2 Bft) SW 217 0 min 0,000 mm 0,0 UV-I 0 W/m 9,6 C 17,2 C 8,0 km/h (2 Bft) 100,00 %
22.04.2018 23:29 17,2 C 16,1 C 61 % 1012,5 hPa 0,0 l/m 5,8 km/h (2 Bft) S-SW 211 0 min 0,000 mm 0,0 UV-I 0 W/m 9,6 C 17,2 C 6,4 km/h (2 Bft) 100,00 %
22.04.2018 23:30 17,1 C 16,1 C 61 % 1012,5 hPa 0,0 l/m 6,4 km/h (2 Bft) SW 221 0 min 0,000 mm 0,0 UV-I 0 W/m 9,5 C 17,1 C 9,7 km/h (2 Bft) 100,00 %
22.04.2018 23:31 17,1 C 16,1 C 62 % 1012,5 hPa 0,0 l/m 5,9 km/h (2 Bft) S-SW 206 0 min 0,000 mm 0,0 UV-I 0 W/m 9,8 C 17,1 C 8,0 km/h (2 Bft) 92,31 %
22.04.2018 23:32 17,0 C 16,1 C 62 % 1012,5 hPa 0,0 l/m 5,7 km/h (1 Bft) SW 225 0 min 0,000 mm 0,0 UV-I 0 W/m 9,7 C 17,0 C 6,4 km/h (2 Bft) 100,00 %
22.04.2018 23:33 16,9 C 16,1 C 62 % 1012,5 hPa 0,0 l/m 4,7 km/h (1 Bft) S-SW 213 0 min 0,000 mm 0,0 UV-I 0 W/m 9,6 C 16,9 C 6,4 km/h (2 Bft) 100,00 %
22.04.2018 23:34 16,8 C 16,1 C 63 % 1012,5 hPa 0,0 l/m 4,4 km/h (1 Bft) S-SW 213 0 min 0,000 mm 0,0 UV-I 0 W/m 9,7 C 16,8 C 6,4 km/h (2 Bft) 100,00 %
22.04.2018 23:35 16,7 C 16,1 C 63 % 1012,5 hPa 0,0 l/m 5,2 km/h (1 Bft) SW 226 0 min 0,000 mm 0,0 UV-I 0 W/m 9,6 C 16,7 C 6,4 km/h (2 Bft) 100,00 %
22.04.2018 23:36 16,6 C 16,1 C 63 % 1012,5 hPa 0,0 l/m 4,6 km/h (1 Bft) SW 235 0 min 0,000 mm 0,0 UV-I 0 W/m 9,5 C 16,6 C 6,4 km/h (2 Bft) 100,00 %
22.04.2018 23:38 16,4 C 16,1 C 64 % 1012,5 hPa 0,0 l/m 6,2 km/h (2 Bft) S-SW 212 0 min 0,000 mm 0,0 UV-I 0 W/m 9,6 C 16,4 C 9,7 km/h (2 Bft) 100,00 %
22.04.2018 23:39 16,4 C 16,1 C 64 % 1012,5 hPa 0,0 l/m 5,1 km/h (1 Bft) SW 233 0 min 0,000 mm 0,0 UV-I 0 W/m 9,6 C 16,4 C 6,4 km/h (2 Bft) 100,00 %
22.04.2018 23:40 16,4 C 16,1 C 64 % 1012,5 hPa 0,0 l/m 4,8 km/h (1 Bft) S-SW 205 0 min 0,000 mm 0,0 UV-I 0 W/m 9,6 C 16,4 C 6,4 km/h (2 Bft) 100,00 %
22.04.2018 23:41 16,3 C 16,1 C 64 % 1012,5 hPa 0,0 l/m 4,9 km/h (1 Bft) SW 214 0 min 0,000 mm 0,0 UV-I 0 W/m 9,5 C 16,3 C 6,4 km/h (2 Bft) 100,00 %
22.04.2018 23:42 16,3 C 16,1 C 65 % 1012,5 hPa 0,0 l/m 5,7 km/h (1 Bft) S-SW 209 0 min 0,000 mm 0,0 UV-I 0 W/m 9,7 C 16,3 C 8,0 km/h (2 Bft) 100,00 %
22.04.2018 23:43 16,3 C 16,1 C 65 % 1012,5 hPa 0,0 l/m 5,2 km/h (1 Bft) SW 222 0 min 0,000 mm 0,0 UV-I 0 W/m 9,7 C 16,3 C 8,0 km/h (2 Bft) 100,00 %
22.04.2018 23:44 16,3 C 16,1 C 65 % 1012,5 hPa 0,0 l/m 4,7 km/h (1 Bft) SW 215 0 min 0,000 mm 0,0 UV-I 0 W/m 9,7 C 16,3 C 6,4 km/h (2 Bft) 90,91 %
22.04.2018 23:45 16,2 C 16,1 C 65 % 1012,5 hPa 0,0 l/m 5,1 km/h (1 Bft) SW 217 0 min 0,000 mm 0,0 UV-I 0 W/m 9,6 C 16,2 C 6,4 km/h (2 Bft) 100,00 %
22.04.2018 23:46 16,2 C 16,1 C 65 % 1012,5 hPa 0,0 l/m 4,4 km/h (1 Bft) S-SW 212 0 min 0,000 mm 0,0 UV-I 0 W/m 9,6 C 16,2 C 6,4 km/h (2 Bft) 100,00 %
22.04.2018 23:47 16,3 C 16,1 C 65 % 1012,5 hPa 0,0 l/m 4,5 km/h (1 Bft) SW 215 0 min 0,000 mm 0,0 UV-I 0 W/m 9,7 C 16,3 C 6,4 km/h (2 Bft) 100,00 %
22.04.2018 23:48 16,2 C 16,1 C 65 % 1012,5 hPa 0,0 l/m 4,6 km/h (1 Bft) SW 223 0 min 0,000 mm 0,0 UV-I 0 W/m 9,6 C 16,2 C 6,4 km/h (2 Bft) 100,00 %
22.04.2018 23:49 16,2 C 16,1 C 65 % 1012,5 hPa 0,0 l/m 4,5 km/h (1 Bft) SW 223 0 min 0,000 mm 0,0 UV-I 0 W/m 9,6 C 16,2 C 6,4 km/h (2 Bft) 100,00 %
22.04.2018 23:50 16,2 C 16,1 C 65 % 1012,5 hPa 0,0 l/m 6,3 km/h (2 Bft) SW 225 0 min 0,000 mm 0,0 UV-I 0 W/m 9,6 C 16,2 C 8,0 km/h (2 Bft) 100,00 %
22.04.2018 23:51 16,2 C 16,1 C 65 % 1012,5 hPa 0,0 l/m 5,8 km/h (2 Bft) SW 223 0 min 0,000 mm 0,0 UV-I 0 W/m 9,6 C 16,2 C 8,0 km/h (2 Bft) 100,00 %
22.04.2018 23:52 16,2 C 16,1 C 65 % 1012,5 hPa 0,0 l/m 6,5 km/h (2 Bft) SW 234 0 min 0,000 mm 0,0 UV-I 0 W/m 9,6 C 16,2 C 9,7 km/h (2 Bft) 96,30 %
22.04.2018 23:53 16,2 C 16,1 C 65 % 1012,5 hPa 0,0 l/m 5,3 km/h (1 Bft) SW 221 0 min 0,000 mm 0,0 UV-I 0 W/m 9,6 C 16,2 C 8,0 km/h (2 Bft) 100,00 %
22.04.2018 23:54 16,2 C 16,1 C 65 % 1012,5 hPa 0,0 l/m 5,0 km/h (1 Bft) SW 225 0 min 0,000 mm 0,0 UV-I 0 W/m 9,6 C 16,2 C 8,0 km/h (2 Bft) 100,00 %
22.04.2018 23:55 16,2 C 16,1 C 65 % 1012,5 hPa 0,0 l/m 5,0 km/h (1 Bft) SW 224 0 min 0,000 mm 0,0 UV-I 0 W/m 9,6 C 16,2 C 6,4 km/h (2 Bft) 100,00 %
22.04.2018 23:56 16,2 C 16,1 C 65 % 1012,5 hPa 0,0 l/m 3,7 km/h (1 Bft) SW 225 0 min 0,000 mm 0,0 UV-I 0 W/m 9,6 C 16,2 C 4,8 km/h (1 Bft) 100,00 %
22.04.2018 23:57 16,2 C 16,1 C 65 % 1012,5 hPa 0,0 l/m 4,7 km/h (1 Bft) SW 225 0 min 0,000 mm 0,0 UV-I 0 W/m 9,6 C 16,2 C 6,4 km/h (2 Bft) 100,00 %
22.04.2018 23:58 16,2 C 16,1 C 65 % 1012,5 hPa 0,0 l/m 4,3 km/h (1 Bft) SW 225 0 min 0,000 mm 0,0 UV-I 0 W/m 9,6 C 16,2 C 6,4 km/h (2 Bft) 100,00 %
22.04.2018 23:59 16,2 C 16,1 C 65 % 1012,6 hPa 0,0 l/m 5,8 km/h (2 Bft) SW 227 0 min 0,000 mm 0,0 UV-I 0 W/m 9,6 C 16,2 C 8,0 km/h (2 Bft) 100,00 %
_ Min-Zeit 06:33 05:44 17:24 18:59 - 07:30 - - - - - - 18:03 06:33 07:30 12:46
Minimum _ 10,6 C 13,3 C 32 % 1011,3 hPa - 0,0 km/h (0 Bft) - - - - - - 7,8 C 10,6 C 0,0 km/h (0 Bft) 81,82 %
_ Max-Zeit 16:02 15:43 06:53 00:08 00:00 15:00 - - 14:13 14:01 13:03 13:04 13:10 16:02 00:10 00:04
Maximum _ 26,8 C 16,1 C 87 % 1015,6 hPa 0,0 l/m 13,4 km/h
N (3 Bft)
- - 2 min 0,508 mm 3,5 UV-I 773 W/m 14,6 C 26,8 C 17,7 km/h
N-NO (3 Bft)
100,00 %
Durchschnitt _ 18,9 C 14,8 C 60 % 1013,9 hPa #0,0 l/m 4,4 km/h (1 Bft) S-SW - #12:50 h #4,445 mm 2,1 UV-I 426 W/m 10,3 C 18,8 C 6,2 km/h (2 Bft) 97,82 %